<?xml version="1.0" encoding="UTF-8" standalone="no" ?>
<gpx xmlns="http://www.topografix.com/GPX/1/1" xmlns:xsi="http://www.w3.org/2001/XMLSchema-instance" xsi:schemaLocation="http://www.topografix.com/GPX/1/1 http://www.topografix.com/GPX/1/1/gpx.xsd" version="1.1" creator="VisuGPX - https://www.visugpx.com">
  <metadata>
    <name>MONTSALVATGE 2019</name>
    <desc><![CDATA[Montsalvatge 2019-----------------------]]></desc>
  </metadata>
  <trk>
    <name><![CDATA[Move]]></name>
    <trkseg>
      <trkpt lat="41.60995" lon="1.84037">
        <ele>168.80000305176</ele>
        <time>2019-01-12T06:09:45.000Z</time>
      </trkpt>
      <trkpt lat="41.60998" lon="1.84043">
        <ele>172</ele>
        <time>2019-01-12T06:09:52.000Z</time>
      </trkpt>
      <trkpt lat="41.61002" lon="1.84054">
        <ele>174</ele>
        <time>2019-01-12T06:09:59.011Z</time>
      </trkpt>
      <trkpt lat="41.60999" lon="1.84066">
        <ele>174</ele>
        <time>2019-01-12T06:10:08.001Z</time>
      </trkpt>
      <trkpt lat="41.60994" lon="1.84076">
        <ele>174</ele>
        <time>2019-01-12T06:10:18.001Z</time>
      </trkpt>
      <trkpt lat="41.60994" lon="1.84088">
        <ele>171.7550016</ele>
        <time>2019-01-12T06:10:29.010Z</time>
      </trkpt>
      <trkpt lat="41.60995" lon="1.84102">
        <ele>169</ele>
        <time>2019-01-12T06:10:37.000Z</time>
      </trkpt>
      <trkpt lat="41.61" lon="1.84113">
        <ele>169.03241886179</ele>
        <time>2019-01-12T06:10:44.999Z</time>
      </trkpt>
      <trkpt lat="41.61005" lon="1.84124">
        <ele>169.94786601626</ele>
        <time>2019-01-12T06:10:54.007Z</time>
      </trkpt>
      <trkpt lat="41.61006" lon="1.84137">
        <ele>171.496</ele>
        <time>2019-01-12T06:11:02.000Z</time>
      </trkpt>
      <trkpt lat="41.61008" lon="1.84149">
        <ele>172</ele>
        <time>2019-01-12T06:11:11.000Z</time>
      </trkpt>
      <trkpt lat="41.61011" lon="1.84161">
        <ele>172.54247506219</ele>
        <time>2019-01-12T06:11:19.999Z</time>
      </trkpt>
      <trkpt lat="41.61016" lon="1.84172">
        <ele>173</ele>
        <time>2019-01-12T06:11:27.002Z</time>
      </trkpt>
      <trkpt lat="41.61022" lon="1.84183">
        <ele>173</ele>
        <time>2019-01-12T06:11:32.000Z</time>
      </trkpt>
      <trkpt lat="41.61027" lon="1.84195">
        <ele>173.23938223938</ele>
        <time>2019-01-12T06:11:37.000Z</time>
      </trkpt>
      <trkpt lat="41.61032" lon="1.84206">
        <ele>173.62548262548</ele>
        <time>2019-01-12T06:11:41.000Z</time>
      </trkpt>
      <trkpt lat="41.61038" lon="1.84218">
        <ele>174</ele>
        <time>2019-01-12T06:11:44.999Z</time>
      </trkpt>
      <trkpt lat="41.61044" lon="1.84228">
        <ele>174</ele>
        <time>2019-01-12T06:11:49.014Z</time>
      </trkpt>
      <trkpt lat="41.61049" lon="1.84239">
        <ele>174</ele>
        <time>2019-01-12T06:11:53.000Z</time>
      </trkpt>
      <trkpt lat="41.61053" lon="1.8425">
        <ele>174</ele>
        <time>2019-01-12T06:11:58.000Z</time>
      </trkpt>
      <trkpt lat="41.61059" lon="1.84261">
        <ele>174</ele>
        <time>2019-01-12T06:12:02.999Z</time>
      </trkpt>
      <trkpt lat="41.61064" lon="1.84272">
        <ele>174.696</ele>
        <time>2019-01-12T06:12:08.000Z</time>
      </trkpt>
      <trkpt lat="41.6107" lon="1.84284">
        <ele>175.89779968</ele>
        <time>2019-01-12T06:12:14.009Z</time>
      </trkpt>
      <trkpt lat="41.61072" lon="1.84296">
        <ele>176.88842606894</ele>
        <time>2019-01-12T06:12:19.011Z</time>
      </trkpt>
      <trkpt lat="41.61073" lon="1.84308">
        <ele>178.2768450643</ele>
        <time>2019-01-12T06:12:25.999Z</time>
      </trkpt>
      <trkpt lat="41.61073" lon="1.84322">
        <ele>180.09540096</ele>
        <time>2019-01-12T06:12:34.997Z</time>
      </trkpt>
      <trkpt lat="41.61075" lon="1.84335">
        <ele>181.29619968</ele>
        <time>2019-01-12T06:12:41.001Z</time>
      </trkpt>
      <trkpt lat="41.61083" lon="1.84343">
        <ele>182.444</ele>
        <time>2019-01-12T06:12:46.000Z</time>
      </trkpt>
      <trkpt lat="41.61092" lon="1.84346">
        <ele>183.64370048</ele>
        <time>2019-01-12T06:12:49.999Z</time>
      </trkpt>
      <trkpt lat="41.61104" lon="1.84344">
        <ele>185</ele>
        <time>2019-01-12T06:12:54.999Z</time>
      </trkpt>
      <trkpt lat="41.61113" lon="1.84334">
        <ele>185</ele>
        <time>2019-01-12T06:12:59.010Z</time>
      </trkpt>
      <trkpt lat="41.61118" lon="1.84322">
        <ele>185.2870998139</ele>
        <time>2019-01-12T06:13:06.000Z</time>
      </trkpt>
      <trkpt lat="41.61118" lon="1.84307">
        <ele>186.84092994268</ele>
        <time>2019-01-12T06:13:14.010Z</time>
      </trkpt>
      <trkpt lat="41.61121" lon="1.84296">
        <ele>187.862744062</ele>
        <time>2019-01-12T06:13:19.010Z</time>
      </trkpt>
      <trkpt lat="41.61125" lon="1.84284">
        <ele>189.75820032</ele>
        <time>2019-01-12T06:13:28.311Z</time>
      </trkpt>
      <trkpt lat="41.6113" lon="1.84273">
        <ele>191.29326682407</ele>
        <time>2019-01-12T06:13:36.001Z</time>
      </trkpt>
      <trkpt lat="41.61132" lon="1.84261">
        <ele>192.68138412269</ele>
        <time>2019-01-12T06:13:43.011Z</time>
      </trkpt>
      <trkpt lat="41.61135" lon="1.84248">
        <ele>196.35751654189</ele>
        <time>2019-01-12T06:13:52.997Z</time>
      </trkpt>
      <trkpt lat="41.61136" lon="1.84234">
        <ele>197.74482339865</ele>
        <time>2019-01-12T06:14:02.011Z</time>
      </trkpt>
      <trkpt lat="41.61138" lon="1.84222">
        <ele>198.69207580889</ele>
        <time>2019-01-12T06:14:08.000Z</time>
      </trkpt>
      <trkpt lat="41.61147" lon="1.84215">
        <ele>200.72162926196</ele>
        <time>2019-01-12T06:14:17.000Z</time>
      </trkpt>
      <trkpt lat="41.61155" lon="1.84209">
        <ele>203.07017414082</ele>
        <time>2019-01-12T06:14:25.000Z</time>
      </trkpt>
      <trkpt lat="41.61162" lon="1.842">
        <ele>205.95975197845</ele>
        <time>2019-01-12T06:14:32.000Z</time>
      </trkpt>
      <trkpt lat="41.61168" lon="1.84189">
        <ele>207.89421100569</ele>
        <time>2019-01-12T06:14:39.000Z</time>
      </trkpt>
      <trkpt lat="41.61172" lon="1.84177">
        <ele>209.14729372171</ele>
        <time>2019-01-12T06:14:46.010Z</time>
      </trkpt>
      <trkpt lat="41.61174" lon="1.84164">
        <ele>209.94789575817</ele>
        <time>2019-01-12T06:14:54.000Z</time>
      </trkpt>
      <trkpt lat="41.61176" lon="1.84151">
        <ele>212.52291809524</ele>
        <time>2019-01-12T06:15:02.997Z</time>
      </trkpt>
      <trkpt lat="41.61181" lon="1.84139">
        <ele>213.54455612903</ele>
        <time>2019-01-12T06:15:10.002Z</time>
      </trkpt>
      <trkpt lat="41.61184" lon="1.84127">
        <ele>214.69362486056</ele>
        <time>2019-01-12T06:15:18.002Z</time>
      </trkpt>
      <trkpt lat="41.61187" lon="1.84114">
        <ele>216.2915675502</ele>
        <time>2019-01-12T06:15:26.012Z</time>
      </trkpt>
      <trkpt lat="41.61192" lon="1.84103">
        <ele>217.89598329317</ele>
        <time>2019-01-12T06:15:34.002Z</time>
      </trkpt>
      <trkpt lat="41.61197" lon="1.84091">
        <ele>220.84310144</ele>
        <time>2019-01-12T06:15:43.997Z</time>
      </trkpt>
      <trkpt lat="41.61203" lon="1.84082">
        <ele>221.74819968</ele>
        <time>2019-01-12T06:15:52.002Z</time>
      </trkpt>
      <trkpt lat="41.61207" lon="1.8407">
        <ele>223.644</ele>
        <time>2019-01-12T06:16:00.000Z</time>
      </trkpt>
      <trkpt lat="41.61204" lon="1.84059">
        <ele>225.34909952</ele>
        <time>2019-01-12T06:16:08.011Z</time>
      </trkpt>
      <trkpt lat="41.61202" lon="1.84047">
        <ele>226.67740161322</ele>
        <time>2019-01-12T06:16:18.012Z</time>
      </trkpt>
      <trkpt lat="41.61201" lon="1.84035">
        <ele>229.06666701892</ele>
        <time>2019-01-12T06:16:29.998Z</time>
      </trkpt>
      <trkpt lat="41.61198" lon="1.84023">
        <ele>230.69880064</ele>
        <time>2019-01-12T06:16:38.014Z</time>
      </trkpt>
      <trkpt lat="41.61191" lon="1.84013">
        <ele>232.29639936</ele>
        <time>2019-01-12T06:16:46.002Z</time>
      </trkpt>
      <trkpt lat="41.61189" lon="1.84001">
        <ele>233.89560064</ele>
        <time>2019-01-12T06:16:53.998Z</time>
      </trkpt>
      <trkpt lat="41.61197" lon="1.84008">
        <ele>236.64698163575</ele>
        <time>2019-01-12T06:17:11.011Z</time>
      </trkpt>
      <trkpt lat="41.61206" lon="1.84013">
        <ele>238.0969028082</ele>
        <time>2019-01-12T06:17:20.010Z</time>
      </trkpt>
      <trkpt lat="41.61204" lon="1.84001">
        <ele>241.93625498008</ele>
        <time>2019-01-12T06:17:41.000Z</time>
      </trkpt>
      <trkpt lat="41.61199" lon="1.83988">
        <ele>244.34036048193</ele>
        <time>2019-01-12T06:17:49.010Z</time>
      </trkpt>
      <trkpt lat="41.61197" lon="1.83975">
        <ele>247.644</ele>
        <time>2019-01-12T06:18:00.000Z</time>
      </trkpt>
      <trkpt lat="41.61206" lon="1.83978">
        <ele>251.544</ele>
        <time>2019-01-12T06:18:13.000Z</time>
      </trkpt>
      <trkpt lat="41.61217" lon="1.83977">
        <ele>254.49255197853</ele>
        <time>2019-01-12T06:18:27.000Z</time>
      </trkpt>
      <trkpt lat="41.61226" lon="1.83972">
        <ele>255.68420999112</ele>
        <time>2019-01-12T06:18:33.000Z</time>
      </trkpt>
      <trkpt lat="41.61233" lon="1.83964">
        <ele>257.08853124413</ele>
        <time>2019-01-12T06:18:40.000Z</time>
      </trkpt>
      <trkpt lat="41.6124" lon="1.83954">
        <ele>258</ele>
        <time>2019-01-12T06:18:48.000Z</time>
      </trkpt>
      <trkpt lat="41.61247" lon="1.83947">
        <ele>258</ele>
        <time>2019-01-12T06:18:54.010Z</time>
      </trkpt>
      <trkpt lat="41.61256" lon="1.8394">
        <ele>259.09580032</ele>
        <time>2019-01-12T06:18:59.999Z</time>
      </trkpt>
      <trkpt lat="41.61264" lon="1.83934">
        <ele>260.148</ele>
        <time>2019-01-12T06:19:06.000Z</time>
      </trkpt>
      <trkpt lat="41.61272" lon="1.83927">
        <ele>260.94899968</ele>
        <time>2019-01-12T06:19:14.010Z</time>
      </trkpt>
      <trkpt lat="41.6128" lon="1.8392">
        <ele>264.79599872</ele>
        <time>2019-01-12T06:19:24.010Z</time>
      </trkpt>
      <trkpt lat="41.61289" lon="1.83915">
        <ele>265.81932341818</ele>
        <time>2019-01-12T06:19:33.000Z</time>
      </trkpt>
      <trkpt lat="41.61297" lon="1.83908">
        <ele>267.89429981987</ele>
        <time>2019-01-12T06:19:44.010Z</time>
      </trkpt>
      <trkpt lat="41.61306" lon="1.83902">
        <ele>269.644</ele>
        <time>2019-01-12T06:19:50.000Z</time>
      </trkpt>
      <trkpt lat="41.61315" lon="1.83901">
        <ele>271.69233884731</ele>
        <time>2019-01-12T06:19:57.999Z</time>
      </trkpt>
      <trkpt lat="41.61326" lon="1.839">
        <ele>272.88855717845</ele>
        <time>2019-01-12T06:20:04.010Z</time>
      </trkpt>
      <trkpt lat="41.61335" lon="1.83898">
        <ele>273.94874341347</ele>
        <time>2019-01-12T06:20:14.010Z</time>
      </trkpt>
      <trkpt lat="41.61343" lon="1.83891">
        <ele>274.74809984</ele>
        <time>2019-01-12T06:20:22.001Z</time>
      </trkpt>
      <trkpt lat="41.6135" lon="1.83882">
        <ele>275</ele>
        <time>2019-01-12T06:20:27.000Z</time>
      </trkpt>
      <trkpt lat="41.61357" lon="1.83873">
        <ele>275</ele>
        <time>2019-01-12T06:20:31.000Z</time>
      </trkpt>
      <trkpt lat="41.61363" lon="1.83863">
        <ele>275.348</ele>
        <time>2019-01-12T06:20:38.000Z</time>
      </trkpt>
      <trkpt lat="41.61371" lon="1.83855">
        <ele>276.73663319659</ele>
        <time>2019-01-12T06:20:47.000Z</time>
      </trkpt>
      <trkpt lat="41.6138" lon="1.8385">
        <ele>279.13939338304</ele>
        <time>2019-01-12T06:20:56.000Z</time>
      </trkpt>
      <trkpt lat="41.61389" lon="1.83842">
        <ele>279.94848449195</ele>
        <time>2019-01-12T06:21:04.010Z</time>
      </trkpt>
      <trkpt lat="41.6138" lon="1.83836">
        <ele>283.84610048</ele>
        <time>2019-01-12T06:21:24.007Z</time>
      </trkpt>
      <trkpt lat="41.61384" lon="1.83826">
        <ele>286.548</ele>
        <time>2019-01-12T06:21:40.000Z</time>
      </trkpt>
      <trkpt lat="41.61374" lon="1.83823">
        <ele>290.03477353656</ele>
        <time>2019-01-12T06:21:58.002Z</time>
      </trkpt>
      <trkpt lat="41.61376" lon="1.83811">
        <ele>292.64790016</ele>
        <time>2019-01-12T06:22:10.999Z</time>
      </trkpt>
      <trkpt lat="41.6138" lon="1.838">
        <ele>296.79220772578</ele>
        <time>2019-01-12T06:22:24.010Z</time>
      </trkpt>
      <trkpt lat="41.61385" lon="1.83789">
        <ele>297.83685818182</ele>
        <time>2019-01-12T06:22:32.999Z</time>
      </trkpt>
      <trkpt lat="41.61392" lon="1.83781">
        <ele>298</ele>
        <time>2019-01-12T06:22:38.000Z</time>
      </trkpt>
      <trkpt lat="41.61399" lon="1.83773">
        <ele>298</ele>
        <time>2019-01-12T06:22:42.999Z</time>
      </trkpt>
      <trkpt lat="41.61406" lon="1.83763">
        <ele>298.431372031</ele>
        <time>2019-01-12T06:22:49.010Z</time>
      </trkpt>
      <trkpt lat="41.61413" lon="1.83753">
        <ele>299.696</ele>
        <time>2019-01-12T06:22:58.000Z</time>
      </trkpt>
      <trkpt lat="41.6142" lon="1.83744">
        <ele>300.89799936</ele>
        <time>2019-01-12T06:23:04.010Z</time>
      </trkpt>
      <trkpt lat="41.61428" lon="1.83737">
        <ele>301</ele>
        <time>2019-01-12T06:23:09.999Z</time>
      </trkpt>
      <trkpt lat="41.61437" lon="1.83733">
        <ele>301.29394230977</ele>
        <time>2019-01-12T06:23:16.000Z</time>
      </trkpt>
      <trkpt lat="41.61448" lon="1.83732">
        <ele>302.48560032235</ele>
        <time>2019-01-12T06:23:22.000Z</time>
      </trkpt>
      <trkpt lat="41.61457" lon="1.8373">
        <ele>303.33291</ele>
        <time>2019-01-12T06:23:27.999Z</time>
      </trkpt>
      <trkpt lat="41.61467" lon="1.8373">
        <ele>304</ele>
        <time>2019-01-12T06:23:34.999Z</time>
      </trkpt>
      <trkpt lat="41.61477" lon="1.83729">
        <ele>304</ele>
        <time>2019-01-12T06:23:43.000Z</time>
      </trkpt>
      <trkpt lat="41.61487" lon="1.83731">
        <ele>305.09489550514</ele>
        <time>2019-01-12T06:23:49.999Z</time>
      </trkpt>
      <trkpt lat="41.61497" lon="1.83732">
        <ele>307</ele>
        <time>2019-01-12T06:24:05.999Z</time>
      </trkpt>
      <trkpt lat="41.61498" lon="1.8372">
        <ele>310.29580032</ele>
        <time>2019-01-12T06:24:25.999Z</time>
      </trkpt>
      <trkpt lat="41.61495" lon="1.83708">
        <ele>317.044</ele>
        <time>2019-01-12T06:24:48.000Z</time>
      </trkpt>
      <trkpt lat="41.6149" lon="1.83697">
        <ele>319.29580032</ele>
        <time>2019-01-12T06:24:55.999Z</time>
      </trkpt>
      <trkpt lat="41.61484" lon="1.83688">
        <ele>321.74370048</ele>
        <time>2019-01-12T06:25:06.999Z</time>
      </trkpt>
      <trkpt lat="41.61491" lon="1.83679">
        <ele>324.94909952</ele>
        <time>2019-01-12T06:25:24.011Z</time>
      </trkpt>
      <trkpt lat="41.615" lon="1.83682">
        <ele>330.38264968849</ele>
        <time>2019-01-12T06:25:43.002Z</time>
      </trkpt>
      <trkpt lat="41.61508" lon="1.83689">
        <ele>331</ele>
        <time>2019-01-12T06:25:52.000Z</time>
      </trkpt>
      <trkpt lat="41.61518" lon="1.83688">
        <ele>332.91300224165</ele>
        <time>2019-01-12T06:26:01.009Z</time>
      </trkpt>
      <trkpt lat="41.61526" lon="1.83681">
        <ele>335.896</ele>
        <time>2019-01-12T06:26:14.000Z</time>
      </trkpt>
      <trkpt lat="41.61529" lon="1.83669">
        <ele>337.49304206317</ele>
        <time>2019-01-12T06:26:27.000Z</time>
      </trkpt>
      <trkpt lat="41.61524" lon="1.83658">
        <ele>339.24416563756</ele>
        <time>2019-01-12T06:26:37.007Z</time>
      </trkpt>
      <trkpt lat="41.61527" lon="1.83646">
        <ele>340.49819904</ele>
        <time>2019-01-12T06:26:47.011Z</time>
      </trkpt>
      <trkpt lat="41.6153" lon="1.83633">
        <ele>342.34974995804</ele>
        <time>2019-01-12T06:26:58.014Z</time>
      </trkpt>
      <trkpt lat="41.61533" lon="1.83622">
        <ele>343.09770200925</ele>
        <time>2019-01-12T06:27:04.999Z</time>
      </trkpt>
      <trkpt lat="41.61536" lon="1.83608">
        <ele>344.49630385496</ele>
        <time>2019-01-12T06:27:11.999Z</time>
      </trkpt>
      <trkpt lat="41.61541" lon="1.83597">
        <ele>345.94675402893</ele>
        <time>2019-01-12T06:27:23.997Z</time>
      </trkpt>
      <trkpt lat="41.61547" lon="1.83586">
        <ele>347.4954956571</ele>
        <time>2019-01-12T06:27:32.000Z</time>
      </trkpt>
      <trkpt lat="41.61553" lon="1.83576">
        <ele>348</ele>
        <time>2019-01-12T06:27:38.999Z</time>
      </trkpt>
      <trkpt lat="41.61558" lon="1.83565">
        <ele>348.296</ele>
        <time>2019-01-12T06:27:46.000Z</time>
      </trkpt>
      <trkpt lat="41.6155" lon="1.83559">
        <ele>351.09521976096</ele>
        <time>2019-01-12T06:28:04.998Z</time>
      </trkpt>
      <trkpt lat="41.61542" lon="1.83564">
        <ele>353.73403759036</ele>
        <time>2019-01-12T06:28:16.997Z</time>
      </trkpt>
      <trkpt lat="41.61534" lon="1.83557">
        <ele>357.64340096</ele>
        <time>2019-01-12T06:28:29.998Z</time>
      </trkpt>
      <trkpt lat="41.61541" lon="1.83548">
        <ele>360.64370048</ele>
        <time>2019-01-12T06:28:39.999Z</time>
      </trkpt>
      <trkpt lat="41.6154" lon="1.83536">
        <ele>362</ele>
        <time>2019-01-12T06:28:50.998Z</time>
      </trkpt>
      <trkpt lat="41.61536" lon="1.83524">
        <ele>363.03779150543</ele>
        <time>2019-01-12T06:28:58.012Z</time>
      </trkpt>
      <trkpt lat="41.61534" lon="1.83512">
        <ele>365.24780032</ele>
        <time>2019-01-12T06:29:06.998Z</time>
      </trkpt>
      <trkpt lat="41.61531" lon="1.835">
        <ele>365.94790016</ele>
        <time>2019-01-12T06:29:13.999Z</time>
      </trkpt>
      <trkpt lat="41.61526" lon="1.8349">
        <ele>366.94780032</ele>
        <time>2019-01-12T06:29:23.998Z</time>
      </trkpt>
      <trkpt lat="41.61522" lon="1.83479">
        <ele>368.29560064</ele>
        <time>2019-01-12T06:29:30.998Z</time>
      </trkpt>
      <trkpt lat="41.61515" lon="1.83469">
        <ele>370.48668150246</ele>
        <time>2019-01-12T06:29:41.998Z</time>
      </trkpt>
      <trkpt lat="41.61509" lon="1.83459">
        <ele>372.69678184513</ele>
        <time>2019-01-12T06:29:53.013Z</time>
      </trkpt>
      <trkpt lat="41.61501" lon="1.83448">
        <ele>373.69880064</ele>
        <time>2019-01-12T06:29:58.014Z</time>
      </trkpt>
      <trkpt lat="41.61493" lon="1.83441">
        <ele>374.89580032</ele>
        <time>2019-01-12T06:30:03.999Z</time>
      </trkpt>
      <trkpt lat="41.61484" lon="1.83437">
        <ele>375.64780032</ele>
        <time>2019-01-12T06:30:10.998Z</time>
      </trkpt>
      <trkpt lat="41.61475" lon="1.83437">
        <ele>378.24429952</ele>
        <time>2019-01-12T06:30:22.001Z</time>
      </trkpt>
      <trkpt lat="41.61465" lon="1.83439">
        <ele>380.93181132839</ele>
        <time>2019-01-12T06:30:30.998Z</time>
      </trkpt>
      <trkpt lat="41.61457" lon="1.83435">
        <ele>383.09014207476</ele>
        <time>2019-01-12T06:30:39.998Z</time>
      </trkpt>
      <trkpt lat="41.61449" lon="1.83427">
        <ele>384.14780032</ele>
        <time>2019-01-12T06:30:45.998Z</time>
      </trkpt>
      <trkpt lat="41.61444" lon="1.83418">
        <ele>384.74770048</ele>
        <time>2019-01-12T06:30:51.997Z</time>
      </trkpt>
      <trkpt lat="41.61435" lon="1.83411">
        <ele>386.29580032</ele>
        <time>2019-01-12T06:31:00.999Z</time>
      </trkpt>
      <trkpt lat="41.61426" lon="1.83404">
        <ele>388.09540096</ele>
        <time>2019-01-12T06:31:09.997Z</time>
      </trkpt>
      <trkpt lat="41.61417" lon="1.83399">
        <ele>389.44790016</ele>
        <time>2019-01-12T06:31:18.999Z</time>
      </trkpt>
      <trkpt lat="41.61409" lon="1.83393">
        <ele>390.34940032</ele>
        <time>2019-01-12T06:31:28.014Z</time>
      </trkpt>
      <trkpt lat="41.614" lon="1.83389">
        <ele>391.44909952</ele>
        <time>2019-01-12T06:31:39.011Z</time>
      </trkpt>
      <trkpt lat="41.61392" lon="1.83381">
        <ele>392.74759808</ele>
        <time>2019-01-12T06:31:47.012Z</time>
      </trkpt>
      <trkpt lat="41.61389" lon="1.8337">
        <ele>395</ele>
        <time>2019-01-12T06:31:54.997Z</time>
      </trkpt>
      <trkpt lat="41.61387" lon="1.83357">
        <ele>395</ele>
        <time>2019-01-12T06:32:00.998Z</time>
      </trkpt>
      <trkpt lat="41.61383" lon="1.83344">
        <ele>395.23382337255</ele>
        <time>2019-01-12T06:32:07.015Z</time>
      </trkpt>
      <trkpt lat="41.6138" lon="1.83332">
        <ele>395.72382368628</ele>
        <time>2019-01-12T06:32:12.013Z</time>
      </trkpt>
      <trkpt lat="41.61374" lon="1.83321">
        <ele>396</ele>
        <time>2019-01-12T06:32:17.999Z</time>
      </trkpt>
      <trkpt lat="41.61366" lon="1.83316">
        <ele>396</ele>
        <time>2019-01-12T06:32:23.998Z</time>
      </trkpt>
      <trkpt lat="41.61357" lon="1.83312">
        <ele>396.54780032</ele>
        <time>2019-01-12T06:32:29.998Z</time>
      </trkpt>
      <trkpt lat="41.61348" lon="1.8331">
        <ele>397.43433577208</ele>
        <time>2019-01-12T06:32:38.998Z</time>
      </trkpt>
      <trkpt lat="41.6134" lon="1.83304">
        <ele>398.01733746703</ele>
        <time>2019-01-12T06:32:44.998Z</time>
      </trkpt>
      <trkpt lat="41.61334" lon="1.83293">
        <ele>398.53333350946</ele>
        <time>2019-01-12T06:32:49.998Z</time>
      </trkpt>
      <trkpt lat="41.6133" lon="1.83282">
        <ele>399.89560064</ele>
        <time>2019-01-12T06:32:58.998Z</time>
      </trkpt>
      <trkpt lat="41.61326" lon="1.8327">
        <ele>401.14780032</ele>
        <time>2019-01-12T06:33:05.998Z</time>
      </trkpt>
      <trkpt lat="41.6132" lon="1.8326">
        <ele>401.74930048</ele>
        <time>2019-01-12T06:33:12.013Z</time>
      </trkpt>
      <trkpt lat="41.6131" lon="1.83253">
        <ele>402</ele>
        <time>2019-01-12T06:33:18.003Z</time>
      </trkpt>
      <trkpt lat="41.61301" lon="1.83251">
        <ele>402</ele>
        <time>2019-01-12T06:33:23.003Z</time>
      </trkpt>
      <trkpt lat="41.61291" lon="1.83251">
        <ele>402.88131124847</ele>
        <time>2019-01-12T06:33:29.003Z</time>
      </trkpt>
      <trkpt lat="41.61283" lon="1.83248">
        <ele>404.48190138949</ele>
        <time>2019-01-12T06:33:37.013Z</time>
      </trkpt>
      <trkpt lat="41.61275" lon="1.83238">
        <ele>406.64393710946</ele>
        <time>2019-01-12T06:33:50.998Z</time>
      </trkpt>
      <trkpt lat="41.61269" lon="1.83227">
        <ele>407.7343087425</ele>
        <time>2019-01-12T06:33:57.013Z</time>
      </trkpt>
      <trkpt lat="41.61264" lon="1.83215">
        <ele>410.14780032</ele>
        <time>2019-01-12T06:34:05.998Z</time>
      </trkpt>
      <trkpt lat="41.61257" lon="1.83207">
        <ele>410.74940032</ele>
        <time>2019-01-12T06:34:12.014Z</time>
      </trkpt>
      <trkpt lat="41.61251" lon="1.83196">
        <ele>411.69076506351</ele>
        <time>2019-01-12T06:34:17.998Z</time>
      </trkpt>
      <trkpt lat="41.61246" lon="1.83184">
        <ele>413.34330307136</ele>
        <time>2019-01-12T06:34:27.999Z</time>
      </trkpt>
      <trkpt lat="41.61241" lon="1.83174">
        <ele>415.64340096</ele>
        <time>2019-01-12T06:34:39.998Z</time>
      </trkpt>
      <trkpt lat="41.61234" lon="1.83165">
        <ele>417.34469814698</ele>
        <time>2019-01-12T06:34:47.998Z</time>
      </trkpt>
      <trkpt lat="41.61228" lon="1.83156">
        <ele>418.14006114549</ele>
        <time>2019-01-12T06:34:55.998Z</time>
      </trkpt>
      <trkpt lat="41.6122" lon="1.83147">
        <ele>419.09465403903</ele>
        <time>2019-01-12T06:35:04.998Z</time>
      </trkpt>
      <trkpt lat="41.61216" lon="1.83137">
        <ele>421.26966686163</ele>
        <time>2019-01-12T06:35:15.998Z</time>
      </trkpt>
      <trkpt lat="41.61212" lon="1.83125">
        <ele>423.97995768595</ele>
        <time>2019-01-12T06:35:28.002Z</time>
      </trkpt>
      <trkpt lat="41.61202" lon="1.83121">
        <ele>428.24790144</ele>
        <time>2019-01-12T06:35:42.013Z</time>
      </trkpt>
      <trkpt lat="41.61194" lon="1.83115">
        <ele>429.74930048</ele>
        <time>2019-01-12T06:35:52.013Z</time>
      </trkpt>
      <trkpt lat="41.61185" lon="1.8311">
        <ele>431.2865940698</ele>
        <time>2019-01-12T06:36:00.998Z</time>
      </trkpt>
      <trkpt lat="41.61193" lon="1.83104">
        <ele>434.54790016</ele>
        <time>2019-01-12T06:36:29.999Z</time>
      </trkpt>
      <trkpt lat="41.61191" lon="1.83091">
        <ele>437.48190138949</ele>
        <time>2019-01-12T06:36:47.013Z</time>
      </trkpt>
      <trkpt lat="41.6119" lon="1.83079">
        <ele>441.49839872</ele>
        <time>2019-01-12T06:37:07.012Z</time>
      </trkpt>
      <trkpt lat="41.61184" lon="1.8307">
        <ele>444.2820962114</ele>
        <time>2019-01-12T06:37:21.001Z</time>
      </trkpt>
      <trkpt lat="41.6118" lon="1.83059">
        <ele>450.24780032</ele>
        <time>2019-01-12T06:37:36.998Z</time>
      </trkpt>
      <trkpt lat="41.61175" lon="1.83049">
        <ele>453.24370048</ele>
        <time>2019-01-12T06:37:51.999Z</time>
      </trkpt>
      <trkpt lat="41.61174" lon="1.83036">
        <ele>458.24780032</ele>
        <time>2019-01-12T06:38:06.998Z</time>
      </trkpt>
      <trkpt lat="41.61167" lon="1.83027">
        <ele>460.49361086236</ele>
        <time>2019-01-12T06:38:22.003Z</time>
      </trkpt>
      <trkpt lat="41.61162" lon="1.83017">
        <ele>463.66880264463</ele>
        <time>2019-01-12T06:38:36.998Z</time>
      </trkpt>
      <trkpt lat="41.61156" lon="1.83008">
        <ele>466.44780032</ele>
        <time>2019-01-12T06:38:48.998Z</time>
      </trkpt>
      <trkpt lat="41.61149" lon="1.82999">
        <ele>468.94340096</ele>
        <time>2019-01-12T06:39:00.998Z</time>
      </trkpt>
      <trkpt lat="41.61147" lon="1.82987">
        <ele>469</ele>
        <time>2019-01-12T06:39:14.997Z</time>
      </trkpt>
      <trkpt lat="41.61143" lon="1.82976">
        <ele>469.74340096</ele>
        <time>2019-01-12T06:39:26.998Z</time>
      </trkpt>
      <trkpt lat="41.61142" lon="1.82964">
        <ele>474.84340096</ele>
        <time>2019-01-12T06:39:43.998Z</time>
      </trkpt>
      <trkpt lat="41.61135" lon="1.82956">
        <ele>476.28277209804</ele>
        <time>2019-01-12T06:39:50.998Z</time>
      </trkpt>
      <trkpt lat="41.61127" lon="1.82949">
        <ele>475.23111126052</ele>
        <time>2019-01-12T06:39:58.998Z</time>
      </trkpt>
      <trkpt lat="41.61123" lon="1.82938">
        <ele>475.24340096</ele>
        <time>2019-01-12T06:40:11.998Z</time>
      </trkpt>
      <trkpt lat="41.6112" lon="1.82926">
        <ele>476.09580032</ele>
        <time>2019-01-12T06:40:24.999Z</time>
      </trkpt>
      <trkpt lat="41.61122" lon="1.82915">
        <ele>480.84370048</ele>
        <time>2019-01-12T06:40:43.999Z</time>
      </trkpt>
      <trkpt lat="41.61117" lon="1.82904">
        <ele>487.5464</ele>
        <time>2019-01-12T06:41:03.008Z</time>
      </trkpt>
      <trkpt lat="41.61111" lon="1.82895">
        <ele>488.74819968</ele>
        <time>2019-01-12T06:41:12.002Z</time>
      </trkpt>
      <trkpt lat="41.61102" lon="1.82886">
        <ele>488.55457244029</ele>
        <time>2019-01-12T06:41:19.001Z</time>
      </trkpt>
      <trkpt lat="41.61094" lon="1.82877">
        <ele>488</ele>
        <time>2019-01-12T06:41:27.002Z</time>
      </trkpt>
      <trkpt lat="41.61087" lon="1.82868">
        <ele>488</ele>
        <time>2019-01-12T06:41:33.012Z</time>
      </trkpt>
      <trkpt lat="41.61079" lon="1.82859">
        <ele>487.570605</ele>
        <time>2019-01-12T06:41:38.997Z</time>
      </trkpt>
      <trkpt lat="41.61071" lon="1.82853">
        <ele>486.88037157025</ele>
        <time>2019-01-12T06:41:45.998Z</time>
      </trkpt>
      <trkpt lat="41.61062" lon="1.82849">
        <ele>486</ele>
        <time>2019-01-12T06:41:56.002Z</time>
      </trkpt>
      <trkpt lat="41.61055" lon="1.8284">
        <ele>486</ele>
        <time>2019-01-12T06:42:00.997Z</time>
      </trkpt>
      <trkpt lat="41.61048" lon="1.82832">
        <ele>485.85229952</ele>
        <time>2019-01-12T06:42:05.997Z</time>
      </trkpt>
      <trkpt lat="41.6104" lon="1.82824">
        <ele>485.25229952</ele>
        <time>2019-01-12T06:42:11.997Z</time>
      </trkpt>
      <trkpt lat="41.61032" lon="1.82817">
        <ele>484.06246345881</ele>
        <time>2019-01-12T06:42:24.997Z</time>
      </trkpt>
      <trkpt lat="41.61024" lon="1.82813">
        <ele>485.28341899217</ele>
        <time>2019-01-12T06:42:30.998Z</time>
      </trkpt>
      <trkpt lat="41.61015" lon="1.82807">
        <ele>486</ele>
        <time>2019-01-12T06:42:35.997Z</time>
      </trkpt>
      <trkpt lat="41.61007" lon="1.82801">
        <ele>486</ele>
        <time>2019-01-12T06:42:40.997Z</time>
      </trkpt>
      <trkpt lat="41.60999" lon="1.82795">
        <ele>486</ele>
        <time>2019-01-12T06:42:46.997Z</time>
      </trkpt>
      <trkpt lat="41.6099" lon="1.82793">
        <ele>486.04007942889</ele>
        <time>2019-01-12T06:42:55.002Z</time>
      </trkpt>
      <trkpt lat="41.60982" lon="1.82787">
        <ele>487.23943384896</ele>
        <time>2019-01-12T06:43:06.998Z</time>
      </trkpt>
      <trkpt lat="41.60983" lon="1.82775">
        <ele>491.3669008894</ele>
        <time>2019-01-12T06:43:23.013Z</time>
      </trkpt>
      <trkpt lat="41.60977" lon="1.82765">
        <ele>497.06856174049</ele>
        <time>2019-01-12T06:43:44.998Z</time>
      </trkpt>
      <trkpt lat="41.60969" lon="1.82757">
        <ele>500.69819904</ele>
        <time>2019-01-12T06:44:03.011Z</time>
      </trkpt>
      <trkpt lat="41.6096" lon="1.82754">
        <ele>504.94310144</ele>
        <time>2019-01-12T06:44:20.997Z</time>
      </trkpt>
      <trkpt lat="41.6095" lon="1.82751">
        <ele>511.25645058966</ele>
        <time>2019-01-12T06:44:50.997Z</time>
      </trkpt>
      <trkpt lat="41.60946" lon="1.82741">
        <ele>516.69560064</ele>
        <time>2019-01-12T06:45:07.998Z</time>
      </trkpt>
      <trkpt lat="41.6094" lon="1.82731">
        <ele>518.89560064</ele>
        <time>2019-01-12T06:45:18.998Z</time>
      </trkpt>
      <trkpt lat="41.60931" lon="1.82726">
        <ele>520</ele>
        <time>2019-01-12T06:45:28.999Z</time>
      </trkpt>
      <trkpt lat="41.60922" lon="1.82724">
        <ele>520</ele>
        <time>2019-01-12T06:45:42.998Z</time>
      </trkpt>
      <trkpt lat="41.60913" lon="1.82723">
        <ele>519.45190016</ele>
        <time>2019-01-12T06:45:50.001Z</time>
      </trkpt>
      <trkpt lat="41.60904" lon="1.82718">
        <ele>518.55219968</ele>
        <time>2019-01-12T06:45:58.998Z</time>
      </trkpt>
      <trkpt lat="41.60896" lon="1.82714">
        <ele>519.09749650531</ele>
        <time>2019-01-12T06:46:10.002Z</time>
      </trkpt>
      <trkpt lat="41.60904" lon="1.82707">
        <ele>521.54790016</ele>
        <time>2019-01-12T06:46:29.999Z</time>
      </trkpt>
      <trkpt lat="41.60914" lon="1.82703">
        <ele>525.69580032</ele>
        <time>2019-01-12T06:46:47.999Z</time>
      </trkpt>
      <trkpt lat="41.60923" lon="1.82703">
        <ele>527</ele>
        <time>2019-01-12T06:46:57.999Z</time>
      </trkpt>
      <trkpt lat="41.6093" lon="1.82694">
        <ele>528.49580032</ele>
        <time>2019-01-12T06:47:11.999Z</time>
      </trkpt>
      <trkpt lat="41.60939" lon="1.82691">
        <ele>530.68253968254</ele>
        <time>2019-01-12T06:47:23.000Z</time>
      </trkpt>
      <trkpt lat="41.60932" lon="1.82683">
        <ele>531</ele>
        <time>2019-01-12T06:48:07.011Z</time>
      </trkpt>
      <trkpt lat="41.60926" lon="1.82673">
        <ele>531</ele>
        <time>2019-01-12T06:48:14.011Z</time>
      </trkpt>
      <trkpt lat="41.6092" lon="1.82662">
        <ele>531</ele>
        <time>2019-01-12T06:48:21.011Z</time>
      </trkpt>
      <trkpt lat="41.60915" lon="1.82652">
        <ele>531</ele>
        <time>2019-01-12T06:48:28.011Z</time>
      </trkpt>
      <trkpt lat="41.6091" lon="1.82642">
        <ele>531</ele>
        <time>2019-01-12T06:48:35.011Z</time>
      </trkpt>
      <trkpt lat="41.60905" lon="1.8263">
        <ele>531</ele>
        <time>2019-01-12T06:48:42.011Z</time>
      </trkpt>
      <trkpt lat="41.609" lon="1.82617">
        <ele>531</ele>
        <time>2019-01-12T06:48:48.009Z</time>
      </trkpt>
      <trkpt lat="41.60896" lon="1.82606">
        <ele>531</ele>
        <time>2019-01-12T06:48:54.002Z</time>
      </trkpt>
      <trkpt lat="41.60891" lon="1.82595">
        <ele>531.94790016</ele>
        <time>2019-01-12T06:49:03.999Z</time>
      </trkpt>
      <trkpt lat="41.6089" lon="1.82582">
        <ele>532.03761311632</ele>
        <time>2019-01-12T06:49:15.002Z</time>
      </trkpt>
      <trkpt lat="41.6089" lon="1.82569">
        <ele>532.94762352198</ele>
        <time>2019-01-12T06:49:24.002Z</time>
      </trkpt>
      <trkpt lat="41.60885" lon="1.82559">
        <ele>533</ele>
        <time>2019-01-12T06:49:31.001Z</time>
      </trkpt>
      <trkpt lat="41.60877" lon="1.82552">
        <ele>533.33926105326</ele>
        <time>2019-01-12T06:49:38.006Z</time>
      </trkpt>
      <trkpt lat="41.6087" lon="1.82544">
        <ele>534.03808067108</ele>
        <time>2019-01-12T06:49:44.997Z</time>
      </trkpt>
      <trkpt lat="41.60863" lon="1.82536">
        <ele>534.64434336604</ele>
        <time>2019-01-12T06:49:50.999Z</time>
      </trkpt>
      <trkpt lat="41.60858" lon="1.82526">
        <ele>535.4889552593</ele>
        <time>2019-01-12T06:49:56.999Z</time>
      </trkpt>
      <trkpt lat="41.6085" lon="1.82519">
        <ele>537</ele>
        <time>2019-01-12T06:50:04.999Z</time>
      </trkpt>
      <trkpt lat="41.60841" lon="1.82514">
        <ele>537</ele>
        <time>2019-01-12T06:50:11.999Z</time>
      </trkpt>
      <trkpt lat="41.60831" lon="1.82513">
        <ele>537</ele>
        <time>2019-01-12T06:50:16.999Z</time>
      </trkpt>
      <trkpt lat="41.60821" lon="1.82513">
        <ele>537</ele>
        <time>2019-01-12T06:50:23.014Z</time>
      </trkpt>
      <trkpt lat="41.60812" lon="1.82516">
        <ele>537</ele>
        <time>2019-01-12T06:50:30.999Z</time>
      </trkpt>
      <trkpt lat="41.60806" lon="1.82526">
        <ele>537.69819904</ele>
        <time>2019-01-12T06:50:38.011Z</time>
      </trkpt>
      <trkpt lat="41.60804" lon="1.8254">
        <ele>538.896</ele>
        <time>2019-01-12T06:50:44.000Z</time>
      </trkpt>
      <trkpt lat="41.60798" lon="1.82552">
        <ele>539.848</ele>
        <time>2019-01-12T06:50:53.000Z</time>
      </trkpt>
      <trkpt lat="41.60791" lon="1.8256">
        <ele>540.04195149242</ele>
        <time>2019-01-12T06:51:05.010Z</time>
      </trkpt>
      <trkpt lat="41.60785" lon="1.8257">
        <ele>540.72380498063</ele>
        <time>2019-01-12T06:51:11.999Z</time>
      </trkpt>
      <trkpt lat="41.60779" lon="1.8258">
        <ele>542.91021635838</ele>
        <time>2019-01-12T06:51:21.000Z</time>
      </trkpt>
      <trkpt lat="41.60773" lon="1.8259">
        <ele>544.496</ele>
        <time>2019-01-12T06:51:27.000Z</time>
      </trkpt>
      <trkpt lat="41.60774" lon="1.82578">
        <ele>546.44909952</ele>
        <time>2019-01-12T06:51:39.011Z</time>
      </trkpt>
      <trkpt lat="41.60772" lon="1.82565">
        <ele>547</ele>
        <time>2019-01-12T06:51:49.010Z</time>
      </trkpt>
      <trkpt lat="41.60774" lon="1.82553">
        <ele>548.33732356551</ele>
        <time>2019-01-12T06:51:59.011Z</time>
      </trkpt>
      <trkpt lat="41.60777" lon="1.82539">
        <ele>550.89819904</ele>
        <time>2019-01-12T06:52:09.011Z</time>
      </trkpt>
      <trkpt lat="41.60776" lon="1.82527">
        <ele>552.29263880898</ele>
        <time>2019-01-12T06:52:16.011Z</time>
      </trkpt>
      <trkpt lat="41.60777" lon="1.82514">
        <ele>554.06074508634</ele>
        <time>2019-01-12T06:52:25.011Z</time>
      </trkpt>
      <trkpt lat="41.6077" lon="1.82527">
        <ele>558.84909952</ele>
        <time>2019-01-12T06:52:53.011Z</time>
      </trkpt>
      <trkpt lat="41.60762" lon="1.82535">
        <ele>560.94429952</ele>
        <time>2019-01-12T06:53:01.001Z</time>
      </trkpt>
      <trkpt lat="41.60755" lon="1.82543">
        <ele>562.69819904</ele>
        <time>2019-01-12T06:53:08.011Z</time>
      </trkpt>
      <trkpt lat="41.60747" lon="1.82551">
        <ele>564.34809984</ele>
        <time>2019-01-12T06:53:18.001Z</time>
      </trkpt>
      <trkpt lat="41.60739" lon="1.8256">
        <ele>566.09530440609</ele>
        <time>2019-01-12T06:53:30.002Z</time>
      </trkpt>
      <trkpt lat="41.60738" lon="1.82547">
        <ele>570.29570439023</ele>
        <time>2019-01-12T06:53:46.000Z</time>
      </trkpt>
      <trkpt lat="41.60743" lon="1.82535">
        <ele>571.89410649961</ele>
        <time>2019-01-12T06:53:54.000Z</time>
      </trkpt>
      <trkpt lat="41.60747" lon="1.82524">
        <ele>572.74764788864</ele>
        <time>2019-01-12T06:54:01.999Z</time>
      </trkpt>
      <trkpt lat="41.60748" lon="1.82512">
        <ele>573.548</ele>
        <time>2019-01-12T06:54:10.000Z</time>
      </trkpt>
      <trkpt lat="41.60748" lon="1.82499">
        <ele>574.33840905112</ele>
        <time>2019-01-12T06:54:18.009Z</time>
      </trkpt>
      <trkpt lat="41.60743" lon="1.82488">
        <ele>575.98482756981</ele>
        <time>2019-01-12T06:54:28.011Z</time>
      </trkpt>
      <trkpt lat="41.60737" lon="1.82498">
        <ele>582.44819968</ele>
        <time>2019-01-12T06:54:49.002Z</time>
      </trkpt>
      <trkpt lat="41.60733" lon="1.82509">
        <ele>584.63124952381</ele>
        <time>2019-01-12T06:55:00.001Z</time>
      </trkpt>
      <trkpt lat="41.60724" lon="1.82501">
        <ele>590.04804675138</ele>
        <time>2019-01-12T06:55:18.010Z</time>
      </trkpt>
      <trkpt lat="41.60715" lon="1.82504">
        <ele>593.09670332762</ele>
        <time>2019-01-12T06:55:29.999Z</time>
      </trkpt>
      <trkpt lat="41.60706" lon="1.82503">
        <ele>595.08407482997</ele>
        <time>2019-01-12T06:55:40.000Z</time>
      </trkpt>
      <trkpt lat="41.6071" lon="1.82491">
        <ele>598.84256771448</ele>
        <time>2019-01-12T06:55:54.001Z</time>
      </trkpt>
      <trkpt lat="41.60703" lon="1.82483">
        <ele>600.49639936</ele>
        <time>2019-01-12T06:56:02.002Z</time>
      </trkpt>
      <trkpt lat="41.60699" lon="1.82471">
        <ele>602.49580032</ele>
        <time>2019-01-12T06:56:11.999Z</time>
      </trkpt>
      <trkpt lat="41.60694" lon="1.82461">
        <ele>604.2820962114</ele>
        <time>2019-01-12T06:56:21.001Z</time>
      </trkpt>
      <trkpt lat="41.60688" lon="1.82449">
        <ele>605.54307350231</ele>
        <time>2019-01-12T06:56:30.001Z</time>
      </trkpt>
      <trkpt lat="41.60682" lon="1.8244">
        <ele>606.89619968</ele>
        <time>2019-01-12T06:56:39.001Z</time>
      </trkpt>
      <trkpt lat="41.60672" lon="1.82438">
        <ele>609.69819904</ele>
        <time>2019-01-12T06:56:53.011Z</time>
      </trkpt>
      <trkpt lat="41.60665" lon="1.82429">
        <ele>610.748</ele>
        <time>2019-01-12T06:57:02.000Z</time>
      </trkpt>
      <trkpt lat="41.60662" lon="1.82417">
        <ele>611.83976202896</ele>
        <time>2019-01-12T06:57:13.010Z</time>
      </trkpt>
      <trkpt lat="41.60666" lon="1.82405">
        <ele>613.89464134104</ele>
        <time>2019-01-12T06:57:23.999Z</time>
      </trkpt>
      <trkpt lat="41.60669" lon="1.82394">
        <ele>614.81959413127</ele>
        <time>2019-01-12T06:57:33.011Z</time>
      </trkpt>
      <trkpt lat="41.60673" lon="1.82383">
        <ele>615.8433606639</ele>
        <time>2019-01-12T06:57:43.010Z</time>
      </trkpt>
      <trkpt lat="41.60676" lon="1.8237">
        <ele>617.29619968</ele>
        <time>2019-01-12T06:57:51.001Z</time>
      </trkpt>
      <trkpt lat="41.60679" lon="1.82357">
        <ele>620.19239936</ele>
        <time>2019-01-12T06:58:00.001Z</time>
      </trkpt>
      <trkpt lat="41.6067" lon="1.82355">
        <ele>622.64394793651</ele>
        <time>2019-01-12T06:58:11.011Z</time>
      </trkpt>
      <trkpt lat="41.60661" lon="1.82361">
        <ele>624.49193548387</ele>
        <time>2019-01-12T06:58:22.000Z</time>
      </trkpt>
      <trkpt lat="41.60654" lon="1.82368">
        <ele>627.52428131593</ele>
        <time>2019-01-12T06:58:33.010Z</time>
      </trkpt>
      <trkpt lat="41.60647" lon="1.82376">
        <ele>629.49142296947</ele>
        <time>2019-01-12T06:58:42.000Z</time>
      </trkpt>
      <trkpt lat="41.6064" lon="1.82384">
        <ele>630.74650650922</ele>
        <time>2019-01-12T06:58:52.000Z</time>
      </trkpt>
      <trkpt lat="41.6063" lon="1.82385">
        <ele>633.23799808</ele>
        <time>2019-01-12T06:59:02.000Z</time>
      </trkpt>
      <trkpt lat="41.6062" lon="1.82388">
        <ele>635.28214095238</ele>
        <time>2019-01-12T06:59:11.002Z</time>
      </trkpt>
      <trkpt lat="41.60611" lon="1.82392">
        <ele>636.68484698818</ele>
        <time>2019-01-12T06:59:18.010Z</time>
      </trkpt>
      <trkpt lat="41.60619" lon="1.82383">
        <ele>638.74790016</ele>
        <time>2019-01-12T06:59:31.999Z</time>
      </trkpt>
      <trkpt lat="41.60626" lon="1.82375">
        <ele>641.51958234791</ele>
        <time>2019-01-12T06:59:43.011Z</time>
      </trkpt>
      <trkpt lat="41.60632" lon="1.82364">
        <ele>643.48909090204</ele>
        <time>2019-01-12T06:59:52.001Z</time>
      </trkpt>
      <trkpt lat="41.60636" lon="1.82352">
        <ele>646.5961900409</ele>
        <time>2019-01-12T07:00:01.001Z</time>
      </trkpt>
      <trkpt lat="41.6064" lon="1.82341">
        <ele>648</ele>
        <time>2019-01-12T07:00:09.999Z</time>
      </trkpt>
      <trkpt lat="41.60637" lon="1.82328">
        <ele>649.036632056</ele>
        <time>2019-01-12T07:00:18.010Z</time>
      </trkpt>
      <trkpt lat="41.60637" lon="1.82315">
        <ele>651.23752446309</ele>
        <time>2019-01-12T07:00:27.000Z</time>
      </trkpt>
      <trkpt lat="41.6064" lon="1.82303">
        <ele>651.83732492604</ele>
        <time>2019-01-12T07:00:33.010Z</time>
      </trkpt>
      <trkpt lat="41.60644" lon="1.82291">
        <ele>652.42787032687</ele>
        <time>2019-01-12T07:00:39.000Z</time>
      </trkpt>
      <trkpt lat="41.60645" lon="1.82279">
        <ele>653.22703825867</ele>
        <time>2019-01-12T07:00:47.030Z</time>
      </trkpt>
      <trkpt lat="41.60649" lon="1.82268">
        <ele>655.05209984</ele>
        <time>2019-01-12T07:01:13.999Z</time>
      </trkpt>
      <trkpt lat="41.60647" lon="1.82256">
        <ele>655</ele>
        <time>2019-01-12T07:02:49.001Z</time>
      </trkpt>
      <trkpt lat="41.60645" lon="1.82244">
        <ele>655</ele>
        <time>2019-01-12T07:03:00.001Z</time>
      </trkpt>
      <trkpt lat="41.6064" lon="1.82232">
        <ele>655.4435483871</ele>
        <time>2019-01-12T07:03:09.000Z</time>
      </trkpt>
      <trkpt lat="41.60635" lon="1.82222">
        <ele>656</ele>
        <time>2019-01-12T07:03:17.001Z</time>
      </trkpt>
      <trkpt lat="41.60632" lon="1.82209">
        <ele>656</ele>
        <time>2019-01-12T07:03:22.002Z</time>
      </trkpt>
      <trkpt lat="41.60631" lon="1.82194">
        <ele>656.296</ele>
        <time>2019-01-12T07:03:26.000Z</time>
      </trkpt>
      <trkpt lat="41.60632" lon="1.8218">
        <ele>657.096</ele>
        <time>2019-01-12T07:03:30.000Z</time>
      </trkpt>
      <trkpt lat="41.60632" lon="1.82166">
        <ele>657.89619968</ele>
        <time>2019-01-12T07:03:34.001Z</time>
      </trkpt>
      <trkpt lat="41.60632" lon="1.82154">
        <ele>658.44809984</ele>
        <time>2019-01-12T07:03:39.001Z</time>
      </trkpt>
      <trkpt lat="41.60626" lon="1.82141">
        <ele>659.28923273273</ele>
        <time>2019-01-12T07:03:46.011Z</time>
      </trkpt>
      <trkpt lat="41.60632" lon="1.8213">
        <ele>660.64519801507</ele>
        <time>2019-01-12T07:03:53.001Z</time>
      </trkpt>
      <trkpt lat="41.60643" lon="1.8212">
        <ele>660.56763224915</ele>
        <time>2019-01-12T07:03:59.011Z</time>
      </trkpt>
      <trkpt lat="41.60644" lon="1.82139">
        <ele>660.25739409214</ele>
        <time>2019-01-12T07:04:02.011Z</time>
      </trkpt>
      <trkpt lat="41.60655" lon="1.82131">
        <ele>659.94999955289</ele>
        <time>2019-01-12T07:04:05.001Z</time>
      </trkpt>
      <trkpt lat="41.60664" lon="1.82124">
        <ele>659.64960086253</ele>
        <time>2019-01-12T07:04:08.011Z</time>
      </trkpt>
      <trkpt lat="41.60672" lon="1.82116">
        <ele>659.35119754015</ele>
        <time>2019-01-12T07:04:11.001Z</time>
      </trkpt>
      <trkpt lat="41.60681" lon="1.8211">
        <ele>659.05179653378</ele>
        <time>2019-01-12T07:04:14.001Z</time>
      </trkpt>
      <trkpt lat="41.60692" lon="1.82107">
        <ele>658.64130048</ele>
        <time>2019-01-12T07:04:18.107Z</time>
      </trkpt>
      <trkpt lat="41.60699" lon="1.82099">
        <ele>658.25190016</ele>
        <time>2019-01-12T07:04:22.001Z</time>
      </trkpt>
      <trkpt lat="41.60707" lon="1.82093">
        <ele>658.09534163579</ele>
        <time>2019-01-12T07:04:25.001Z</time>
      </trkpt>
      <trkpt lat="41.60713" lon="1.82082">
        <ele>658.68998999088</ele>
        <time>2019-01-12T07:04:28.001Z</time>
      </trkpt>
      <trkpt lat="41.60719" lon="1.8207">
        <ele>659.28642197389</ele>
        <time>2019-01-12T07:04:31.010Z</time>
      </trkpt>
      <trkpt lat="41.60727" lon="1.82061">
        <ele>659.92129100423</ele>
        <time>2019-01-12T07:04:35.000Z</time>
      </trkpt>
      <trkpt lat="41.60729" lon="1.82047">
        <ele>659.11382438302</ele>
        <time>2019-01-12T07:04:39.001Z</time>
      </trkpt>
      <trkpt lat="41.6073" lon="1.82035">
        <ele>658.50837553715</ele>
        <time>2019-01-12T07:04:42.001Z</time>
      </trkpt>
      <trkpt lat="41.60728" lon="1.82022">
        <ele>657.70200064</ele>
        <time>2019-01-12T07:04:46.010Z</time>
      </trkpt>
      <trkpt lat="41.60729" lon="1.82008">
        <ele>656.70200064</ele>
        <time>2019-01-12T07:04:51.010Z</time>
      </trkpt>
      <trkpt lat="41.60731" lon="1.81994">
        <ele>656</ele>
        <time>2019-01-12T07:04:56.009Z</time>
      </trkpt>
      <trkpt lat="41.60734" lon="1.81981">
        <ele>656</ele>
        <time>2019-01-12T07:05:02.001Z</time>
      </trkpt>
      <trkpt lat="41.60739" lon="1.81971">
        <ele>656.248</ele>
        <time>2019-01-12T07:05:07.000Z</time>
      </trkpt>
      <trkpt lat="41.60746" lon="1.81961">
        <ele>656.74809984</ele>
        <time>2019-01-12T07:05:12.001Z</time>
      </trkpt>
      <trkpt lat="41.60753" lon="1.8195">
        <ele>657.4922615873</ele>
        <time>2019-01-12T07:05:17.001Z</time>
      </trkpt>
      <trkpt lat="41.60761" lon="1.81942">
        <ele>658.48432507937</ele>
        <time>2019-01-12T07:05:22.001Z</time>
      </trkpt>
      <trkpt lat="41.60768" lon="1.81934">
        <ele>659.72289156627</ele>
        <time>2019-01-12T07:05:27.000Z</time>
      </trkpt>
      <trkpt lat="41.60777" lon="1.81928">
        <ele>661.8316260241</ele>
        <time>2019-01-12T07:05:34.001Z</time>
      </trkpt>
      <trkpt lat="41.60788" lon="1.81927">
        <ele>662.64769028112</ele>
        <time>2019-01-12T07:05:41.011Z</time>
      </trkpt>
      <trkpt lat="41.60779" lon="1.81922">
        <ele>665.344</ele>
        <time>2019-01-12T07:05:59.000Z</time>
      </trkpt>
      <trkpt lat="41.6077" lon="1.8192">
        <ele>667.04743083004</ele>
        <time>2019-01-12T07:06:05.000Z</time>
      </trkpt>
      <trkpt lat="41.6076" lon="1.81917">
        <ele>668.07287449393</ele>
        <time>2019-01-12T07:06:15.000Z</time>
      </trkpt>
      <trkpt lat="41.60756" lon="1.81906">
        <ele>672.07870899577</ele>
        <time>2019-01-12T07:06:35.000Z</time>
      </trkpt>
      <trkpt lat="41.60755" lon="1.81894">
        <ele>679.86950563237</ele>
        <time>2019-01-12T07:06:59.001Z</time>
      </trkpt>
      <trkpt lat="41.6075" lon="1.81882">
        <ele>681.53305785124</ele>
        <time>2019-01-12T07:07:10.000Z</time>
      </trkpt>
      <trkpt lat="41.60747" lon="1.81871">
        <ele>686.34729856</ele>
        <time>2019-01-12T07:07:29.011Z</time>
      </trkpt>
      <trkpt lat="41.60747" lon="1.81859">
        <ele>693.11836573373</ele>
        <time>2019-01-12T07:07:55.001Z</time>
      </trkpt>
      <trkpt lat="41.60752" lon="1.81849">
        <ele>698.88842606895</ele>
        <time>2019-01-12T07:08:19.011Z</time>
      </trkpt>
      <trkpt lat="41.60746" lon="1.81838">
        <ele>701.44685185114</ele>
        <time>2019-01-12T07:08:36.001Z</time>
      </trkpt>
      <trkpt lat="41.60738" lon="1.81834">
        <ele>704.69799936</ele>
        <time>2019-01-12T07:08:48.010Z</time>
      </trkpt>
      <trkpt lat="41.6073" lon="1.81824">
        <ele>707.48189769119</ele>
        <time>2019-01-12T07:09:02.011Z</time>
      </trkpt>
      <trkpt lat="41.60721" lon="1.81827">
        <ele>711.94729856</ele>
        <time>2019-01-12T07:09:21.011Z</time>
      </trkpt>
      <trkpt lat="41.60713" lon="1.81833">
        <ele>714.90121238058</ele>
        <time>2019-01-12T07:09:44.011Z</time>
      </trkpt>
      <trkpt lat="41.60704" lon="1.81837">
        <ele>719.55330048</ele>
        <time>2019-01-12T07:10:03.011Z</time>
      </trkpt>
      <trkpt lat="41.60698" lon="1.81848">
        <ele>721.65101822665</ele>
        <time>2019-01-12T07:10:13.011Z</time>
      </trkpt>
      <trkpt lat="41.60689" lon="1.81847">
        <ele>724.44398412748</ele>
        <time>2019-01-12T07:10:29.001Z</time>
      </trkpt>
      <trkpt lat="41.60678" lon="1.81846">
        <ele>725.70200064</ele>
        <time>2019-01-12T07:10:38.010Z</time>
      </trkpt>
      <trkpt lat="41.60669" lon="1.81851">
        <ele>727</ele>
        <time>2019-01-12T07:10:54.108Z</time>
      </trkpt>
      <trkpt lat="41.60663" lon="1.81863">
        <ele>725.30983108327</ele>
        <time>2019-01-12T07:11:03.010Z</time>
      </trkpt>
      <trkpt lat="41.60656" lon="1.81871">
        <ele>726.89849197132</ele>
        <time>2019-01-12T07:11:13.996Z</time>
      </trkpt>
      <trkpt lat="41.60648" lon="1.81878">
        <ele>727.94152600212</ele>
        <time>2019-01-12T07:11:24.000Z</time>
      </trkpt>
      <trkpt lat="41.60639" lon="1.81882">
        <ele>728.74772996753</ele>
        <time>2019-01-12T07:11:32.000Z</time>
      </trkpt>
      <trkpt lat="41.60631" lon="1.81888">
        <ele>729.54509426829</ele>
        <time>2019-01-12T07:11:40.000Z</time>
      </trkpt>
      <trkpt lat="41.60621" lon="1.81892">
        <ele>729.10090099786</ele>
        <time>2019-01-12T07:11:59.001Z</time>
      </trkpt>
      <trkpt lat="41.60622" lon="1.81906">
        <ele>729</ele>
        <time>2019-01-12T07:13:16.011Z</time>
      </trkpt>
      <trkpt lat="41.60619" lon="1.81918">
        <ele>729</ele>
        <time>2019-01-12T07:13:23.011Z</time>
      </trkpt>
      <trkpt lat="41.60615" lon="1.81929">
        <ele>729.11991650777</ele>
        <time>2019-01-12T07:13:26.016Z</time>
      </trkpt>
      <trkpt lat="41.6062" lon="1.81942">
        <ele>730</ele>
        <time>2019-01-12T07:13:37.011Z</time>
      </trkpt>
      <trkpt lat="41.60623" lon="1.81954">
        <ele>730</ele>
        <time>2019-01-12T07:13:43.011Z</time>
      </trkpt>
      <trkpt lat="41.60628" lon="1.81965">
        <ele>730.64614597721</ele>
        <time>2019-01-12T07:13:51.011Z</time>
      </trkpt>
      <trkpt lat="41.60636" lon="1.81973">
        <ele>731.74584158679</ele>
        <time>2019-01-12T07:13:57.011Z</time>
      </trkpt>
      <trkpt lat="41.60636" lon="1.81987">
        <ele>734.24353502612</ele>
        <time>2019-01-12T07:14:07.011Z</time>
      </trkpt>
      <trkpt lat="41.60637" lon="1.81999">
        <ele>735</ele>
        <time>2019-01-12T07:14:17.011Z</time>
      </trkpt>
      <trkpt lat="41.60639" lon="1.82012">
        <ele>735.00630734021</ele>
        <time>2019-01-12T07:14:25.011Z</time>
      </trkpt>
      <trkpt lat="41.60645" lon="1.82022">
        <ele>736.13704336114</ele>
        <time>2019-01-12T07:14:36.011Z</time>
      </trkpt>
      <trkpt lat="41.60644" lon="1.82034">
        <ele>737.04953720026</ele>
        <time>2019-01-12T07:14:45.011Z</time>
      </trkpt>
      <trkpt lat="41.60634" lon="1.82032">
        <ele>738.28283668089</ele>
        <time>2019-01-12T07:14:51.011Z</time>
      </trkpt>
      <trkpt lat="41.60625" lon="1.82026">
        <ele>739.24910374616</ele>
        <time>2019-01-12T07:14:57.001Z</time>
      </trkpt>
      <trkpt lat="41.60616" lon="1.82021">
        <ele>739.94601568635</ele>
        <time>2019-01-12T07:15:03.998Z</time>
      </trkpt>
      <trkpt lat="41.60607" lon="1.82016">
        <ele>740</ele>
        <time>2019-01-12T07:15:09.998Z</time>
      </trkpt>
      <trkpt lat="41.60598" lon="1.82008">
        <ele>740</ele>
        <time>2019-01-12T07:15:18.002Z</time>
      </trkpt>
      <trkpt lat="41.60589" lon="1.82004">
        <ele>740</ele>
        <time>2019-01-12T07:15:24.001Z</time>
      </trkpt>
      <trkpt lat="41.6058" lon="1.82004">
        <ele>740</ele>
        <time>2019-01-12T07:15:29.001Z</time>
      </trkpt>
      <trkpt lat="41.60571" lon="1.82006">
        <ele>740</ele>
        <time>2019-01-12T07:15:37.001Z</time>
      </trkpt>
      <trkpt lat="41.60559" lon="1.82012">
        <ele>740</ele>
        <time>2019-01-12T07:15:43.011Z</time>
      </trkpt>
      <trkpt lat="41.60557" lon="1.82028">
        <ele>740.8870690179</ele>
        <time>2019-01-12T07:15:49.011Z</time>
      </trkpt>
      <trkpt lat="41.60549" lon="1.82034">
        <ele>742.2495988775</ele>
        <time>2019-01-12T07:15:57.011Z</time>
      </trkpt>
      <trkpt lat="41.60541" lon="1.82028">
        <ele>746.23644068614</ele>
        <time>2019-01-12T07:16:27.011Z</time>
      </trkpt>
      <trkpt lat="41.6055" lon="1.82026">
        <ele>746.98973590072</ele>
        <time>2019-01-12T07:16:35.011Z</time>
      </trkpt>
      <trkpt lat="41.60541" lon="1.82025">
        <ele>752.5001984</ele>
        <time>2019-01-12T07:16:57.011Z</time>
      </trkpt>
      <trkpt lat="41.60533" lon="1.82031">
        <ele>755.05134995926</ele>
        <time>2019-01-12T07:17:08.011Z</time>
      </trkpt>
      <trkpt lat="41.60522" lon="1.82027">
        <ele>759.70220032</ele>
        <time>2019-01-12T07:17:28.011Z</time>
      </trkpt>
      <trkpt lat="41.60528" lon="1.82017">
        <ele>761.8915011649</ele>
        <time>2019-01-12T07:17:39.011Z</time>
      </trkpt>
      <trkpt lat="41.60519" lon="1.82013">
        <ele>769.69593622587</ele>
        <time>2019-01-12T07:18:08.011Z</time>
      </trkpt>
      <trkpt lat="41.60512" lon="1.82006">
        <ele>780.05330048</ele>
        <time>2019-01-12T07:19:08.011Z</time>
      </trkpt>
      <trkpt lat="41.60504" lon="1.81997">
        <ele>785.30159693311</ele>
        <time>2019-01-12T07:19:26.011Z</time>
      </trkpt>
      <trkpt lat="41.60494" lon="1.81991">
        <ele>793.86511461763</ele>
        <time>2019-01-12T07:20:01.011Z</time>
      </trkpt>
      <trkpt lat="41.60488" lon="1.82">
        <ele>797.30189813205</ele>
        <time>2019-01-12T07:20:16.011Z</time>
      </trkpt>
      <trkpt lat="41.60485" lon="1.81987">
        <ele>800.30150115059</ele>
        <time>2019-01-12T07:20:31.011Z</time>
      </trkpt>
      <trkpt lat="41.60477" lon="1.81982">
        <ele>809.44748277435</ele>
        <time>2019-01-12T07:21:16.011Z</time>
      </trkpt>
      <trkpt lat="41.60467" lon="1.8198">
        <ele>816.25110016</ele>
        <time>2019-01-12T07:21:37.011Z</time>
      </trkpt>
      <trkpt lat="41.60476" lon="1.81977">
        <ele>817</ele>
        <time>2019-01-12T07:21:48.011Z</time>
      </trkpt>
      <trkpt lat="41.60468" lon="1.81971">
        <ele>821.50170154318</ele>
        <time>2019-01-12T07:22:12.011Z</time>
      </trkpt>
      <trkpt lat="41.60458" lon="1.81966">
        <ele>829.869335</ele>
        <time>2019-01-12T07:22:49.011Z</time>
      </trkpt>
      <trkpt lat="41.6045" lon="1.81974">
        <ele>834.72756071021</ele>
        <time>2019-01-12T07:23:14.011Z</time>
      </trkpt>
      <trkpt lat="41.60437" lon="1.8197">
        <ele>842.55195620524</ele>
        <time>2019-01-12T07:23:43.011Z</time>
      </trkpt>
      <trkpt lat="41.60435" lon="1.81952">
        <ele>852.74439984675</ele>
        <time>2019-01-12T07:24:42.011Z</time>
      </trkpt>
      <trkpt lat="41.60429" lon="1.81943">
        <ele>855.55910607287</ele>
        <time>2019-01-12T07:24:56.011Z</time>
      </trkpt>
      <trkpt lat="41.60421" lon="1.81936">
        <ele>863.05330048</ele>
        <time>2019-01-12T07:25:28.011Z</time>
      </trkpt>
      <trkpt lat="41.60412" lon="1.81942">
        <ele>867.53807043304</ele>
        <time>2019-01-12T07:25:43.011Z</time>
      </trkpt>
      <trkpt lat="41.604" lon="1.81947">
        <ele>872.61141728395</ele>
        <time>2019-01-12T07:26:10.011Z</time>
      </trkpt>
      <trkpt lat="41.60392" lon="1.81938">
        <ele>878.95330048</ele>
        <time>2019-01-12T07:26:31.011Z</time>
      </trkpt>
      <trkpt lat="41.60383" lon="1.81943">
        <ele>880.94448843869</ele>
        <time>2019-01-12T07:26:44.011Z</time>
      </trkpt>
      <trkpt lat="41.60387" lon="1.81933">
        <ele>889.75010048</ele>
        <time>2019-01-12T07:27:22.001Z</time>
      </trkpt>
      <trkpt lat="41.60378" lon="1.81933">
        <ele>891.89651018257</ele>
        <time>2019-01-12T07:27:34.011Z</time>
      </trkpt>
      <trkpt lat="41.60367" lon="1.81931">
        <ele>894.25105340054</ele>
        <time>2019-01-12T07:27:42.011Z</time>
      </trkpt>
      <trkpt lat="41.60374" lon="1.8194">
        <ele>895.30069654859</ele>
        <time>2019-01-12T07:27:46.011Z</time>
      </trkpt>
      <trkpt lat="41.60362" lon="1.81933">
        <ele>899.01601942919</ele>
        <time>2019-01-12T07:28:15.011Z</time>
      </trkpt>
      <trkpt lat="41.60356" lon="1.81921">
        <ele>906.45110016</ele>
        <time>2019-01-12T07:28:39.011Z</time>
      </trkpt>
      <trkpt lat="41.60346" lon="1.8192">
        <ele>907.8611008</ele>
        <time>2019-01-12T07:28:53.111Z</time>
      </trkpt>
      <trkpt lat="41.60352" lon="1.8193">
        <ele>908.75254721034</ele>
        <time>2019-01-12T07:28:57.011Z</time>
      </trkpt>
      <trkpt lat="41.60343" lon="1.8193">
        <ele>914.86707941947</ele>
        <time>2019-01-12T07:29:19.011Z</time>
      </trkpt>
      <trkpt lat="41.60338" lon="1.81919">
        <ele>918.40299629683</ele>
        <time>2019-01-12T07:29:38.011Z</time>
      </trkpt>
      <trkpt lat="41.60332" lon="1.81929">
        <ele>922.84844202335</ele>
        <time>2019-01-12T07:29:54.011Z</time>
      </trkpt>
      <trkpt lat="41.60325" lon="1.81921">
        <ele>924.69558938395</ele>
        <time>2019-01-12T07:30:08.011Z</time>
      </trkpt>
      <trkpt lat="41.60319" lon="1.8193">
        <ele>934.25110016</ele>
        <time>2019-01-12T07:30:47.011Z</time>
      </trkpt>
      <trkpt lat="41.60311" lon="1.81925">
        <ele>934.55110016</ele>
        <time>2019-01-12T07:30:50.011Z</time>
      </trkpt>
      <trkpt lat="41.60302" lon="1.81919">
        <ele>936.73775598435</ele>
        <time>2019-01-12T07:31:07.011Z</time>
      </trkpt>
      <trkpt lat="41.60311" lon="1.81927">
        <ele>938.80265338923</ele>
        <time>2019-01-12T07:31:14.011Z</time>
      </trkpt>
      <trkpt lat="41.60301" lon="1.81928">
        <ele>941.48829206349</ele>
        <time>2019-01-12T07:31:32.011Z</time>
      </trkpt>
      <trkpt lat="41.60306" lon="1.81938">
        <ele>948.36453838901</ele>
        <time>2019-01-12T07:31:53.012Z</time>
      </trkpt>
      <trkpt lat="41.60313" lon="1.81947">
        <ele>952.67649314744</ele>
        <time>2019-01-12T07:32:18.011Z</time>
      </trkpt>
      <trkpt lat="41.60317" lon="1.81936">
        <ele>962.30220032</ele>
        <time>2019-01-12T07:32:56.011Z</time>
      </trkpt>
      <trkpt lat="41.60308" lon="1.81929">
        <ele>964.70220032</ele>
        <time>2019-01-12T07:33:08.011Z</time>
      </trkpt>
      <trkpt lat="41.60299" lon="1.81931">
        <ele>965.50220032</ele>
        <time>2019-01-12T07:33:12.011Z</time>
      </trkpt>
      <trkpt lat="41.60289" lon="1.81931">
        <ele>969.68944191235</ele>
        <time>2019-01-12T07:33:33.011Z</time>
      </trkpt>
      <trkpt lat="41.60282" lon="1.8194">
        <ele>972.64910336</ele>
        <time>2019-01-12T07:33:49.997Z</time>
      </trkpt>
      <trkpt lat="41.60278" lon="1.81927">
        <ele>983.45330048</ele>
        <time>2019-01-12T07:34:36.011Z</time>
      </trkpt>
      <trkpt lat="41.60285" lon="1.81919">
        <ele>988.09221438777</ele>
        <time>2019-01-12T07:35:00.011Z</time>
      </trkpt>
      <trkpt lat="41.6029" lon="1.81909">
        <ele>989.29920804803</ele>
        <time>2019-01-12T07:35:06.011Z</time>
      </trkpt>
      <trkpt lat="41.60283" lon="1.81918">
        <ele>991.08269515802</ele>
        <time>2019-01-12T07:35:15.011Z</time>
      </trkpt>
      <trkpt lat="41.60274" lon="1.81919">
        <ele>995.25149190673</ele>
        <time>2019-01-12T07:35:36.011Z</time>
      </trkpt>
      <trkpt lat="41.60265" lon="1.81922">
        <ele>997.35110016</ele>
        <time>2019-01-12T07:35:48.011Z</time>
      </trkpt>
      <trkpt lat="41.60254" lon="1.81931">
        <ele>999.70220032</ele>
        <time>2019-01-12T07:36:03.011Z</time>
      </trkpt>
      <trkpt lat="41.60261" lon="1.81922">
        <ele>1003.648043538</ele>
        <time>2019-01-12T07:36:21.011Z</time>
      </trkpt>
      <trkpt lat="41.60269" lon="1.81912">
        <ele>1006.45110016</ele>
        <time>2019-01-12T07:36:39.011Z</time>
      </trkpt>
      <trkpt lat="41.6026" lon="1.8191">
        <ele>1010.6994954909</ele>
        <time>2019-01-12T07:37:03.011Z</time>
      </trkpt>
      <trkpt lat="41.60252" lon="1.81923">
        <ele>1012.6853457835</ele>
        <time>2019-01-12T07:37:13.011Z</time>
      </trkpt>
      <trkpt lat="41.60246" lon="1.81932">
        <ele>1014.0435041937</ele>
        <time>2019-01-12T07:37:25.011Z</time>
      </trkpt>
      <trkpt lat="41.60237" lon="1.81938">
        <ele>1015.6929898181</ele>
        <time>2019-01-12T07:37:33.011Z</time>
      </trkpt>
      <trkpt lat="41.60228" lon="1.81934">
        <ele>1021</ele>
        <time>2019-01-12T07:37:55.011Z</time>
      </trkpt>
      <trkpt lat="41.60236" lon="1.81928">
        <ele>1021.7495985574</ele>
        <time>2019-01-12T07:38:32.011Z</time>
      </trkpt>
      <trkpt lat="41.60245" lon="1.81921">
        <ele>1021.4619714011</ele>
        <time>2019-01-12T07:39:30.011Z</time>
      </trkpt>
      <trkpt lat="41.60237" lon="1.81931">
        <ele>1021.0678828554</ele>
        <time>2019-01-12T07:39:34.011Z</time>
      </trkpt>
      <trkpt lat="41.60228" lon="1.81936">
        <ele>1021</ele>
        <time>2019-01-12T07:39:44.011Z</time>
      </trkpt>
      <trkpt lat="41.6022" lon="1.81941">
        <ele>1023.6877653186</ele>
        <time>2019-01-12T07:40:08.011Z</time>
      </trkpt>
      <trkpt lat="41.60216" lon="1.81928">
        <ele>1025.50220032</ele>
        <time>2019-01-12T07:40:17.011Z</time>
      </trkpt>
      <trkpt lat="41.60226" lon="1.81919">
        <ele>1028.67819776</ele>
        <time>2019-01-12T07:40:38.011Z</time>
      </trkpt>
      <trkpt lat="41.60221" lon="1.8193">
        <ele>1031.0227592398</ele>
        <time>2019-01-12T07:40:55.011Z</time>
      </trkpt>
      <trkpt lat="41.60212" lon="1.81937">
        <ele>1031.434706094</ele>
        <time>2019-01-12T07:40:59.011Z</time>
      </trkpt>
      <trkpt lat="41.60203" lon="1.81933">
        <ele>1036.65330048</ele>
        <time>2019-01-12T07:41:30.011Z</time>
      </trkpt>
      <trkpt lat="41.60207" lon="1.81922">
        <ele>1039.0967156887</ele>
        <time>2019-01-12T07:41:40.011Z</time>
      </trkpt>
      <trkpt lat="41.60202" lon="1.81933">
        <ele>1041.4515548638</ele>
        <time>2019-01-12T07:41:52.011Z</time>
      </trkpt>
      <trkpt lat="41.60192" lon="1.8194">
        <ele>1043.550650379</ele>
        <time>2019-01-12T07:42:10.011Z</time>
      </trkpt>
      <trkpt lat="41.60199" lon="1.81926">
        <ele>1045.6500992</ele>
        <time>2019-01-12T07:42:31.011Z</time>
      </trkpt>
      <trkpt lat="41.60208" lon="1.81914">
        <ele>1047.0513499593</ele>
        <time>2019-01-12T07:42:38.011Z</time>
      </trkpt>
      <trkpt lat="41.60216" lon="1.81907">
        <ele>1047.9522517259</ele>
        <time>2019-01-12T07:42:41.011Z</time>
      </trkpt>
      <trkpt lat="41.60211" lon="1.81921">
        <ele>1051.25330048</ele>
        <time>2019-01-12T07:42:52.011Z</time>
      </trkpt>
      <trkpt lat="41.60201" lon="1.81923">
        <ele>1052.4932399248</ele>
        <time>2019-01-12T07:43:12.011Z</time>
      </trkpt>
      <trkpt lat="41.60193" lon="1.81926">
        <ele>1053.7397374582</ele>
        <time>2019-01-12T07:43:17.011Z</time>
      </trkpt>
      <trkpt lat="41.60181" lon="1.81934">
        <ele>1059.70220032</ele>
        <time>2019-01-12T07:43:38.011Z</time>
      </trkpt>
      <trkpt lat="41.60172" lon="1.8193">
        <ele>1061</ele>
        <time>2019-01-12T07:43:49.011Z</time>
      </trkpt>
      <trkpt lat="41.60181" lon="1.81919">
        <ele>1061</ele>
        <time>2019-01-12T07:43:53.011Z</time>
      </trkpt>
      <trkpt lat="41.60188" lon="1.81911">
        <ele>1061.50220032</ele>
        <time>2019-01-12T07:43:57.011Z</time>
      </trkpt>
      <trkpt lat="41.60184" lon="1.81923">
        <ele>1062.70220032</ele>
        <time>2019-01-12T07:44:03.011Z</time>
      </trkpt>
      <trkpt lat="41.60175" lon="1.81926">
        <ele>1066.8815031829</ele>
        <time>2019-01-12T07:44:34.011Z</time>
      </trkpt>
      <trkpt lat="41.60166" lon="1.8193">
        <ele>1071.54112</ele>
        <time>2019-01-12T07:44:53.011Z</time>
      </trkpt>
      <trkpt lat="41.60158" lon="1.81937">
        <ele>1073.3543497744</ele>
        <time>2019-01-12T07:44:58.011Z</time>
      </trkpt>
      <trkpt lat="41.60149" lon="1.81936">
        <ele>1076.2241459811</ele>
        <time>2019-01-12T07:45:07.013Z</time>
      </trkpt>
      <trkpt lat="41.60139" lon="1.81932">
        <ele>1077.75240192</ele>
        <time>2019-01-12T07:45:17.008Z</time>
      </trkpt>
      <trkpt lat="41.60144" lon="1.81922">
        <ele>1081.64940288</ele>
        <time>2019-01-12T07:45:29.998Z</time>
      </trkpt>
      <trkpt lat="41.60135" lon="1.81925">
        <ele>1084.9500493586</ele>
        <time>2019-01-12T07:46:35.000Z</time>
      </trkpt>
      <trkpt lat="41.60126" lon="1.81931">
        <ele>1083.74989952</ele>
        <time>2019-01-12T07:46:57.001Z</time>
      </trkpt>
      <trkpt lat="41.6013" lon="1.81919">
        <ele>1084</ele>
        <time>2019-01-12T07:47:50.011Z</time>
      </trkpt>
      <trkpt lat="41.60138" lon="1.81925">
        <ele>1084</ele>
        <time>2019-01-12T07:48:26.000Z</time>
      </trkpt>
      <trkpt lat="41.60141" lon="1.81913">
        <ele>1085.550650379</ele>
        <time>2019-01-12T07:48:50.011Z</time>
      </trkpt>
      <trkpt lat="41.60139" lon="1.81926">
        <ele>1083.1491489722</ele>
        <time>2019-01-12T07:50:26.000Z</time>
      </trkpt>
      <trkpt lat="41.6013" lon="1.81922">
        <ele>1080.24669952</ele>
        <time>2019-01-12T07:53:17.011Z</time>
      </trkpt>
      <trkpt lat="41.60133" lon="1.81908">
        <ele>1075</ele>
        <time>2019-01-12T07:54:30.011Z</time>
      </trkpt>
      <trkpt lat="41.60125" lon="1.81913">
        <ele>1076</ele>
        <time>2019-01-12T07:55:08.011Z</time>
      </trkpt>
      <trkpt lat="41.60116" lon="1.81912">
        <ele>1075.9538158443</ele>
        <time>2019-01-12T07:55:55.000Z</time>
      </trkpt>
      <trkpt lat="41.60108" lon="1.81906">
        <ele>1069.6677793729</ele>
        <time>2019-01-12T07:56:39.013Z</time>
      </trkpt>
      <trkpt lat="41.60102" lon="1.81896">
        <ele>1065.4517975557</ele>
        <time>2019-01-12T07:56:53.011Z</time>
      </trkpt>
      <trkpt lat="41.60096" lon="1.81886">
        <ele>1059.5468497453</ele>
        <time>2019-01-12T07:57:06.012Z</time>
      </trkpt>
      <trkpt lat="41.6009" lon="1.81875">
        <ele>1055.4979012592</ele>
        <time>2019-01-12T07:57:17.011Z</time>
      </trkpt>
      <trkpt lat="41.60082" lon="1.81869">
        <ele>1047.9731873769</ele>
        <time>2019-01-12T07:57:35.000Z</time>
      </trkpt>
      <trkpt lat="41.60072" lon="1.81871">
        <ele>1047</ele>
        <time>2019-01-12T07:57:54.014Z</time>
      </trkpt>
      <trkpt lat="41.60064" lon="1.81878">
        <ele>1049.30220032</ele>
        <time>2019-01-12T07:58:06.011Z</time>
      </trkpt>
      <trkpt lat="41.6006" lon="1.81888">
        <ele>1051.92180224</ele>
        <time>2019-01-12T07:58:19.109Z</time>
      </trkpt>
      <trkpt lat="41.60055" lon="1.81899">
        <ele>1053.64980096</ele>
        <time>2019-01-12T07:58:30.998Z</time>
      </trkpt>
      <trkpt lat="41.60051" lon="1.8191">
        <ele>1054.45000064</ele>
        <time>2019-01-12T07:58:39.000Z</time>
      </trkpt>
      <trkpt lat="41.60046" lon="1.8192">
        <ele>1055</ele>
        <time>2019-01-12T07:58:50.001Z</time>
      </trkpt>
      <trkpt lat="41.60038" lon="1.81926">
        <ele>1055.4484061216</ele>
        <time>2019-01-12T07:58:59.002Z</time>
      </trkpt>
      <trkpt lat="41.60028" lon="1.81928">
        <ele>1057.791966319</ele>
        <time>2019-01-12T07:59:09.002Z</time>
      </trkpt>
      <trkpt lat="41.60022" lon="1.81937">
        <ele>1060.5499008</ele>
        <time>2019-01-12T07:59:19.999Z</time>
      </trkpt>
      <trkpt lat="41.60025" lon="1.81949">
        <ele>1063.644767571</ele>
        <time>2019-01-12T07:59:39.999Z</time>
      </trkpt>
      <trkpt lat="41.60033" lon="1.81954">
        <ele>1066.946541688</ele>
        <time>2019-01-12T07:59:50.999Z</time>
      </trkpt>
      <trkpt lat="41.60039" lon="1.81963">
        <ele>1071.48270336</ele>
        <time>2019-01-12T08:00:06.109Z</time>
      </trkpt>
      <trkpt lat="41.60048" lon="1.81965">
        <ele>1079.0356927097</ele>
        <time>2019-01-12T08:00:38.011Z</time>
      </trkpt>
      <trkpt lat="41.60057" lon="1.81961">
        <ele>1082.3128</ele>
        <time>2019-01-12T08:00:49.011Z</time>
      </trkpt>
      <trkpt lat="41.60064" lon="1.81969">
        <ele>1089.3009959509</ele>
        <time>2019-01-12T08:01:26.011Z</time>
      </trkpt>
      <trkpt lat="41.60068" lon="1.8198">
        <ele>1095</ele>
        <time>2019-01-12T08:01:50.000Z</time>
      </trkpt>
      <trkpt lat="41.60071" lon="1.81992">
        <ele>1103.35330048</ele>
        <time>2019-01-12T08:02:09.011Z</time>
      </trkpt>
      <trkpt lat="41.60078" lon="1.82001">
        <ele>1102.6482864516</ele>
        <time>2019-01-12T08:05:31.011Z</time>
      </trkpt>
      <trkpt lat="41.60087" lon="1.82009">
        <ele>1101.49779968</ele>
        <time>2019-01-12T08:05:42.011Z</time>
      </trkpt>
      <trkpt lat="41.60093" lon="1.82017">
        <ele>1100.44889984</ele>
        <time>2019-01-12T08:05:50.011Z</time>
      </trkpt>
      <trkpt lat="41.60098" lon="1.82029">
        <ele>1099.64889984</ele>
        <time>2019-01-12T08:05:58.011Z</time>
      </trkpt>
      <trkpt lat="41.60104" lon="1.82038">
        <ele>1099</ele>
        <time>2019-01-12T08:06:09.011Z</time>
      </trkpt>
      <trkpt lat="41.6011" lon="1.82048">
        <ele>1099.4470760464</ele>
        <time>2019-01-12T08:06:19.011Z</time>
      </trkpt>
      <trkpt lat="41.60113" lon="1.8206">
        <ele>1101.6977806452</ele>
        <time>2019-01-12T08:06:33.011Z</time>
      </trkpt>
      <trkpt lat="41.60112" lon="1.82072">
        <ele>1103</ele>
        <time>2019-01-12T08:06:48.011Z</time>
      </trkpt>
      <trkpt lat="41.60116" lon="1.82083">
        <ele>1101.44889984</ele>
        <time>2019-01-12T08:09:00.011Z</time>
      </trkpt>
      <trkpt lat="41.60116" lon="1.82071">
        <ele>1102.0391772596</ele>
        <time>2019-01-12T08:09:44.109Z</time>
      </trkpt>
      <trkpt lat="41.60117" lon="1.82059">
        <ele>1100</ele>
        <time>2019-01-12T08:09:59.001Z</time>
      </trkpt>
      <trkpt lat="41.60114" lon="1.82048">
        <ele>1099.1020037528</ele>
        <time>2019-01-12T08:10:09.001Z</time>
      </trkpt>
      <trkpt lat="41.60105" lon="1.82048">
        <ele>1091.29819904</ele>
        <time>2019-01-12T08:10:38.009Z</time>
      </trkpt>
      <trkpt lat="41.60096" lon="1.82052">
        <ele>1088.29999872</ele>
        <time>2019-01-12T08:10:53.000Z</time>
      </trkpt>
      <trkpt lat="41.60087" lon="1.82054">
        <ele>1079.9769945099</ele>
        <time>2019-01-12T08:11:15.011Z</time>
      </trkpt>
      <trkpt lat="41.60079" lon="1.82049">
        <ele>1076.6549759887</ele>
        <time>2019-01-12T08:11:29.011Z</time>
      </trkpt>
      <trkpt lat="41.60076" lon="1.82061">
        <ele>1070.80079616</ele>
        <time>2019-01-12T08:11:54.998Z</time>
      </trkpt>
      <trkpt lat="41.60066" lon="1.8206">
        <ele>1065.0486527406</ele>
        <time>2019-01-12T08:12:21.011Z</time>
      </trkpt>
      <trkpt lat="41.60058" lon="1.82054">
        <ele>1061.394993773</ele>
        <time>2019-01-12T08:12:31.016Z</time>
      </trkpt>
      <trkpt lat="41.60051" lon="1.82062">
        <ele>1055.2629267391</ele>
        <time>2019-01-12T08:12:56.011Z</time>
      </trkpt>
      <trkpt lat="41.60042" lon="1.82064">
        <ele>1050.9196946902</ele>
        <time>2019-01-12T08:13:05.011Z</time>
      </trkpt>
      <trkpt lat="41.60033" lon="1.82067">
        <ele>1048.1504611943</ele>
        <time>2019-01-12T08:13:14.011Z</time>
      </trkpt>
      <trkpt lat="41.60023" lon="1.82069">
        <ele>1043.7444992</ele>
        <time>2019-01-12T08:13:23.011Z</time>
      </trkpt>
      <trkpt lat="41.60014" lon="1.82069">
        <ele>1039.5114816246</ele>
        <time>2019-01-12T08:13:36.011Z</time>
      </trkpt>
      <trkpt lat="41.60008" lon="1.8208">
        <ele>1036.25010048</ele>
        <time>2019-01-12T08:13:47.001Z</time>
      </trkpt>
      <trkpt lat="41.6" lon="1.82086">
        <ele>1036.95010048</ele>
        <time>2019-01-12T08:13:54.001Z</time>
      </trkpt>
      <trkpt lat="41.59999" lon="1.82098">
        <ele>1033.6226230638</ele>
        <time>2019-01-12T08:14:08.010Z</time>
      </trkpt>
      <trkpt lat="41.59997" lon="1.8211">
        <ele>1029.3712165737</ele>
        <time>2019-01-12T08:14:20.011Z</time>
      </trkpt>
      <trkpt lat="41.59997" lon="1.82125">
        <ele>1026.305942012</ele>
        <time>2019-01-12T08:14:33.011Z</time>
      </trkpt>
      <trkpt lat="41.59991" lon="1.82136">
        <ele>1026</ele>
        <time>2019-01-12T08:14:41.011Z</time>
      </trkpt>
      <trkpt lat="41.59988" lon="1.82148">
        <ele>1025.109378613</ele>
        <time>2019-01-12T08:14:49.011Z</time>
      </trkpt>
      <trkpt lat="41.59986" lon="1.82162">
        <ele>1024</ele>
        <time>2019-01-12T08:14:56.011Z</time>
      </trkpt>
      <trkpt lat="41.59989" lon="1.82174">
        <ele>1024</ele>
        <time>2019-01-12T08:15:05.011Z</time>
      </trkpt>
      <trkpt lat="41.5999" lon="1.82186">
        <ele>1024</ele>
        <time>2019-01-12T08:15:17.011Z</time>
      </trkpt>
      <trkpt lat="41.59982" lon="1.82191">
        <ele>1024.4499008</ele>
        <time>2019-01-12T08:15:28.999Z</time>
      </trkpt>
      <trkpt lat="41.59975" lon="1.82199">
        <ele>1025.90220032</ele>
        <time>2019-01-12T08:15:39.011Z</time>
      </trkpt>
      <trkpt lat="41.59967" lon="1.82207">
        <ele>1027.70020096</ele>
        <time>2019-01-12T08:15:48.001Z</time>
      </trkpt>
      <trkpt lat="41.59963" lon="1.82218">
        <ele>1030.35030144</ele>
        <time>2019-01-12T08:15:59.001Z</time>
      </trkpt>
      <trkpt lat="41.59957" lon="1.82229">
        <ele>1031.2496509094</ele>
        <time>2019-01-12T08:16:12.011Z</time>
      </trkpt>
      <trkpt lat="41.59948" lon="1.82235">
        <ele>1031.8509509679</ele>
        <time>2019-01-12T08:16:23.011Z</time>
      </trkpt>
      <trkpt lat="41.59939" lon="1.82232">
        <ele>1034.55330048</ele>
        <time>2019-01-12T08:16:33.011Z</time>
      </trkpt>
      <trkpt lat="41.5993" lon="1.82229">
        <ele>1037.4642835962</ele>
        <time>2019-01-12T08:16:43.010Z</time>
      </trkpt>
      <trkpt lat="41.59921" lon="1.82234">
        <ele>1036.54989952</ele>
        <time>2019-01-12T08:18:09.001Z</time>
      </trkpt>
      <trkpt lat="41.59914" lon="1.82243">
        <ele>1035.1128191793</ele>
        <time>2019-01-12T08:18:18.998Z</time>
      </trkpt>
      <trkpt lat="41.59914" lon="1.82258">
        <ele>1034.1266265079</ele>
        <time>2019-01-12T08:18:23.998Z</time>
      </trkpt>
      <trkpt lat="41.59912" lon="1.8227">
        <ele>1032.6740346769</ele>
        <time>2019-01-12T08:18:28.998Z</time>
      </trkpt>
      <trkpt lat="41.59907" lon="1.82285">
        <ele>1031.1515204229</ele>
        <time>2019-01-12T08:18:34.002Z</time>
      </trkpt>
      <trkpt lat="41.59904" lon="1.82297">
        <ele>1031.44980096</ele>
        <time>2019-01-12T08:18:38.998Z</time>
      </trkpt>
      <trkpt lat="41.599" lon="1.82309">
        <ele>1031.95010048</ele>
        <time>2019-01-12T08:18:44.001Z</time>
      </trkpt>
      <trkpt lat="41.5989" lon="1.82312">
        <ele>1031.44989952</ele>
        <time>2019-01-12T08:18:50.001Z</time>
      </trkpt>
      <trkpt lat="41.59881" lon="1.82316">
        <ele>1031.04989952</ele>
        <time>2019-01-12T08:18:54.001Z</time>
      </trkpt>
      <trkpt lat="41.59871" lon="1.82314">
        <ele>1029.59959808</ele>
        <time>2019-01-12T08:18:58.001Z</time>
      </trkpt>
      <trkpt lat="41.5986" lon="1.82317">
        <ele>1027.19559936</ele>
        <time>2019-01-12T08:19:04.011Z</time>
      </trkpt>
      <trkpt lat="41.59851" lon="1.82321">
        <ele>1026.111352313</ele>
        <time>2019-01-12T08:19:09.001Z</time>
      </trkpt>
      <trkpt lat="41.59843" lon="1.82326">
        <ele>1025.1241864174</ele>
        <time>2019-01-12T08:19:14.001Z</time>
      </trkpt>
      <trkpt lat="41.59834" lon="1.82332">
        <ele>1024.1510634904</ele>
        <time>2019-01-12T08:19:23.009Z</time>
      </trkpt>
      <trkpt lat="41.59825" lon="1.82337">
        <ele>1022.2103372022</ele>
        <time>2019-01-12T08:19:29.001Z</time>
      </trkpt>
      <trkpt lat="41.59817" lon="1.82347">
        <ele>1019.508652239</ele>
        <time>2019-01-12T08:19:37.002Z</time>
      </trkpt>
      <trkpt lat="41.59809" lon="1.82354">
        <ele>1018.5028162594</ele>
        <time>2019-01-12T08:19:42.001Z</time>
      </trkpt>
      <trkpt lat="41.59801" lon="1.8236">
        <ele>1018</ele>
        <time>2019-01-12T08:19:49.000Z</time>
      </trkpt>
      <trkpt lat="41.59791" lon="1.82364">
        <ele>1018.0125908887</ele>
        <time>2019-01-12T08:19:55.011Z</time>
      </trkpt>
      <trkpt lat="41.5978" lon="1.8236">
        <ele>1018.5326746415</ele>
        <time>2019-01-12T08:20:00.009Z</time>
      </trkpt>
      <trkpt lat="41.5977" lon="1.82356">
        <ele>1019.85110016</ele>
        <time>2019-01-12T08:20:13.011Z</time>
      </trkpt>
      <trkpt lat="41.59761" lon="1.82357">
        <ele>1020.70020096</ele>
        <time>2019-01-12T08:20:18.001Z</time>
      </trkpt>
      <trkpt lat="41.59751" lon="1.8236">
        <ele>1022.50220032</ele>
        <time>2019-01-12T08:20:27.011Z</time>
      </trkpt>
      <trkpt lat="41.59744" lon="1.82369">
        <ele>1023.70040064</ele>
        <time>2019-01-12T08:20:33.002Z</time>
      </trkpt>
      <trkpt lat="41.59744" lon="1.82381">
        <ele>1024.55120128</ele>
        <time>2019-01-12T08:20:40.012Z</time>
      </trkpt>
      <trkpt lat="41.59749" lon="1.82392">
        <ele>1025</ele>
        <time>2019-01-12T08:20:46.999Z</time>
      </trkpt>
      <trkpt lat="41.59756" lon="1.82402">
        <ele>1025</ele>
        <time>2019-01-12T08:20:52.999Z</time>
      </trkpt>
      <trkpt lat="41.59764" lon="1.82412">
        <ele>1025</ele>
        <time>2019-01-12T08:20:57.997Z</time>
      </trkpt>
      <trkpt lat="41.5977" lon="1.82422">
        <ele>1025</ele>
        <time>2019-01-12T08:21:01.998Z</time>
      </trkpt>
      <trkpt lat="41.59776" lon="1.82433">
        <ele>1024.7115537849</ele>
        <time>2019-01-12T08:21:05.998Z</time>
      </trkpt>
      <trkpt lat="41.59777" lon="1.82447">
        <ele>1023.7149411952</ele>
        <time>2019-01-12T08:21:11.001Z</time>
      </trkpt>
      <trkpt lat="41.59779" lon="1.8246">
        <ele>1022.8578204072</ele>
        <time>2019-01-12T08:21:15.999Z</time>
      </trkpt>
      <trkpt lat="41.59781" lon="1.82473">
        <ele>1022.2511605258</ele>
        <time>2019-01-12T08:21:22.011Z</time>
      </trkpt>
      <trkpt lat="41.59784" lon="1.82485">
        <ele>1022.30220032</ele>
        <time>2019-01-12T08:21:26.011Z</time>
      </trkpt>
      <trkpt lat="41.59786" lon="1.82497">
        <ele>1023.30220032</ele>
        <time>2019-01-12T08:21:31.011Z</time>
      </trkpt>
      <trkpt lat="41.59785" lon="1.8251">
        <ele>1024.2407479223</ele>
        <time>2019-01-12T08:21:37.011Z</time>
      </trkpt>
      <trkpt lat="41.59785" lon="1.82522">
        <ele>1025.0084637855</ele>
        <time>2019-01-12T08:21:45.011Z</time>
      </trkpt>
      <trkpt lat="41.59781" lon="1.82533">
        <ele>1025.8444097285</ele>
        <time>2019-01-12T08:21:53.011Z</time>
      </trkpt>
      <trkpt lat="41.59773" lon="1.82538">
        <ele>1028</ele>
        <time>2019-01-12T08:22:06.011Z</time>
      </trkpt>
      <trkpt lat="41.59763" lon="1.8254">
        <ele>1028.0330920263</ele>
        <time>2019-01-12T08:22:15.000Z</time>
      </trkpt>
      <trkpt lat="41.59755" lon="1.82546">
        <ele>1030.4477467366</ele>
        <time>2019-01-12T08:22:26.001Z</time>
      </trkpt>
      <trkpt lat="41.5975" lon="1.82558">
        <ele>1033.7480637941</ele>
        <time>2019-01-12T08:22:37.011Z</time>
      </trkpt>
      <trkpt lat="41.59742" lon="1.82566">
        <ele>1037.0958711286</ele>
        <time>2019-01-12T08:22:50.011Z</time>
      </trkpt>
      <trkpt lat="41.59733" lon="1.82571">
        <ele>1039.0681556081</ele>
        <time>2019-01-12T08:23:00.001Z</time>
      </trkpt>
      <trkpt lat="41.59726" lon="1.8258">
        <ele>1040.7421656031</ele>
        <time>2019-01-12T08:23:11.999Z</time>
      </trkpt>
      <trkpt lat="41.59719" lon="1.82588">
        <ele>1041</ele>
        <time>2019-01-12T08:23:22.999Z</time>
      </trkpt>
      <trkpt lat="41.59709" lon="1.8259">
        <ele>1041.65100032</ele>
        <time>2019-01-12T08:23:31.010Z</time>
      </trkpt>
      <trkpt lat="41.597" lon="1.82591">
        <ele>1042.8904242697</ele>
        <time>2019-01-12T08:23:39.010Z</time>
      </trkpt>
      <trkpt lat="41.59694" lon="1.82603">
        <ele>1044.1389054239</ele>
        <time>2019-01-12T08:23:46.001Z</time>
      </trkpt>
      <trkpt lat="41.59693" lon="1.82616">
        <ele>1044.6455926847</ele>
        <time>2019-01-12T08:23:51.002Z</time>
      </trkpt>
      <trkpt lat="41.59692" lon="1.8263">
        <ele>1045</ele>
        <time>2019-01-12T08:23:59.006Z</time>
      </trkpt>
      <trkpt lat="41.59692" lon="1.82644">
        <ele>1045</ele>
        <time>2019-01-12T08:24:05.011Z</time>
      </trkpt>
      <trkpt lat="41.5969" lon="1.82658">
        <ele>1044.8581560284</ele>
        <time>2019-01-12T08:24:16.001Z</time>
      </trkpt>
      <trkpt lat="41.59694" lon="1.82669">
        <ele>1043.9835911607</ele>
        <time>2019-01-12T08:24:24.999Z</time>
      </trkpt>
      <trkpt lat="41.59697" lon="1.82682">
        <ele>1042.502307082</ele>
        <time>2019-01-12T08:24:37.011Z</time>
      </trkpt>
      <trkpt lat="41.597" lon="1.82693">
        <ele>1041.2986958632</ele>
        <time>2019-01-12T08:24:43.011Z</time>
      </trkpt>
      <trkpt lat="41.59702" lon="1.82706">
        <ele>1039.6296312741</ele>
        <time>2019-01-12T08:24:49.109Z</time>
      </trkpt>
      <trkpt lat="41.59701" lon="1.8272">
        <ele>1037.2906132381</ele>
        <time>2019-01-12T08:24:55.996Z</time>
      </trkpt>
      <trkpt lat="41.59697" lon="1.82731">
        <ele>1032.70059776</ele>
        <time>2019-01-12T08:25:05.997Z</time>
      </trkpt>
      <trkpt lat="41.5969" lon="1.8274">
        <ele>1031.49979904</ele>
        <time>2019-01-12T08:25:12.001Z</time>
      </trkpt>
      <trkpt lat="41.59683" lon="1.82749">
        <ele>1029.6564046375</ele>
        <time>2019-01-12T08:25:19.010Z</time>
      </trkpt>
      <trkpt lat="41.59675" lon="1.82759">
        <ele>1024.8764329108</ele>
        <time>2019-01-12T08:25:29.001Z</time>
      </trkpt>
      <trkpt lat="41.59666" lon="1.8276">
        <ele>1021</ele>
        <time>2019-01-12T08:25:38.011Z</time>
      </trkpt>
      <trkpt lat="41.59657" lon="1.82766">
        <ele>1020.8592114775</ele>
        <time>2019-01-12T08:25:46.011Z</time>
      </trkpt>
      <trkpt lat="41.59648" lon="1.82768">
        <ele>1020.3507490742</ele>
        <time>2019-01-12T08:25:58.011Z</time>
      </trkpt>
      <trkpt lat="41.5964" lon="1.82775">
        <ele>1023.45000192</ele>
        <time>2019-01-12T08:26:56.000Z</time>
      </trkpt>
      <trkpt lat="41.59636" lon="1.82786">
        <ele>1027.80400128</ele>
        <time>2019-01-12T08:27:09.010Z</time>
      </trkpt>
      <trkpt lat="41.59631" lon="1.82796">
        <ele>1030</ele>
        <time>2019-01-12T08:27:18.000Z</time>
      </trkpt>
      <trkpt lat="41.59622" lon="1.82802">
        <ele>1029.94979968</ele>
        <time>2019-01-12T08:27:25.002Z</time>
      </trkpt>
      <trkpt lat="41.59612" lon="1.82801">
        <ele>1029.24889984</ele>
        <time>2019-01-12T08:27:32.011Z</time>
      </trkpt>
      <trkpt lat="41.59603" lon="1.82802">
        <ele>1029.6993013074</ele>
        <time>2019-01-12T08:27:38.000Z</time>
      </trkpt>
      <trkpt lat="41.59594" lon="1.82806">
        <ele>1031.3504499864</ele>
        <time>2019-01-12T08:27:48.011Z</time>
      </trkpt>
      <trkpt lat="41.59585" lon="1.82806">
        <ele>1033.04940288</ele>
        <time>2019-01-12T08:27:57.998Z</time>
      </trkpt>
      <trkpt lat="41.59576" lon="1.82803">
        <ele>1035.1465305505</ele>
        <time>2019-01-12T08:28:05.999Z</time>
      </trkpt>
      <trkpt lat="41.59567" lon="1.828">
        <ele>1036.0277381462</ele>
        <time>2019-01-12T08:28:15.001Z</time>
      </trkpt>
      <trkpt lat="41.59557" lon="1.82798">
        <ele>1036.04979968</ele>
        <time>2019-01-12T08:28:34.002Z</time>
      </trkpt>
      <trkpt lat="41.59547" lon="1.82794">
        <ele>1035.04979968</ele>
        <time>2019-01-12T08:28:44.002Z</time>
      </trkpt>
      <trkpt lat="41.59538" lon="1.82793">
        <ele>1035.45110016</ele>
        <time>2019-01-12T08:28:49.011Z</time>
      </trkpt>
      <trkpt lat="41.59529" lon="1.82798">
        <ele>1041.95770112</ele>
        <time>2019-01-12T08:29:03.011Z</time>
      </trkpt>
      <trkpt lat="41.5952" lon="1.82795">
        <ele>1043.7429277174</ele>
        <time>2019-01-12T08:29:12.011Z</time>
      </trkpt>
      <trkpt lat="41.59513" lon="1.82788">
        <ele>1045.4493578666</ele>
        <time>2019-01-12T08:29:22.001Z</time>
      </trkpt>
      <trkpt lat="41.59507" lon="1.82777">
        <ele>1046.4291692486</ele>
        <time>2019-01-12T08:29:29.011Z</time>
      </trkpt>
      <trkpt lat="41.59498" lon="1.82784">
        <ele>1047.9382843666</ele>
        <time>2019-01-12T08:29:44.011Z</time>
      </trkpt>
      <trkpt lat="41.59489" lon="1.82786">
        <ele>1050.9650281847</ele>
        <time>2019-01-12T08:29:56.997Z</time>
      </trkpt>
      <trkpt lat="41.59481" lon="1.8279">
        <ele>1054.0500513327</ele>
        <time>2019-01-12T08:30:05.011Z</time>
      </trkpt>
      <trkpt lat="41.59472" lon="1.82794">
        <ele>1056.8479797216</ele>
        <time>2019-01-12T08:30:14.011Z</time>
      </trkpt>
      <trkpt lat="41.59474" lon="1.82806">
        <ele>1061.7019019358</ele>
        <time>2019-01-12T08:30:33.011Z</time>
      </trkpt>
      <trkpt lat="41.59474" lon="1.82818">
        <ele>1065.85010048</ele>
        <time>2019-01-12T08:30:53.001Z</time>
      </trkpt>
      <trkpt lat="41.59484" lon="1.82822">
        <ele>1070.9300447579</ele>
        <time>2019-01-12T08:31:05.001Z</time>
      </trkpt>
      <trkpt lat="41.59492" lon="1.82826">
        <ele>1076.64910336</ele>
        <time>2019-01-12T08:31:19.997Z</time>
      </trkpt>
      <trkpt lat="41.59498" lon="1.82836">
        <ele>1080.8537531327</ele>
        <time>2019-01-12T08:31:34.997Z</time>
      </trkpt>
      <trkpt lat="41.59494" lon="1.82848">
        <ele>1078.4513484217</ele>
        <time>2019-01-12T08:31:42.997Z</time>
      </trkpt>
      <trkpt lat="41.59494" lon="1.82862">
        <ele>1078</ele>
        <time>2019-01-12T08:31:54.000Z</time>
      </trkpt>
      <trkpt lat="41.59503" lon="1.82862">
        <ele>1079.8864374237</ele>
        <time>2019-01-12T08:32:48.999Z</time>
      </trkpt>
      <trkpt lat="41.59512" lon="1.82864">
        <ele>1085.1996035311</ele>
        <time>2019-01-12T08:33:05.002Z</time>
      </trkpt>
      <trkpt lat="41.5952" lon="1.82869">
        <ele>1089.8492959995</ele>
        <time>2019-01-12T08:33:23.002Z</time>
      </trkpt>
      <trkpt lat="41.59525" lon="1.8288">
        <ele>1095.0028032</ele>
        <time>2019-01-12T08:33:42.007Z</time>
      </trkpt>
      <trkpt lat="41.59531" lon="1.82891">
        <ele>1099.29940224</ele>
        <time>2019-01-12T08:34:20.997Z</time>
      </trkpt>
      <trkpt lat="41.59535" lon="1.82901">
        <ele>1102.7481791069</ele>
        <time>2019-01-12T08:34:42.012Z</time>
      </trkpt>
      <trkpt lat="41.59539" lon="1.82912">
        <ele>1103.9432974162</ele>
        <time>2019-01-12T08:34:53.999Z</time>
      </trkpt>
      <trkpt lat="41.59537" lon="1.82924">
        <ele>1105</ele>
        <time>2019-01-12T08:35:12.011Z</time>
      </trkpt>
      <trkpt lat="41.59546" lon="1.82928">
        <ele>1109.04940288</ele>
        <time>2019-01-12T08:35:27.998Z</time>
      </trkpt>
      <trkpt lat="41.59556" lon="1.82929">
        <ele>1118</ele>
        <time>2019-01-12T08:35:55.999Z</time>
      </trkpt>
      <trkpt lat="41.59561" lon="1.82939">
        <ele>1123.70240256</ele>
        <time>2019-01-12T08:36:38.012Z</time>
      </trkpt>
      <trkpt lat="41.59562" lon="1.82951">
        <ele>1132.0504045997</ele>
        <time>2019-01-12T08:37:54.002Z</time>
      </trkpt>
      <trkpt lat="41.59566" lon="1.82965">
        <ele>1135.4986909966</ele>
        <time>2019-01-12T08:38:12.011Z</time>
      </trkpt>
      <trkpt lat="41.59568" lon="1.82977">
        <ele>1138.8408495855</ele>
        <time>2019-01-12T08:38:33.011Z</time>
      </trkpt>
      <trkpt lat="41.59558" lon="1.82976">
        <ele>1143</ele>
        <time>2019-01-12T08:41:21.011Z</time>
      </trkpt>
      <trkpt lat="41.59568" lon="1.82982">
        <ele>1147.6495500136</ele>
        <time>2019-01-12T08:42:58.011Z</time>
      </trkpt>
      <trkpt lat="41.59558" lon="1.8298">
        <ele>1146.4927352017</ele>
        <time>2019-01-12T08:45:12.011Z</time>
      </trkpt>
      <trkpt lat="41.59567" lon="1.82985">
        <ele>1148</ele>
        <time>2019-01-12T08:46:25.011Z</time>
      </trkpt>
      <trkpt lat="41.59558" lon="1.82991">
        <ele>1149</ele>
        <time>2019-01-12T08:46:54.011Z</time>
      </trkpt>
      <trkpt lat="41.59568" lon="1.82989">
        <ele>1149</ele>
        <time>2019-01-12T08:47:34.011Z</time>
      </trkpt>
      <trkpt lat="41.59576" lon="1.82983">
        <ele>1152.60040192</ele>
        <time>2019-01-12T08:48:01.001Z</time>
      </trkpt>
      <trkpt lat="41.59567" lon="1.82987">
        <ele>1151.5001984</ele>
        <time>2019-01-12T08:51:46.999Z</time>
      </trkpt>
      <trkpt lat="41.59575" lon="1.82979">
        <ele>1146.7345003837</ele>
        <time>2019-01-12T08:54:41.011Z</time>
      </trkpt>
      <trkpt lat="41.59566" lon="1.82979">
        <ele>1144.109789349</ele>
        <time>2019-01-12T08:54:59.011Z</time>
      </trkpt>
      <trkpt lat="41.59575" lon="1.82979">
        <ele>1144.7014981484</ele>
        <time>2019-01-12T08:55:18.011Z</time>
      </trkpt>
      <trkpt lat="41.59566" lon="1.82974">
        <ele>1141.44969856</ele>
        <time>2019-01-12T08:55:53.001Z</time>
      </trkpt>
      <trkpt lat="41.59558" lon="1.82964">
        <ele>1134.5406373984</ele>
        <time>2019-01-12T08:56:49.112Z</time>
      </trkpt>
      <trkpt lat="41.59562" lon="1.82953">
        <ele>1134</ele>
        <time>2019-01-12T08:57:23.998Z</time>
      </trkpt>
      <trkpt lat="41.59559" lon="1.82941">
        <ele>1124.9470056198</ele>
        <time>2019-01-12T08:58:35.011Z</time>
      </trkpt>
      <trkpt lat="41.59558" lon="1.82929">
        <ele>1119.257326728</ele>
        <time>2019-01-12T08:59:02.001Z</time>
      </trkpt>
      <trkpt lat="41.59549" lon="1.82925">
        <ele>1114.34989952</ele>
        <time>2019-01-12T08:59:41.001Z</time>
      </trkpt>
      <trkpt lat="41.5954" lon="1.82923">
        <ele>1105.24969856</ele>
        <time>2019-01-12T09:00:27.001Z</time>
      </trkpt>
      <trkpt lat="41.59539" lon="1.8291">
        <ele>1106.2192307887</ele>
        <time>2019-01-12T09:00:52.001Z</time>
      </trkpt>
      <trkpt lat="41.59539" lon="1.82898">
        <ele>1104.3657793088</ele>
        <time>2019-01-12T09:00:59.998Z</time>
      </trkpt>
      <trkpt lat="41.5953" lon="1.82898">
        <ele>1098.6495500136</ele>
        <time>2019-01-12T09:03:10.999Z</time>
      </trkpt>
      <trkpt lat="41.59527" lon="1.82886">
        <ele>1093</ele>
        <time>2019-01-12T09:03:53.009Z</time>
      </trkpt>
      <trkpt lat="41.59517" lon="1.82885">
        <ele>1084.9096135647</ele>
        <time>2019-01-12T09:04:50.001Z</time>
      </trkpt>
      <trkpt lat="41.59515" lon="1.82873">
        <ele>1083</ele>
        <time>2019-01-12T09:05:06.000Z</time>
      </trkpt>
      <trkpt lat="41.59513" lon="1.82861">
        <ele>1082.8550302487</ele>
        <time>2019-01-12T09:05:16.001Z</time>
      </trkpt>
      <trkpt lat="41.59504" lon="1.82859">
        <ele>1079.5525843005</ele>
        <time>2019-01-12T09:06:29.001Z</time>
      </trkpt>
      <trkpt lat="41.59494" lon="1.82862">
        <ele>1074.5001984</ele>
        <time>2019-01-12T09:06:46.999Z</time>
      </trkpt>
      <trkpt lat="41.59495" lon="1.82874">
        <ele>1071.7001984</ele>
        <time>2019-01-12T09:07:00.999Z</time>
      </trkpt>
      <trkpt lat="41.595" lon="1.82892">
        <ele>1071</ele>
        <time>2019-01-12T09:07:09.011Z</time>
      </trkpt>
      <trkpt lat="41.595" lon="1.82905">
        <ele>1070.9017304615</ele>
        <time>2019-01-12T09:07:15.011Z</time>
      </trkpt>
      <trkpt lat="41.59495" lon="1.82915">
        <ele>1069.5555766154</ele>
        <time>2019-01-12T09:07:22.011Z</time>
      </trkpt>
      <trkpt lat="41.5949" lon="1.82925">
        <ele>1069</ele>
        <time>2019-01-12T09:07:29.009Z</time>
      </trkpt>
      <trkpt lat="41.59488" lon="1.82938">
        <ele>1068.04859904</ele>
        <time>2019-01-12T09:07:44.014Z</time>
      </trkpt>
      <trkpt lat="41.59493" lon="1.82949">
        <ele>1064.8783624278</ele>
        <time>2019-01-12T09:07:55.011Z</time>
      </trkpt>
      <trkpt lat="41.59495" lon="1.82964">
        <ele>1062.1483312108</ele>
        <time>2019-01-12T09:08:04.011Z</time>
      </trkpt>
      <trkpt lat="41.595" lon="1.82975">
        <ele>1060.64669952</ele>
        <time>2019-01-12T09:08:09.011Z</time>
      </trkpt>
      <trkpt lat="41.59503" lon="1.82986">
        <ele>1059.50200064</ele>
        <time>2019-01-12T09:08:17.010Z</time>
      </trkpt>
      <trkpt lat="41.59507" lon="1.82998">
        <ele>1061.2508990014</ele>
        <time>2019-01-12T09:08:27.014Z</time>
      </trkpt>
      <trkpt lat="41.59515" lon="1.83003">
        <ele>1063</ele>
        <time>2019-01-12T09:08:54.011Z</time>
      </trkpt>
      <trkpt lat="41.59523" lon="1.83011">
        <ele>1063</ele>
        <time>2019-01-12T09:09:04.011Z</time>
      </trkpt>
      <trkpt lat="41.59532" lon="1.83014">
        <ele>1065.0524681481</ele>
        <time>2019-01-12T09:09:15.000Z</time>
      </trkpt>
      <trkpt lat="41.59538" lon="1.83023">
        <ele>1066.9074054321</ele>
        <time>2019-01-12T09:09:21.010Z</time>
      </trkpt>
      <trkpt lat="41.59547" lon="1.83024">
        <ele>1068.4429980717</ele>
        <time>2019-01-12T09:09:29.011Z</time>
      </trkpt>
      <trkpt lat="41.59538" lon="1.83024">
        <ele>1069</ele>
        <time>2019-01-12T09:11:05.001Z</time>
      </trkpt>
      <trkpt lat="41.59532" lon="1.83014">
        <ele>1068.2991000272</ele>
        <time>2019-01-12T09:11:28.011Z</time>
      </trkpt>
      <trkpt lat="41.59523" lon="1.83007">
        <ele>1066.5545981232</ele>
        <time>2019-01-12T09:11:36.001Z</time>
      </trkpt>
      <trkpt lat="41.59514" lon="1.8301">
        <ele>1061.8004992</ele>
        <time>2019-01-12T09:11:49.009Z</time>
      </trkpt>
      <trkpt lat="41.59519" lon="1.83021">
        <ele>1055.7699661945</ele>
        <time>2019-01-12T09:12:00.999Z</time>
      </trkpt>
      <trkpt lat="41.59523" lon="1.83033">
        <ele>1052.9508972738</ele>
        <time>2019-01-12T09:12:08.011Z</time>
      </trkpt>
      <trkpt lat="41.59524" lon="1.83046">
        <ele>1043.7656897369</ele>
        <time>2019-01-12T09:12:41.011Z</time>
      </trkpt>
      <trkpt lat="41.59526" lon="1.83058">
        <ele>1039.79559936</ele>
        <time>2019-01-12T09:12:50.011Z</time>
      </trkpt>
      <trkpt lat="41.59515" lon="1.83059">
        <ele>1035.4625250338</ele>
        <time>2019-01-12T09:13:03.009Z</time>
      </trkpt>
      <trkpt lat="41.59505" lon="1.83061">
        <ele>1033.6116704139</ele>
        <time>2019-01-12T09:13:08.010Z</time>
      </trkpt>
      <trkpt lat="41.5951" lon="1.83071">
        <ele>1025.806439151</ele>
        <time>2019-01-12T09:13:30.011Z</time>
      </trkpt>
      <trkpt lat="41.59515" lon="1.83082">
        <ele>1021.7778115801</ele>
        <time>2019-01-12T09:13:42.011Z</time>
      </trkpt>
      <trkpt lat="41.59516" lon="1.83098">
        <ele>1019.6700817331</ele>
        <time>2019-01-12T09:13:49.011Z</time>
      </trkpt>
      <trkpt lat="41.59508" lon="1.83092">
        <ele>1013.6653849844</ele>
        <time>2019-01-12T09:14:19.011Z</time>
      </trkpt>
      <trkpt lat="41.59504" lon="1.83103">
        <ele>1008.29779968</ele>
        <time>2019-01-12T09:14:38.011Z</time>
      </trkpt>
      <trkpt lat="41.59497" lon="1.8311">
        <ele>1003.250496</ele>
        <time>2019-01-12T09:14:55.999Z</time>
      </trkpt>
      <trkpt lat="41.5949" lon="1.83101">
        <ele>998.44889984</ele>
        <time>2019-01-12T09:15:10.011Z</time>
      </trkpt>
      <trkpt lat="41.59489" lon="1.83089">
        <ele>994.9752052459</ele>
        <time>2019-01-12T09:15:25.001Z</time>
      </trkpt>
      <trkpt lat="41.5948" lon="1.83092">
        <ele>992.52004145749</ele>
        <time>2019-01-12T09:15:37.011Z</time>
      </trkpt>
      <trkpt lat="41.59471" lon="1.83085">
        <ele>991.10303740891</ele>
        <time>2019-01-12T09:15:44.011Z</time>
      </trkpt>
      <trkpt lat="41.59473" lon="1.83073">
        <ele>987.61796521891</ele>
        <time>2019-01-12T09:15:58.000Z</time>
      </trkpt>
      <trkpt lat="41.59465" lon="1.83079">
        <ele>981.60777902843</ele>
        <time>2019-01-12T09:16:18.011Z</time>
      </trkpt>
      <trkpt lat="41.59456" lon="1.83083">
        <ele>977.70130688769</ele>
        <time>2019-01-12T09:16:31.011Z</time>
      </trkpt>
      <trkpt lat="41.59446" lon="1.83088">
        <ele>976.11025665625</ele>
        <time>2019-01-12T09:16:39.011Z</time>
      </trkpt>
      <trkpt lat="41.59436" lon="1.83085">
        <ele>972.91857244561</ele>
        <time>2019-01-12T09:16:49.011Z</time>
      </trkpt>
      <trkpt lat="41.59426" lon="1.83091">
        <ele>970.06142784697</ele>
        <time>2019-01-12T09:16:55.011Z</time>
      </trkpt>
      <trkpt lat="41.59418" lon="1.83096">
        <ele>969.09336852657</ele>
        <time>2019-01-12T09:16:58.011Z</time>
      </trkpt>
      <trkpt lat="41.59418" lon="1.8311">
        <ele>967</ele>
        <time>2019-01-12T09:17:08.011Z</time>
      </trkpt>
      <trkpt lat="41.59429" lon="1.83105">
        <ele>963.90430508313</ele>
        <time>2019-01-12T09:17:25.000Z</time>
      </trkpt>
      <trkpt lat="41.59438" lon="1.83098">
        <ele>962.75387643663</ele>
        <time>2019-01-12T09:17:31.011Z</time>
      </trkpt>
      <trkpt lat="41.59447" lon="1.83097">
        <ele>962</ele>
        <time>2019-01-12T09:17:35.011Z</time>
      </trkpt>
      <trkpt lat="41.59453" lon="1.83109">
        <ele>962</ele>
        <time>2019-01-12T09:17:42.011Z</time>
      </trkpt>
      <trkpt lat="41.59459" lon="1.83119">
        <ele>960.34669952</ele>
        <time>2019-01-12T09:17:50.011Z</time>
      </trkpt>
      <trkpt lat="41.59467" lon="1.83126">
        <ele>959.14669952</ele>
        <time>2019-01-12T09:17:54.011Z</time>
      </trkpt>
      <trkpt lat="41.59476" lon="1.83139">
        <ele>959</ele>
        <time>2019-01-12T09:18:00.011Z</time>
      </trkpt>
      <trkpt lat="41.59478" lon="1.83158">
        <ele>959</ele>
        <time>2019-01-12T09:18:06.011Z</time>
      </trkpt>
      <trkpt lat="41.5948" lon="1.8317">
        <ele>959</ele>
        <time>2019-01-12T09:18:12.999Z</time>
      </trkpt>
      <trkpt lat="41.59487" lon="1.83183">
        <ele>959</ele>
        <time>2019-01-12T09:18:23.011Z</time>
      </trkpt>
      <trkpt lat="41.59492" lon="1.83196">
        <ele>959.64909952</ele>
        <time>2019-01-12T09:18:31.011Z</time>
      </trkpt>
      <trkpt lat="41.59498" lon="1.83213">
        <ele>960</ele>
        <time>2019-01-12T09:18:40.011Z</time>
      </trkpt>
      <trkpt lat="41.59503" lon="1.83223">
        <ele>959.66657198724</ele>
        <time>2019-01-12T09:18:48.011Z</time>
      </trkpt>
      <trkpt lat="41.5951" lon="1.83233">
        <ele>959.00021018933</ele>
        <time>2019-01-12T09:18:55.011Z</time>
      </trkpt>
      <trkpt lat="41.59512" lon="1.83248">
        <ele>961.29989859737</ele>
        <time>2019-01-12T09:19:06.011Z</time>
      </trkpt>
      <trkpt lat="41.59513" lon="1.83261">
        <ele>962.4987001794</ele>
        <time>2019-01-12T09:19:12.011Z</time>
      </trkpt>
      <trkpt lat="41.59517" lon="1.83273">
        <ele>963.95080205262</ele>
        <time>2019-01-12T09:19:24.009Z</time>
      </trkpt>
      <trkpt lat="41.5952" lon="1.83284">
        <ele>964.95100032</ele>
        <time>2019-01-12T09:19:34.010Z</time>
      </trkpt>
      <trkpt lat="41.59523" lon="1.83297">
        <ele>965.44900250762</ele>
        <time>2019-01-12T09:19:38.999Z</time>
      </trkpt>
      <trkpt lat="41.59528" lon="1.83307">
        <ele>966</ele>
        <time>2019-01-12T09:19:45.011Z</time>
      </trkpt>
      <trkpt lat="41.59536" lon="1.83314">
        <ele>966</ele>
        <time>2019-01-12T09:19:51.001Z</time>
      </trkpt>
      <trkpt lat="41.59544" lon="1.8331">
        <ele>965.7552</ele>
        <time>2019-01-12T09:19:56.998Z</time>
      </trkpt>
      <trkpt lat="41.59553" lon="1.83306">
        <ele>965.0539008</ele>
        <time>2019-01-12T09:20:04.011Z</time>
      </trkpt>
      <trkpt lat="41.59564" lon="1.83298">
        <ele>965</ele>
        <time>2019-01-12T09:20:12.011Z</time>
      </trkpt>
      <trkpt lat="41.59573" lon="1.83291">
        <ele>964.25149556791</ele>
        <time>2019-01-12T09:20:17.000Z</time>
      </trkpt>
      <trkpt lat="41.59581" lon="1.83286">
        <ele>962.75119856211</ele>
        <time>2019-01-12T09:20:22.011Z</time>
      </trkpt>
      <trkpt lat="41.59587" lon="1.83276">
        <ele>962</ele>
        <time>2019-01-12T09:20:28.000Z</time>
      </trkpt>
      <trkpt lat="41.59597" lon="1.83281">
        <ele>961.56038322581</ele>
        <time>2019-01-12T09:20:39.011Z</time>
      </trkpt>
      <trkpt lat="41.59605" lon="1.8329">
        <ele>961.05735870968</ele>
        <time>2019-01-12T09:20:44.001Z</time>
      </trkpt>
      <trkpt lat="41.59609" lon="1.83301">
        <ele>961.3465256303</ele>
        <time>2019-01-12T09:20:48.011Z</time>
      </trkpt>
      <trkpt lat="41.5962" lon="1.83304">
        <ele>961.95075543227</ele>
        <time>2019-01-12T09:20:54.011Z</time>
      </trkpt>
      <trkpt lat="41.59629" lon="1.83311">
        <ele>962.55110016</ele>
        <time>2019-01-12T09:21:00.011Z</time>
      </trkpt>
      <trkpt lat="41.59633" lon="1.83323">
        <ele>963</ele>
        <time>2019-01-12T09:21:08.000Z</time>
      </trkpt>
      <trkpt lat="41.59634" lon="1.83336">
        <ele>963.34909952</ele>
        <time>2019-01-12T09:21:41.009Z</time>
      </trkpt>
      <trkpt lat="41.59635" lon="1.83349">
        <ele>963</ele>
        <time>2019-01-12T09:21:47.999Z</time>
      </trkpt>
      <trkpt lat="41.59642" lon="1.83358">
        <ele>963.24736786578</ele>
        <time>2019-01-12T09:21:57.011Z</time>
      </trkpt>
      <trkpt lat="41.59647" lon="1.83368">
        <ele>963.94150897589</ele>
        <time>2019-01-12T09:22:04.001Z</time>
      </trkpt>
      <trkpt lat="41.59649" lon="1.83382">
        <ele>961.69870366542</ele>
        <time>2019-01-12T09:22:16.011Z</time>
      </trkpt>
      <trkpt lat="41.59651" lon="1.83395">
        <ele>961.10269093434</ele>
        <time>2019-01-12T09:22:19.000Z</time>
      </trkpt>
      <trkpt lat="41.59651" lon="1.83408">
        <ele>958.60381098618</ele>
        <time>2019-01-12T09:22:28.010Z</time>
      </trkpt>
      <trkpt lat="41.59654" lon="1.83422">
        <ele>955.90281190213</ele>
        <time>2019-01-12T09:22:35.001Z</time>
      </trkpt>
      <trkpt lat="41.59653" lon="1.83435">
        <ele>954.93268642245</ele>
        <time>2019-01-12T09:22:40.002Z</time>
      </trkpt>
      <trkpt lat="41.59648" lon="1.83445">
        <ele>953.92115514424</ele>
        <time>2019-01-12T09:22:45.001Z</time>
      </trkpt>
      <trkpt lat="41.59641" lon="1.83454">
        <ele>952.27079208117</ele>
        <time>2019-01-12T09:22:48.999Z</time>
      </trkpt>
      <trkpt lat="41.59638" lon="1.83467">
        <ele>950.61547809799</ele>
        <time>2019-01-12T09:22:53.009Z</time>
      </trkpt>
      <trkpt lat="41.59636" lon="1.83479">
        <ele>948.8007936</ele>
        <time>2019-01-12T09:22:55.999Z</time>
      </trkpt>
      <trkpt lat="41.59634" lon="1.83492">
        <ele>945.59999488</ele>
        <time>2019-01-12T09:23:00.000Z</time>
      </trkpt>
      <trkpt lat="41.59634" lon="1.83504">
        <ele>940.72066771653</ele>
        <time>2019-01-12T09:23:10.999Z</time>
      </trkpt>
      <trkpt lat="41.59631" lon="1.83517">
        <ele>940.74989952</ele>
        <time>2019-01-12T09:24:17.001Z</time>
      </trkpt>
      <trkpt lat="41.59624" lon="1.83527">
        <ele>940.24989952</ele>
        <time>2019-01-12T09:24:22.001Z</time>
      </trkpt>
      <trkpt lat="41.5962" lon="1.83538">
        <ele>938.94699904</ele>
        <time>2019-01-12T09:24:28.010Z</time>
      </trkpt>
      <trkpt lat="41.59614" lon="1.8355">
        <ele>937.44729856</ele>
        <time>2019-01-12T09:24:33.009Z</time>
      </trkpt>
      <trkpt lat="41.59606" lon="1.8356">
        <ele>937</ele>
        <time>2019-01-12T09:24:38.011Z</time>
      </trkpt>
      <trkpt lat="41.59602" lon="1.83571">
        <ele>937</ele>
        <time>2019-01-12T09:24:42.000Z</time>
      </trkpt>
      <trkpt lat="41.59598" lon="1.83582">
        <ele>936.33333415781</ele>
        <time>2019-01-12T09:24:48.010Z</time>
      </trkpt>
      <trkpt lat="41.59592" lon="1.83592">
        <ele>934.94511915975</ele>
        <time>2019-01-12T09:24:54.999Z</time>
      </trkpt>
      <trkpt lat="41.59586" lon="1.83601">
        <ele>931.86125479507</ele>
        <time>2019-01-12T09:25:00.000Z</time>
      </trkpt>
      <trkpt lat="41.59586" lon="1.83614">
        <ele>928.76281414663</ele>
        <time>2019-01-12T09:25:07.000Z</time>
      </trkpt>
      <trkpt lat="41.59583" lon="1.83626">
        <ele>928.05939712663</ele>
        <time>2019-01-12T09:25:13.999Z</time>
      </trkpt>
      <trkpt lat="41.59581" lon="1.83638">
        <ele>929.29364339243</ele>
        <time>2019-01-12T09:25:21.000Z</time>
      </trkpt>
      <trkpt lat="41.59586" lon="1.83649">
        <ele>930.2487566181</ele>
        <time>2019-01-12T09:25:27.000Z</time>
      </trkpt>
      <trkpt lat="41.5958" lon="1.83658">
        <ele>928.40703396056</ele>
        <time>2019-01-12T09:25:41.000Z</time>
      </trkpt>
      <trkpt lat="41.59574" lon="1.83668">
        <ele>922.19999744</ele>
        <time>2019-01-12T09:25:59.000Z</time>
      </trkpt>
      <trkpt lat="41.59574" lon="1.83681">
        <ele>919.49999872</ele>
        <time>2019-01-12T09:26:07.000Z</time>
      </trkpt>
      <trkpt lat="41.59564" lon="1.83681">
        <ele>918</ele>
        <time>2019-01-12T09:26:19.999Z</time>
      </trkpt>
      <trkpt lat="41.59554" lon="1.83684">
        <ele>915.83264543701</ele>
        <time>2019-01-12T09:26:28.999Z</time>
      </trkpt>
      <trkpt lat="41.59544" lon="1.83684">
        <ele>908.9508928</ele>
        <time>2019-01-12T09:26:38.999Z</time>
      </trkpt>
      <trkpt lat="41.59536" lon="1.83679">
        <ele>901.75059712</ele>
        <time>2019-01-12T09:26:51.998Z</time>
      </trkpt>
      <trkpt lat="41.5953" lon="1.8367">
        <ele>899.02612691729</ele>
        <time>2019-01-12T09:27:05.001Z</time>
      </trkpt>
      <trkpt lat="41.59521" lon="1.83672">
        <ele>894.0502976</ele>
        <time>2019-01-12T09:27:30.999Z</time>
      </trkpt>
      <trkpt lat="41.59522" lon="1.83659">
        <ele>887.55075031904</ele>
        <time>2019-01-12T09:28:48.998Z</time>
      </trkpt>
      <trkpt lat="41.59527" lon="1.83649">
        <ele>887</ele>
        <time>2019-01-12T09:29:00.011Z</time>
      </trkpt>
      <trkpt lat="41.59529" lon="1.83637">
        <ele>889.85330048</ele>
        <time>2019-01-12T09:29:14.011Z</time>
      </trkpt>
      <trkpt lat="41.59528" lon="1.83625">
        <ele>891.97368541353</ele>
        <time>2019-01-12T09:29:25.000Z</time>
      </trkpt>
      <trkpt lat="41.59529" lon="1.83611">
        <ele>897.69819904</ele>
        <time>2019-01-12T09:29:53.011Z</time>
      </trkpt>
      <trkpt lat="41.59534" lon="1.836">
        <ele>898</ele>
        <time>2019-01-12T09:30:01.008Z</time>
      </trkpt>
      <trkpt lat="41.59535" lon="1.83587">
        <ele>899.28803156066</ele>
        <time>2019-01-12T09:30:11.011Z</time>
      </trkpt>
      <trkpt lat="41.59541" lon="1.83578">
        <ele>901.29599313571</ele>
        <time>2019-01-12T09:30:25.997Z</time>
      </trkpt>
      <trkpt lat="41.59549" lon="1.83571">
        <ele>905.70020096</ele>
        <time>2019-01-12T09:30:48.001Z</time>
      </trkpt>
      <trkpt lat="41.59551" lon="1.83558">
        <ele>907.75120128</ele>
        <time>2019-01-12T09:31:02.012Z</time>
      </trkpt>
      <trkpt lat="41.59553" lon="1.83544">
        <ele>908</ele>
        <time>2019-01-12T09:31:14.000Z</time>
      </trkpt>
      <trkpt lat="41.59552" lon="1.83531">
        <ele>907.15146250798</ele>
        <time>2019-01-12T09:31:22.999Z</time>
      </trkpt>
      <trkpt lat="41.59548" lon="1.83519">
        <ele>904.74579712</ele>
        <time>2019-01-12T09:31:32.014Z</time>
      </trkpt>
      <trkpt lat="41.59539" lon="1.83521">
        <ele>905.25110016</ele>
        <time>2019-01-12T09:31:47.011Z</time>
      </trkpt>
      <trkpt lat="41.59532" lon="1.83531">
        <ele>906.75120128</ele>
        <time>2019-01-12T09:32:02.012Z</time>
      </trkpt>
      <trkpt lat="41.59524" lon="1.83526">
        <ele>908.29960192</ele>
        <time>2019-01-12T09:32:10.998Z</time>
      </trkpt>
      <trkpt lat="41.5952" lon="1.83514">
        <ele>909</ele>
        <time>2019-01-12T09:32:23.998Z</time>
      </trkpt>
      <trkpt lat="41.59512" lon="1.83507">
        <ele>908.48843709534</ele>
        <time>2019-01-12T09:32:37.013Z</time>
      </trkpt>
      <trkpt lat="41.59503" lon="1.83507">
        <ele>910</ele>
        <time>2019-01-12T09:32:44.998Z</time>
      </trkpt>
      <trkpt lat="41.59494" lon="1.83504">
        <ele>910</ele>
        <time>2019-01-12T09:32:53.001Z</time>
      </trkpt>
      <trkpt lat="41.59484" lon="1.83501">
        <ele>910</ele>
        <time>2019-01-12T09:33:00.999Z</time>
      </trkpt>
      <trkpt lat="41.59475" lon="1.83496">
        <ele>910.4499008</ele>
        <time>2019-01-12T09:33:08.999Z</time>
      </trkpt>
      <trkpt lat="41.59466" lon="1.83495">
        <ele>911</ele>
        <time>2019-01-12T09:33:15.000Z</time>
      </trkpt>
      <trkpt lat="41.59456" lon="1.83494">
        <ele>911</ele>
        <time>2019-01-12T09:33:22.009Z</time>
      </trkpt>
      <trkpt lat="41.59446" lon="1.83493">
        <ele>911</ele>
        <time>2019-01-12T09:33:28.998Z</time>
      </trkpt>
      <trkpt lat="41.59437" lon="1.83487">
        <ele>911.27835749685</ele>
        <time>2019-01-12T09:33:35.999Z</time>
      </trkpt>
      <trkpt lat="41.5944" lon="1.83476">
        <ele>919.29252673456</ele>
        <time>2019-01-12T09:34:10.998Z</time>
      </trkpt>
      <trkpt lat="41.59444" lon="1.83465">
        <ele>924.95020032</ele>
        <time>2019-01-12T09:34:44.002Z</time>
      </trkpt>
      <trkpt lat="41.59451" lon="1.83457">
        <ele>932.30040064</ele>
        <time>2019-01-12T09:35:16.002Z</time>
      </trkpt>
      <trkpt lat="41.59455" lon="1.83446">
        <ele>935.10220032</ele>
        <time>2019-01-12T09:35:30.011Z</time>
      </trkpt>
      <trkpt lat="41.59458" lon="1.83435">
        <ele>936.44830667945</ele>
        <time>2019-01-12T09:35:39.001Z</time>
      </trkpt>
      <trkpt lat="41.59463" lon="1.83424">
        <ele>938.06336064167</ele>
        <time>2019-01-12T09:35:50.011Z</time>
      </trkpt>
      <trkpt lat="41.59465" lon="1.83412">
        <ele>940.27631878518</ele>
        <time>2019-01-12T09:36:01.001Z</time>
      </trkpt>
      <trkpt lat="41.59466" lon="1.83399">
        <ele>941.75010048</ele>
        <time>2019-01-12T09:36:12.001Z</time>
      </trkpt>
      <trkpt lat="41.59464" lon="1.83387">
        <ele>942</ele>
        <time>2019-01-12T09:36:18.001Z</time>
      </trkpt>
      <trkpt lat="41.59465" lon="1.83374">
        <ele>941.98071729864</ele>
        <time>2019-01-12T09:36:25.008Z</time>
      </trkpt>
      <trkpt lat="41.59468" lon="1.83362">
        <ele>941.36605099781</ele>
        <time>2019-01-12T09:36:31.001Z</time>
      </trkpt>
      <trkpt lat="41.59472" lon="1.8335">
        <ele>939.50332245827</ele>
        <time>2019-01-12T09:36:42.001Z</time>
      </trkpt>
      <trkpt lat="41.59475" lon="1.83337">
        <ele>939</ele>
        <time>2019-01-12T09:36:46.998Z</time>
      </trkpt>
      <trkpt lat="41.59471" lon="1.83325">
        <ele>939</ele>
        <time>2019-01-12T09:36:53.998Z</time>
      </trkpt>
      <trkpt lat="41.59464" lon="1.83316">
        <ele>937.6639083871</ele>
        <time>2019-01-12T09:36:58.998Z</time>
      </trkpt>
      <trkpt lat="41.59457" lon="1.83306">
        <ele>936.44969419355</ele>
        <time>2019-01-12T09:37:03.013Z</time>
      </trkpt>
      <trkpt lat="41.59452" lon="1.83294">
        <ele>936</ele>
        <time>2019-01-12T09:37:08.013Z</time>
      </trkpt>
      <trkpt lat="41.59449" lon="1.83281">
        <ele>936</ele>
        <time>2019-01-12T09:37:13.013Z</time>
      </trkpt>
      <trkpt lat="41.59448" lon="1.83268">
        <ele>934.2434944</ele>
        <time>2019-01-12T09:37:18.013Z</time>
      </trkpt>
      <trkpt lat="41.59441" lon="1.83259">
        <ele>931.7434944</ele>
        <time>2019-01-12T09:37:23.013Z</time>
      </trkpt>
      <trkpt lat="41.59435" lon="1.83249">
        <ele>930.75262077068</ele>
        <time>2019-01-12T09:37:27.001Z</time>
      </trkpt>
      <trkpt lat="41.59431" lon="1.83236">
        <ele>930.25835734651</ele>
        <time>2019-01-12T09:37:31.998Z</time>
      </trkpt>
      <trkpt lat="41.59428" lon="1.83221">
        <ele>930</ele>
        <time>2019-01-12T09:37:37.000Z</time>
      </trkpt>
      <trkpt lat="41.59426" lon="1.83204">
        <ele>930</ele>
        <time>2019-01-12T09:37:43.011Z</time>
      </trkpt>
      <trkpt lat="41.59421" lon="1.83193">
        <ele>930</ele>
        <time>2019-01-12T09:37:50.999Z</time>
      </trkpt>
      <trkpt lat="41.59412" lon="1.83198">
        <ele>930</ele>
        <time>2019-01-12T09:37:58.001Z</time>
      </trkpt>
      <trkpt lat="41.59403" lon="1.83202">
        <ele>930</ele>
        <time>2019-01-12T09:38:03.000Z</time>
      </trkpt>
      <trkpt lat="41.59394" lon="1.83207">
        <ele>930.96783287579</ele>
        <time>2019-01-12T09:38:08.000Z</time>
      </trkpt>
      <trkpt lat="41.59385" lon="1.83212">
        <ele>932.95402170793</ele>
        <time>2019-01-12T09:38:14.998Z</time>
      </trkpt>
      <trkpt lat="41.59375" lon="1.83216">
        <ele>935.934907707</ele>
        <time>2019-01-12T09:38:22.013Z</time>
      </trkpt>
      <trkpt lat="41.59367" lon="1.83223">
        <ele>937.70000128</ele>
        <time>2019-01-12T09:38:28.000Z</time>
      </trkpt>
      <trkpt lat="41.59358" lon="1.83224">
        <ele>939</ele>
        <time>2019-01-12T09:38:37.998Z</time>
      </trkpt>
      <trkpt lat="41.59349" lon="1.83219">
        <ele>939</ele>
        <time>2019-01-12T09:38:47.013Z</time>
      </trkpt>
      <trkpt lat="41.59341" lon="1.83212">
        <ele>940.25497216684</ele>
        <time>2019-01-12T09:39:00.998Z</time>
      </trkpt>
      <trkpt lat="41.59333" lon="1.83207">
        <ele>940.46508165289</ele>
        <time>2019-01-12T09:39:09.998Z</time>
      </trkpt>
      <trkpt lat="41.59322" lon="1.83202">
        <ele>939.7488</ele>
        <time>2019-01-12T09:39:17.012Z</time>
      </trkpt>
      <trkpt lat="41.59316" lon="1.83193">
        <ele>939.34989952</ele>
        <time>2019-01-12T09:39:21.001Z</time>
      </trkpt>
      <trkpt lat="41.59309" lon="1.83184">
        <ele>938.49739776</ele>
        <time>2019-01-12T09:39:27.013Z</time>
      </trkpt>
      <trkpt lat="41.59319" lon="1.83183">
        <ele>940.5024</ele>
        <time>2019-01-12T09:40:07.012Z</time>
      </trkpt>
      <trkpt lat="41.59328" lon="1.83188">
        <ele>942.69513511177</ele>
        <time>2019-01-12T09:40:18.000Z</time>
      </trkpt>
      <trkpt lat="41.59337" lon="1.83191">
        <ele>944.43202527517</ele>
        <time>2019-01-12T09:40:26.000Z</time>
      </trkpt>
      <trkpt lat="41.59346" lon="1.83194">
        <ele>946.54682958206</ele>
        <time>2019-01-12T09:40:33.000Z</time>
      </trkpt>
      <trkpt lat="41.59355" lon="1.83193">
        <ele>948.50200064</ele>
        <time>2019-01-12T09:40:42.010Z</time>
      </trkpt>
      <trkpt lat="41.59357" lon="1.83181">
        <ele>951.14940288</ele>
        <time>2019-01-12T09:40:54.998Z</time>
      </trkpt>
      <trkpt lat="41.59357" lon="1.83168">
        <ele>956.25030144</ele>
        <time>2019-01-12T09:41:12.001Z</time>
      </trkpt>
      <trkpt lat="41.59361" lon="1.83156">
        <ele>959.82649142857</ele>
        <time>2019-01-12T09:41:23.997Z</time>
      </trkpt>
      <trkpt lat="41.59366" lon="1.83146">
        <ele>962.09940224</ele>
        <time>2019-01-12T09:41:34.997Z</time>
      </trkpt>
      <trkpt lat="41.59363" lon="1.83134">
        <ele>964.44970112</ele>
        <time>2019-01-12T09:41:48.997Z</time>
      </trkpt>
      <trkpt lat="41.59355" lon="1.83128">
        <ele>966.0449024</ele>
        <time>2019-01-12T09:41:57.983Z</time>
      </trkpt>
      <trkpt lat="41.59349" lon="1.83119">
        <ele>968.0188201221</ele>
        <time>2019-01-12T09:42:25.012Z</time>
      </trkpt>
      <trkpt lat="41.59353" lon="1.83108">
        <ele>968.55079821107</ele>
        <time>2019-01-12T09:43:19.001Z</time>
      </trkpt>
      <trkpt lat="41.59348" lon="1.8312">
        <ele>971</ele>
        <time>2019-01-12T09:46:52.010Z</time>
      </trkpt>
      <trkpt lat="41.59339" lon="1.83119">
        <ele>968.55110016</ele>
        <time>2019-01-12T09:48:10.011Z</time>
      </trkpt>
      <trkpt lat="41.59348" lon="1.83115">
        <ele>969.01464223108</ele>
        <time>2019-01-12T09:48:24.997Z</time>
      </trkpt>
      <trkpt lat="41.59344" lon="1.83102">
        <ele>969.71324685259</ele>
        <time>2019-01-12T09:48:32.011Z</time>
      </trkpt>
      <trkpt lat="41.59334" lon="1.83096">
        <ele>969.67523418946</ele>
        <time>2019-01-12T09:48:38.011Z</time>
      </trkpt>
      <trkpt lat="41.59337" lon="1.83083">
        <ele>969.15598290314</ele>
        <time>2019-01-12T09:48:43.001Z</time>
      </trkpt>
      <trkpt lat="41.59341" lon="1.83071">
        <ele>967.89979904</ele>
        <time>2019-01-12T09:48:50.001Z</time>
      </trkpt>
      <trkpt lat="41.59339" lon="1.83059">
        <ele>966.34999936</ele>
        <time>2019-01-12T09:49:01.000Z</time>
      </trkpt>
      <trkpt lat="41.59335" lon="1.83047">
        <ele>966.97806336459</ele>
        <time>2019-01-12T09:49:15.001Z</time>
      </trkpt>
      <trkpt lat="41.59332" lon="1.83036">
        <ele>964.50329688872</ele>
        <time>2019-01-12T09:49:23.011Z</time>
      </trkpt>
      <trkpt lat="41.59332" lon="1.83024">
        <ele>961.78853892968</ele>
        <time>2019-01-12T09:49:29.001Z</time>
      </trkpt>
      <trkpt lat="41.59335" lon="1.83012">
        <ele>957.94969856</ele>
        <time>2019-01-12T09:49:38.001Z</time>
      </trkpt>
      <trkpt lat="41.59339" lon="1.83">
        <ele>955.11038382263</ele>
        <time>2019-01-12T09:49:48.997Z</time>
      </trkpt>
      <trkpt lat="41.59343" lon="1.82988">
        <ele>952.34099829918</ele>
        <time>2019-01-12T09:49:58.001Z</time>
      </trkpt>
      <trkpt lat="41.59346" lon="1.82976">
        <ele>949</ele>
        <time>2019-01-12T09:50:04.996Z</time>
      </trkpt>
      <trkpt lat="41.5935" lon="1.82964">
        <ele>949</ele>
        <time>2019-01-12T09:50:13.001Z</time>
      </trkpt>
      <trkpt lat="41.59349" lon="1.82949">
        <ele>949</ele>
        <time>2019-01-12T09:50:22.112Z</time>
      </trkpt>
      <trkpt lat="41.59349" lon="1.82937">
        <ele>949</ele>
        <time>2019-01-12T09:50:29.997Z</time>
      </trkpt>
      <trkpt lat="41.59347" lon="1.82924">
        <ele>949</ele>
        <time>2019-01-12T09:50:44.011Z</time>
      </trkpt>
      <trkpt lat="41.59338" lon="1.8292">
        <ele>949</ele>
        <time>2019-01-12T09:51:12.011Z</time>
      </trkpt>
      <trkpt lat="41.59332" lon="1.82911">
        <ele>949.44597753455</ele>
        <time>2019-01-12T09:51:19.011Z</time>
      </trkpt>
      <trkpt lat="41.59325" lon="1.82902">
        <ele>950</ele>
        <time>2019-01-12T09:51:28.011Z</time>
      </trkpt>
      <trkpt lat="41.59322" lon="1.8289">
        <ele>949.85524309452</ele>
        <time>2019-01-12T09:51:36.011Z</time>
      </trkpt>
      <trkpt lat="41.59323" lon="1.82877">
        <ele>948.87824700817</ele>
        <time>2019-01-12T09:51:46.001Z</time>
      </trkpt>
      <trkpt lat="41.59328" lon="1.82866">
        <ele>947.55314814886</ele>
        <time>2019-01-12T09:51:56.011Z</time>
      </trkpt>
      <trkpt lat="41.59327" lon="1.82853">
        <ele>945.69829478782</ele>
        <time>2019-01-12T09:52:08.011Z</time>
      </trkpt>
      <trkpt lat="41.59324" lon="1.82841">
        <ele>947</ele>
        <time>2019-01-12T09:52:24.001Z</time>
      </trkpt>
      <trkpt lat="41.5932" lon="1.8283">
        <ele>944.75500481456</ele>
        <time>2019-01-12T09:52:32.011Z</time>
      </trkpt>
      <trkpt lat="41.59322" lon="1.82816">
        <ele>944.55110016</ele>
        <time>2019-01-12T09:52:40.011Z</time>
      </trkpt>
      <trkpt lat="41.59315" lon="1.82806">
        <ele>949.64732041167</ele>
        <time>2019-01-12T09:53:11.012Z</time>
      </trkpt>
      <trkpt lat="41.5931" lon="1.82797">
        <ele>950</ele>
        <time>2019-01-12T09:53:26.997Z</time>
      </trkpt>
      <trkpt lat="41.59308" lon="1.82785">
        <ele>950</ele>
        <time>2019-01-12T09:53:36.012Z</time>
      </trkpt>
      <trkpt lat="41.59305" lon="1.82772">
        <ele>950</ele>
        <time>2019-01-12T09:53:44.001Z</time>
      </trkpt>
      <trkpt lat="41.59302" lon="1.82761">
        <ele>949.04979968</ele>
        <time>2019-01-12T09:53:54.002Z</time>
      </trkpt>
      <trkpt lat="41.59292" lon="1.82763">
        <ele>943.34969856</ele>
        <time>2019-01-12T09:54:20.001Z</time>
      </trkpt>
      <trkpt lat="41.59283" lon="1.82765">
        <ele>938.19959808</ele>
        <time>2019-01-12T09:54:34.001Z</time>
      </trkpt>
      <trkpt lat="41.59277" lon="1.82775">
        <ele>933.44989952</ele>
        <time>2019-01-12T09:55:10.001Z</time>
      </trkpt>
      <trkpt lat="41.59274" lon="1.82787">
        <ele>932.30604529851</ele>
        <time>2019-01-12T09:55:18.001Z</time>
      </trkpt>
      <trkpt lat="41.59276" lon="1.82799">
        <ele>929.62482143272</ele>
        <time>2019-01-12T09:55:27.997Z</time>
      </trkpt>
      <trkpt lat="41.59281" lon="1.82809">
        <ele>927.20181395938</ele>
        <time>2019-01-12T09:55:34.000Z</time>
      </trkpt>
      <trkpt lat="41.59285" lon="1.8282">
        <ele>923.69339904</ele>
        <time>2019-01-12T09:55:40.011Z</time>
      </trkpt>
      <trkpt lat="41.59286" lon="1.82833">
        <ele>920.66213569965</ele>
        <time>2019-01-12T09:55:45.001Z</time>
      </trkpt>
      <trkpt lat="41.59288" lon="1.82847">
        <ele>916.61589541987</ele>
        <time>2019-01-12T09:55:51.001Z</time>
      </trkpt>
      <trkpt lat="41.59285" lon="1.8286">
        <ele>914</ele>
        <time>2019-01-12T09:55:55.001Z</time>
      </trkpt>
      <trkpt lat="41.59281" lon="1.82871">
        <ele>914</ele>
        <time>2019-01-12T09:56:00.001Z</time>
      </trkpt>
      <trkpt lat="41.59275" lon="1.8288">
        <ele>914.24713359684</ele>
        <time>2019-01-12T09:56:07.011Z</time>
      </trkpt>
      <trkpt lat="41.59274" lon="1.82893">
        <ele>914.64140268775</ele>
        <time>2019-01-12T09:56:11.001Z</time>
      </trkpt>
      <trkpt lat="41.59273" lon="1.82906">
        <ele>915</ele>
        <time>2019-01-12T09:56:16.001Z</time>
      </trkpt>
      <trkpt lat="41.59275" lon="1.82918">
        <ele>915</ele>
        <time>2019-01-12T09:56:21.001Z</time>
      </trkpt>
      <trkpt lat="41.5928" lon="1.82929">
        <ele>914.54969856</ele>
        <time>2019-01-12T09:56:26.001Z</time>
      </trkpt>
      <trkpt lat="41.59278" lon="1.82942">
        <ele>913.04969856</ele>
        <time>2019-01-12T09:56:31.001Z</time>
      </trkpt>
      <trkpt lat="41.5927" lon="1.82949">
        <ele>910.59959808</ele>
        <time>2019-01-12T09:56:38.001Z</time>
      </trkpt>
      <trkpt lat="41.5926" lon="1.82956">
        <ele>907.2494976</ele>
        <time>2019-01-12T09:56:46.001Z</time>
      </trkpt>
      <trkpt lat="41.59246" lon="1.82958">
        <ele>904.2444992</ele>
        <time>2019-01-12T09:56:52.011Z</time>
      </trkpt>
      <trkpt lat="41.59236" lon="1.82961">
        <ele>903.30220032</ele>
        <time>2019-01-12T09:56:56.011Z</time>
      </trkpt>
      <trkpt lat="41.59228" lon="1.82969">
        <ele>904.6996022587</ele>
        <time>2019-01-12T09:57:06.011Z</time>
      </trkpt>
      <trkpt lat="41.59228" lon="1.82982">
        <ele>900.32201187634</ele>
        <time>2019-01-12T09:57:19.001Z</time>
      </trkpt>
      <trkpt lat="41.59223" lon="1.82994">
        <ele>893.2033985865</ele>
        <time>2019-01-12T09:57:34.011Z</time>
      </trkpt>
      <trkpt lat="41.59218" lon="1.83005">
        <ele>892.30537816733</ele>
        <time>2019-01-12T09:57:38.007Z</time>
      </trkpt>
      <trkpt lat="41.59213" lon="1.83015">
        <ele>891.30856669323</ele>
        <time>2019-01-12T09:57:43.011Z</time>
      </trkpt>
      <trkpt lat="41.59208" lon="1.83026">
        <ele>890.05020075667</ele>
        <time>2019-01-12T09:57:54.001Z</time>
      </trkpt>
      <trkpt lat="41.592" lon="1.83034">
        <ele>887.65010471525</ele>
        <time>2019-01-12T09:58:06.002Z</time>
      </trkpt>
      <trkpt lat="41.59197" lon="1.83046">
        <ele>884.79559936</ele>
        <time>2019-01-12T09:58:15.011Z</time>
      </trkpt>
      <trkpt lat="41.5919" lon="1.83055">
        <ele>881.59959808</ele>
        <time>2019-01-12T09:58:23.001Z</time>
      </trkpt>
      <trkpt lat="41.59187" lon="1.83067">
        <ele>874.38896706865</ele>
        <time>2019-01-12T09:58:34.001Z</time>
      </trkpt>
      <trkpt lat="41.59181" lon="1.83078">
        <ele>873.04919504173</ele>
        <time>2019-01-12T09:58:44.011Z</time>
      </trkpt>
      <trkpt lat="41.59172" lon="1.83082">
        <ele>869.27158875502</ele>
        <time>2019-01-12T09:58:56.011Z</time>
      </trkpt>
      <trkpt lat="41.59164" lon="1.83089">
        <ele>863.37840181674</ele>
        <time>2019-01-12T09:59:10.001Z</time>
      </trkpt>
      <trkpt lat="41.59156" lon="1.83084">
        <ele>859.8264195122</ele>
        <time>2019-01-12T09:59:20.007Z</time>
      </trkpt>
      <trkpt lat="41.5915" lon="1.83095">
        <ele>854.24124371531</ele>
        <time>2019-01-12T09:59:36.026Z</time>
      </trkpt>
      <trkpt lat="41.59149" lon="1.83108">
        <ele>850.24974758735</ele>
        <time>2019-01-12T09:59:44.001Z</time>
      </trkpt>
      <trkpt lat="41.5914" lon="1.83109">
        <ele>845.96269323311</ele>
        <time>2019-01-12T09:59:55.011Z</time>
      </trkpt>
      <trkpt lat="41.59135" lon="1.83119">
        <ele>843.4960975167</ele>
        <time>2019-01-12T10:00:03.011Z</time>
      </trkpt>
      <trkpt lat="41.59129" lon="1.83131">
        <ele>843</ele>
        <time>2019-01-12T10:00:08.112Z</time>
      </trkpt>
      <trkpt lat="41.59128" lon="1.83143">
        <ele>842.10089868445</ele>
        <time>2019-01-12T10:00:19.000Z</time>
      </trkpt>
      <trkpt lat="41.59135" lon="1.83153">
        <ele>841</ele>
        <time>2019-01-12T10:00:33.011Z</time>
      </trkpt>
      <trkpt lat="41.59143" lon="1.83166">
        <ele>833.47492708818</ele>
        <time>2019-01-12T10:00:44.011Z</time>
      </trkpt>
      <trkpt lat="41.59145" lon="1.83178">
        <ele>829.2883647064</ele>
        <time>2019-01-12T10:00:52.011Z</time>
      </trkpt>
      <trkpt lat="41.59153" lon="1.83189">
        <ele>825.26814193548</ele>
        <time>2019-01-12T10:01:00.000Z</time>
      </trkpt>
      <trkpt lat="41.59164" lon="1.83191">
        <ele>821.98955327532</ele>
        <time>2019-01-12T10:01:07.112Z</time>
      </trkpt>
      <trkpt lat="41.59157" lon="1.832">
        <ele>820.86808580699</ele>
        <time>2019-01-12T10:01:10.011Z</time>
      </trkpt>
      <trkpt lat="41.59153" lon="1.83217">
        <ele>818.34753185185</ele>
        <time>2019-01-12T10:01:18.011Z</time>
      </trkpt>
      <trkpt lat="41.59143" lon="1.83216">
        <ele>815.77163059743</ele>
        <time>2019-01-12T10:01:27.002Z</time>
      </trkpt>
      <trkpt lat="41.59135" lon="1.83209">
        <ele>813.76005908092</ele>
        <time>2019-01-12T10:01:31.001Z</time>
      </trkpt>
      <trkpt lat="41.59127" lon="1.83203">
        <ele>809.81272314101</ele>
        <time>2019-01-12T10:01:40.001Z</time>
      </trkpt>
      <trkpt lat="41.59119" lon="1.83197">
        <ele>804.25496550795</ele>
        <time>2019-01-12T10:01:50.001Z</time>
      </trkpt>
      <trkpt lat="41.59122" lon="1.83209">
        <ele>797.75191452593</ele>
        <time>2019-01-12T10:02:05.011Z</time>
      </trkpt>
      <trkpt lat="41.59132" lon="1.83214">
        <ele>794.73380781727</ele>
        <time>2019-01-12T10:02:10.011Z</time>
      </trkpt>
      <trkpt lat="41.59143" lon="1.83219">
        <ele>790.28232988186</ele>
        <time>2019-01-12T10:02:17.011Z</time>
      </trkpt>
      <trkpt lat="41.59152" lon="1.83221">
        <ele>786.81638147341</ele>
        <time>2019-01-12T10:02:21.997Z</time>
      </trkpt>
      <trkpt lat="41.59161" lon="1.83228">
        <ele>782.41634860421</ele>
        <time>2019-01-12T10:02:31.011Z</time>
      </trkpt>
      <trkpt lat="41.59168" lon="1.83237">
        <ele>780.40240635024</ele>
        <time>2019-01-12T10:02:36.011Z</time>
      </trkpt>
      <trkpt lat="41.59176" lon="1.83243">
        <ele>778.40240378511</ele>
        <time>2019-01-12T10:02:41.001Z</time>
      </trkpt>
      <trkpt lat="41.59185" lon="1.83247">
        <ele>769.89979904</ele>
        <time>2019-01-12T10:02:55.001Z</time>
      </trkpt>
      <trkpt lat="41.59186" lon="1.8326">
        <ele>768.7001984</ele>
        <time>2019-01-12T10:03:00.999Z</time>
      </trkpt>
      <trkpt lat="41.59188" lon="1.83274">
        <ele>766.59700370317</ele>
        <time>2019-01-12T10:03:08.011Z</time>
      </trkpt>
      <trkpt lat="41.59192" lon="1.83287">
        <ele>764.59900362133</ele>
        <time>2019-01-12T10:03:13.011Z</time>
      </trkpt>
      <trkpt lat="41.59202" lon="1.83291">
        <ele>763.6640120777</ele>
        <time>2019-01-12T10:03:18.011Z</time>
      </trkpt>
      <trkpt lat="41.59207" lon="1.83301">
        <ele>762.95798838174</ele>
        <time>2019-01-12T10:03:25.011Z</time>
      </trkpt>
      <trkpt lat="41.59206" lon="1.83314">
        <ele>759.84595518672</ele>
        <time>2019-01-12T10:03:31.011Z</time>
      </trkpt>
      <trkpt lat="41.592" lon="1.83325">
        <ele>755.5813676798</ele>
        <time>2019-01-12T10:03:38.001Z</time>
      </trkpt>
      <trkpt lat="41.59199" lon="1.83338">
        <ele>748.7444992</ele>
        <time>2019-01-12T10:03:49.011Z</time>
      </trkpt>
      <trkpt lat="41.59201" lon="1.8335">
        <ele>744.60397639509</ele>
        <time>2019-01-12T10:03:58.011Z</time>
      </trkpt>
      <trkpt lat="41.59207" lon="1.83361">
        <ele>742.61590608928</ele>
        <time>2019-01-12T10:04:03.011Z</time>
      </trkpt>
      <trkpt lat="41.59217" lon="1.83378">
        <ele>740.91522449042</ele>
        <time>2019-01-12T10:04:10.011Z</time>
      </trkpt>
      <trkpt lat="41.59222" lon="1.83388">
        <ele>740.31820937495</ele>
        <time>2019-01-12T10:04:13.011Z</time>
      </trkpt>
      <trkpt lat="41.59227" lon="1.83399">
        <ele>740</ele>
        <time>2019-01-12T10:04:17.011Z</time>
      </trkpt>
      <trkpt lat="41.59231" lon="1.83411">
        <ele>740</ele>
        <time>2019-01-12T10:04:23.001Z</time>
      </trkpt>
      <trkpt lat="41.59237" lon="1.83423">
        <ele>739.34834104344</ele>
        <time>2019-01-12T10:04:28.001Z</time>
      </trkpt>
      <trkpt lat="41.5924" lon="1.83436">
        <ele>738.10352611257</ele>
        <time>2019-01-12T10:04:34.001Z</time>
      </trkpt>
      <trkpt lat="41.59231" lon="1.83427">
        <ele>733.11116350179</ele>
        <time>2019-01-12T10:04:45.011Z</time>
      </trkpt>
      <trkpt lat="41.59227" lon="1.83438">
        <ele>725.81594324957</ele>
        <time>2019-01-12T10:04:57.001Z</time>
      </trkpt>
      <trkpt lat="41.59225" lon="1.83453">
        <ele>721.930624</ele>
        <time>2019-01-12T10:05:05.011Z</time>
      </trkpt>
      <trkpt lat="41.59215" lon="1.83458">
        <ele>717.561872</ele>
        <time>2019-01-12T10:05:12.001Z</time>
      </trkpt>
      <trkpt lat="41.59206" lon="1.83453">
        <ele>715.64989952</ele>
        <time>2019-01-12T10:05:18.001Z</time>
      </trkpt>
      <trkpt lat="41.59211" lon="1.83468">
        <ele>711.62596887916</ele>
        <time>2019-01-12T10:05:33.011Z</time>
      </trkpt>
      <trkpt lat="41.59223" lon="1.83474">
        <ele>710.87495279205</ele>
        <time>2019-01-12T10:05:35.011Z</time>
      </trkpt>
      <trkpt lat="41.5922" lon="1.83486">
        <ele>708.79574355374</ele>
        <time>2019-01-12T10:05:42.011Z</time>
      </trkpt>
      <trkpt lat="41.59222" lon="1.83502">
        <ele>704.95379750713</ele>
        <time>2019-01-12T10:05:55.011Z</time>
      </trkpt>
      <trkpt lat="41.59213" lon="1.83505">
        <ele>701</ele>
        <time>2019-01-12T10:06:27.011Z</time>
      </trkpt>
      <trkpt lat="41.59217" lon="1.83517">
        <ele>701</ele>
        <time>2019-01-12T10:06:51.011Z</time>
      </trkpt>
      <trkpt lat="41.5922" lon="1.83529">
        <ele>701</ele>
        <time>2019-01-12T10:07:00.011Z</time>
      </trkpt>
      <trkpt lat="41.59217" lon="1.83541">
        <ele>701</ele>
        <time>2019-01-12T10:07:04.011Z</time>
      </trkpt>
      <trkpt lat="41.59221" lon="1.83552">
        <ele>700.04934398322</ele>
        <time>2019-01-12T10:07:14.011Z</time>
      </trkpt>
      <trkpt lat="41.59223" lon="1.83565">
        <ele>700.92071565935</ele>
        <time>2019-01-12T10:07:24.011Z</time>
      </trkpt>
      <trkpt lat="41.5922" lon="1.83577">
        <ele>698.87631328484</ele>
        <time>2019-01-12T10:07:36.011Z</time>
      </trkpt>
      <trkpt lat="41.59221" lon="1.8359">
        <ele>698.15540724024</ele>
        <time>2019-01-12T10:07:43.011Z</time>
      </trkpt>
      <trkpt lat="41.59228" lon="1.83604">
        <ele>696.11873177205</ele>
        <time>2019-01-12T10:07:54.011Z</time>
      </trkpt>
      <trkpt lat="41.59228" lon="1.83617">
        <ele>694.70556107763</ele>
        <time>2019-01-12T10:08:01.011Z</time>
      </trkpt>
      <trkpt lat="41.59231" lon="1.83631">
        <ele>694</ele>
        <time>2019-01-12T10:08:09.011Z</time>
      </trkpt>
      <trkpt lat="41.59232" lon="1.83644">
        <ele>694</ele>
        <time>2019-01-12T10:08:15.001Z</time>
      </trkpt>
      <trkpt lat="41.59241" lon="1.83648">
        <ele>693.66599712214</ele>
        <time>2019-01-12T10:08:27.997Z</time>
      </trkpt>
      <trkpt lat="41.59249" lon="1.83656">
        <ele>693</ele>
        <time>2019-01-12T10:08:34.998Z</time>
      </trkpt>
      <trkpt lat="41.59255" lon="1.83666">
        <ele>693</ele>
        <time>2019-01-12T10:08:43.997Z</time>
      </trkpt>
      <trkpt lat="41.59261" lon="1.83676">
        <ele>693</ele>
        <time>2019-01-12T10:08:51.012Z</time>
      </trkpt>
      <trkpt lat="41.59267" lon="1.83686">
        <ele>693</ele>
        <time>2019-01-12T10:08:58.000Z</time>
      </trkpt>
      <trkpt lat="41.59271" lon="1.83699">
        <ele>693</ele>
        <time>2019-01-12T10:09:06.012Z</time>
      </trkpt>
      <trkpt lat="41.59278" lon="1.83707">
        <ele>693</ele>
        <time>2019-01-12T10:09:13.000Z</time>
      </trkpt>
      <trkpt lat="41.59282" lon="1.83719">
        <ele>693.44854824471</ele>
        <time>2019-01-12T10:09:19.011Z</time>
      </trkpt>
      <trkpt lat="41.59275" lon="1.83732">
        <ele>694</ele>
        <time>2019-01-12T10:09:26.011Z</time>
      </trkpt>
      <trkpt lat="41.59284" lon="1.83733">
        <ele>695</ele>
        <time>2019-01-12T10:11:14.011Z</time>
      </trkpt>
      <trkpt lat="41.59267" lon="1.8375">
        <ele>695</ele>
        <time>2019-01-12T10:11:20.011Z</time>
      </trkpt>
      <trkpt lat="41.5927" lon="1.83731">
        <ele>695</ele>
        <time>2019-01-12T10:11:22.011Z</time>
      </trkpt>
      <trkpt lat="41.59273" lon="1.83743">
        <ele>695.45055018271</ele>
        <time>2019-01-12T10:11:39.011Z</time>
      </trkpt>
      <trkpt lat="41.5928" lon="1.83735">
        <ele>696</ele>
        <time>2019-01-12T10:12:24.011Z</time>
      </trkpt>
      <trkpt lat="41.59286" lon="1.83726">
        <ele>695.75110016</ele>
        <time>2019-01-12T10:12:52.011Z</time>
      </trkpt>
      <trkpt lat="41.59278" lon="1.83738">
        <ele>696</ele>
        <time>2019-01-12T10:15:45.011Z</time>
      </trkpt>
      <trkpt lat="41.59282" lon="1.83726">
        <ele>697</ele>
        <time>2019-01-12T10:16:53.011Z</time>
      </trkpt>
      <trkpt lat="41.59291" lon="1.83724">
        <ele>698</ele>
        <time>2019-01-12T10:18:28.011Z</time>
      </trkpt>
      <trkpt lat="41.59285" lon="1.83737">
        <ele>699.249348789</ele>
        <time>2019-01-12T10:19:37.011Z</time>
      </trkpt>
      <trkpt lat="41.59289" lon="1.83726">
        <ele>699</ele>
        <time>2019-01-12T10:20:00.011Z</time>
      </trkpt>
      <trkpt lat="41.5928" lon="1.83732">
        <ele>699</ele>
        <time>2019-01-12T10:20:06.001Z</time>
      </trkpt>
      <trkpt lat="41.59286" lon="1.83722">
        <ele>699</ele>
        <time>2019-01-12T10:20:25.000Z</time>
      </trkpt>
      <trkpt lat="41.5928" lon="1.83732">
        <ele>699</ele>
        <time>2019-01-12T10:20:37.011Z</time>
      </trkpt>
      <trkpt lat="41.5927" lon="1.83745">
        <ele>699</ele>
        <time>2019-01-12T10:20:39.011Z</time>
      </trkpt>
      <trkpt lat="41.59267" lon="1.83757">
        <ele>698.4552584127</ele>
        <time>2019-01-12T10:20:50.011Z</time>
      </trkpt>
      <trkpt lat="41.59271" lon="1.83746">
        <ele>697.44999980761</ele>
        <time>2019-01-12T10:21:09.011Z</time>
      </trkpt>
      <trkpt lat="41.5928" lon="1.83749">
        <ele>700</ele>
        <time>2019-01-12T10:22:36.011Z</time>
      </trkpt>
      <trkpt lat="41.59286" lon="1.83738">
        <ele>700</ele>
        <time>2019-01-12T10:22:46.011Z</time>
      </trkpt>
      <trkpt lat="41.59292" lon="1.83728">
        <ele>700</ele>
        <time>2019-01-12T10:22:55.011Z</time>
      </trkpt>
      <trkpt lat="41.59283" lon="1.83743">
        <ele>700</ele>
        <time>2019-01-12T10:23:09.011Z</time>
      </trkpt>
      <trkpt lat="41.59274" lon="1.83756">
        <ele>700</ele>
        <time>2019-01-12T10:23:10.011Z</time>
      </trkpt>
      <trkpt lat="41.59267" lon="1.83763">
        <ele>700</ele>
        <time>2019-01-12T10:23:12.011Z</time>
      </trkpt>
      <trkpt lat="41.59277" lon="1.83758">
        <ele>700</ele>
        <time>2019-01-12T10:23:19.011Z</time>
      </trkpt>
      <trkpt lat="41.59284" lon="1.83748">
        <ele>700</ele>
        <time>2019-01-12T10:23:24.000Z</time>
      </trkpt>
      <trkpt lat="41.5929" lon="1.83738">
        <ele>700</ele>
        <time>2019-01-12T10:23:27.012Z</time>
      </trkpt>
      <trkpt lat="41.59299" lon="1.83727">
        <ele>700</ele>
        <time>2019-01-12T10:23:35.011Z</time>
      </trkpt>
      <trkpt lat="41.59291" lon="1.83735">
        <ele>700</ele>
        <time>2019-01-12T10:23:37.011Z</time>
      </trkpt>
      <trkpt lat="41.59292" lon="1.83723">
        <ele>700</ele>
        <time>2019-01-12T10:23:56.011Z</time>
      </trkpt>
      <trkpt lat="41.59287" lon="1.83737">
        <ele>700</ele>
        <time>2019-01-12T10:24:07.011Z</time>
      </trkpt>
      <trkpt lat="41.59277" lon="1.83746">
        <ele>700</ele>
        <time>2019-01-12T10:24:08.011Z</time>
      </trkpt>
      <trkpt lat="41.59273" lon="1.83758">
        <ele>700</ele>
        <time>2019-01-12T10:24:26.011Z</time>
      </trkpt>
      <trkpt lat="41.59279" lon="1.83749">
        <ele>700</ele>
        <time>2019-01-12T10:24:33.011Z</time>
      </trkpt>
      <trkpt lat="41.59268" lon="1.83761">
        <ele>700</ele>
        <time>2019-01-12T10:24:46.011Z</time>
      </trkpt>
      <trkpt lat="41.59276" lon="1.83752">
        <ele>700</ele>
        <time>2019-01-12T10:24:54.011Z</time>
      </trkpt>
      <trkpt lat="41.59283" lon="1.83743">
        <ele>700</ele>
        <time>2019-01-12T10:24:59.001Z</time>
      </trkpt>
      <trkpt lat="41.59291" lon="1.83735">
        <ele>700</ele>
        <time>2019-01-12T10:25:04.011Z</time>
      </trkpt>
      <trkpt lat="41.59299" lon="1.83726">
        <ele>700</ele>
        <time>2019-01-12T10:25:09.001Z</time>
      </trkpt>
      <trkpt lat="41.59308" lon="1.83715">
        <ele>700</ele>
        <time>2019-01-12T10:25:19.011Z</time>
      </trkpt>
      <trkpt lat="41.593" lon="1.83723">
        <ele>700</ele>
        <time>2019-01-12T10:25:31.011Z</time>
      </trkpt>
      <trkpt lat="41.59293" lon="1.83736">
        <ele>700</ele>
        <time>2019-01-12T10:25:35.011Z</time>
      </trkpt>
      <trkpt lat="41.59293" lon="1.83756">
        <ele>700</ele>
        <time>2019-01-12T10:25:41.011Z</time>
      </trkpt>
      <trkpt lat="41.59289" lon="1.83774">
        <ele>700</ele>
        <time>2019-01-12T10:25:43.011Z</time>
      </trkpt>
      <trkpt lat="41.5929" lon="1.83787">
        <ele>700</ele>
        <time>2019-01-12T10:25:45.998Z</time>
      </trkpt>
      <trkpt lat="41.59297" lon="1.83795">
        <ele>700</ele>
        <time>2019-01-12T10:25:50.011Z</time>
      </trkpt>
      <trkpt lat="41.59307" lon="1.83802">
        <ele>700</ele>
        <time>2019-01-12T10:25:56.001Z</time>
      </trkpt>
      <trkpt lat="41.59296" lon="1.83813">
        <ele>700</ele>
        <time>2019-01-12T10:26:01.999Z</time>
      </trkpt>
      <trkpt lat="41.59306" lon="1.83813">
        <ele>700</ele>
        <time>2019-01-12T10:26:06.998Z</time>
      </trkpt>
      <trkpt lat="41.59316" lon="1.83813">
        <ele>700</ele>
        <time>2019-01-12T10:26:11.998Z</time>
      </trkpt>
      <trkpt lat="41.59319" lon="1.83825">
        <ele>700</ele>
        <time>2019-01-12T10:26:16.998Z</time>
      </trkpt>
      <trkpt lat="41.59325" lon="1.83838">
        <ele>700</ele>
        <time>2019-01-12T10:26:21.011Z</time>
      </trkpt>
      <trkpt lat="41.59331" lon="1.83849">
        <ele>700</ele>
        <time>2019-01-12T10:26:24.998Z</time>
      </trkpt>
      <trkpt lat="41.59336" lon="1.83858">
        <ele>700</ele>
        <time>2019-01-12T10:26:29.998Z</time>
      </trkpt>
      <trkpt lat="41.59341" lon="1.83872">
        <ele>700</ele>
        <time>2019-01-12T10:26:33.998Z</time>
      </trkpt>
      <trkpt lat="41.59352" lon="1.8388">
        <ele>700</ele>
        <time>2019-01-12T10:26:39.001Z</time>
      </trkpt>
      <trkpt lat="41.59363" lon="1.83888">
        <ele>700</ele>
        <time>2019-01-12T10:26:43.013Z</time>
      </trkpt>
      <trkpt lat="41.59368" lon="1.83898">
        <ele>700</ele>
        <time>2019-01-12T10:26:46.998Z</time>
      </trkpt>
      <trkpt lat="41.59372" lon="1.8391">
        <ele>700</ele>
        <time>2019-01-12T10:26:51.998Z</time>
      </trkpt>
      <trkpt lat="41.59377" lon="1.83921">
        <ele>700</ele>
        <time>2019-01-12T10:26:56.013Z</time>
      </trkpt>
      <trkpt lat="41.59385" lon="1.83931">
        <ele>700</ele>
        <time>2019-01-12T10:27:02.011Z</time>
      </trkpt>
      <trkpt lat="41.59395" lon="1.83936">
        <ele>700.59298041099</ele>
        <time>2019-01-12T10:27:06.038Z</time>
      </trkpt>
      <trkpt lat="41.59402" lon="1.8395">
        <ele>703.39057087762</ele>
        <time>2019-01-12T10:27:13.011Z</time>
      </trkpt>
      <trkpt lat="41.59413" lon="1.83955">
        <ele>703.30617370518</ele>
        <time>2019-01-12T10:27:18.013Z</time>
      </trkpt>
      <trkpt lat="41.59416" lon="1.83966">
        <ele>702.5097612749</ele>
        <time>2019-01-12T10:27:22.011Z</time>
      </trkpt>
      <trkpt lat="41.59416" lon="1.83978">
        <ele>702</ele>
        <time>2019-01-12T10:27:26.001Z</time>
      </trkpt>
      <trkpt lat="41.59415" lon="1.83991">
        <ele>702</ele>
        <time>2019-01-12T10:27:29.011Z</time>
      </trkpt>
      <trkpt lat="41.59417" lon="1.84004">
        <ele>702</ele>
        <time>2019-01-12T10:27:33.013Z</time>
      </trkpt>
      <trkpt lat="41.59421" lon="1.84015">
        <ele>702</ele>
        <time>2019-01-12T10:27:38.998Z</time>
      </trkpt>
      <trkpt lat="41.5943" lon="1.84021">
        <ele>702.70220032</ele>
        <time>2019-01-12T10:27:48.011Z</time>
      </trkpt>
      <trkpt lat="41.59437" lon="1.8403">
        <ele>704.15314718579</ele>
        <time>2019-01-12T10:27:55.011Z</time>
      </trkpt>
      <trkpt lat="41.59449" lon="1.84034">
        <ele>707.60099837533</ele>
        <time>2019-01-12T10:28:06.011Z</time>
      </trkpt>
      <trkpt lat="41.59447" lon="1.84046">
        <ele>709.20300640129</ele>
        <time>2019-01-12T10:28:10.012Z</time>
      </trkpt>
      <trkpt lat="41.59457" lon="1.84051">
        <ele>710.00079616</ele>
        <time>2019-01-12T10:28:16.998Z</time>
      </trkpt>
      <trkpt lat="41.59464" lon="1.84042">
        <ele>707.99559936</ele>
        <time>2019-01-12T10:28:22.011Z</time>
      </trkpt>
      <trkpt lat="41.59469" lon="1.8403">
        <ele>706.64889984</ele>
        <time>2019-01-12T10:28:28.011Z</time>
      </trkpt>
      <trkpt lat="41.5947" lon="1.84017">
        <ele>706.04989952</ele>
        <time>2019-01-12T10:28:34.001Z</time>
      </trkpt>
      <trkpt lat="41.59468" lon="1.84004">
        <ele>706</ele>
        <time>2019-01-12T10:28:39.001Z</time>
      </trkpt>
      <trkpt lat="41.59472" lon="1.83993">
        <ele>706</ele>
        <time>2019-01-12T10:28:44.011Z</time>
      </trkpt>
      <trkpt lat="41.59478" lon="1.83983">
        <ele>706.44954892507</ele>
        <time>2019-01-12T10:28:49.011Z</time>
      </trkpt>
      <trkpt lat="41.59486" lon="1.83972">
        <ele>707.30049918767</ele>
        <time>2019-01-12T10:28:56.011Z</time>
      </trkpt>
      <trkpt lat="41.59497" lon="1.83966">
        <ele>708.30150115059</ele>
        <time>2019-01-12T10:29:01.011Z</time>
      </trkpt>
      <trkpt lat="41.59505" lon="1.83958">
        <ele>708.90210232835</ele>
        <time>2019-01-12T10:29:04.011Z</time>
      </trkpt>
      <trkpt lat="41.59516" lon="1.8395">
        <ele>708.55203573322</ele>
        <time>2019-01-12T10:29:09.011Z</time>
      </trkpt>
      <trkpt lat="41.59524" lon="1.83943">
        <ele>708.35342606445</ele>
        <time>2019-01-12T10:29:11.011Z</time>
      </trkpt>
      <trkpt lat="41.59534" lon="1.8394">
        <ele>707.95558927068</ele>
        <time>2019-01-12T10:29:15.011Z</time>
      </trkpt>
      <trkpt lat="41.59542" lon="1.83932">
        <ele>707.6534743697</ele>
        <time>2019-01-12T10:29:18.011Z</time>
      </trkpt>
      <trkpt lat="41.59553" lon="1.83925">
        <ele>707.25065450172</ele>
        <time>2019-01-12T10:29:22.011Z</time>
      </trkpt>
      <trkpt lat="41.59563" lon="1.83916">
        <ele>706.85064069436</ele>
        <time>2019-01-12T10:29:26.013Z</time>
      </trkpt>
      <trkpt lat="41.59569" lon="1.83907">
        <ele>706.45597271695</ele>
        <time>2019-01-12T10:29:30.011Z</time>
      </trkpt>
      <trkpt lat="41.59574" lon="1.83897">
        <ele>706.16021718282</ele>
        <time>2019-01-12T10:29:33.007Z</time>
      </trkpt>
      <trkpt lat="41.59578" lon="1.83886">
        <ele>706</ele>
        <time>2019-01-12T10:29:36.997Z</time>
      </trkpt>
      <trkpt lat="41.59588" lon="1.83874">
        <ele>706</ele>
        <time>2019-01-12T10:29:43.011Z</time>
      </trkpt>
      <trkpt lat="41.59594" lon="1.83863">
        <ele>706</ele>
        <time>2019-01-12T10:29:47.011Z</time>
      </trkpt>
      <trkpt lat="41.59601" lon="1.8385">
        <ele>706</ele>
        <time>2019-01-12T10:29:52.311Z</time>
      </trkpt>
      <trkpt lat="41.59606" lon="1.83839">
        <ele>705.75899496542</ele>
        <time>2019-01-12T10:29:57.012Z</time>
      </trkpt>
      <trkpt lat="41.59616" lon="1.83832">
        <ele>705.3722445665</ele>
        <time>2019-01-12T10:30:01.011Z</time>
      </trkpt>
      <trkpt lat="41.59624" lon="1.83823">
        <ele>705</ele>
        <time>2019-01-12T10:30:05.011Z</time>
      </trkpt>
      <trkpt lat="41.59628" lon="1.83812">
        <ele>705</ele>
        <time>2019-01-12T10:30:09.011Z</time>
      </trkpt>
      <trkpt lat="41.59626" lon="1.838">
        <ele>705</ele>
        <time>2019-01-12T10:30:13.011Z</time>
      </trkpt>
      <trkpt lat="41.59618" lon="1.83792">
        <ele>705.03832919973</ele>
        <time>2019-01-12T10:30:15.011Z</time>
      </trkpt>
      <trkpt lat="41.59621" lon="1.83778">
        <ele>705.44074394575</ele>
        <time>2019-01-12T10:30:19.011Z</time>
      </trkpt>
      <trkpt lat="41.59623" lon="1.83762">
        <ele>705.84315869177</ele>
        <time>2019-01-12T10:30:23.011Z</time>
      </trkpt>
      <trkpt lat="41.59626" lon="1.83752">
        <ele>705.75417933669</ele>
        <time>2019-01-12T10:30:27.011Z</time>
      </trkpt>
      <trkpt lat="41.59633" lon="1.83739">
        <ele>705.25065450172</ele>
        <time>2019-01-12T10:30:32.011Z</time>
      </trkpt>
      <trkpt lat="41.5964" lon="1.83727">
        <ele>704.84889984</ele>
        <time>2019-01-12T10:30:36.011Z</time>
      </trkpt>
      <trkpt lat="41.59649" lon="1.83722">
        <ele>704.54889984</ele>
        <time>2019-01-12T10:30:39.011Z</time>
      </trkpt>
      <trkpt lat="41.59659" lon="1.83718">
        <ele>704.24889984</ele>
        <time>2019-01-12T10:30:42.011Z</time>
      </trkpt>
      <trkpt lat="41.59668" lon="1.83712">
        <ele>704</ele>
        <time>2019-01-12T10:30:46.011Z</time>
      </trkpt>
      <trkpt lat="41.59678" lon="1.83701">
        <ele>704</ele>
        <time>2019-01-12T10:30:50.011Z</time>
      </trkpt>
      <trkpt lat="41.59686" lon="1.83692">
        <ele>704</ele>
        <time>2019-01-12T10:30:53.011Z</time>
      </trkpt>
      <trkpt lat="41.59693" lon="1.83682">
        <ele>703.75514525639</ele>
        <time>2019-01-12T10:30:57.011Z</time>
      </trkpt>
      <trkpt lat="41.59699" lon="1.83671">
        <ele>703.35554472905</ele>
        <time>2019-01-12T10:31:01.011Z</time>
      </trkpt>
      <trkpt lat="41.59709" lon="1.83664">
        <ele>703</ele>
        <time>2019-01-12T10:31:05.011Z</time>
      </trkpt>
      <trkpt lat="41.59718" lon="1.83656">
        <ele>703</ele>
        <time>2019-01-12T10:31:09.011Z</time>
      </trkpt>
      <trkpt lat="41.59726" lon="1.83646">
        <ele>703</ele>
        <time>2019-01-12T10:31:13.011Z</time>
      </trkpt>
      <trkpt lat="41.59736" lon="1.83637">
        <ele>702.29021432504</ele>
        <time>2019-01-12T10:31:17.011Z</time>
      </trkpt>
      <trkpt lat="41.59743" lon="1.83629">
        <ele>701.0590183271</ele>
        <time>2019-01-12T10:31:21.037Z</time>
      </trkpt>
      <trkpt lat="41.59752" lon="1.83625">
        <ele>699.84920153344</ele>
        <time>2019-01-12T10:31:26.011Z</time>
      </trkpt>
      <trkpt lat="41.59761" lon="1.83624">
        <ele>699.45000019162</ele>
        <time>2019-01-12T10:31:30.011Z</time>
      </trkpt>
      <trkpt lat="41.59772" lon="1.83622">
        <ele>699.05079884979</ele>
        <time>2019-01-12T10:31:34.011Z</time>
      </trkpt>
      <trkpt lat="41.59782" lon="1.83618">
        <ele>698.65298236373</ele>
        <time>2019-01-12T10:31:38.011Z</time>
      </trkpt>
      <trkpt lat="41.59791" lon="1.83613">
        <ele>698.25536779666</ele>
        <time>2019-01-12T10:31:42.011Z</time>
      </trkpt>
      <trkpt lat="41.59802" lon="1.83605">
        <ele>697.56940815784</ele>
        <time>2019-01-12T10:31:46.011Z</time>
      </trkpt>
      <trkpt lat="41.59811" lon="1.83595">
        <ele>696.66670090267</ele>
        <time>2019-01-12T10:31:49.011Z</time>
      </trkpt>
      <trkpt lat="41.59817" lon="1.83585">
        <ele>695.46309122912</ele>
        <time>2019-01-12T10:31:53.011Z</time>
      </trkpt>
      <trkpt lat="41.5982" lon="1.83572">
        <ele>694.50532776393</ele>
        <time>2019-01-12T10:31:57.011Z</time>
      </trkpt>
      <trkpt lat="41.59824" lon="1.83559">
        <ele>693.70079827494</ele>
        <time>2019-01-12T10:32:08.011Z</time>
      </trkpt>
      <trkpt lat="41.59825" lon="1.83546">
        <ele>694.49920095859</ele>
        <time>2019-01-12T10:32:12.011Z</time>
      </trkpt>
      <trkpt lat="41.59829" lon="1.83535">
        <ele>695</ele>
        <time>2019-01-12T10:32:16.011Z</time>
      </trkpt>
      <trkpt lat="41.59836" lon="1.83522">
        <ele>695</ele>
        <time>2019-01-12T10:32:19.011Z</time>
      </trkpt>
      <trkpt lat="41.59841" lon="1.83509">
        <ele>695</ele>
        <time>2019-01-12T10:32:21.011Z</time>
      </trkpt>
      <trkpt lat="41.59852" lon="1.83504">
        <ele>695.04046400308</ele>
        <time>2019-01-12T10:32:25.011Z</time>
      </trkpt>
      <trkpt lat="41.59859" lon="1.83489">
        <ele>695.44409656699</ele>
        <time>2019-01-12T10:32:29.011Z</time>
      </trkpt>
      <trkpt lat="41.59863" lon="1.83478">
        <ele>695.84772913091</ele>
        <time>2019-01-12T10:32:33.011Z</time>
      </trkpt>
      <trkpt lat="41.59868" lon="1.83467">
        <ele>696.24786029783</ele>
        <time>2019-01-12T10:32:37.011Z</time>
      </trkpt>
      <trkpt lat="41.59878" lon="1.83458">
        <ele>696.84487541329</ele>
        <time>2019-01-12T10:32:43.011Z</time>
      </trkpt>
      <trkpt lat="41.59889" lon="1.8345">
        <ele>696.71882949271</ele>
        <time>2019-01-12T10:32:46.011Z</time>
      </trkpt>
      <trkpt lat="41.59899" lon="1.83445">
        <ele>696.1334634563</ele>
        <time>2019-01-12T10:32:49.011Z</time>
      </trkpt>
      <trkpt lat="41.59909" lon="1.83441">
        <ele>695.54809741989</ele>
        <time>2019-01-12T10:32:52.011Z</time>
      </trkpt>
      <trkpt lat="41.59918" lon="1.83439">
        <ele>694.75443282182</ele>
        <time>2019-01-12T10:32:56.011Z</time>
      </trkpt>
      <trkpt lat="41.59929" lon="1.83436">
        <ele>693.92969109794</ele>
        <time>2019-01-12T10:33:00.011Z</time>
      </trkpt>
      <trkpt lat="41.59939" lon="1.8344">
        <ele>692.85090048</ele>
        <time>2019-01-12T10:33:06.011Z</time>
      </trkpt>
      <trkpt lat="41.59952" lon="1.83437">
        <ele>692.35090048</ele>
        <time>2019-01-12T10:33:11.011Z</time>
      </trkpt>
      <trkpt lat="41.59961" lon="1.83435">
        <ele>692.05090048</ele>
        <time>2019-01-12T10:33:14.011Z</time>
      </trkpt>
      <trkpt lat="41.59974" lon="1.83442">
        <ele>692</ele>
        <time>2019-01-12T10:33:20.011Z</time>
      </trkpt>
      <trkpt lat="41.59984" lon="1.83438">
        <ele>692</ele>
        <time>2019-01-12T10:33:23.011Z</time>
      </trkpt>
      <trkpt lat="41.59994" lon="1.83435">
        <ele>692</ele>
        <time>2019-01-12T10:33:28.011Z</time>
      </trkpt>
      <trkpt lat="41.60004" lon="1.83432">
        <ele>692</ele>
        <time>2019-01-12T10:33:32.011Z</time>
      </trkpt>
      <trkpt lat="41.60014" lon="1.83426">
        <ele>692.15024959383</ele>
        <time>2019-01-12T10:33:36.011Z</time>
      </trkpt>
      <trkpt lat="41.60024" lon="1.83415">
        <ele>692.761261192</ele>
        <time>2019-01-12T10:33:42.115Z</time>
      </trkpt>
      <trkpt lat="41.60028" lon="1.83402">
        <ele>693</ele>
        <time>2019-01-12T10:33:46.996Z</time>
      </trkpt>
      <trkpt lat="41.60026" lon="1.83388">
        <ele>693</ele>
        <time>2019-01-12T10:33:53.011Z</time>
      </trkpt>
      <trkpt lat="41.60025" lon="1.83376">
        <ele>693.33716812198</ele>
        <time>2019-01-12T10:33:58.011Z</time>
      </trkpt>
      <trkpt lat="41.60023" lon="1.83363">
        <ele>693.74450036301</ele>
        <time>2019-01-12T10:34:02.011Z</time>
      </trkpt>
      <trkpt lat="41.60021" lon="1.83348">
        <ele>694</ele>
        <time>2019-01-12T10:34:06.011Z</time>
      </trkpt>
      <trkpt lat="41.60024" lon="1.83333">
        <ele>694</ele>
        <time>2019-01-12T10:34:10.011Z</time>
      </trkpt>
      <trkpt lat="41.60027" lon="1.83321">
        <ele>694</ele>
        <time>2019-01-12T10:34:14.011Z</time>
      </trkpt>
      <trkpt lat="41.60031" lon="1.83308">
        <ele>694</ele>
        <time>2019-01-12T10:34:18.011Z</time>
      </trkpt>
      <trkpt lat="41.6004" lon="1.83301">
        <ele>694</ele>
        <time>2019-01-12T10:34:21.011Z</time>
      </trkpt>
      <trkpt lat="41.60047" lon="1.83293">
        <ele>694</ele>
        <time>2019-01-12T10:34:24.011Z</time>
      </trkpt>
      <trkpt lat="41.60056" lon="1.83284">
        <ele>694</ele>
        <time>2019-01-12T10:34:28.011Z</time>
      </trkpt>
      <trkpt lat="41.6006" lon="1.83273">
        <ele>694</ele>
        <time>2019-01-12T10:34:34.011Z</time>
      </trkpt>
      <trkpt lat="41.60051" lon="1.83277">
        <ele>693</ele>
        <time>2019-01-12T10:35:29.999Z</time>
      </trkpt>
      <trkpt lat="41.6006" lon="1.83268">
        <ele>691.90943526215</ele>
        <time>2019-01-12T10:35:40.011Z</time>
      </trkpt>
      <trkpt lat="41.60065" lon="1.83257">
        <ele>691.11499658709</ele>
        <time>2019-01-12T10:35:44.011Z</time>
      </trkpt>
      <trkpt lat="41.60072" lon="1.83249">
        <ele>690.5128785596</ele>
        <time>2019-01-12T10:35:47.011Z</time>
      </trkpt>
      <trkpt lat="41.60085" lon="1.83241">
        <ele>689.50684169455</ele>
        <time>2019-01-12T10:35:52.011Z</time>
      </trkpt>
      <trkpt lat="41.60099" lon="1.83229">
        <ele>685.79785977087</ele>
        <time>2019-01-12T10:36:00.011Z</time>
      </trkpt>
      <trkpt lat="41.60106" lon="1.83221">
        <ele>683.46095689629</ele>
        <time>2019-01-12T10:36:04.011Z</time>
      </trkpt>
      <trkpt lat="41.60114" lon="1.83214">
        <ele>681.02123481813</ele>
        <time>2019-01-12T10:36:07.999Z</time>
      </trkpt>
      <trkpt lat="41.60119" lon="1.83204">
        <ele>679.16432835585</ele>
        <time>2019-01-12T10:36:11.001Z</time>
      </trkpt>
      <trkpt lat="41.60121" lon="1.8319">
        <ele>676.2494976</ele>
        <time>2019-01-12T10:36:16.001Z</time>
      </trkpt>
      <trkpt lat="41.60127" lon="1.83179">
        <ele>673.2444992</ele>
        <time>2019-01-12T10:36:22.011Z</time>
      </trkpt>
      <trkpt lat="41.60139" lon="1.83172">
        <ele>670.24800431265</ele>
        <time>2019-01-12T10:36:28.011Z</time>
      </trkpt>
      <trkpt lat="41.60149" lon="1.83171">
        <ele>668.25199760351</ele>
        <time>2019-01-12T10:36:32.011Z</time>
      </trkpt>
      <trkpt lat="41.60158" lon="1.83168">
        <ele>666.10360952536</ele>
        <time>2019-01-12T10:36:36.011Z</time>
      </trkpt>
      <trkpt lat="41.60168" lon="1.83163">
        <ele>663.70480846801</ele>
        <time>2019-01-12T10:36:40.001Z</time>
      </trkpt>
      <trkpt lat="41.60176" lon="1.83157">
        <ele>661.29638816602</ele>
        <time>2019-01-12T10:36:44.007Z</time>
      </trkpt>
      <trkpt lat="41.6018" lon="1.83145">
        <ele>658.90359127914</ele>
        <time>2019-01-12T10:36:48.001Z</time>
      </trkpt>
      <trkpt lat="41.60183" lon="1.83133">
        <ele>656.50299496815</ele>
        <time>2019-01-12T10:36:52.010Z</time>
      </trkpt>
      <trkpt lat="41.60182" lon="1.8312">
        <ele>654.85328828685</ele>
        <time>2019-01-12T10:36:55.011Z</time>
      </trkpt>
      <trkpt lat="41.60178" lon="1.83109">
        <ele>653.66165290837</ele>
        <time>2019-01-12T10:36:58.999Z</time>
      </trkpt>
      <trkpt lat="41.60173" lon="1.83098">
        <ele>652.46643378486</ele>
        <time>2019-01-12T10:37:02.999Z</time>
      </trkpt>
      <trkpt lat="41.60173" lon="1.83084">
        <ele>650.96355469879</ele>
        <time>2019-01-12T10:37:08.001Z</time>
      </trkpt>
      <trkpt lat="41.60173" lon="1.8307">
        <ele>649.75572433735</ele>
        <time>2019-01-12T10:37:12.011Z</time>
      </trkpt>
      <trkpt lat="41.60174" lon="1.83057">
        <ele>648.26464849584</ele>
        <time>2019-01-12T10:37:16.001Z</time>
      </trkpt>
      <trkpt lat="41.60166" lon="1.83051">
        <ele>646.1480630314</ele>
        <time>2019-01-12T10:38:06.011Z</time>
      </trkpt>
      <trkpt lat="41.60157" lon="1.83055">
        <ele>649.46107946598</ele>
        <time>2019-01-12T10:38:26.040Z</time>
      </trkpt>
      <trkpt lat="41.60163" lon="1.83045">
        <ele>655.74879663249</ele>
        <time>2019-01-12T10:38:47.011Z</time>
      </trkpt>
      <trkpt lat="41.60156" lon="1.83037">
        <ele>658.70079827494</ele>
        <time>2019-01-12T10:38:58.011Z</time>
      </trkpt>
      <trkpt lat="41.60158" lon="1.83025">
        <ele>663.60300694175</ele>
        <time>2019-01-12T10:39:20.011Z</time>
      </trkpt>
      <trkpt lat="41.60164" lon="1.83015">
        <ele>666.69880162951</ele>
        <time>2019-01-12T10:39:33.011Z</time>
      </trkpt>
      <trkpt lat="41.6016" lon="1.83005">
        <ele>670.34999942285</ele>
        <time>2019-01-12T10:39:49.011Z</time>
      </trkpt>
      <trkpt lat="41.6016" lon="1.82992">
        <ele>677.25180360837</ele>
        <time>2019-01-12T10:40:12.011Z</time>
      </trkpt>
      <trkpt lat="41.60151" lon="1.82999">
        <ele>680.0884037545</ele>
        <time>2019-01-12T10:40:30.011Z</time>
      </trkpt>
      <trkpt lat="41.60142" lon="1.8301">
        <ele>682.8991903682</ele>
        <time>2019-01-12T10:40:44.011Z</time>
      </trkpt>
      <trkpt lat="41.60134" lon="1.83016">
        <ele>684.04774827411</ele>
        <time>2019-01-12T10:40:47.999Z</time>
      </trkpt>
      <trkpt lat="41.60137" lon="1.83004">
        <ele>686.74895272828</ele>
        <time>2019-01-12T10:40:56.999Z</time>
      </trkpt>
      <trkpt lat="41.6014" lon="1.82991">
        <ele>688.550747284</ele>
        <time>2019-01-12T10:41:03.011Z</time>
      </trkpt>
      <trkpt lat="41.60131" lon="1.82991">
        <ele>692.46731994219</ele>
        <time>2019-01-12T10:41:21.998Z</time>
      </trkpt>
      <trkpt lat="41.60118" lon="1.83007">
        <ele>693.43343357839</ele>
        <time>2019-01-12T10:41:29.011Z</time>
      </trkpt>
      <trkpt lat="41.60108" lon="1.83023">
        <ele>693.5344436141</ele>
        <time>2019-01-12T10:41:30.011Z</time>
      </trkpt>
      <trkpt lat="41.60102" lon="1.83033">
        <ele>693.63545364981</ele>
        <time>2019-01-12T10:41:31.011Z</time>
      </trkpt>
      <trkpt lat="41.60093" lon="1.83036">
        <ele>695.09129469317</ele>
        <time>2019-01-12T10:41:40.011Z</time>
      </trkpt>
      <trkpt lat="41.60094" lon="1.83022">
        <ele>697.33802453459</ele>
        <time>2019-01-12T10:41:48.969Z</time>
      </trkpt>
      <trkpt lat="41.60097" lon="1.8301">
        <ele>699.4441890942</ele>
        <time>2019-01-12T10:41:56.011Z</time>
      </trkpt>
      <trkpt lat="41.60088" lon="1.83014">
        <ele>705.89349058837</ele>
        <time>2019-01-12T10:42:24.011Z</time>
      </trkpt>
      <trkpt lat="41.60083" lon="1.83003">
        <ele>712.44596053569</ele>
        <time>2019-01-12T10:42:56.011Z</time>
      </trkpt>
      <trkpt lat="41.60079" lon="1.82993">
        <ele>718</ele>
        <time>2019-01-12T10:43:36.011Z</time>
      </trkpt>
      <trkpt lat="41.60069" lon="1.82994">
        <ele>723.09771051867</ele>
        <time>2019-01-12T10:44:35.011Z</time>
      </trkpt>
      <trkpt lat="41.60063" lon="1.83005">
        <ele>724.88875586508</ele>
        <time>2019-01-12T10:44:44.011Z</time>
      </trkpt>
      <trkpt lat="41.60065" lon="1.82993">
        <ele>729.30220032</ele>
        <time>2019-01-12T10:45:06.011Z</time>
      </trkpt>
      <trkpt lat="41.60058" lon="1.83001">
        <ele>737.44266898468</ele>
        <time>2019-01-12T10:45:56.011Z</time>
      </trkpt>
      <trkpt lat="41.60047" lon="1.83">
        <ele>742.5477957676</ele>
        <time>2019-01-12T10:46:13.011Z</time>
      </trkpt>
      <trkpt lat="41.60036" lon="1.83007">
        <ele>746.89799936</ele>
        <time>2019-01-12T10:46:39.010Z</time>
      </trkpt>
      <trkpt lat="41.60027" lon="1.83006">
        <ele>751.39639808</ele>
        <time>2019-01-12T10:46:53.011Z</time>
      </trkpt>
      <trkpt lat="41.6002" lon="1.82998">
        <ele>757.6982334446</ele>
        <time>2019-01-12T10:47:18.011Z</time>
      </trkpt>
      <trkpt lat="41.60016" lon="1.82987">
        <ele>762.75060120279</ele>
        <time>2019-01-12T10:47:52.011Z</time>
      </trkpt>
      <trkpt lat="41.60015" lon="1.82974">
        <ele>769.55240500355</ele>
        <time>2019-01-12T10:48:13.011Z</time>
      </trkpt>
      <trkpt lat="41.60007" lon="1.82969">
        <ele>778.14087645232</ele>
        <time>2019-01-12T10:48:56.011Z</time>
      </trkpt>
      <trkpt lat="41.6001" lon="1.82957">
        <ele>785.09999961677</ele>
        <time>2019-01-12T10:49:40.011Z</time>
      </trkpt>
      <trkpt lat="41.60004" lon="1.82967">
        <ele>793.44531639728</ele>
        <time>2019-01-12T10:50:17.011Z</time>
      </trkpt>
      <trkpt lat="41.59996" lon="1.82963">
        <ele>796.92471798171</ele>
        <time>2019-01-12T10:50:31.011Z</time>
      </trkpt>
      <trkpt lat="41.6" lon="1.82952">
        <ele>798.2495988775</ele>
        <time>2019-01-12T10:50:37.011Z</time>
      </trkpt>
      <trkpt lat="41.59993" lon="1.82942">
        <ele>804</ele>
        <time>2019-01-12T10:51:22.011Z</time>
      </trkpt>
      <trkpt lat="41.59985" lon="1.82934">
        <ele>802</ele>
        <time>2019-01-12T10:51:35.011Z</time>
      </trkpt>
      <trkpt lat="41.59981" lon="1.82945">
        <ele>803.67683526531</ele>
        <time>2019-01-12T10:51:57.011Z</time>
      </trkpt>
      <trkpt lat="41.59976" lon="1.82935">
        <ele>809.08864286596</ele>
        <time>2019-01-12T10:52:35.011Z</time>
      </trkpt>
      <trkpt lat="41.59966" lon="1.82932">
        <ele>816.08980792257</ele>
        <time>2019-01-12T10:53:20.010Z</time>
      </trkpt>
      <trkpt lat="41.59958" lon="1.82927">
        <ele>819.25059880201</ele>
        <time>2019-01-12T10:53:37.011Z</time>
      </trkpt>
      <trkpt lat="41.59949" lon="1.82924">
        <ele>820.69959868511</ele>
        <time>2019-01-12T10:53:48.011Z</time>
      </trkpt>
      <trkpt lat="41.59942" lon="1.82916">
        <ele>824.29790123409</ele>
        <time>2019-01-12T10:54:06.011Z</time>
      </trkpt>
      <trkpt lat="41.59932" lon="1.82913">
        <ele>827.49769689764</ele>
        <time>2019-01-12T10:54:22.011Z</time>
      </trkpt>
      <trkpt lat="41.5994" lon="1.82922">
        <ele>835.01566275939</ele>
        <time>2019-01-12T10:55:05.011Z</time>
      </trkpt>
      <trkpt lat="41.59941" lon="1.82934">
        <ele>836.55020032</ele>
        <time>2019-01-12T10:55:20.002Z</time>
      </trkpt>
      <trkpt lat="41.59931" lon="1.82937">
        <ele>839.02915615879</ele>
        <time>2019-01-12T10:55:35.002Z</time>
      </trkpt>
      <trkpt lat="41.59924" lon="1.82946">
        <ele>844.05015012173</ele>
        <time>2019-01-12T10:55:55.002Z</time>
      </trkpt>
      <trkpt lat="41.59921" lon="1.82958">
        <ele>845</ele>
        <time>2019-01-12T10:56:07.001Z</time>
      </trkpt>
      <trkpt lat="41.59918" lon="1.82946">
        <ele>846.09760568616</ele>
        <time>2019-01-12T10:56:19.999Z</time>
      </trkpt>
      <trkpt lat="41.59908" lon="1.82945">
        <ele>850.49920095859</ele>
        <time>2019-01-12T10:56:42.011Z</time>
      </trkpt>
      <trkpt lat="41.59903" lon="1.82936">
        <ele>853.07692178138</ele>
        <time>2019-01-12T10:56:55.010Z</time>
      </trkpt>
      <trkpt lat="41.59893" lon="1.82936">
        <ele>858.49012129032</ele>
        <time>2019-01-12T10:57:17.011Z</time>
      </trkpt>
      <trkpt lat="41.59888" lon="1.82926">
        <ele>861.09246111433</ele>
        <time>2019-01-12T10:57:45.010Z</time>
      </trkpt>
      <trkpt lat="41.59898" lon="1.82926">
        <ele>863.54945066187</ele>
        <time>2019-01-12T10:58:00.000Z</time>
      </trkpt>
      <trkpt lat="41.59889" lon="1.82924">
        <ele>864.84630684467</ele>
        <time>2019-01-12T10:58:43.000Z</time>
      </trkpt>
      <trkpt lat="41.59879" lon="1.8292">
        <ele>865.84515447597</ele>
        <time>2019-01-12T10:58:53.000Z</time>
      </trkpt>
      <trkpt lat="41.59872" lon="1.82912">
        <ele>868</ele>
        <time>2019-01-12T10:59:10.011Z</time>
      </trkpt>
      <trkpt lat="41.59865" lon="1.82904">
        <ele>868.45055018271</ele>
        <time>2019-01-12T10:59:19.011Z</time>
      </trkpt>
      <trkpt lat="41.59856" lon="1.82898">
        <ele>869</ele>
        <time>2019-01-12T10:59:27.011Z</time>
      </trkpt>
      <trkpt lat="41.59859" lon="1.82885">
        <ele>869.34979934256</ele>
        <time>2019-01-12T10:59:38.011Z</time>
      </trkpt>
      <trkpt lat="41.59867" lon="1.82888">
        <ele>872</ele>
        <time>2019-01-12T11:05:28.011Z</time>
      </trkpt>
      <trkpt lat="41.59861" lon="1.82879">
        <ele>872.64845127623</ele>
        <time>2019-01-12T11:05:51.011Z</time>
      </trkpt>
      <trkpt lat="41.59871" lon="1.8288">
        <ele>873</ele>
        <time>2019-01-12T11:06:04.013Z</time>
      </trkpt>
      <trkpt lat="41.59862" lon="1.82885">
        <ele>872</ele>
        <time>2019-01-12T11:06:52.011Z</time>
      </trkpt>
      <trkpt lat="41.59857" lon="1.82874">
        <ele>873.49819904</ele>
        <time>2019-01-12T11:07:02.011Z</time>
      </trkpt>
      <trkpt lat="41.59848" lon="1.8287">
        <ele>879.78534564635</ele>
        <time>2019-01-12T11:07:24.000Z</time>
      </trkpt>
      <trkpt lat="41.59839" lon="1.82863">
        <ele>888.50489100439</ele>
        <time>2019-01-12T11:07:53.011Z</time>
      </trkpt>
      <trkpt lat="41.59831" lon="1.82868">
        <ele>889.74630883602</ele>
        <time>2019-01-12T11:08:02.011Z</time>
      </trkpt>
      <trkpt lat="41.59822" lon="1.82872">
        <ele>891.69819904</ele>
        <time>2019-01-12T11:08:13.011Z</time>
      </trkpt>
      <trkpt lat="41.59832" lon="1.82873">
        <ele>897.55020027267</ele>
        <time>2019-01-12T11:08:40.011Z</time>
      </trkpt>
      <trkpt lat="41.59826" lon="1.82862">
        <ele>898.35110016</ele>
        <time>2019-01-12T11:08:48.011Z</time>
      </trkpt>
      <trkpt lat="41.59817" lon="1.8286">
        <ele>900.3519472349</ele>
        <time>2019-01-12T11:08:59.011Z</time>
      </trkpt>
      <trkpt lat="41.59806" lon="1.82855">
        <ele>906.83628097891</ele>
        <time>2019-01-12T11:09:24.011Z</time>
      </trkpt>
      <trkpt lat="41.59797" lon="1.82853">
        <ele>913.83769700787</ele>
        <time>2019-01-12T11:10:03.011Z</time>
      </trkpt>
      <trkpt lat="41.59788" lon="1.82859">
        <ele>917.99449624623</ele>
        <time>2019-01-12T11:10:25.011Z</time>
      </trkpt>
      <trkpt lat="41.59779" lon="1.82862">
        <ele>918.94830880224</ele>
        <time>2019-01-12T11:10:34.011Z</time>
      </trkpt>
      <trkpt lat="41.59774" lon="1.82852">
        <ele>924.67240233163</ele>
        <time>2019-01-12T11:10:57.011Z</time>
      </trkpt>
      <trkpt lat="41.59766" lon="1.82845">
        <ele>932.64073561753</ele>
        <time>2019-01-12T11:11:30.011Z</time>
      </trkpt>
      <trkpt lat="41.59757" lon="1.82843">
        <ele>940.30159693311</ele>
        <time>2019-01-12T11:12:06.011Z</time>
      </trkpt>
      <trkpt lat="41.59754" lon="1.8283">
        <ele>944.05110016</ele>
        <time>2019-01-12T11:12:25.011Z</time>
      </trkpt>
      <trkpt lat="41.59742" lon="1.82832">
        <ele>948.70220032</ele>
        <time>2019-01-12T11:12:48.011Z</time>
      </trkpt>
      <trkpt lat="41.59733" lon="1.82833">
        <ele>952.14924872096</ele>
        <time>2019-01-12T11:13:06.011Z</time>
      </trkpt>
      <trkpt lat="41.59725" lon="1.82837">
        <ele>952.84994919721</ele>
        <time>2019-01-12T11:13:13.011Z</time>
      </trkpt>
      <trkpt lat="41.59718" lon="1.82829">
        <ele>957.49819904</ele>
        <time>2019-01-12T11:13:37.011Z</time>
      </trkpt>
      <trkpt lat="41.59709" lon="1.82831">
        <ele>964.83300143885</ele>
        <time>2019-01-12T11:14:05.011Z</time>
      </trkpt>
      <trkpt lat="41.597" lon="1.82833">
        <ele>967.48302835266</ele>
        <time>2019-01-12T11:14:17.011Z</time>
      </trkpt>
      <trkpt lat="41.59692" lon="1.82839">
        <ele>972.78892238918</ele>
        <time>2019-01-12T11:14:49.011Z</time>
      </trkpt>
      <trkpt lat="41.59685" lon="1.82831">
        <ele>980.45330048</ele>
        <time>2019-01-12T11:15:26.011Z</time>
      </trkpt>
      <trkpt lat="41.59681" lon="1.82843">
        <ele>987.64729856</ele>
        <time>2019-01-12T11:15:50.011Z</time>
      </trkpt>
      <trkpt lat="41.59673" lon="1.82853">
        <ele>989.55020027267</ele>
        <time>2019-01-12T11:16:00.011Z</time>
      </trkpt>
      <trkpt lat="41.59671" lon="1.82841">
        <ele>993.03353265935</ele>
        <time>2019-01-12T11:16:18.011Z</time>
      </trkpt>
      <trkpt lat="41.59668" lon="1.82827">
        <ele>998.50119760403</ele>
        <time>2019-01-12T11:16:37.011Z</time>
      </trkpt>
      <trkpt lat="41.59659" lon="1.8282">
        <ele>1005.6391931889</ele>
        <time>2019-01-12T11:17:21.011Z</time>
      </trkpt>
      <trkpt lat="41.59652" lon="1.82811">
        <ele>1011.6007954826</ele>
        <time>2019-01-12T11:17:46.011Z</time>
      </trkpt>
      <trkpt lat="41.59656" lon="1.82799">
        <ele>1018.7435808935</ele>
        <time>2019-01-12T11:18:07.011Z</time>
      </trkpt>
      <trkpt lat="41.59645" lon="1.82798">
        <ele>1023.46959872</ele>
        <time>2019-01-12T11:18:26.968Z</time>
      </trkpt>
      <trkpt lat="41.59649" lon="1.82784">
        <ele>1028.8020246828</ele>
        <time>2019-01-12T11:18:44.011Z</time>
      </trkpt>
      <trkpt lat="41.59644" lon="1.82773">
        <ele>1032.5069579368</ele>
        <time>2019-01-12T11:19:27.000Z</time>
      </trkpt>
      <trkpt lat="41.59651" lon="1.82765">
        <ele>1028.7706251779</ele>
        <time>2019-01-12T11:19:39.012Z</time>
      </trkpt>
      <trkpt lat="41.59643" lon="1.82759">
        <ele>1020.07910125</ele>
        <time>2019-01-12T11:27:34.010Z</time>
      </trkpt>
      <trkpt lat="41.59635" lon="1.82753">
        <ele>1018.10039808</ele>
        <time>2019-01-12T11:27:48.998Z</time>
      </trkpt>
      <trkpt lat="41.59626" lon="1.82752">
        <ele>1015.9984019172</ele>
        <time>2019-01-12T11:27:57.009Z</time>
      </trkpt>
      <trkpt lat="41.59632" lon="1.82741">
        <ele>1013.34770048</ele>
        <time>2019-01-12T11:28:07.997Z</time>
      </trkpt>
      <trkpt lat="41.59623" lon="1.82734">
        <ele>1013.00279808</ele>
        <time>2019-01-12T11:28:17.013Z</time>
      </trkpt>
      <trkpt lat="41.59613" lon="1.82736">
        <ele>1009.4150132805</ele>
        <time>2019-01-12T11:28:25.981Z</time>
      </trkpt>
      <trkpt lat="41.59605" lon="1.8273">
        <ele>1005.2567430191</ele>
        <time>2019-01-12T11:28:35.998Z</time>
      </trkpt>
      <trkpt lat="41.59595" lon="1.8273">
        <ele>999.99559936</ele>
        <time>2019-01-12T11:28:57.011Z</time>
      </trkpt>
      <trkpt lat="41.59587" lon="1.82725">
        <ele>996.8980037378</ele>
        <time>2019-01-12T11:29:05.011Z</time>
      </trkpt>
      <trkpt lat="41.59581" lon="1.82716">
        <ele>995.50079904141</ele>
        <time>2019-01-12T11:29:12.011Z</time>
      </trkpt>
      <trkpt lat="41.59571" lon="1.82714">
        <ele>994.55219968</ele>
        <time>2019-01-12T11:29:18.998Z</time>
      </trkpt>
      <trkpt lat="41.59566" lon="1.82705">
        <ele>993.55609484435</ele>
        <time>2019-01-12T11:29:28.999Z</time>
      </trkpt>
      <trkpt lat="41.59561" lon="1.82692">
        <ele>991.31085594023</ele>
        <time>2019-01-12T11:29:37.011Z</time>
      </trkpt>
      <trkpt lat="41.59556" lon="1.82682">
        <ele>987.09959425943</ele>
        <time>2019-01-12T11:29:42.997Z</time>
      </trkpt>
      <trkpt lat="41.59548" lon="1.82676">
        <ele>986</ele>
        <time>2019-01-12T11:29:51.115Z</time>
      </trkpt>
      <trkpt lat="41.59548" lon="1.82663">
        <ele>981</ele>
        <time>2019-01-12T11:30:06.002Z</time>
      </trkpt>
      <trkpt lat="41.59538" lon="1.82659">
        <ele>979.20520798731</ele>
        <time>2019-01-12T11:30:28.998Z</time>
      </trkpt>
      <trkpt lat="41.59529" lon="1.82655">
        <ele>977.20159884672</ele>
        <time>2019-01-12T11:30:33.997Z</time>
      </trkpt>
      <trkpt lat="41.59522" lon="1.82647">
        <ele>974.14669952</ele>
        <time>2019-01-12T11:30:44.011Z</time>
      </trkpt>
      <trkpt lat="41.59517" lon="1.82634">
        <ele>975.04235334719</ele>
        <time>2019-01-12T11:30:55.011Z</time>
      </trkpt>
      <trkpt lat="41.59508" lon="1.82629">
        <ele>975.54406473662</ele>
        <time>2019-01-12T11:30:59.998Z</time>
      </trkpt>
      <trkpt lat="41.59502" lon="1.82619">
        <ele>976</ele>
        <time>2019-01-12T11:31:08.997Z</time>
      </trkpt>
      <trkpt lat="41.59492" lon="1.82614">
        <ele>975.30665459967</ele>
        <time>2019-01-12T11:31:18.011Z</time>
      </trkpt>
      <trkpt lat="41.59484" lon="1.82608">
        <ele>973.5689024</ele>
        <time>2019-01-12T11:31:26.027Z</time>
      </trkpt>
      <trkpt lat="41.59477" lon="1.82598">
        <ele>971.47730048</ele>
        <time>2019-01-12T11:31:32.999Z</time>
      </trkpt>
      <trkpt lat="41.5947" lon="1.82589">
        <ele>968.82114797862</ele>
        <time>2019-01-12T11:31:39.999Z</time>
      </trkpt>
      <trkpt lat="41.59461" lon="1.82581">
        <ele>966.3064801415</ele>
        <time>2019-01-12T11:31:47.998Z</time>
      </trkpt>
      <trkpt lat="41.59452" lon="1.82573">
        <ele>965.10987067282</ele>
        <time>2019-01-12T11:31:53.999Z</time>
      </trkpt>
      <trkpt lat="41.59443" lon="1.82568">
        <ele>962.8980037378</ele>
        <time>2019-01-12T11:32:05.011Z</time>
      </trkpt>
      <trkpt lat="41.59435" lon="1.82562">
        <ele>961.10379234888</ele>
        <time>2019-01-12T11:32:14.000Z</time>
      </trkpt>
      <trkpt lat="41.59425" lon="1.82559">
        <ele>958.90591676017</ele>
        <time>2019-01-12T11:32:24.999Z</time>
      </trkpt>
      <trkpt lat="41.59416" lon="1.82553">
        <ele>957.50170367156</ele>
        <time>2019-01-12T11:32:31.999Z</time>
      </trkpt>
      <trkpt lat="41.59406" lon="1.82549">
        <ele>955.96376959011</ele>
        <time>2019-01-12T11:32:37.999Z</time>
      </trkpt>
      <trkpt lat="41.59398" lon="1.82542">
        <ele>954</ele>
        <time>2019-01-12T11:32:46.013Z</time>
      </trkpt>
      <trkpt lat="41.59389" lon="1.8254">
        <ele>954</ele>
        <time>2019-01-12T11:32:52.999Z</time>
      </trkpt>
      <trkpt lat="41.59381" lon="1.82545">
        <ele>953.36923065418</ele>
        <time>2019-01-12T11:33:01.008Z</time>
      </trkpt>
      <trkpt lat="41.59373" lon="1.82552">
        <ele>952.56677004115</ele>
        <time>2019-01-12T11:33:09.011Z</time>
      </trkpt>
      <trkpt lat="41.59363" lon="1.82555">
        <ele>951.85209984</ele>
        <time>2019-01-12T11:33:15.999Z</time>
      </trkpt>
      <trkpt lat="41.59354" lon="1.82556">
        <ele>950.30871425983</ele>
        <time>2019-01-12T11:33:28.011Z</time>
      </trkpt>
      <trkpt lat="41.59344" lon="1.8256">
        <ele>948.92377257333</ele>
        <time>2019-01-12T11:33:35.000Z</time>
      </trkpt>
      <trkpt lat="41.59334" lon="1.8256">
        <ele>947.51955948471</ele>
        <time>2019-01-12T11:33:42.000Z</time>
      </trkpt>
      <trkpt lat="41.59325" lon="1.82563">
        <ele>944.77477359738</ele>
        <time>2019-01-12T11:33:52.000Z</time>
      </trkpt>
      <trkpt lat="41.59316" lon="1.82567">
        <ele>940.62159872</ele>
        <time>2019-01-12T11:34:03.026Z</time>
      </trkpt>
      <trkpt lat="41.59316" lon="1.82579">
        <ele>940</ele>
        <time>2019-01-12T11:34:14.011Z</time>
      </trkpt>
      <trkpt lat="41.59313" lon="1.82591">
        <ele>940</ele>
        <time>2019-01-12T11:34:23.999Z</time>
      </trkpt>
      <trkpt lat="41.59317" lon="1.82603">
        <ele>940</ele>
        <time>2019-01-12T11:34:32.011Z</time>
      </trkpt>
      <trkpt lat="41.59317" lon="1.82616">
        <ele>940</ele>
        <time>2019-01-12T11:34:37.011Z</time>
      </trkpt>
      <trkpt lat="41.59314" lon="1.82628">
        <ele>940</ele>
        <time>2019-01-12T11:34:45.011Z</time>
      </trkpt>
      <trkpt lat="41.59314" lon="1.82614">
        <ele>939.45090048</ele>
        <time>2019-01-12T11:35:10.011Z</time>
      </trkpt>
      <trkpt lat="41.59314" lon="1.82601">
        <ele>940</ele>
        <time>2019-01-12T11:36:12.999Z</time>
      </trkpt>
      <trkpt lat="41.59314" lon="1.82588">
        <ele>940</ele>
        <time>2019-01-12T11:36:17.012Z</time>
      </trkpt>
      <trkpt lat="41.59316" lon="1.82575">
        <ele>940</ele>
        <time>2019-01-12T11:36:22.007Z</time>
      </trkpt>
      <trkpt lat="41.59319" lon="1.82562">
        <ele>940</ele>
        <time>2019-01-12T11:36:27.013Z</time>
      </trkpt>
      <trkpt lat="41.59323" lon="1.82551">
        <ele>940</ele>
        <time>2019-01-12T11:36:32.010Z</time>
      </trkpt>
      <trkpt lat="41.59329" lon="1.82539">
        <ele>938.20879872</ele>
        <time>2019-01-12T11:36:38.998Z</time>
      </trkpt>
      <trkpt lat="41.59337" lon="1.82529">
        <ele>936.20839936</ele>
        <time>2019-01-12T11:36:43.999Z</time>
      </trkpt>
      <trkpt lat="41.59341" lon="1.82517">
        <ele>934.21785904762</ele>
        <time>2019-01-12T11:36:49.011Z</time>
      </trkpt>
      <trkpt lat="41.59333" lon="1.82521">
        <ele>931.04939380971</ele>
        <time>2019-01-12T11:37:04.011Z</time>
      </trkpt>
      <trkpt lat="41.59323" lon="1.82522">
        <ele>931</ele>
        <time>2019-01-12T11:37:17.999Z</time>
      </trkpt>
      <trkpt lat="41.59312" lon="1.82531">
        <ele>931.24984943052</ele>
        <time>2019-01-12T11:37:27.011Z</time>
      </trkpt>
      <trkpt lat="41.59303" lon="1.82535">
        <ele>931.74815192748</ele>
        <time>2019-01-12T11:37:31.999Z</time>
      </trkpt>
      <trkpt lat="41.59295" lon="1.82524">
        <ele>933.10040054535</ele>
        <time>2019-01-12T11:37:40.011Z</time>
      </trkpt>
      <trkpt lat="41.59285" lon="1.8253">
        <ele>936.95110016</ele>
        <time>2019-01-12T11:38:14.011Z</time>
      </trkpt>
      <trkpt lat="41.59279" lon="1.82539">
        <ele>937</ele>
        <time>2019-01-12T11:38:24.111Z</time>
      </trkpt>
      <trkpt lat="41.5927" lon="1.82544">
        <ele>938.89506574665</ele>
        <time>2019-01-12T11:38:33.999Z</time>
      </trkpt>
      <trkpt lat="41.59272" lon="1.82558">
        <ele>939.54636785556</ele>
        <time>2019-01-12T11:38:40.011Z</time>
      </trkpt>
      <trkpt lat="41.59264" lon="1.82565">
        <ele>940</ele>
        <time>2019-01-12T11:38:46.011Z</time>
      </trkpt>
      <trkpt lat="41.59257" lon="1.82572">
        <ele>940</ele>
        <time>2019-01-12T11:38:51.011Z</time>
      </trkpt>
      <trkpt lat="41.59254" lon="1.82585">
        <ele>940</ele>
        <time>2019-01-12T11:38:56.011Z</time>
      </trkpt>
      <trkpt lat="41.5925" lon="1.82597">
        <ele>940</ele>
        <time>2019-01-12T11:39:03.011Z</time>
      </trkpt>
      <trkpt lat="41.59243" lon="1.82605">
        <ele>942.42683635294</ele>
        <time>2019-01-12T11:39:16.011Z</time>
      </trkpt>
      <trkpt lat="41.59238" lon="1.82616">
        <ele>944.6867219967</ele>
        <time>2019-01-12T11:39:24.011Z</time>
      </trkpt>
      <trkpt lat="41.59233" lon="1.82628">
        <ele>946.56428524642</ele>
        <time>2019-01-12T11:39:30.011Z</time>
      </trkpt>
      <trkpt lat="41.59223" lon="1.82634">
        <ele>948.35039913747</ele>
        <time>2019-01-12T11:39:38.011Z</time>
      </trkpt>
      <trkpt lat="41.59213" lon="1.82632">
        <ele>949</ele>
        <time>2019-01-12T11:39:48.009Z</time>
      </trkpt>
      <trkpt lat="41.59206" lon="1.82622">
        <ele>949.10108831617</ele>
        <time>2019-01-12T11:39:55.011Z</time>
      </trkpt>
      <trkpt lat="41.59197" lon="1.82618">
        <ele>950.28763654595</ele>
        <time>2019-01-12T11:40:01.009Z</time>
      </trkpt>
      <trkpt lat="41.59188" lon="1.82624">
        <ele>952.09221438777</ele>
        <time>2019-01-12T11:40:10.011Z</time>
      </trkpt>
      <trkpt lat="41.59179" lon="1.82626">
        <ele>953</ele>
        <time>2019-01-12T11:40:17.011Z</time>
      </trkpt>
      <trkpt lat="41.59169" lon="1.82625">
        <ele>953</ele>
        <time>2019-01-12T11:40:24.011Z</time>
      </trkpt>
      <trkpt lat="41.59162" lon="1.82634">
        <ele>953</ele>
        <time>2019-01-12T11:40:34.009Z</time>
      </trkpt>
      <trkpt lat="41.59158" lon="1.82647">
        <ele>953.9162808994</ele>
        <time>2019-01-12T11:40:44.011Z</time>
      </trkpt>
      <trkpt lat="41.59156" lon="1.8266">
        <ele>955.68651419087</ele>
        <time>2019-01-12T11:40:53.009Z</time>
      </trkpt>
      <trkpt lat="41.59156" lon="1.82672">
        <ele>957.096</ele>
        <time>2019-01-12T11:41:00.000Z</time>
      </trkpt>
      <trkpt lat="41.59157" lon="1.82684">
        <ele>958.34899968</ele>
        <time>2019-01-12T11:41:08.010Z</time>
      </trkpt>
      <trkpt lat="41.59158" lon="1.82697">
        <ele>959.68972268775</ele>
        <time>2019-01-12T11:41:18.010Z</time>
      </trkpt>
      <trkpt lat="41.59151" lon="1.82707">
        <ele>962.63086898785</ele>
        <time>2019-01-12T11:41:30.011Z</time>
      </trkpt>
      <trkpt lat="41.59143" lon="1.82715">
        <ele>965.92636382204</ele>
        <time>2019-01-12T11:41:40.999Z</time>
      </trkpt>
      <trkpt lat="41.59136" lon="1.82725">
        <ele>967</ele>
        <time>2019-01-12T11:41:49.999Z</time>
      </trkpt>
      <trkpt lat="41.5913" lon="1.82735">
        <ele>969.52882864657</ele>
        <time>2019-01-12T11:42:03.000Z</time>
      </trkpt>
      <trkpt lat="41.59123" lon="1.82743">
        <ele>972.68364707509</ele>
        <time>2019-01-12T11:42:17.969Z</time>
      </trkpt>
      <trkpt lat="41.59131" lon="1.82736">
        <ele>982.90220032</ele>
        <time>2019-01-12T11:42:59.011Z</time>
      </trkpt>
      <trkpt lat="41.59121" lon="1.82731">
        <ele>983.30749519054</ele>
        <time>2019-01-12T11:43:08.011Z</time>
      </trkpt>
      <trkpt lat="41.59112" lon="1.8273">
        <ele>981.88712106263</ele>
        <time>2019-01-12T11:43:15.011Z</time>
      </trkpt>
      <trkpt lat="41.59103" lon="1.82734">
        <ele>978.54760460033</ele>
        <time>2019-01-12T11:43:26.011Z</time>
      </trkpt>
      <trkpt lat="41.59094" lon="1.82733">
        <ele>977.05419046439</ele>
        <time>2019-01-12T11:43:30.999Z</time>
      </trkpt>
      <trkpt lat="41.59086" lon="1.82742">
        <ele>974.10220032</ele>
        <time>2019-01-12T11:43:44.009Z</time>
      </trkpt>
      <trkpt lat="41.59078" lon="1.82746">
        <ele>973.25209984</ele>
        <time>2019-01-12T11:43:51.999Z</time>
      </trkpt>
      <trkpt lat="41.5907" lon="1.82752">
        <ele>971.06181517469</ele>
        <time>2019-01-12T11:44:01.000Z</time>
      </trkpt>
      <trkpt lat="41.59065" lon="1.82763">
        <ele>969.65596479107</ele>
        <time>2019-01-12T11:44:08.011Z</time>
      </trkpt>
      <trkpt lat="41.59062" lon="1.82777">
        <ele>968.8557010355</ele>
        <time>2019-01-12T11:44:16.040Z</time>
      </trkpt>
      <trkpt lat="41.59055" lon="1.82782">
        <ele>968.85100032</ele>
        <time>2019-01-12T11:44:46.010Z</time>
      </trkpt>
      <trkpt lat="41.59048" lon="1.82791">
        <ele>967.75209984</ele>
        <time>2019-01-12T11:45:06.999Z</time>
      </trkpt>
      <trkpt lat="41.59042" lon="1.82802">
        <ele>966.26190476191</ele>
        <time>2019-01-12T11:45:17.000Z</time>
      </trkpt>
      <trkpt lat="41.59046" lon="1.82814">
        <ele>964.77380952381</ele>
        <time>2019-01-12T11:45:22.000Z</time>
      </trkpt>
      <trkpt lat="41.59052" lon="1.82823">
        <ele>963.71552516129</ele>
        <time>2019-01-12T11:45:26.011Z</time>
      </trkpt>
      <trkpt lat="41.59052" lon="1.82838">
        <ele>962.70766193548</ele>
        <time>2019-01-12T11:45:31.010Z</time>
      </trkpt>
      <trkpt lat="41.59048" lon="1.82849">
        <ele>961.27626459144</ele>
        <time>2019-01-12T11:45:37.000Z</time>
      </trkpt>
      <trkpt lat="41.59039" lon="1.82856">
        <ele>959.81712062257</ele>
        <time>2019-01-12T11:45:42.000Z</time>
      </trkpt>
      <trkpt lat="41.59034" lon="1.82867">
        <ele>958.49490867949</ele>
        <time>2019-01-12T11:45:46.040Z</time>
      </trkpt>
      <trkpt lat="41.5903" lon="1.8288">
        <ele>956.88187510754</ele>
        <time>2019-01-12T11:45:50.000Z</time>
      </trkpt>
      <trkpt lat="41.59026" lon="1.82892">
        <ele>954.96270913072</ele>
        <time>2019-01-12T11:45:55.000Z</time>
      </trkpt>
      <trkpt lat="41.59022" lon="1.82904">
        <ele>954.07948945663</ele>
        <time>2019-01-12T11:46:04.000Z</time>
      </trkpt>
      <trkpt lat="41.5902" lon="1.82918">
        <ele>953.46549933166</ele>
        <time>2019-01-12T11:46:10.000Z</time>
      </trkpt>
      <trkpt lat="41.59014" lon="1.8293">
        <ele>952.90418358566</ele>
        <time>2019-01-12T11:46:15.001Z</time>
      </trkpt>
      <trkpt lat="41.59011" lon="1.82944">
        <ele>951.9081676494</ele>
        <time>2019-01-12T11:46:20.001Z</time>
      </trkpt>
      <trkpt lat="41.59003" lon="1.8295">
        <ele>951.31095585657</ele>
        <time>2019-01-12T11:46:22.999Z</time>
      </trkpt>
      <trkpt lat="41.59" lon="1.82965">
        <ele>950.11422952891</ele>
        <time>2019-01-12T11:46:29.011Z</time>
      </trkpt>
      <trkpt lat="41.58996" lon="1.82979">
        <ele>949.09850781246</ele>
        <time>2019-01-12T11:46:34.115Z</time>
      </trkpt>
      <trkpt lat="41.58991" lon="1.82991">
        <ele>949.64018043115</ele>
        <time>2019-01-12T11:46:40.999Z</time>
      </trkpt>
      <trkpt lat="41.58983" lon="1.82998">
        <ele>952.24138900025</ele>
        <time>2019-01-12T11:46:52.009Z</time>
      </trkpt>
      <trkpt lat="41.58973" lon="1.82997">
        <ele>952.50180096</ele>
        <time>2019-01-12T11:46:57.011Z</time>
      </trkpt>
      <trkpt lat="41.58963" lon="1.83">
        <ele>951.50200064</ele>
        <time>2019-01-12T11:47:02.010Z</time>
      </trkpt>
      <trkpt lat="41.58954" lon="1.83002">
        <ele>950.75287746032</ele>
        <time>2019-01-12T11:47:07.011Z</time>
      </trkpt>
      <trkpt lat="41.58945" lon="1.83005">
        <ele>950.05843301587</ele>
        <time>2019-01-12T11:47:14.011Z</time>
      </trkpt>
      <trkpt lat="41.58938" lon="1.83012">
        <ele>951.89446119459</ele>
        <time>2019-01-12T11:47:29.011Z</time>
      </trkpt>
      <trkpt lat="41.58928" lon="1.83007">
        <ele>958.3465256303</ele>
        <time>2019-01-12T11:48:08.011Z</time>
      </trkpt>
      <trkpt lat="41.58919" lon="1.83013">
        <ele>960.3497024</ele>
        <time>2019-01-12T11:48:18.999Z</time>
      </trkpt>
      <trkpt lat="41.58913" lon="1.83003">
        <ele>967.14570879472</ele>
        <time>2019-01-12T11:48:46.011Z</time>
      </trkpt>
      <trkpt lat="41.58904" lon="1.82998">
        <ele>974.70220032</ele>
        <time>2019-01-12T11:49:23.011Z</time>
      </trkpt>
      <trkpt lat="41.58902" lon="1.8301">
        <ele>978.48968889219</ele>
        <time>2019-01-12T11:49:42.011Z</time>
      </trkpt>
      <trkpt lat="41.58895" lon="1.83001">
        <ele>979.69436567847</ele>
        <time>2019-01-12T11:49:48.011Z</time>
      </trkpt>
      <trkpt lat="41.58892" lon="1.82989">
        <ele>982.09236795969</ele>
        <time>2019-01-12T11:50:00.011Z</time>
      </trkpt>
      <trkpt lat="41.58898" lon="1.8298">
        <ele>983.0420992</ele>
        <time>2019-01-12T11:50:05.011Z</time>
      </trkpt>
      <trkpt lat="41.58893" lon="1.82968">
        <ele>986.30080147546</ele>
        <time>2019-01-12T11:50:31.011Z</time>
      </trkpt>
      <trkpt lat="41.58892" lon="1.82956">
        <ele>988.50220032</ele>
        <time>2019-01-12T11:50:42.011Z</time>
      </trkpt>
      <trkpt lat="41.58902" lon="1.82956">
        <ele>992.7292230032</ele>
        <time>2019-01-12T11:51:02.011Z</time>
      </trkpt>
      <trkpt lat="41.58912" lon="1.82962">
        <ele>992.05189617444</ele>
        <time>2019-01-12T11:51:24.000Z</time>
      </trkpt>
      <trkpt lat="41.58921" lon="1.82964">
        <ele>991.05468175299</ele>
        <time>2019-01-12T11:51:34.011Z</time>
      </trkpt>
      <trkpt lat="41.5893" lon="1.82958">
        <ele>991.85020127176</ele>
        <time>2019-01-12T11:51:43.011Z</time>
      </trkpt>
      <trkpt lat="41.58939" lon="1.82954">
        <ele>993.70220032</ele>
        <time>2019-01-12T11:51:53.011Z</time>
      </trkpt>
      <trkpt lat="41.58942" lon="1.82941">
        <ele>996</ele>
        <time>2019-01-12T11:52:12.001Z</time>
      </trkpt>
      <trkpt lat="41.58947" lon="1.82928">
        <ele>996.85110016</ele>
        <time>2019-01-12T11:52:23.011Z</time>
      </trkpt>
      <trkpt lat="41.58945" lon="1.82914">
        <ele>998.70000128</ele>
        <time>2019-01-12T11:52:33.000Z</time>
      </trkpt>
      <trkpt lat="41.58941" lon="1.829">
        <ele>1000.8796422076</ele>
        <time>2019-01-12T11:52:44.011Z</time>
      </trkpt>
      <trkpt lat="41.5895" lon="1.82889">
        <ele>1002.2937241052</ele>
        <time>2019-01-12T11:52:51.011Z</time>
      </trkpt>
      <trkpt lat="41.58949" lon="1.82876">
        <ele>1004.30220032</ele>
        <time>2019-01-12T11:53:01.011Z</time>
      </trkpt>
      <trkpt lat="41.58944" lon="1.82864">
        <ele>1005.50220032</ele>
        <time>2019-01-12T11:53:07.011Z</time>
      </trkpt>
      <trkpt lat="41.58951" lon="1.82855">
        <ele>1006.70220032</ele>
        <time>2019-01-12T11:53:13.011Z</time>
      </trkpt>
      <trkpt lat="41.58946" lon="1.82844">
        <ele>1010.0509981311</ele>
        <time>2019-01-12T11:53:25.011Z</time>
      </trkpt>
      <trkpt lat="41.5895" lon="1.82832">
        <ele>1014.8789242917</ele>
        <time>2019-01-12T11:53:54.011Z</time>
      </trkpt>
      <trkpt lat="41.58953" lon="1.8282">
        <ele>1017.10220032</ele>
        <time>2019-01-12T11:54:05.011Z</time>
      </trkpt>
      <trkpt lat="41.58944" lon="1.82813">
        <ele>1018.70220032</ele>
        <time>2019-01-12T11:54:13.011Z</time>
      </trkpt>
      <trkpt lat="41.58935" lon="1.82819">
        <ele>1024.4514939264</ele>
        <time>2019-01-12T11:54:36.011Z</time>
      </trkpt>
      <trkpt lat="41.58931" lon="1.8283">
        <ele>1026.5431247259</ele>
        <time>2019-01-12T11:54:43.011Z</time>
      </trkpt>
      <trkpt lat="41.58922" lon="1.82836">
        <ele>1028.9954407179</ele>
        <time>2019-01-12T11:54:57.011Z</time>
      </trkpt>
      <trkpt lat="41.5892" lon="1.82848">
        <ele>1033.4498462829</ele>
        <time>2019-01-12T11:55:17.011Z</time>
      </trkpt>
      <trkpt lat="41.58881" lon="1.82812">
        <ele>1062.7007982749</ele>
        <time>2019-01-12T11:57:08.011Z</time>
      </trkpt>
      <trkpt lat="41.58887" lon="1.82801">
        <ele>1064</ele>
        <time>2019-01-12T11:57:19.011Z</time>
      </trkpt>
      <trkpt lat="41.58884" lon="1.82789">
        <ele>1064.05110016</ele>
        <time>2019-01-12T11:57:35.011Z</time>
      </trkpt>
      <trkpt lat="41.58875" lon="1.82786">
        <ele>1064.6931071874</ele>
        <time>2019-01-12T11:58:07.969Z</time>
      </trkpt>
      <trkpt lat="41.58871" lon="1.82774">
        <ele>1068.30220032</ele>
        <time>2019-01-12T11:58:41.011Z</time>
      </trkpt>
      <trkpt lat="41.58869" lon="1.82761">
        <ele>1075.3640279981</ele>
        <time>2019-01-12T11:59:03.011Z</time>
      </trkpt>
      <trkpt lat="41.58869" lon="1.82748">
        <ele>1078.09819904</ele>
        <time>2019-01-12T11:59:20.011Z</time>
      </trkpt>
      <trkpt lat="41.58877" lon="1.82742">
        <ele>1084.4103511444</ele>
        <time>2019-01-12T11:59:46.011Z</time>
      </trkpt>
      <trkpt lat="41.58887" lon="1.82737">
        <ele>1091.4458394904</ele>
        <time>2019-01-12T12:00:16.011Z</time>
      </trkpt>
      <trkpt lat="41.58895" lon="1.8273">
        <ele>1095.2503497901</ele>
        <time>2019-01-12T12:00:37.011Z</time>
      </trkpt>
      <trkpt lat="41.58904" lon="1.8273">
        <ele>1096.501197604</ele>
        <time>2019-01-12T12:00:47.011Z</time>
      </trkpt>
      <trkpt lat="41.58912" lon="1.82723">
        <ele>1098.6497490611</ele>
        <time>2019-01-12T12:01:01.011Z</time>
      </trkpt>
      <trkpt lat="41.58907" lon="1.82713">
        <ele>1105.6504490865</ele>
        <time>2019-01-12T12:03:11.011Z</time>
      </trkpt>
      <trkpt lat="41.58904" lon="1.827">
        <ele>1108.5528529036</ele>
        <time>2019-01-12T12:03:23.011Z</time>
      </trkpt>
      <trkpt lat="41.58898" lon="1.82691">
        <ele>1110.70020096</ele>
        <time>2019-01-12T12:03:33.001Z</time>
      </trkpt>
      <trkpt lat="41.58893" lon="1.82681">
        <ele>1116.9424833298</ele>
        <time>2019-01-12T12:03:51.002Z</time>
      </trkpt>
      <trkpt lat="41.58888" lon="1.82671">
        <ele>1120.5456370859</ele>
        <time>2019-01-12T12:04:10.000Z</time>
      </trkpt>
      <trkpt lat="41.58879" lon="1.82671">
        <ele>1122.15030144</ele>
        <time>2019-01-12T12:04:25.001Z</time>
      </trkpt>
      <trkpt lat="41.5887" lon="1.82668">
        <ele>1126.2962962014</ele>
        <time>2019-01-12T12:04:56.000Z</time>
      </trkpt>
      <trkpt lat="41.5886" lon="1.82664">
        <ele>1129.4856003223</ele>
        <time>2019-01-12T12:05:22.000Z</time>
      </trkpt>
      <trkpt lat="41.58851" lon="1.82661">
        <ele>1132.25110016</ele>
        <time>2019-01-12T12:05:37.011Z</time>
      </trkpt>
      <trkpt lat="41.58849" lon="1.82649">
        <ele>1136.4483682854</ele>
        <time>2019-01-12T12:05:56.011Z</time>
      </trkpt>
      <trkpt lat="41.58852" lon="1.82661">
        <ele>1130</ele>
        <time>2019-01-12T12:12:39.001Z</time>
      </trkpt>
      <trkpt lat="41.58861" lon="1.82661">
        <ele>1127.9032892033</ele>
        <time>2019-01-12T12:13:00.000Z</time>
      </trkpt>
      <trkpt lat="41.58871" lon="1.82666">
        <ele>1125.5017036716</ele>
        <time>2019-01-12T12:13:11.999Z</time>
      </trkpt>
      <trkpt lat="41.5888" lon="1.82669">
        <ele>1122.4003968</ele>
        <time>2019-01-12T12:13:20.999Z</time>
      </trkpt>
      <trkpt lat="41.58886" lon="1.82678">
        <ele>1117.5100489584</ele>
        <time>2019-01-12T12:13:42.007Z</time>
      </trkpt>
      <trkpt lat="41.58894" lon="1.82688">
        <ele>1112.24299776</ele>
        <time>2019-01-12T12:13:57.010Z</time>
      </trkpt>
      <trkpt lat="41.589" lon="1.82698">
        <ele>1106.5127062618</ele>
        <time>2019-01-12T12:14:07.012Z</time>
      </trkpt>
      <trkpt lat="41.58906" lon="1.82707">
        <ele>1105.1571283314</ele>
        <time>2019-01-12T12:14:14.000Z</time>
      </trkpt>
      <trkpt lat="41.5891" lon="1.82719">
        <ele>1103.0801856199</ele>
        <time>2019-01-12T12:14:21.011Z</time>
      </trkpt>
      <trkpt lat="41.58902" lon="1.82724">
        <ele>1095.59999744</ele>
        <time>2019-01-12T12:14:38.000Z</time>
      </trkpt>
      <trkpt lat="41.58891" lon="1.82727">
        <ele>1092.2571005872</ele>
        <time>2019-01-12T12:14:47.011Z</time>
      </trkpt>
      <trkpt lat="41.58884" lon="1.82736">
        <ele>1086.7692701139</ele>
        <time>2019-01-12T12:15:01.011Z</time>
      </trkpt>
      <trkpt lat="41.58875" lon="1.82737">
        <ele>1082.94669952</ele>
        <time>2019-01-12T12:15:18.011Z</time>
      </trkpt>
      <trkpt lat="41.58867" lon="1.82744">
        <ele>1075.0454976</ele>
        <time>2019-01-12T12:15:41.015Z</time>
      </trkpt>
      <trkpt lat="41.58867" lon="1.82759">
        <ele>1072.89999872</ele>
        <time>2019-01-12T12:15:50.000Z</time>
      </trkpt>
      <trkpt lat="41.58859" lon="1.82753">
        <ele>1066.4704093838</ele>
        <time>2019-01-12T12:16:13.011Z</time>
      </trkpt>
      <trkpt lat="41.5885" lon="1.8275">
        <ele>1062.3576290783</ele>
        <time>2019-01-12T12:16:30.011Z</time>
      </trkpt>
      <trkpt lat="41.58841" lon="1.82749">
        <ele>1058.7549665813</ele>
        <time>2019-01-12T12:16:42.011Z</time>
      </trkpt>
      <trkpt lat="41.58832" lon="1.82745">
        <ele>1056.3543465668</ele>
        <time>2019-01-12T12:16:50.011Z</time>
      </trkpt>
      <trkpt lat="41.58822" lon="1.82743">
        <ele>1042.8017542981</ele>
        <time>2019-01-12T12:17:31.011Z</time>
      </trkpt>
      <trkpt lat="41.58808" lon="1.82752">
        <ele>1040.449349621</ele>
        <time>2019-01-12T12:17:40.011Z</time>
      </trkpt>
      <trkpt lat="41.58809" lon="1.82764">
        <ele>1039.0508496466</ele>
        <time>2019-01-12T12:18:04.011Z</time>
      </trkpt>
      <trkpt lat="41.58801" lon="1.82755">
        <ele>1041.74909952</ele>
        <time>2019-01-12T12:19:02.011Z</time>
      </trkpt>
      <trkpt lat="41.58798" lon="1.82766">
        <ele>1042</ele>
        <time>2019-01-12T12:19:16.011Z</time>
      </trkpt>
      <trkpt lat="41.58804" lon="1.82781">
        <ele>1042</ele>
        <time>2019-01-12T12:19:40.011Z</time>
      </trkpt>
      <trkpt lat="41.58804" lon="1.82768">
        <ele>1041.3005008753</ele>
        <time>2019-01-12T12:19:58.011Z</time>
      </trkpt>
      <trkpt lat="41.588" lon="1.82757">
        <ele>1040</ele>
        <time>2019-01-12T12:20:09.011Z</time>
      </trkpt>
      <trkpt lat="41.58799" lon="1.82769">
        <ele>1041</ele>
        <time>2019-01-12T12:21:18.011Z</time>
      </trkpt>
      <trkpt lat="41.58795" lon="1.82757">
        <ele>1040.5467263492</ele>
        <time>2019-01-12T12:22:10.011Z</time>
      </trkpt>
      <trkpt lat="41.58794" lon="1.82772">
        <ele>1041</ele>
        <time>2019-01-12T12:22:16.011Z</time>
      </trkpt>
      <trkpt lat="41.58792" lon="1.82784">
        <ele>1041.64909952</ele>
        <time>2019-01-12T12:22:31.011Z</time>
      </trkpt>
      <trkpt lat="41.58784" lon="1.82789">
        <ele>1042</ele>
        <time>2019-01-12T12:22:45.011Z</time>
      </trkpt>
      <trkpt lat="41.58774" lon="1.82791">
        <ele>1042</ele>
        <time>2019-01-12T12:22:52.999Z</time>
      </trkpt>
      <trkpt lat="41.58766" lon="1.82797">
        <ele>1043.2911615089</ele>
        <time>2019-01-12T12:23:01.011Z</time>
      </trkpt>
      <trkpt lat="41.58762" lon="1.82811">
        <ele>1044</ele>
        <time>2019-01-12T12:23:09.011Z</time>
      </trkpt>
      <trkpt lat="41.58753" lon="1.82805">
        <ele>1044.24909952</ele>
        <time>2019-01-12T12:23:17.011Z</time>
      </trkpt>
      <trkpt lat="41.58743" lon="1.82782">
        <ele>1044.94909952</ele>
        <time>2019-01-12T12:23:24.011Z</time>
      </trkpt>
      <trkpt lat="41.5874" lon="1.82769">
        <ele>1045</ele>
        <time>2019-01-12T12:23:26.011Z</time>
      </trkpt>
      <trkpt lat="41.58733" lon="1.8276">
        <ele>1045</ele>
        <time>2019-01-12T12:23:30.998Z</time>
      </trkpt>
      <trkpt lat="41.5873" lon="1.82742">
        <ele>1045</ele>
        <time>2019-01-12T12:23:33.011Z</time>
      </trkpt>
      <trkpt lat="41.58725" lon="1.8273">
        <ele>1045</ele>
        <time>2019-01-12T12:23:38.011Z</time>
      </trkpt>
      <trkpt lat="41.58722" lon="1.82718">
        <ele>1044.7682664005</ele>
        <time>2019-01-12T12:23:46.030Z</time>
      </trkpt>
      <trkpt lat="41.58714" lon="1.82709">
        <ele>1040.30119424</ele>
        <time>2019-01-12T12:23:58.998Z</time>
      </trkpt>
      <trkpt lat="41.58709" lon="1.82699">
        <ele>1036.3014925677</ele>
        <time>2019-01-12T12:24:08.010Z</time>
      </trkpt>
      <trkpt lat="41.58703" lon="1.82689">
        <ele>1035.3062699562</ele>
        <time>2019-01-12T12:24:13.011Z</time>
      </trkpt>
      <trkpt lat="41.58697" lon="1.8268">
        <ele>1033.9597989562</ele>
        <time>2019-01-12T12:24:18.000Z</time>
      </trkpt>
      <trkpt lat="41.58689" lon="1.82672">
        <ele>1030.1491983322</ele>
        <time>2019-01-12T12:25:23.011Z</time>
      </trkpt>
      <trkpt lat="41.58687" lon="1.8266">
        <ele>1028.29999872</ele>
        <time>2019-01-12T12:25:33.000Z</time>
      </trkpt>
      <trkpt lat="41.5868" lon="1.82643">
        <ele>1025.1637190211</ele>
        <time>2019-01-12T12:25:44.011Z</time>
      </trkpt>
      <trkpt lat="41.58672" lon="1.82641">
        <ele>1023.5030171448</ele>
        <time>2019-01-12T12:25:52.000Z</time>
      </trkpt>
      <trkpt lat="41.58662" lon="1.82639">
        <ele>1018.4543550096</ele>
        <time>2019-01-12T12:26:10.011Z</time>
      </trkpt>
      <trkpt lat="41.58652" lon="1.82638">
        <ele>1012.2449984</ele>
        <time>2019-01-12T12:26:30.010Z</time>
      </trkpt>
      <trkpt lat="41.58643" lon="1.82633">
        <ele>1009.14869888</ele>
        <time>2019-01-12T12:26:43.013Z</time>
      </trkpt>
      <trkpt lat="41.58638" lon="1.82623">
        <ele>1004.6392079115</ele>
        <time>2019-01-12T12:26:56.011Z</time>
      </trkpt>
      <trkpt lat="41.58633" lon="1.82612">
        <ele>1003.491589871</ele>
        <time>2019-01-12T12:27:12.011Z</time>
      </trkpt>
      <trkpt lat="41.58628" lon="1.82601">
        <ele>1007.23389661</ele>
        <time>2019-01-12T12:27:32.011Z</time>
      </trkpt>
      <trkpt lat="41.5862" lon="1.82595">
        <ele>1009.4981858065</ele>
        <time>2019-01-12T12:27:42.011Z</time>
      </trkpt>
      <trkpt lat="41.58616" lon="1.82584">
        <ele>1012.15330048</ele>
        <time>2019-01-12T12:27:55.011Z</time>
      </trkpt>
      <trkpt lat="41.58619" lon="1.82572">
        <ele>1018.0961851839</ele>
        <time>2019-01-12T12:28:19.999Z</time>
      </trkpt>
      <trkpt lat="41.58624" lon="1.82562">
        <ele>1022</ele>
        <time>2019-01-12T12:28:35.000Z</time>
      </trkpt>
      <trkpt lat="41.58631" lon="1.82554">
        <ele>1020.2267209415</ele>
        <time>2019-01-12T12:28:49.000Z</time>
      </trkpt>
      <trkpt lat="41.58637" lon="1.82544">
        <ele>1015.266368254</ele>
        <time>2019-01-12T12:29:00.011Z</time>
      </trkpt>
      <trkpt lat="41.58643" lon="1.82533">
        <ele>1013.7438437657</ele>
        <time>2019-01-12T12:29:12.011Z</time>
      </trkpt>
      <trkpt lat="41.58643" lon="1.82521">
        <ele>1013.35246674</ele>
        <time>2019-01-12T12:29:21.000Z</time>
      </trkpt>
      <trkpt lat="41.58644" lon="1.82509">
        <ele>1013.85020032</ele>
        <time>2019-01-12T12:29:33.002Z</time>
      </trkpt>
      <trkpt lat="41.58645" lon="1.82496">
        <ele>1014.75020032</ele>
        <time>2019-01-12T12:29:42.002Z</time>
      </trkpt>
      <trkpt lat="41.58646" lon="1.82484">
        <ele>1015</ele>
        <time>2019-01-12T12:29:51.001Z</time>
      </trkpt>
      <trkpt lat="41.5864" lon="1.82473">
        <ele>1013.6055769172</ele>
        <time>2019-01-12T12:29:58.000Z</time>
      </trkpt>
      <trkpt lat="41.58631" lon="1.82469">
        <ele>1010.5063204032</ele>
        <time>2019-01-12T12:30:07.001Z</time>
      </trkpt>
      <trkpt lat="41.58623" lon="1.82475">
        <ele>1009.1001019379</ele>
        <time>2019-01-12T12:30:14.011Z</time>
      </trkpt>
      <trkpt lat="41.58628" lon="1.82463">
        <ele>1009</ele>
        <time>2019-01-12T12:30:21.000Z</time>
      </trkpt>
      <trkpt lat="41.58635" lon="1.82452">
        <ele>1007.69999872</ele>
        <time>2019-01-12T12:30:31.000Z</time>
      </trkpt>
      <trkpt lat="41.5863" lon="1.8244">
        <ele>1005.0657714286</ele>
        <time>2019-01-12T12:30:40.999Z</time>
      </trkpt>
      <trkpt lat="41.58625" lon="1.82429">
        <ele>1002.6392020959</ele>
        <time>2019-01-12T12:30:47.999Z</time>
      </trkpt>
      <trkpt lat="41.58618" lon="1.8242">
        <ele>998.63505439681</ele>
        <time>2019-01-12T12:30:57.998Z</time>
      </trkpt>
      <trkpt lat="41.58611" lon="1.82413">
        <ele>994.20219632956</ele>
        <time>2019-01-12T12:31:08.999Z</time>
      </trkpt>
      <trkpt lat="41.58601" lon="1.82414">
        <ele>991.75356435869</ele>
        <time>2019-01-12T12:31:16.999Z</time>
      </trkpt>
      <trkpt lat="41.58602" lon="1.82401">
        <ele>988.54979968</ele>
        <time>2019-01-12T12:31:39.002Z</time>
      </trkpt>
      <trkpt lat="41.58611" lon="1.82398">
        <ele>987.84609664</ele>
        <time>2019-01-12T12:31:45.013Z</time>
      </trkpt>
      <trkpt lat="41.58616" lon="1.82388">
        <ele>984.1005952</ele>
        <time>2019-01-12T12:31:55.999Z</time>
      </trkpt>
      <trkpt lat="41.58607" lon="1.8238">
        <ele>979</ele>
        <time>2019-01-12T12:32:08.011Z</time>
      </trkpt>
      <trkpt lat="41.58597" lon="1.82379">
        <ele>978.84955180738</ele>
        <time>2019-01-12T12:32:15.011Z</time>
      </trkpt>
      <trkpt lat="41.58589" lon="1.82373">
        <ele>974.2444992</ele>
        <time>2019-01-12T12:32:28.011Z</time>
      </trkpt>
      <trkpt lat="41.58581" lon="1.82367">
        <ele>970.4009910159</ele>
        <time>2019-01-12T12:32:36.011Z</time>
      </trkpt>
      <trkpt lat="41.58585" lon="1.82356">
        <ele>965.61917444441</ele>
        <time>2019-01-12T12:32:48.011Z</time>
      </trkpt>
      <trkpt lat="41.5859" lon="1.82345">
        <ele>958.7444992</ele>
        <time>2019-01-12T12:33:03.011Z</time>
      </trkpt>
      <trkpt lat="41.5858" lon="1.8234">
        <ele>954.93796345679</ele>
        <time>2019-01-12T12:33:15.011Z</time>
      </trkpt>
      <trkpt lat="41.58572" lon="1.82332">
        <ele>952.16018567901</ele>
        <time>2019-01-12T12:33:24.011Z</time>
      </trkpt>
      <trkpt lat="41.58566" lon="1.82323">
        <ele>950.29869586317</ele>
        <time>2019-01-12T12:33:33.011Z</time>
      </trkpt>
      <trkpt lat="41.5856" lon="1.82314">
        <ele>944.79739848399</ele>
        <time>2019-01-12T12:33:50.011Z</time>
      </trkpt>
      <trkpt lat="41.58553" lon="1.82305">
        <ele>937.75721539541</ele>
        <time>2019-01-12T12:34:12.011Z</time>
      </trkpt>
      <trkpt lat="41.58544" lon="1.82298">
        <ele>934.76241395417</ele>
        <time>2019-01-12T12:34:22.011Z</time>
      </trkpt>
      <trkpt lat="41.58537" lon="1.82288">
        <ele>932.28805995242</ele>
        <time>2019-01-12T12:34:28.001Z</time>
      </trkpt>
      <trkpt lat="41.58532" lon="1.82278">
        <ele>928.514459216</ele>
        <time>2019-01-12T12:34:37.011Z</time>
      </trkpt>
      <trkpt lat="41.58529" lon="1.82263">
        <ele>926.35439872</ele>
        <time>2019-01-12T12:34:46.114Z</time>
      </trkpt>
      <trkpt lat="41.58541" lon="1.82264">
        <ele>918.94895093807</ele>
        <time>2019-01-12T12:35:05.011Z</time>
      </trkpt>
      <trkpt lat="41.58548" lon="1.82273">
        <ele>918.25104855044</ele>
        <time>2019-01-12T12:35:11.997Z</time>
      </trkpt>
      <trkpt lat="41.58558" lon="1.82277">
        <ele>918</ele>
        <time>2019-01-12T12:35:19.015Z</time>
      </trkpt>
      <trkpt lat="41.58567" lon="1.82278">
        <ele>917.24669952</ele>
        <time>2019-01-12T12:35:27.011Z</time>
      </trkpt>
      <trkpt lat="41.58566" lon="1.82266">
        <ele>912.01391712832</ele>
        <time>2019-01-12T12:35:42.010Z</time>
      </trkpt>
      <trkpt lat="41.58559" lon="1.82256">
        <ele>909.65995889575</ele>
        <time>2019-01-12T12:35:49.000Z</time>
      </trkpt>
      <trkpt lat="41.58569" lon="1.82256">
        <ele>905.80119552</ele>
        <time>2019-01-12T12:35:59.997Z</time>
      </trkpt>
      <trkpt lat="41.58578" lon="1.82255">
        <ele>903.10149712544</ele>
        <time>2019-01-12T12:36:08.997Z</time>
      </trkpt>
      <trkpt lat="41.58585" lon="1.82245">
        <ele>900.69067154618</ele>
        <time>2019-01-12T12:36:19.001Z</time>
      </trkpt>
      <trkpt lat="41.5859" lon="1.82234">
        <ele>896.83659403652</ele>
        <time>2019-01-12T12:36:28.997Z</time>
      </trkpt>
      <trkpt lat="41.58597" lon="1.82226">
        <ele>893.15029888</ele>
        <time>2019-01-12T12:36:42.997Z</time>
      </trkpt>
      <trkpt lat="41.58608" lon="1.82225">
        <ele>891.04669952</ele>
        <time>2019-01-12T12:36:51.011Z</time>
      </trkpt>
      <trkpt lat="41.58618" lon="1.82224">
        <ele>888.25843174603</ele>
        <time>2019-01-12T12:36:58.011Z</time>
      </trkpt>
      <trkpt lat="41.58616" lon="1.82212">
        <ele>880.00160965898</ele>
        <time>2019-01-12T12:37:22.011Z</time>
      </trkpt>
      <trkpt lat="41.58614" lon="1.82199">
        <ele>875.59559936</ele>
        <time>2019-01-12T12:37:33.011Z</time>
      </trkpt>
      <trkpt lat="41.58618" lon="1.82187">
        <ele>872.39559936</ele>
        <time>2019-01-12T12:37:41.011Z</time>
      </trkpt>
      <trkpt lat="41.5861" lon="1.8218">
        <ele>865.69810186795</ele>
        <time>2019-01-12T12:38:06.011Z</time>
      </trkpt>
      <trkpt lat="41.58604" lon="1.82168">
        <ele>861.74724908645</ele>
        <time>2019-01-12T12:38:19.011Z</time>
      </trkpt>
      <trkpt lat="41.58599" lon="1.82158">
        <ele>857.34639616</ele>
        <time>2019-01-12T12:38:30.012Z</time>
      </trkpt>
      <trkpt lat="41.58595" lon="1.82147">
        <ele>850.74724908645</ele>
        <time>2019-01-12T12:38:49.011Z</time>
      </trkpt>
      <trkpt lat="41.58607" lon="1.82141">
        <ele>846.11289650794</ele>
        <time>2019-01-12T12:39:04.011Z</time>
      </trkpt>
      <trkpt lat="41.58601" lon="1.82132">
        <ele>843.01865819668</ele>
        <time>2019-01-12T12:39:12.011Z</time>
      </trkpt>
      <trkpt lat="41.58594" lon="1.82124">
        <ele>840.35346816013</ele>
        <time>2019-01-12T12:39:20.011Z</time>
      </trkpt>
      <trkpt lat="41.58593" lon="1.82109">
        <ele>837.10359294534</ele>
        <time>2019-01-12T12:39:31.011Z</time>
      </trkpt>
      <trkpt lat="41.58585" lon="1.82103">
        <ele>836.2234023742</ele>
        <time>2019-01-12T12:39:36.967Z</time>
      </trkpt>
      <trkpt lat="41.58582" lon="1.82091">
        <ele>836.94958776055</ele>
        <time>2019-01-12T12:39:44.011Z</time>
      </trkpt>
      <trkpt lat="41.58575" lon="1.82081">
        <ele>834.44669952</ele>
        <time>2019-01-12T12:39:53.011Z</time>
      </trkpt>
      <trkpt lat="41.58571" lon="1.82069">
        <ele>831.39559936</ele>
        <time>2019-01-12T12:40:01.011Z</time>
      </trkpt>
      <trkpt lat="41.58569" lon="1.82056">
        <ele>820.89429419272</ele>
        <time>2019-01-12T12:40:23.011Z</time>
      </trkpt>
      <trkpt lat="41.58579" lon="1.82051">
        <ele>811.24669952</ele>
        <time>2019-01-12T12:40:47.011Z</time>
      </trkpt>
      <trkpt lat="41.58588" lon="1.82048">
        <ele>810.34669952</ele>
        <time>2019-01-12T12:40:50.011Z</time>
      </trkpt>
      <trkpt lat="41.58587" lon="1.82036">
        <ele>798.82673308085</ele>
        <time>2019-01-12T12:41:15.001Z</time>
      </trkpt>
      <trkpt lat="41.58585" lon="1.82021">
        <ele>794.25120336751</ele>
        <time>2019-01-12T12:41:27.011Z</time>
      </trkpt>
      <trkpt lat="41.58577" lon="1.82012">
        <ele>792.45090016891</ele>
        <time>2019-01-12T12:41:33.000Z</time>
      </trkpt>
      <trkpt lat="41.58569" lon="1.82008">
        <ele>788.28536141314</ele>
        <time>2019-01-12T12:41:42.011Z</time>
      </trkpt>
      <trkpt lat="41.5856" lon="1.82004">
        <ele>786.11180686602</ele>
        <time>2019-01-12T12:41:49.011Z</time>
      </trkpt>
      <trkpt lat="41.58553" lon="1.81994">
        <ele>783.75250581323</ele>
        <time>2019-01-12T12:41:57.010Z</time>
      </trkpt>
      <trkpt lat="41.58563" lon="1.81991">
        <ele>779.39840185568</ele>
        <time>2019-01-12T12:42:10.522Z</time>
      </trkpt>
      <trkpt lat="41.58553" lon="1.8199">
        <ele>776.24725458805</ele>
        <time>2019-01-12T12:43:00.011Z</time>
      </trkpt>
      <trkpt lat="41.58545" lon="1.81985">
        <ele>772.64804963176</ele>
        <time>2019-01-12T12:43:09.012Z</time>
      </trkpt>
      <trkpt lat="41.58535" lon="1.81978">
        <ele>769.20814293286</ele>
        <time>2019-01-12T12:43:19.011Z</time>
      </trkpt>
      <trkpt lat="41.58527" lon="1.81969">
        <ele>766.26989104051</ele>
        <time>2019-01-12T12:43:27.011Z</time>
      </trkpt>
      <trkpt lat="41.58518" lon="1.81961">
        <ele>763.2708683871</ele>
        <time>2019-01-12T12:43:37.011Z</time>
      </trkpt>
      <trkpt lat="41.5851" lon="1.81954">
        <ele>761.15756</ele>
        <time>2019-01-12T12:43:43.999Z</time>
      </trkpt>
      <trkpt lat="41.58502" lon="1.81946">
        <ele>758.76775952804</ele>
        <time>2019-01-12T12:43:51.998Z</time>
      </trkpt>
      <trkpt lat="41.58496" lon="1.81936">
        <ele>753.51689946598</ele>
        <time>2019-01-12T12:44:01.997Z</time>
      </trkpt>
      <trkpt lat="41.58493" lon="1.81925">
        <ele>750.04774827411</ele>
        <time>2019-01-12T12:44:11.011Z</time>
      </trkpt>
      <trkpt lat="41.58486" lon="1.81917">
        <ele>749</ele>
        <time>2019-01-12T12:44:20.011Z</time>
      </trkpt>
      <trkpt lat="41.58477" lon="1.8192">
        <ele>747.90432292524</ele>
        <time>2019-01-12T12:44:30.011Z</time>
      </trkpt>
      <trkpt lat="41.58469" lon="1.81913">
        <ele>741.45622901518</ele>
        <time>2019-01-12T12:44:52.999Z</time>
      </trkpt>
      <trkpt lat="41.58461" lon="1.81903">
        <ele>737.59559936</ele>
        <time>2019-01-12T12:45:03.011Z</time>
      </trkpt>
      <trkpt lat="41.5846" lon="1.8189">
        <ele>734.90210232835</ele>
        <time>2019-01-12T12:45:14.999Z</time>
      </trkpt>
      <trkpt lat="41.5845" lon="1.81889">
        <ele>734.29910002716</ele>
        <time>2019-01-12T12:45:18.011Z</time>
      </trkpt>
      <trkpt lat="41.58459" lon="1.81881">
        <ele>732.84889984</ele>
        <time>2019-01-12T12:45:26.011Z</time>
      </trkpt>
      <trkpt lat="41.58468" lon="1.8188">
        <ele>732.84572623264</ele>
        <time>2019-01-12T12:46:03.002Z</time>
      </trkpt>
      <trkpt lat="41.58458" lon="1.81885">
        <ele>732.24965090943</ele>
        <time>2019-01-12T12:46:32.011Z</time>
      </trkpt>
      <trkpt lat="41.58467" lon="1.81884">
        <ele>732.70089997284</ele>
        <time>2019-01-12T12:46:48.011Z</time>
      </trkpt>
      <trkpt lat="41.58477" lon="1.81882">
        <ele>736.83910224325</ele>
        <time>2019-01-12T12:47:04.011Z</time>
      </trkpt>
      <trkpt lat="41.58487" lon="1.81884">
        <ele>735.84669952</ele>
        <time>2019-01-12T12:47:15.011Z</time>
      </trkpt>
      <trkpt lat="41.58494" lon="1.81894">
        <ele>732.25074805123</ele>
        <time>2019-01-12T12:47:27.000Z</time>
      </trkpt>
      <trkpt lat="41.58503" lon="1.81898">
        <ele>729.85148458498</ele>
        <time>2019-01-12T12:47:35.011Z</time>
      </trkpt>
      <trkpt lat="41.58513" lon="1.819">
        <ele>727.77638577075</ele>
        <time>2019-01-12T12:47:42.011Z</time>
      </trkpt>
      <trkpt lat="41.58522" lon="1.81902">
        <ele>726.05110016</ele>
        <time>2019-01-12T12:47:55.011Z</time>
      </trkpt>
      <trkpt lat="41.5853" lon="1.81909">
        <ele>726.85110016</ele>
        <time>2019-01-12T12:48:03.011Z</time>
      </trkpt>
      <trkpt lat="41.58539" lon="1.81915">
        <ele>727</ele>
        <time>2019-01-12T12:48:12.011Z</time>
      </trkpt>
      <trkpt lat="41.58548" lon="1.81916">
        <ele>729</ele>
        <time>2019-01-12T12:48:25.011Z</time>
      </trkpt>
      <trkpt lat="41.58557" lon="1.81913">
        <ele>729.70220032</ele>
        <time>2019-01-12T12:48:38.011Z</time>
      </trkpt>
      <trkpt lat="41.58566" lon="1.81915">
        <ele>731.45110016</ele>
        <time>2019-01-12T12:48:49.011Z</time>
      </trkpt>
      <trkpt lat="41.58574" lon="1.81923">
        <ele>732.43333308742</ele>
        <time>2019-01-12T12:48:59.011Z</time>
      </trkpt>
      <trkpt lat="41.58583" lon="1.81927">
        <ele>734.68946821886</ele>
        <time>2019-01-12T12:49:13.011Z</time>
      </trkpt>
      <trkpt lat="41.58592" lon="1.81933">
        <ele>736.49175753986</ele>
        <time>2019-01-12T12:49:22.011Z</time>
      </trkpt>
      <trkpt lat="41.58601" lon="1.8193">
        <ele>737.89415209278</ele>
        <time>2019-01-12T12:49:39.011Z</time>
      </trkpt>
      <trkpt lat="41.58607" lon="1.8194">
        <ele>739.74808387097</ele>
        <time>2019-01-12T12:49:52.011Z</time>
      </trkpt>
      <trkpt lat="41.58617" lon="1.81943">
        <ele>740.85095096788</ele>
        <time>2019-01-12T12:50:03.011Z</time>
      </trkpt>
      <trkpt lat="41.58627" lon="1.81945">
        <ele>741.84183965441</ele>
        <time>2019-01-12T12:50:13.011Z</time>
      </trkpt>
      <trkpt lat="41.58636" lon="1.81949">
        <ele>742.74833172848</ele>
        <time>2019-01-12T12:50:22.011Z</time>
      </trkpt>
      <trkpt lat="41.58643" lon="1.81957">
        <ele>744.30220032</ele>
        <time>2019-01-12T12:50:31.011Z</time>
      </trkpt>
      <trkpt lat="41.58653" lon="1.81958">
        <ele>746.30220032</ele>
        <time>2019-01-12T12:50:41.011Z</time>
      </trkpt>
      <trkpt lat="41.58662" lon="1.81956">
        <ele>747.64337879098</ele>
        <time>2019-01-12T12:50:51.011Z</time>
      </trkpt>
      <trkpt lat="41.58671" lon="1.81952">
        <ele>750.27809251316</ele>
        <time>2019-01-12T12:51:06.011Z</time>
      </trkpt>
      <trkpt lat="41.5868" lon="1.81949">
        <ele>752.50220032</ele>
        <time>2019-01-12T12:51:17.011Z</time>
      </trkpt>
      <trkpt lat="41.58686" lon="1.81958">
        <ele>754.90220032</ele>
        <time>2019-01-12T12:51:29.011Z</time>
      </trkpt>
      <trkpt lat="41.58695" lon="1.81962">
        <ele>758.50069958025</ele>
        <time>2019-01-12T12:51:47.011Z</time>
      </trkpt>
      <trkpt lat="41.58704" lon="1.8197">
        <ele>762.68108642294</ele>
        <time>2019-01-12T12:52:08.011Z</time>
      </trkpt>
      <trkpt lat="41.58714" lon="1.8197">
        <ele>766.84944399578</ele>
        <time>2019-01-12T12:52:33.011Z</time>
      </trkpt>
      <trkpt lat="41.58725" lon="1.81968">
        <ele>771.95330048</ele>
        <time>2019-01-12T12:52:51.011Z</time>
      </trkpt>
      <trkpt lat="41.58734" lon="1.81968">
        <ele>775.45110016</ele>
        <time>2019-01-12T12:53:09.011Z</time>
      </trkpt>
      <trkpt lat="41.58743" lon="1.81971">
        <ele>777.50220032</ele>
        <time>2019-01-12T12:53:22.011Z</time>
      </trkpt>
      <trkpt lat="41.58753" lon="1.81971">
        <ele>782.09221438777</ele>
        <time>2019-01-12T12:53:40.011Z</time>
      </trkpt>
      <trkpt lat="41.58762" lon="1.81967">
        <ele>783.45110016</ele>
        <time>2019-01-12T12:53:49.011Z</time>
      </trkpt>
      <trkpt lat="41.58759" lon="1.81955">
        <ele>785.30220032</ele>
        <time>2019-01-12T12:54:01.011Z</time>
      </trkpt>
      <trkpt lat="41.58754" lon="1.81944">
        <ele>786.65110016</ele>
        <time>2019-01-12T12:54:11.011Z</time>
      </trkpt>
      <trkpt lat="41.58746" lon="1.81938">
        <ele>787.89415209278</ele>
        <time>2019-01-12T12:54:19.011Z</time>
      </trkpt>
      <trkpt lat="41.58737" lon="1.81934">
        <ele>789.48859623517</ele>
        <time>2019-01-12T12:54:27.011Z</time>
      </trkpt>
      <trkpt lat="41.58744" lon="1.81926">
        <ele>791.94825509128</ele>
        <time>2019-01-12T12:54:44.011Z</time>
      </trkpt>
      <trkpt lat="41.58737" lon="1.81917">
        <ele>797.35110016</ele>
        <time>2019-01-12T12:55:08.011Z</time>
      </trkpt>
      <trkpt lat="41.58746" lon="1.81912">
        <ele>800.6606810025</ele>
        <time>2019-01-12T12:55:28.011Z</time>
      </trkpt>
      <trkpt lat="41.58755" lon="1.81908">
        <ele>804.55330048</ele>
        <time>2019-01-12T12:55:43.011Z</time>
      </trkpt>
      <trkpt lat="41.58764" lon="1.81908">
        <ele>807.5990089841</ele>
        <time>2019-01-12T12:55:56.011Z</time>
      </trkpt>
      <trkpt lat="41.58773" lon="1.81912">
        <ele>812.29455483871</ele>
        <time>2019-01-12T12:56:11.011Z</time>
      </trkpt>
      <trkpt lat="41.58782" lon="1.81917">
        <ele>813.75085077159</ele>
        <time>2019-01-12T12:56:22.011Z</time>
      </trkpt>
      <trkpt lat="41.58791" lon="1.8192">
        <ele>816.75330048</ele>
        <time>2019-01-12T12:56:37.011Z</time>
      </trkpt>
      <trkpt lat="41.5879" lon="1.81908">
        <ele>821.55000192</ele>
        <time>2019-01-12T12:56:53.000Z</time>
      </trkpt>
      <trkpt lat="41.588" lon="1.81911">
        <ele>824.05110016</ele>
        <time>2019-01-12T12:57:15.011Z</time>
      </trkpt>
      <trkpt lat="41.58809" lon="1.81914">
        <ele>825.50220032</ele>
        <time>2019-01-12T12:57:27.011Z</time>
      </trkpt>
      <trkpt lat="41.58818" lon="1.81917">
        <ele>828.05030144</ele>
        <time>2019-01-12T12:57:38.001Z</time>
      </trkpt>
      <trkpt lat="41.58826" lon="1.81924">
        <ele>830</ele>
        <time>2019-01-12T12:57:47.011Z</time>
      </trkpt>
      <trkpt lat="41.5883" lon="1.81935">
        <ele>831.34940288</ele>
        <time>2019-01-12T12:57:58.998Z</time>
      </trkpt>
      <trkpt lat="41.58838" lon="1.81943">
        <ele>833.34910253151</ele>
        <time>2019-01-12T12:58:07.998Z</time>
      </trkpt>
      <trkpt lat="41.58846" lon="1.81951">
        <ele>833.94790454425</ele>
        <time>2019-01-12T12:58:13.998Z</time>
      </trkpt>
      <trkpt lat="41.58845" lon="1.81963">
        <ele>835.04980688167</ele>
        <time>2019-01-12T12:58:25.013Z</time>
      </trkpt>
      <trkpt lat="41.58854" lon="1.81971">
        <ele>836.25340321874</ele>
        <time>2019-01-12T12:58:36.029Z</time>
      </trkpt>
      <trkpt lat="41.58862" lon="1.81977">
        <ele>837.48474291777</ele>
        <time>2019-01-12T12:58:42.001Z</time>
      </trkpt>
      <trkpt lat="41.5887" lon="1.81984">
        <ele>841.90020096</ele>
        <time>2019-01-12T12:58:59.001Z</time>
      </trkpt>
      <trkpt lat="41.58874" lon="1.81995">
        <ele>843.24816357556</ele>
        <time>2019-01-12T12:59:06.999Z</time>
      </trkpt>
      <trkpt lat="41.58879" lon="1.82006">
        <ele>844.49164132661</ele>
        <time>2019-01-12T12:59:17.011Z</time>
      </trkpt>
      <trkpt lat="41.58886" lon="1.82016">
        <ele>848.24208788815</ele>
        <time>2019-01-12T12:59:32.011Z</time>
      </trkpt>
      <trkpt lat="41.58894" lon="1.82022">
        <ele>852.29960028768</ele>
        <time>2019-01-12T12:59:51.011Z</time>
      </trkpt>
      <trkpt lat="41.58904" lon="1.82026">
        <ele>856.9118884034</ele>
        <time>2019-01-12T13:00:05.011Z</time>
      </trkpt>
      <trkpt lat="41.58912" lon="1.82031">
        <ele>855.51328655769</ele>
        <time>2019-01-12T13:00:12.011Z</time>
      </trkpt>
      <trkpt lat="41.58921" lon="1.82033">
        <ele>855</ele>
        <time>2019-01-12T13:00:19.011Z</time>
      </trkpt>
      <trkpt lat="41.58931" lon="1.82032">
        <ele>855.15110016</ele>
        <time>2019-01-12T13:00:26.011Z</time>
      </trkpt>
      <trkpt lat="41.58941" lon="1.8203">
        <ele>856.05110016</ele>
        <time>2019-01-12T13:00:35.011Z</time>
      </trkpt>
      <trkpt lat="41.5895" lon="1.82025">
        <ele>857.70009979658</ele>
        <time>2019-01-12T13:00:48.011Z</time>
      </trkpt>
      <trkpt lat="41.58958" lon="1.82017">
        <ele>859</ele>
        <time>2019-01-12T13:00:57.011Z</time>
      </trkpt>
      <trkpt lat="41.58968" lon="1.82017">
        <ele>859</ele>
        <time>2019-01-12T13:01:06.998Z</time>
      </trkpt>
      <trkpt lat="41.58977" lon="1.82022">
        <ele>858.6547936111</ele>
        <time>2019-01-12T13:01:18.011Z</time>
      </trkpt>
      <trkpt lat="41.58986" lon="1.82026">
        <ele>858.15156325479</ele>
        <time>2019-01-12T13:01:22.998Z</time>
      </trkpt>
      <trkpt lat="41.58989" lon="1.82038">
        <ele>857.25412123007</ele>
        <time>2019-01-12T13:01:32.011Z</time>
      </trkpt>
      <trkpt lat="41.58997" lon="1.82047">
        <ele>857.62834842515</ele>
        <time>2019-01-12T13:01:40.998Z</time>
      </trkpt>
      <trkpt lat="41.59006" lon="1.82052">
        <ele>857.1344317588</ele>
        <time>2019-01-12T13:01:48.998Z</time>
      </trkpt>
      <trkpt lat="41.59014" lon="1.82061">
        <ele>855.79762325695</ele>
        <time>2019-01-12T13:01:55.011Z</time>
      </trkpt>
      <trkpt lat="41.59023" lon="1.82067">
        <ele>853.02534778592</ele>
        <time>2019-01-12T13:02:02.011Z</time>
      </trkpt>
      <trkpt lat="41.59031" lon="1.82076">
        <ele>852.34454519243</ele>
        <time>2019-01-12T13:02:08.011Z</time>
      </trkpt>
      <trkpt lat="41.59039" lon="1.82084">
        <ele>852.94920464464</ele>
        <time>2019-01-12T13:02:15.011Z</time>
      </trkpt>
      <trkpt lat="41.59049" lon="1.82083">
        <ele>852.15397652232</ele>
        <time>2019-01-12T13:02:23.011Z</time>
      </trkpt>
      <trkpt lat="41.59054" lon="1.82072">
        <ele>852</ele>
        <time>2019-01-12T13:02:33.011Z</time>
      </trkpt>
      <trkpt lat="41.59058" lon="1.82058">
        <ele>853.50220032</ele>
        <time>2019-01-12T13:02:42.011Z</time>
      </trkpt>
      <trkpt lat="41.59057" lon="1.82044">
        <ele>854.5611008</ele>
        <time>2019-01-12T13:02:50.111Z</time>
      </trkpt>
      <trkpt lat="41.59053" lon="1.82033">
        <ele>855.70020096</ele>
        <time>2019-01-12T13:02:58.001Z</time>
      </trkpt>
      <trkpt lat="41.59062" lon="1.82034">
        <ele>858.50220032</ele>
        <time>2019-01-12T13:03:12.011Z</time>
      </trkpt>
      <trkpt lat="41.59073" lon="1.82037">
        <ele>862.05110016</ele>
        <time>2019-01-12T13:03:25.011Z</time>
      </trkpt>
      <trkpt lat="41.5908" lon="1.82045">
        <ele>863.30220032</ele>
        <time>2019-01-12T13:03:36.011Z</time>
      </trkpt>
      <trkpt lat="41.59081" lon="1.82057">
        <ele>865.50220032</ele>
        <time>2019-01-12T13:03:47.011Z</time>
      </trkpt>
      <trkpt lat="41.59091" lon="1.82054">
        <ele>871.29586240568</ele>
        <time>2019-01-12T13:04:11.011Z</time>
      </trkpt>
      <trkpt lat="41.59097" lon="1.82045">
        <ele>873.4507487815</ele>
        <time>2019-01-12T13:04:26.011Z</time>
      </trkpt>
      <trkpt lat="41.59106" lon="1.8204">
        <ele>882.30220032</ele>
        <time>2019-01-12T13:05:06.011Z</time>
      </trkpt>
      <trkpt lat="41.59114" lon="1.82034">
        <ele>885.09128675404</ele>
        <time>2019-01-12T13:05:20.011Z</time>
      </trkpt>
      <trkpt lat="41.59122" lon="1.82028">
        <ele>887.28605762441</ele>
        <time>2019-01-12T13:05:31.011Z</time>
      </trkpt>
      <trkpt lat="41.59114" lon="1.82022">
        <ele>891.50220032</ele>
        <time>2019-01-12T13:05:52.011Z</time>
      </trkpt>
      <trkpt lat="41.59123" lon="1.82017">
        <ele>894.85330048</ele>
        <time>2019-01-12T13:06:04.011Z</time>
      </trkpt>
      <trkpt lat="41.59133" lon="1.82016">
        <ele>896.10220032</ele>
        <time>2019-01-12T13:06:10.011Z</time>
      </trkpt>
      <trkpt lat="41.59143" lon="1.82014">
        <ele>897.90220032</ele>
        <time>2019-01-12T13:06:19.011Z</time>
      </trkpt>
      <trkpt lat="41.59152" lon="1.82019">
        <ele>899.35110016</ele>
        <time>2019-01-12T13:06:28.011Z</time>
      </trkpt>
      <trkpt lat="41.59151" lon="1.82007">
        <ele>904.15330048</ele>
        <time>2019-01-12T13:06:55.011Z</time>
      </trkpt>
      <trkpt lat="41.59155" lon="1.81996">
        <ele>907.50169814023</ele>
        <time>2019-01-12T13:07:07.011Z</time>
      </trkpt>
      <trkpt lat="41.59165" lon="1.82">
        <ele>909.45065012275</ele>
        <time>2019-01-12T13:07:19.012Z</time>
      </trkpt>
      <trkpt lat="41.59173" lon="1.82005">
        <ele>908</ele>
        <time>2019-01-12T13:10:39.011Z</time>
      </trkpt>
      <trkpt lat="41.59174" lon="1.81992">
        <ele>905.7444992</ele>
        <time>2019-01-12T13:10:55.011Z</time>
      </trkpt>
      <trkpt lat="41.59172" lon="1.8198">
        <ele>900.5610659038</ele>
        <time>2019-01-12T13:11:06.007Z</time>
      </trkpt>
      <trkpt lat="41.59169" lon="1.81968">
        <ele>898.23330035989</ele>
        <time>2019-01-12T13:11:13.999Z</time>
      </trkpt>
      <trkpt lat="41.59163" lon="1.81959">
        <ele>896.10370909935</ele>
        <time>2019-01-12T13:11:23.997Z</time>
      </trkpt>
      <trkpt lat="41.59159" lon="1.81947">
        <ele>895.35054959388</ele>
        <time>2019-01-12T13:11:31.001Z</time>
      </trkpt>
      <trkpt lat="41.59155" lon="1.81934">
        <ele>893.65508207171</ele>
        <time>2019-01-12T13:11:39.011Z</time>
      </trkpt>
      <trkpt lat="41.59157" lon="1.81922">
        <ele>889.80462421351</ele>
        <time>2019-01-12T13:11:50.011Z</time>
      </trkpt>
      <trkpt lat="41.59159" lon="1.81908">
        <ele>885.89279232</ele>
        <time>2019-01-12T13:11:58.012Z</time>
      </trkpt>
      <trkpt lat="41.59161" lon="1.81894">
        <ele>881.49779968</ele>
        <time>2019-01-12T13:12:07.011Z</time>
      </trkpt>
      <trkpt lat="41.59161" lon="1.81881">
        <ele>880.30059776</ele>
        <time>2019-01-12T13:12:12.997Z</time>
      </trkpt>
      <trkpt lat="41.59162" lon="1.81868">
        <ele>877.75343991914</ele>
        <time>2019-01-12T13:12:22.011Z</time>
      </trkpt>
      <trkpt lat="41.5916" lon="1.81855">
        <ele>876.75205608892</ele>
        <time>2019-01-12T13:12:27.002Z</time>
      </trkpt>
      <trkpt lat="41.59159" lon="1.81843">
        <ele>876.15025047952</ele>
        <time>2019-01-12T13:12:33.002Z</time>
      </trkpt>
      <trkpt lat="41.59153" lon="1.81833">
        <ele>870.32776374661</ele>
        <time>2019-01-12T13:12:44.001Z</time>
      </trkpt>
      <trkpt lat="41.5916" lon="1.81826">
        <ele>866.29622348865</ele>
        <time>2019-01-12T13:12:52.002Z</time>
      </trkpt>
      <trkpt lat="41.5917" lon="1.81826">
        <ele>864.46</ele>
        <time>2019-01-12T13:13:00.010Z</time>
      </trkpt>
      <trkpt lat="41.59175" lon="1.81814">
        <ele>860.20141434222</ele>
        <time>2019-01-12T13:13:14.002Z</time>
      </trkpt>
      <trkpt lat="41.59171" lon="1.81802">
        <ele>854.84969856</ele>
        <time>2019-01-12T13:13:25.001Z</time>
      </trkpt>
      <trkpt lat="41.59168" lon="1.8179">
        <ele>850.59959808</ele>
        <time>2019-01-12T13:13:38.001Z</time>
      </trkpt>
      <trkpt lat="41.59171" lon="1.81779">
        <ele>847.10179328</ele>
        <time>2019-01-12T13:13:45.997Z</time>
      </trkpt>
      <trkpt lat="41.59176" lon="1.81768">
        <ele>842.89939712</ele>
        <time>2019-01-12T13:13:53.001Z</time>
      </trkpt>
      <trkpt lat="41.5918" lon="1.81757">
        <ele>835.70706368281</ele>
        <time>2019-01-12T13:14:10.997Z</time>
      </trkpt>
      <trkpt lat="41.59178" lon="1.81744">
        <ele>833.353892607</ele>
        <time>2019-01-12T13:14:23.011Z</time>
      </trkpt>
      <trkpt lat="41.5918" lon="1.81732">
        <ele>827.87836242778</ele>
        <time>2019-01-12T13:14:35.011Z</time>
      </trkpt>
      <trkpt lat="41.59187" lon="1.81725">
        <ele>825.14802447661</ele>
        <time>2019-01-12T13:14:44.012Z</time>
      </trkpt>
      <trkpt lat="41.59197" lon="1.81723">
        <ele>820.20139511022</ele>
        <time>2019-01-12T13:14:59.010Z</time>
      </trkpt>
      <trkpt lat="41.59201" lon="1.81733">
        <ele>817.55511434197</ele>
        <time>2019-01-12T13:15:09.010Z</time>
      </trkpt>
      <trkpt lat="41.59208" lon="1.81745">
        <ele>816.95858615505</ele>
        <time>2019-01-12T13:15:15.010Z</time>
      </trkpt>
      <trkpt lat="41.59212" lon="1.81756">
        <ele>816.25141414233</ele>
        <time>2019-01-12T13:15:22.011Z</time>
      </trkpt>
      <trkpt lat="41.59216" lon="1.81767">
        <ele>815.29779968</ele>
        <time>2019-01-12T13:15:28.011Z</time>
      </trkpt>
      <trkpt lat="41.59221" lon="1.81778">
        <ele>814</ele>
        <time>2019-01-12T13:15:37.011Z</time>
      </trkpt>
      <trkpt lat="41.59226" lon="1.81789">
        <ele>814</ele>
        <time>2019-01-12T13:15:48.000Z</time>
      </trkpt>
      <trkpt lat="41.59235" lon="1.81793">
        <ele>813.44689599801</ele>
        <time>2019-01-12T13:15:56.000Z</time>
      </trkpt>
      <trkpt lat="41.59244" lon="1.81792">
        <ele>809.75646497388</ele>
        <time>2019-01-12T13:16:07.011Z</time>
      </trkpt>
      <trkpt lat="41.59246" lon="1.81778">
        <ele>809.50220032</ele>
        <time>2019-01-12T13:16:17.011Z</time>
      </trkpt>
      <trkpt lat="41.59246" lon="1.81765">
        <ele>811</ele>
        <time>2019-01-12T13:16:28.001Z</time>
      </trkpt>
      <trkpt lat="41.59251" lon="1.81754">
        <ele>809.9157565516</ele>
        <time>2019-01-12T13:16:39.997Z</time>
      </trkpt>
      <trkpt lat="41.59259" lon="1.8175">
        <ele>809</ele>
        <time>2019-01-12T13:16:53.997Z</time>
      </trkpt>
      <trkpt lat="41.59268" lon="1.81747">
        <ele>807.30169865172</ele>
        <time>2019-01-12T13:17:03.000Z</time>
      </trkpt>
      <trkpt lat="41.59262" lon="1.81736">
        <ele>808.449349621</ele>
        <time>2019-01-12T13:18:30.011Z</time>
      </trkpt>
      <trkpt lat="41.5927" lon="1.81729">
        <ele>807.12407790349</ele>
        <time>2019-01-12T13:18:39.011Z</time>
      </trkpt>
      <trkpt lat="41.5928" lon="1.81729">
        <ele>806.15320472034</ele>
        <time>2019-01-12T13:18:44.011Z</time>
      </trkpt>
      <trkpt lat="41.59287" lon="1.81738">
        <ele>806</ele>
        <time>2019-01-12T13:18:50.000Z</time>
      </trkpt>
      <trkpt lat="41.59296" lon="1.81741">
        <ele>804.66501522023</ele>
        <time>2019-01-12T13:18:59.011Z</time>
      </trkpt>
      <trkpt lat="41.59303" lon="1.8175">
        <ele>800.30069869264</ele>
        <time>2019-01-12T13:19:18.000Z</time>
      </trkpt>
      <trkpt lat="41.5931" lon="1.81759">
        <ele>799.09970180248</ele>
        <time>2019-01-12T13:19:24.011Z</time>
      </trkpt>
      <trkpt lat="41.59319" lon="1.81752">
        <ele>790.55207519105</ele>
        <time>2019-01-12T13:19:46.011Z</time>
      </trkpt>
      <trkpt lat="41.59326" lon="1.81743">
        <ele>788.11872144936</ele>
        <time>2019-01-12T13:19:55.011Z</time>
      </trkpt>
      <trkpt lat="41.59327" lon="1.81731">
        <ele>793.05114880209</ele>
        <time>2019-01-12T13:20:15.012Z</time>
      </trkpt>
      <trkpt lat="41.59317" lon="1.81727">
        <ele>794.24895434793</ele>
        <time>2019-01-12T13:20:27.012Z</time>
      </trkpt>
      <trkpt lat="41.59309" lon="1.81718">
        <ele>795.24544472618</ele>
        <time>2019-01-12T13:20:37.012Z</time>
      </trkpt>
      <trkpt lat="41.59304" lon="1.81708">
        <ele>795.8460451344</ele>
        <time>2019-01-12T13:20:43.012Z</time>
      </trkpt>
      <trkpt lat="41.59305" lon="1.81694">
        <ele>797.2960816525</ele>
        <time>2019-01-12T13:20:50.998Z</time>
      </trkpt>
      <trkpt lat="41.59302" lon="1.81683">
        <ele>798.34679248478</ele>
        <time>2019-01-12T13:20:58.013Z</time>
      </trkpt>
      <trkpt lat="41.59303" lon="1.8167">
        <ele>798.8402756104</ele>
        <time>2019-01-12T13:21:03.012Z</time>
      </trkpt>
      <trkpt lat="41.59299" lon="1.81658">
        <ele>799.74255500527</ele>
        <time>2019-01-12T13:21:12.011Z</time>
      </trkpt>
      <trkpt lat="41.59292" lon="1.81649">
        <ele>800</ele>
        <time>2019-01-12T13:21:20.011Z</time>
      </trkpt>
      <trkpt lat="41.59285" lon="1.81641">
        <ele>800</ele>
        <time>2019-01-12T13:21:26.011Z</time>
      </trkpt>
      <trkpt lat="41.59282" lon="1.8163">
        <ele>800</ele>
        <time>2019-01-12T13:21:34.011Z</time>
      </trkpt>
      <trkpt lat="41.59293" lon="1.81632">
        <ele>802.35074907421</ele>
        <time>2019-01-12T13:21:48.011Z</time>
      </trkpt>
      <trkpt lat="41.59303" lon="1.8163">
        <ele>803.50069958025</ele>
        <time>2019-01-12T13:21:57.011Z</time>
      </trkpt>
      <trkpt lat="41.59312" lon="1.81625">
        <ele>805.90220032</ele>
        <time>2019-01-12T13:22:09.011Z</time>
      </trkpt>
      <trkpt lat="41.59321" lon="1.81629">
        <ele>808.700298709</ele>
        <time>2019-01-12T13:22:23.010Z</time>
      </trkpt>
      <trkpt lat="41.59328" lon="1.81619">
        <ele>812.15330048</ele>
        <time>2019-01-12T13:22:35.011Z</time>
      </trkpt>
      <trkpt lat="41.59335" lon="1.81628">
        <ele>816.05330048</ele>
        <time>2019-01-12T13:22:48.011Z</time>
      </trkpt>
      <trkpt lat="41.59343" lon="1.8162">
        <ele>820.84192912583</ele>
        <time>2019-01-12T13:23:04.011Z</time>
      </trkpt>
      <trkpt lat="41.59353" lon="1.81616">
        <ele>821.05059418576</ele>
        <time>2019-01-12T13:23:15.011Z</time>
      </trkpt>
      <trkpt lat="41.59354" lon="1.81601">
        <ele>822.34454519243</ele>
        <time>2019-01-12T13:23:28.011Z</time>
      </trkpt>
      <trkpt lat="41.5935" lon="1.8159">
        <ele>824.10220032</ele>
        <time>2019-01-12T13:23:40.011Z</time>
      </trkpt>
      <trkpt lat="41.59356" lon="1.81581">
        <ele>829.89669553719</ele>
        <time>2019-01-12T13:24:04.000Z</time>
      </trkpt>
      <trkpt lat="41.59365" lon="1.81576">
        <ele>832.84910336</ele>
        <time>2019-01-12T13:24:13.997Z</time>
      </trkpt>
      <trkpt lat="41.59364" lon="1.81564">
        <ele>833.54134763226</ele>
        <time>2019-01-12T13:24:30.011Z</time>
      </trkpt>
      <trkpt lat="41.59362" lon="1.81551">
        <ele>834.28741358708</ele>
        <time>2019-01-12T13:24:35.997Z</time>
      </trkpt>
      <trkpt lat="41.59355" lon="1.81541">
        <ele>837.95330048</ele>
        <time>2019-01-12T13:24:51.011Z</time>
      </trkpt>
      <trkpt lat="41.59355" lon="1.81527">
        <ele>839.64970112</ele>
        <time>2019-01-12T13:25:00.997Z</time>
      </trkpt>
      <trkpt lat="41.59351" lon="1.81516">
        <ele>841.30220032</ele>
        <time>2019-01-12T13:25:11.011Z</time>
      </trkpt>
      <trkpt lat="41.59346" lon="1.81504">
        <ele>843.10109816478</ele>
        <time>2019-01-12T13:25:20.011Z</time>
      </trkpt>
      <trkpt lat="41.59341" lon="1.81493">
        <ele>845.63010004284</ele>
        <time>2019-01-12T13:25:29.998Z</time>
      </trkpt>
      <trkpt lat="41.59339" lon="1.81481">
        <ele>848.63832158166</ele>
        <time>2019-01-12T13:25:40.011Z</time>
      </trkpt>
      <trkpt lat="41.59336" lon="1.81469">
        <ele>853.00000256</ele>
        <time>2019-01-12T13:25:52.000Z</time>
      </trkpt>
      <trkpt lat="41.59335" lon="1.81456">
        <ele>857.30220032</ele>
        <time>2019-01-12T13:26:11.011Z</time>
      </trkpt>
      <trkpt lat="41.59331" lon="1.81445">
        <ele>858.94730970861</ele>
        <time>2019-01-12T13:26:24.011Z</time>
      </trkpt>
      <trkpt lat="41.5934" lon="1.81445">
        <ele>861.89860475078</ele>
        <time>2019-01-12T13:26:39.011Z</time>
      </trkpt>
      <trkpt lat="41.59348" lon="1.81451">
        <ele>863.98597001104</ele>
        <time>2019-01-12T13:26:47.000Z</time>
      </trkpt>
      <trkpt lat="41.5935" lon="1.81439">
        <ele>867.63035019455</ele>
        <time>2019-01-12T13:27:01.000Z</time>
      </trkpt>
      <trkpt lat="41.59351" lon="1.81426">
        <ele>866.9255672911</ele>
        <time>2019-01-12T13:27:10.011Z</time>
      </trkpt>
      <trkpt lat="41.59359" lon="1.81419">
        <ele>864.09970180248</ele>
        <time>2019-01-12T13:27:24.011Z</time>
      </trkpt>
      <trkpt lat="41.59355" lon="1.81408">
        <ele>854.24669952</ele>
        <time>2019-01-12T13:27:37.011Z</time>
      </trkpt>
      <trkpt lat="41.59355" lon="1.81396">
        <ele>848.19559936</ele>
        <time>2019-01-12T13:27:54.011Z</time>
      </trkpt>
      <trkpt lat="41.59366" lon="1.81396">
        <ele>845.75119856211</ele>
        <time>2019-01-12T13:28:02.011Z</time>
      </trkpt>
      <trkpt lat="41.59375" lon="1.81395">
        <ele>844.10000038477</ele>
        <time>2019-01-12T13:28:09.011Z</time>
      </trkpt>
      <trkpt lat="41.59384" lon="1.81391">
        <ele>842.75163196783</ele>
        <time>2019-01-12T13:28:17.011Z</time>
      </trkpt>
      <trkpt lat="41.59391" lon="1.8138">
        <ele>842.48504986825</ele>
        <time>2019-01-12T13:28:27.011Z</time>
      </trkpt>
      <trkpt lat="41.59394" lon="1.81368">
        <ele>844.35044998642</ele>
        <time>2019-01-12T13:28:38.011Z</time>
      </trkpt>
      <trkpt lat="41.59397" lon="1.81354">
        <ele>846.3519472349</ele>
        <time>2019-01-12T13:28:49.011Z</time>
      </trkpt>
      <trkpt lat="41.59405" lon="1.81349">
        <ele>850.50000128</ele>
        <time>2019-01-12T13:29:07.000Z</time>
      </trkpt>
      <trkpt lat="41.5941" lon="1.81338">
        <ele>854</ele>
        <time>2019-01-12T13:29:27.011Z</time>
      </trkpt>
      <trkpt lat="41.5942" lon="1.81335">
        <ele>853.84889984</ele>
        <time>2019-01-12T13:29:36.011Z</time>
      </trkpt>
      <trkpt lat="41.59426" lon="1.81324">
        <ele>853</ele>
        <time>2019-01-12T13:29:46.011Z</time>
      </trkpt>
      <trkpt lat="41.5943" lon="1.81313">
        <ele>853.45330048</ele>
        <time>2019-01-12T13:29:56.011Z</time>
      </trkpt>
      <trkpt lat="41.59439" lon="1.81318">
        <ele>859.29815796759</ele>
        <time>2019-01-12T13:30:13.001Z</time>
      </trkpt>
      <trkpt lat="41.59442" lon="1.81306">
        <ele>861.29960192</ele>
        <time>2019-01-12T13:30:25.998Z</time>
      </trkpt>
      <trkpt lat="41.59452" lon="1.81308">
        <ele>866.2555008</ele>
        <time>2019-01-12T13:30:41.011Z</time>
      </trkpt>
      <trkpt lat="41.59458" lon="1.81298">
        <ele>870.57177806452</ele>
        <time>2019-01-12T13:30:55.998Z</time>
      </trkpt>
      <trkpt lat="41.59467" lon="1.81302">
        <ele>876.50220032</ele>
        <time>2019-01-12T13:31:17.011Z</time>
      </trkpt>
      <trkpt lat="41.59476" lon="1.81303">
        <ele>878.45110016</ele>
        <time>2019-01-12T13:31:29.011Z</time>
      </trkpt>
      <trkpt lat="41.59484" lon="1.81298">
        <ele>882.60440064</ele>
        <time>2019-01-12T13:31:46.011Z</time>
      </trkpt>
      <trkpt lat="41.59492" lon="1.8129">
        <ele>888.55330048</ele>
        <time>2019-01-12T13:32:03.011Z</time>
      </trkpt>
      <trkpt lat="41.59493" lon="1.81277">
        <ele>892.60139309718</ele>
        <time>2019-01-12T13:32:26.011Z</time>
      </trkpt>
      <trkpt lat="41.59501" lon="1.8127">
        <ele>898.69307013508</ele>
        <time>2019-01-12T13:32:48.000Z</time>
      </trkpt>
      <trkpt lat="41.59504" lon="1.81257">
        <ele>903.09990128281</ele>
        <time>2019-01-12T13:33:05.000Z</time>
      </trkpt>
      <trkpt lat="41.59513" lon="1.81254">
        <ele>907.06042822041</ele>
        <time>2019-01-12T13:33:24.998Z</time>
      </trkpt>
      <trkpt lat="41.59516" lon="1.81242">
        <ele>911.81560460282</ele>
        <time>2019-01-12T13:33:39.110Z</time>
      </trkpt>
      <trkpt lat="41.59518" lon="1.8123">
        <ele>915.15223478777</ele>
        <time>2019-01-12T13:33:55.011Z</time>
      </trkpt>
      <trkpt lat="41.59518" lon="1.81218">
        <ele>918.47768988048</ele>
        <time>2019-01-12T13:34:06.968Z</time>
      </trkpt>
      <trkpt lat="41.59523" lon="1.81208">
        <ele>923.12744472487</ele>
        <time>2019-01-12T13:34:25.011Z</time>
      </trkpt>
      <trkpt lat="41.59528" lon="1.81197">
        <ele>928.84476527385</ele>
        <time>2019-01-12T13:34:44.011Z</time>
      </trkpt>
      <trkpt lat="41.59532" lon="1.81186">
        <ele>931.45110016</ele>
        <time>2019-01-12T13:34:59.011Z</time>
      </trkpt>
      <trkpt lat="41.59537" lon="1.81175">
        <ele>934.59605548178</ele>
        <time>2019-01-12T13:35:16.011Z</time>
      </trkpt>
      <trkpt lat="41.59543" lon="1.81166">
        <ele>942.51197477811</ele>
        <time>2019-01-12T13:35:42.115Z</time>
      </trkpt>
      <trkpt lat="41.5955" lon="1.81158">
        <ele>948.9497024</ele>
        <time>2019-01-12T13:36:10.999Z</time>
      </trkpt>
      <trkpt lat="41.59554" lon="1.81146">
        <ele>954.16121944215</ele>
        <time>2019-01-12T13:36:31.999Z</time>
      </trkpt>
      <trkpt lat="41.5956" lon="1.81138">
        <ele>960.95270144</ele>
        <time>2019-01-12T13:37:01.009Z</time>
      </trkpt>
      <trkpt lat="41.59559" lon="1.81126">
        <ele>966.34663333947</ele>
        <time>2019-01-12T13:37:17.999Z</time>
      </trkpt>
      <trkpt lat="41.59559" lon="1.81114">
        <ele>967.8998016</ele>
        <time>2019-01-12T13:37:28.999Z</time>
      </trkpt>
      <trkpt lat="41.59555" lon="1.81103">
        <ele>969.65110016</ele>
        <time>2019-01-12T13:37:41.011Z</time>
      </trkpt>
      <trkpt lat="41.59556" lon="1.8109">
        <ele>974.79757885904</ele>
        <time>2019-01-12T13:38:03.999Z</time>
      </trkpt>
      <trkpt lat="41.59558" lon="1.81078">
        <ele>979.50180096</ele>
        <time>2019-01-12T13:38:27.009Z</time>
      </trkpt>
      <trkpt lat="41.59567" lon="1.81072">
        <ele>982.6998016</ele>
        <time>2019-01-12T13:38:42.999Z</time>
      </trkpt>
      <trkpt lat="41.59576" lon="1.81068">
        <ele>984.48252668981</ele>
        <time>2019-01-12T13:38:52.009Z</time>
      </trkpt>
      <trkpt lat="41.59585" lon="1.81067">
        <ele>986.08794399638</ele>
        <time>2019-01-12T13:38:59.999Z</time>
      </trkpt>
      <trkpt lat="41.59592" lon="1.81076">
        <ele>989.04970112</ele>
        <time>2019-01-12T13:39:14.997Z</time>
      </trkpt>
      <trkpt lat="41.59599" lon="1.81085">
        <ele>990.49683231884</ele>
        <time>2019-01-12T13:39:27.009Z</time>
      </trkpt>
      <trkpt lat="41.59605" lon="1.81094">
        <ele>992</ele>
        <time>2019-01-12T13:39:38.000Z</time>
      </trkpt>
      <trkpt lat="41.59614" lon="1.8109">
        <ele>992.22793779988</ele>
        <time>2019-01-12T13:39:47.011Z</time>
      </trkpt>
      <trkpt lat="41.59624" lon="1.8109">
        <ele>993.4998016</ele>
        <time>2019-01-12T13:39:56.999Z</time>
      </trkpt>
      <trkpt lat="41.59634" lon="1.81091">
        <ele>994.89819904</ele>
        <time>2019-01-12T13:40:05.009Z</time>
      </trkpt>
      <trkpt lat="41.59643" lon="1.81094">
        <ele>993</ele>
        <time>2019-01-12T13:40:15.999Z</time>
      </trkpt>
      <trkpt lat="41.59654" lon="1.81096">
        <ele>993</ele>
        <time>2019-01-12T13:40:21.999Z</time>
      </trkpt>
      <trkpt lat="41.59663" lon="1.81098">
        <ele>993.34531781521</ele>
        <time>2019-01-12T13:40:27.999Z</time>
      </trkpt>
      <trkpt lat="41.59672" lon="1.81098">
        <ele>994</ele>
        <time>2019-01-12T13:40:36.999Z</time>
      </trkpt>
      <trkpt lat="41.59677" lon="1.81109">
        <ele>995.65420288</ele>
        <time>2019-01-12T13:40:50.014Z</time>
      </trkpt>
      <trkpt lat="41.59686" lon="1.8111">
        <ele>998.63620411119</ele>
        <time>2019-01-12T13:41:00.014Z</time>
      </trkpt>
      <trkpt lat="41.59696" lon="1.81111">
        <ele>1000</ele>
        <time>2019-01-12T13:41:10.999Z</time>
      </trkpt>
      <trkpt lat="41.59705" lon="1.81114">
        <ele>1000.8998016</ele>
        <time>2019-01-12T13:41:18.999Z</time>
      </trkpt>
      <trkpt lat="41.59708" lon="1.81102">
        <ele>1001.211456204</ele>
        <time>2019-01-12T13:43:08.999Z</time>
      </trkpt>
      <trkpt lat="41.59717" lon="1.811">
        <ele>998.6500992</ele>
        <time>2019-01-12T13:43:17.999Z</time>
      </trkpt>
      <trkpt lat="41.59726" lon="1.81096">
        <ele>998</ele>
        <time>2019-01-12T13:43:27.013Z</time>
      </trkpt>
      <trkpt lat="41.59736" lon="1.81091">
        <ele>998.04223870968</ele>
        <time>2019-01-12T13:43:34.999Z</time>
      </trkpt>
      <trkpt lat="41.59745" lon="1.81085">
        <ele>999.14885874118</ele>
        <time>2019-01-12T13:43:45.999Z</time>
      </trkpt>
      <trkpt lat="41.59753" lon="1.81077">
        <ele>999.74607833292</ele>
        <time>2019-01-12T13:43:52.013Z</time>
      </trkpt>
      <trkpt lat="41.59761" lon="1.81071">
        <ele>1000</ele>
        <time>2019-01-12T13:43:58.999Z</time>
      </trkpt>
      <trkpt lat="41.59768" lon="1.81079">
        <ele>1002.68837361</ele>
        <time>2019-01-12T13:44:18.014Z</time>
      </trkpt>
      <trkpt lat="41.59776" lon="1.81085">
        <ele>1008.14940288</ele>
        <time>2019-01-12T13:44:34.998Z</time>
      </trkpt>
      <trkpt lat="41.59786" lon="1.81081">
        <ele>1010.49819904</ele>
        <time>2019-01-12T13:44:47.009Z</time>
      </trkpt>
      <trkpt lat="41.59794" lon="1.81073">
        <ele>1008.84889984</ele>
        <time>2019-01-12T13:44:56.011Z</time>
      </trkpt>
      <trkpt lat="41.59803" lon="1.81072">
        <ele>1008</ele>
        <time>2019-01-12T13:45:04.999Z</time>
      </trkpt>
      <trkpt lat="41.59812" lon="1.81067">
        <ele>1005.4606311811</ele>
        <time>2019-01-12T13:45:21.000Z</time>
      </trkpt>
      <trkpt lat="41.59811" lon="1.81055">
        <ele>1001.0214488464</ele>
        <time>2019-01-12T13:45:32.000Z</time>
      </trkpt>
      <trkpt lat="41.59814" lon="1.81042">
        <ele>1000.6920469554</ele>
        <time>2019-01-12T13:45:53.011Z</time>
      </trkpt>
      <trkpt lat="41.59823" lon="1.81042">
        <ele>1004.0204682555</ele>
        <time>2019-01-12T13:46:05.011Z</time>
      </trkpt>
      <trkpt lat="41.59832" lon="1.8104">
        <ele>1006.9395131327</ele>
        <time>2019-01-12T13:46:21.011Z</time>
      </trkpt>
      <trkpt lat="41.59842" lon="1.81043">
        <ele>1010.9761930159</ele>
        <time>2019-01-12T13:46:32.000Z</time>
      </trkpt>
      <trkpt lat="41.5985" lon="1.81049">
        <ele>1015.8938579316</ele>
        <time>2019-01-12T13:46:49.008Z</time>
      </trkpt>
      <trkpt lat="41.59856" lon="1.81059">
        <ele>1017.64980096</ele>
        <time>2019-01-12T13:47:00.998Z</time>
      </trkpt>
      <trkpt lat="41.5986" lon="1.81069">
        <ele>1019.0998016</ele>
        <time>2019-01-12T13:47:09.999Z</time>
      </trkpt>
      <trkpt lat="41.59868" lon="1.81077">
        <ele>1021.0954185238</ele>
        <time>2019-01-12T13:47:19.999Z</time>
      </trkpt>
      <trkpt lat="41.59876" lon="1.81083">
        <ele>1023.09199872</ele>
        <time>2019-01-12T13:47:30.000Z</time>
      </trkpt>
      <trkpt lat="41.59885" lon="1.81081">
        <ele>1027.65330048</ele>
        <time>2019-01-12T13:47:50.011Z</time>
      </trkpt>
      <trkpt lat="41.59894" lon="1.81082">
        <ele>1033.749504</ele>
        <time>2019-01-12T13:48:03.999Z</time>
      </trkpt>
      <trkpt lat="41.59887" lon="1.81075">
        <ele>1037.24989952</ele>
        <time>2019-01-12T13:49:42.001Z</time>
      </trkpt>
      <trkpt lat="41.5988" lon="1.81065">
        <ele>1037</ele>
        <time>2019-01-12T13:49:52.011Z</time>
      </trkpt>
      <trkpt lat="41.59872" lon="1.81059">
        <ele>1034.0194438095</ele>
        <time>2019-01-12T13:50:02.011Z</time>
      </trkpt>
      <trkpt lat="41.59868" lon="1.81048">
        <ele>1031.9116236238</ele>
        <time>2019-01-12T13:50:10.011Z</time>
      </trkpt>
      <trkpt lat="41.5987" lon="1.81035">
        <ele>1031.6936671538</ele>
        <time>2019-01-12T13:50:18.011Z</time>
      </trkpt>
      <trkpt lat="41.5987" lon="1.81022">
        <ele>1033.1502495938</ele>
        <time>2019-01-12T13:50:26.011Z</time>
      </trkpt>
      <trkpt lat="41.59865" lon="1.81011">
        <ele>1034</ele>
        <time>2019-01-12T13:50:41.001Z</time>
      </trkpt>
      <trkpt lat="41.5986" lon="1.81">
        <ele>1034.15010048</ele>
        <time>2019-01-12T13:50:46.001Z</time>
      </trkpt>
      <trkpt lat="41.59856" lon="1.80989">
        <ele>1034.65000064</ele>
        <time>2019-01-12T13:50:51.000Z</time>
      </trkpt>
      <trkpt lat="41.59854" lon="1.80976">
        <ele>1034.8515353642</ele>
        <time>2019-01-12T13:50:55.998Z</time>
      </trkpt>
      <trkpt lat="41.59863" lon="1.80972">
        <ele>1032.2468505125</ele>
        <time>2019-01-12T13:51:17.013Z</time>
      </trkpt>
      <trkpt lat="41.59874" lon="1.80973">
        <ele>1026.08321665</ele>
        <time>2019-01-12T13:51:30.111Z</time>
      </trkpt>
      <trkpt lat="41.59883" lon="1.80968">
        <ele>1023</ele>
        <time>2019-01-12T13:51:40.011Z</time>
      </trkpt>
      <trkpt lat="41.59892" lon="1.80972">
        <ele>1023.3414657028</ele>
        <time>2019-01-12T13:51:48.011Z</time>
      </trkpt>
      <trkpt lat="41.59901" lon="1.80975">
        <ele>1024.1451156963</ele>
        <time>2019-01-12T13:51:56.011Z</time>
      </trkpt>
      <trkpt lat="41.5991" lon="1.80974">
        <ele>1024.9507554323</ele>
        <time>2019-01-12T13:52:04.011Z</time>
      </trkpt>
      <trkpt lat="41.5992" lon="1.80977">
        <ele>1025.9544195577</ele>
        <time>2019-01-12T13:52:14.111Z</time>
      </trkpt>
      <trkpt lat="41.59929" lon="1.80981">
        <ele>1026</ele>
        <time>2019-01-12T13:52:23.013Z</time>
      </trkpt>
      <trkpt lat="41.59939" lon="1.80983">
        <ele>1026</ele>
        <time>2019-01-12T13:52:35.011Z</time>
      </trkpt>
      <trkpt lat="41.59948" lon="1.80988">
        <ele>1026</ele>
        <time>2019-01-12T13:52:42.011Z</time>
      </trkpt>
      <trkpt lat="41.59957" lon="1.8099">
        <ele>1024.04669952</ele>
        <time>2019-01-12T13:52:51.011Z</time>
      </trkpt>
      <trkpt lat="41.59966" lon="1.80986">
        <ele>1020.7601401128</ele>
        <time>2019-01-12T13:53:02.011Z</time>
      </trkpt>
      <trkpt lat="41.59974" lon="1.80979">
        <ele>1019.4589049819</ele>
        <time>2019-01-12T13:53:09.998Z</time>
      </trkpt>
      <trkpt lat="41.59982" lon="1.80973">
        <ele>1019</ele>
        <time>2019-01-12T13:53:16.999Z</time>
      </trkpt>
      <trkpt lat="41.59991" lon="1.80978">
        <ele>1015.2587510952</ele>
        <time>2019-01-12T13:53:36.998Z</time>
      </trkpt>
      <trkpt lat="41.59998" lon="1.80987">
        <ele>1011.7922115405</ele>
        <time>2019-01-12T13:53:46.999Z</time>
      </trkpt>
      <trkpt lat="41.60003" lon="1.80999">
        <ele>1006.90039808</ele>
        <time>2019-01-12T13:53:59.998Z</time>
      </trkpt>
      <trkpt lat="41.60013" lon="1.81001">
        <ele>1004.3166976</ele>
        <time>2019-01-12T13:54:10.111Z</time>
      </trkpt>
      <trkpt lat="41.60022" lon="1.80999">
        <ele>999.2509952</ele>
        <time>2019-01-12T13:54:21.998Z</time>
      </trkpt>
      <trkpt lat="41.60029" lon="1.8099">
        <ele>994.7434944</ele>
        <time>2019-01-12T13:54:31.013Z</time>
      </trkpt>
      <trkpt lat="41.60039" lon="1.80992">
        <ele>992.44889984</ele>
        <time>2019-01-12T13:54:40.011Z</time>
      </trkpt>
      <trkpt lat="41.60046" lon="1.80999">
        <ele>991.55468930651</ele>
        <time>2019-01-12T13:54:49.011Z</time>
      </trkpt>
      <trkpt lat="41.60056" lon="1.81002">
        <ele>988.46797743178</ele>
        <time>2019-01-12T13:55:03.011Z</time>
      </trkpt>
      <trkpt lat="41.60065" lon="1.80996">
        <ele>986.29959745648</ele>
        <time>2019-01-12T13:55:13.011Z</time>
      </trkpt>
      <trkpt lat="41.60075" lon="1.80995">
        <ele>985.17466045804</ele>
        <time>2019-01-12T13:55:33.011Z</time>
      </trkpt>
      <trkpt lat="41.60086" lon="1.80992">
        <ele>986.90220032</ele>
        <time>2019-01-12T13:55:49.011Z</time>
      </trkpt>
      <trkpt lat="41.60096" lon="1.80994">
        <ele>992.70260224</ele>
        <time>2019-01-12T13:56:18.013Z</time>
      </trkpt>
      <trkpt lat="41.60106" lon="1.80995">
        <ele>997.74587876993</ele>
        <time>2019-01-12T13:56:42.011Z</time>
      </trkpt>
      <trkpt lat="41.60112" lon="1.80986">
        <ele>1001.3399006163</ele>
        <time>2019-01-12T13:56:59.011Z</time>
      </trkpt>
      <trkpt lat="41.60122" lon="1.80987">
        <ele>1007.45110016</ele>
        <time>2019-01-12T13:57:29.011Z</time>
      </trkpt>
      <trkpt lat="41.60131" lon="1.80991">
        <ele>1014.9522517259</ele>
        <time>2019-01-12T13:58:01.011Z</time>
      </trkpt>
      <trkpt lat="41.60139" lon="1.80998">
        <ele>1022.2608946303</ele>
        <time>2019-01-12T13:58:41.011Z</time>
      </trkpt>
      <trkpt lat="41.60148" lon="1.80995">
        <ele>1028.5474164595</ele>
        <time>2019-01-12T13:59:03.011Z</time>
      </trkpt>
      <trkpt lat="41.60157" lon="1.80998">
        <ele>1036.0790845207</ele>
        <time>2019-01-12T14:00:09.997Z</time>
      </trkpt>
      <trkpt lat="41.60166" lon="1.8099">
        <ele>1037.8450142502</ele>
        <time>2019-01-12T14:00:23.011Z</time>
      </trkpt>
      <trkpt lat="41.60175" lon="1.80995">
        <ele>1031.04969856</ele>
        <time>2019-01-12T14:00:51.001Z</time>
      </trkpt>
      <trkpt lat="41.60184" lon="1.80997">
        <ele>1027.8130946032</ele>
        <time>2019-01-12T14:01:00.011Z</time>
      </trkpt>
      <trkpt lat="41.60194" lon="1.80999">
        <ele>1026</ele>
        <time>2019-01-12T14:01:14.011Z</time>
      </trkpt>
      <trkpt lat="41.60205" lon="1.80999">
        <ele>1026</ele>
        <time>2019-01-12T14:01:23.011Z</time>
      </trkpt>
      <trkpt lat="41.60215" lon="1.80998">
        <ele>1025.1531349781</ele>
        <time>2019-01-12T14:01:33.011Z</time>
      </trkpt>
      <trkpt lat="41.60225" lon="1.80992">
        <ele>1017.29779968</ele>
        <time>2019-01-12T14:02:08.011Z</time>
      </trkpt>
      <trkpt lat="41.60223" lon="1.8098">
        <ele>1014.49779968</ele>
        <time>2019-01-12T14:02:22.011Z</time>
      </trkpt>
      <trkpt lat="41.60223" lon="1.80967">
        <ele>1012.3163206912</ele>
        <time>2019-01-12T14:02:33.011Z</time>
      </trkpt>
      <trkpt lat="41.60228" lon="1.80956">
        <ele>1009.8374387708</ele>
        <time>2019-01-12T14:02:40.011Z</time>
      </trkpt>
      <trkpt lat="41.60237" lon="1.80953">
        <ele>1008</ele>
        <time>2019-01-12T14:02:51.011Z</time>
      </trkpt>
      <trkpt lat="41.60246" lon="1.80955">
        <ele>1008</ele>
        <time>2019-01-12T14:03:02.011Z</time>
      </trkpt>
      <trkpt lat="41.60256" lon="1.80957">
        <ele>1010.4967218241</ele>
        <time>2019-01-12T14:03:17.011Z</time>
      </trkpt>
      <trkpt lat="41.60264" lon="1.80963">
        <ele>1013.2965729032</ele>
        <time>2019-01-12T14:03:31.011Z</time>
      </trkpt>
      <trkpt lat="41.60275" lon="1.80966">
        <ele>1015.8307985892</ele>
        <time>2019-01-12T14:03:44.011Z</time>
      </trkpt>
      <trkpt lat="41.60284" lon="1.8097">
        <ele>1016.15110016</ele>
        <time>2019-01-12T14:03:56.011Z</time>
      </trkpt>
      <trkpt lat="41.60295" lon="1.80969">
        <ele>1016.75110016</ele>
        <time>2019-01-12T14:04:02.011Z</time>
      </trkpt>
      <trkpt lat="41.60305" lon="1.80976">
        <ele>1019.1158031521</ele>
        <time>2019-01-12T14:04:15.011Z</time>
      </trkpt>
      <trkpt lat="41.60314" lon="1.8098">
        <ele>1021.5474164595</ele>
        <time>2019-01-12T14:04:23.011Z</time>
      </trkpt>
      <trkpt lat="41.60323" lon="1.80978">
        <ele>1025.7525472103</ele>
        <time>2019-01-12T14:04:47.011Z</time>
      </trkpt>
      <trkpt lat="41.60333" lon="1.80973">
        <ele>1027.4851743027</ele>
        <time>2019-01-12T14:05:42.112Z</time>
      </trkpt>
      <trkpt lat="41.60341" lon="1.80967">
        <ele>1026.5516586629</ele>
        <time>2019-01-12T14:05:49.011Z</time>
      </trkpt>
      <trkpt lat="41.60349" lon="1.80961">
        <ele>1025.54889984</ele>
        <time>2019-01-12T14:05:59.011Z</time>
      </trkpt>
      <trkpt lat="41.60358" lon="1.80956">
        <ele>1024.64889984</ele>
        <time>2019-01-12T14:06:08.011Z</time>
      </trkpt>
      <trkpt lat="41.60366" lon="1.80948">
        <ele>1024</ele>
        <time>2019-01-12T14:06:15.011Z</time>
      </trkpt>
      <trkpt lat="41.60375" lon="1.80944">
        <ele>1024</ele>
        <time>2019-01-12T14:06:22.011Z</time>
      </trkpt>
      <trkpt lat="41.60383" lon="1.80937">
        <ele>1024</ele>
        <time>2019-01-12T14:06:34.011Z</time>
      </trkpt>
      <trkpt lat="41.60383" lon="1.80924">
        <ele>1022.09779968</ele>
        <time>2019-01-12T14:06:44.011Z</time>
      </trkpt>
      <trkpt lat="41.60375" lon="1.80918">
        <ele>1015.79559936</ele>
        <time>2019-01-12T14:07:00.011Z</time>
      </trkpt>
      <trkpt lat="41.60371" lon="1.80907">
        <ele>1014.5451038433</ele>
        <time>2019-01-12T14:07:10.011Z</time>
      </trkpt>
      <trkpt lat="41.6037" lon="1.80893">
        <ele>1014.2516682715</ele>
        <time>2019-01-12T14:07:22.011Z</time>
      </trkpt>
      <trkpt lat="41.6037" lon="1.80881">
        <ele>1011.44669952</ele>
        <time>2019-01-12T14:07:33.011Z</time>
      </trkpt>
      <trkpt lat="41.60359" lon="1.80875">
        <ele>999.74669952</ele>
        <time>2019-01-12T14:08:02.011Z</time>
      </trkpt>
      <trkpt lat="41.6035" lon="1.8087">
        <ele>996</ele>
        <time>2019-01-12T14:10:05.011Z</time>
      </trkpt>
      <trkpt lat="41.60358" lon="1.80866">
        <ele>996</ele>
        <time>2019-01-12T14:10:17.011Z</time>
      </trkpt>
      <trkpt lat="41.60357" lon="1.80878">
        <ele>995.25437407833</ele>
        <time>2019-01-12T14:10:42.011Z</time>
      </trkpt>
      <trkpt lat="41.60358" lon="1.80865">
        <ele>995</ele>
        <time>2019-01-12T14:12:30.011Z</time>
      </trkpt>
      <trkpt lat="41.60353" lon="1.80875">
        <ele>994</ele>
        <time>2019-01-12T14:13:03.011Z</time>
      </trkpt>
      <trkpt lat="41.60356" lon="1.80863">
        <ele>994</ele>
        <time>2019-01-12T14:13:11.011Z</time>
      </trkpt>
      <trkpt lat="41.60365" lon="1.80868">
        <ele>994</ele>
        <time>2019-01-12T14:16:10.011Z</time>
      </trkpt>
      <trkpt lat="41.60359" lon="1.80859">
        <ele>992.50129080396</ele>
        <time>2019-01-12T14:17:07.011Z</time>
      </trkpt>
      <trkpt lat="41.60351" lon="1.80852">
        <ele>987</ele>
        <time>2019-01-12T14:17:35.011Z</time>
      </trkpt>
      <trkpt lat="41.60341" lon="1.8085">
        <ele>981</ele>
        <time>2019-01-12T14:18:09.011Z</time>
      </trkpt>
      <trkpt lat="41.60339" lon="1.80837">
        <ele>979.29779968</ele>
        <time>2019-01-12T14:18:23.011Z</time>
      </trkpt>
      <trkpt lat="41.60346" lon="1.8083">
        <ele>978.54889984</ele>
        <time>2019-01-12T14:18:29.011Z</time>
      </trkpt>
      <trkpt lat="41.6035" lon="1.80818">
        <ele>978.30220032</ele>
        <time>2019-01-12T14:18:36.011Z</time>
      </trkpt>
      <trkpt lat="41.60359" lon="1.80814">
        <ele>981.30220032</ele>
        <time>2019-01-12T14:18:51.011Z</time>
      </trkpt>
      <trkpt lat="41.60368" lon="1.80812">
        <ele>985.50220032</ele>
        <time>2019-01-12T14:19:12.011Z</time>
      </trkpt>
      <trkpt lat="41.60374" lon="1.80822">
        <ele>988.10220032</ele>
        <time>2019-01-12T14:19:25.011Z</time>
      </trkpt>
      <trkpt lat="41.60378" lon="1.80808">
        <ele>991.30089817297</ele>
        <time>2019-01-12T14:19:41.011Z</time>
      </trkpt>
      <trkpt lat="41.60387" lon="1.80813">
        <ele>994.58733403401</ele>
        <time>2019-01-12T14:19:56.011Z</time>
      </trkpt>
      <trkpt lat="41.60383" lon="1.80801">
        <ele>997.40140710085</ele>
        <time>2019-01-12T14:20:03.011Z</time>
      </trkpt>
      <trkpt lat="41.60393" lon="1.80799">
        <ele>1001.90220032</ele>
        <time>2019-01-12T14:20:34.011Z</time>
      </trkpt>
      <trkpt lat="41.60402" lon="1.80797">
        <ele>1006.8617090748</ele>
        <time>2019-01-12T14:20:59.011Z</time>
      </trkpt>
      <trkpt lat="41.60407" lon="1.80807">
        <ele>1009.9012123806</ele>
        <time>2019-01-12T14:21:14.011Z</time>
      </trkpt>
      <trkpt lat="41.60415" lon="1.808">
        <ele>1015</ele>
        <time>2019-01-12T14:21:37.011Z</time>
      </trkpt>
      <trkpt lat="41.60424" lon="1.808">
        <ele>1021.3454086039</ele>
        <time>2019-01-12T14:22:08.011Z</time>
      </trkpt>
      <trkpt lat="41.60431" lon="1.80806">
        <ele>1023.4986909966</ele>
        <time>2019-01-12T14:22:22.011Z</time>
      </trkpt>
      <trkpt lat="41.60441" lon="1.80808">
        <ele>1029.25330048</ele>
        <time>2019-01-12T14:22:42.011Z</time>
      </trkpt>
      <trkpt lat="41.60449" lon="1.80815">
        <ele>1031.54889984</ele>
        <time>2019-01-12T14:23:19.011Z</time>
      </trkpt>
      <trkpt lat="41.60456" lon="1.80822">
        <ele>1030.24669952</ele>
        <time>2019-01-12T14:23:27.011Z</time>
      </trkpt>
      <trkpt lat="41.60463" lon="1.80832">
        <ele>1026.0660403542</ele>
        <time>2019-01-12T14:23:41.011Z</time>
      </trkpt>
      <trkpt lat="41.6047" lon="1.80824">
        <ele>1020.6848404106</ele>
        <time>2019-01-12T14:23:59.011Z</time>
      </trkpt>
      <trkpt lat="41.60479" lon="1.80828">
        <ele>1018.6231506173</ele>
        <time>2019-01-12T14:24:06.011Z</time>
      </trkpt>
      <trkpt lat="41.60487" lon="1.80834">
        <ele>1013</ele>
        <time>2019-01-12T14:24:36.011Z</time>
      </trkpt>
      <trkpt lat="41.60496" lon="1.80836">
        <ele>1013</ele>
        <time>2019-01-12T14:24:44.011Z</time>
      </trkpt>
      <trkpt lat="41.60505" lon="1.80842">
        <ele>1001.8990116692</ele>
        <time>2019-01-12T14:25:35.011Z</time>
      </trkpt>
      <trkpt lat="41.60514" lon="1.80847">
        <ele>1000.713242418</ele>
        <time>2019-01-12T14:25:41.011Z</time>
      </trkpt>
      <trkpt lat="41.6051" lon="1.80836">
        <ele>995.11113471888</ele>
        <time>2019-01-12T14:26:09.011Z</time>
      </trkpt>
      <trkpt lat="41.60516" lon="1.80847">
        <ele>992.94669952</ele>
        <time>2019-01-12T14:26:18.011Z</time>
      </trkpt>
      <trkpt lat="41.60525" lon="1.80848">
        <ele>990.89779968</ele>
        <time>2019-01-12T14:26:25.011Z</time>
      </trkpt>
      <trkpt lat="41.60531" lon="1.80862">
        <ele>980.84889984</ele>
        <time>2019-01-12T14:27:26.011Z</time>
      </trkpt>
      <trkpt lat="41.60522" lon="1.80863">
        <ele>979.94889984</ele>
        <time>2019-01-12T14:27:35.011Z</time>
      </trkpt>
      <trkpt lat="41.60531" lon="1.80869">
        <ele>978.50079522812</ele>
        <time>2019-01-12T14:27:47.011Z</time>
      </trkpt>
      <trkpt lat="41.60546" lon="1.80883">
        <ele>976.50931042745</ele>
        <time>2019-01-12T14:27:57.011Z</time>
      </trkpt>
      <trkpt lat="41.60554" lon="1.8089">
        <ele>974.4132562249</ele>
        <time>2019-01-12T14:28:06.011Z</time>
      </trkpt>
      <trkpt lat="41.60564" lon="1.80888">
        <ele>967.37921927711</ele>
        <time>2019-01-12T14:28:40.011Z</time>
      </trkpt>
      <trkpt lat="41.60574" lon="1.80892">
        <ele>965.85846693227</ele>
        <time>2019-01-12T14:28:46.011Z</time>
      </trkpt>
      <trkpt lat="41.60583" lon="1.80893">
        <ele>965.06165418327</ele>
        <time>2019-01-12T14:28:54.011Z</time>
      </trkpt>
      <trkpt lat="41.60589" lon="1.80882">
        <ele>958.9208523671</ele>
        <time>2019-01-12T14:29:15.011Z</time>
      </trkpt>
      <trkpt lat="41.60608" lon="1.80905">
        <ele>955.69779968</ele>
        <time>2019-01-12T14:29:31.011Z</time>
      </trkpt>
      <trkpt lat="41.60616" lon="1.80898">
        <ele>954.09779968</ele>
        <time>2019-01-12T14:29:39.011Z</time>
      </trkpt>
      <trkpt lat="41.60618" lon="1.80885">
        <ele>949.43155917535</ele>
        <time>2019-01-12T14:30:01.011Z</time>
      </trkpt>
      <trkpt lat="41.60624" lon="1.80875">
        <ele>944.56529390595</ele>
        <time>2019-01-12T14:30:29.011Z</time>
      </trkpt>
      <trkpt lat="41.60625" lon="1.80862">
        <ele>944.05036033815</ele>
        <time>2019-01-12T14:30:34.011Z</time>
      </trkpt>
      <trkpt lat="41.60617" lon="1.80854">
        <ele>943.84889984</ele>
        <time>2019-01-12T14:30:36.011Z</time>
      </trkpt>
      <trkpt lat="41.60612" lon="1.80866">
        <ele>938.7068521289</ele>
        <time>2019-01-12T14:31:01.011Z</time>
      </trkpt>
      <trkpt lat="41.60622" lon="1.80861">
        <ele>936.34669952</ele>
        <time>2019-01-12T14:31:20.011Z</time>
      </trkpt>
      <trkpt lat="41.60632" lon="1.80865">
        <ele>933.29779968</ele>
        <time>2019-01-12T14:31:33.011Z</time>
      </trkpt>
      <trkpt lat="41.60622" lon="1.8087">
        <ele>931.49779968</ele>
        <time>2019-01-12T14:31:42.011Z</time>
      </trkpt>
      <trkpt lat="41.60631" lon="1.80867">
        <ele>929.29779968</ele>
        <time>2019-01-12T14:31:53.011Z</time>
      </trkpt>
      <trkpt lat="41.60641" lon="1.80866">
        <ele>927.19559936</ele>
        <time>2019-01-12T14:31:59.011Z</time>
      </trkpt>
      <trkpt lat="41.6065" lon="1.80873">
        <ele>924.64889984</ele>
        <time>2019-01-12T14:32:08.011Z</time>
      </trkpt>
      <trkpt lat="41.60657" lon="1.80881">
        <ele>923.54715280193</ele>
        <time>2019-01-12T14:32:16.011Z</time>
      </trkpt>
      <trkpt lat="41.60649" lon="1.80875">
        <ele>914.26253801008</ele>
        <time>2019-01-12T14:32:47.011Z</time>
      </trkpt>
      <trkpt lat="41.60665" lon="1.8087">
        <ele>900.85772732418</ele>
        <time>2019-01-12T14:33:30.011Z</time>
      </trkpt>
      <trkpt lat="41.60682" lon="1.80877">
        <ele>899</ele>
        <time>2019-01-12T14:33:36.011Z</time>
      </trkpt>
      <trkpt lat="41.60672" lon="1.8088">
        <ele>899</ele>
        <time>2019-01-12T14:33:41.001Z</time>
      </trkpt>
      <trkpt lat="41.60683" lon="1.80877">
        <ele>899</ele>
        <time>2019-01-12T14:33:50.011Z</time>
      </trkpt>
      <trkpt lat="41.60699" lon="1.8088">
        <ele>898.50573280632</ele>
        <time>2019-01-12T14:33:57.011Z</time>
      </trkpt>
      <trkpt lat="41.60708" lon="1.80885">
        <ele>898.11047588933</ele>
        <time>2019-01-12T14:33:59.011Z</time>
      </trkpt>
      <trkpt lat="41.60703" lon="1.80874">
        <ele>896.58024518443</ele>
        <time>2019-01-12T14:34:06.011Z</time>
      </trkpt>
      <trkpt lat="41.60704" lon="1.80862">
        <ele>893.69339904</ele>
        <time>2019-01-12T14:34:15.011Z</time>
      </trkpt>
      <trkpt lat="41.60698" lon="1.80872">
        <ele>885.74669952</ele>
        <time>2019-01-12T14:34:32.011Z</time>
      </trkpt>
      <trkpt lat="41.60694" lon="1.80884">
        <ele>882.19119872</ele>
        <time>2019-01-12T14:34:38.011Z</time>
      </trkpt>
      <trkpt lat="41.60703" lon="1.8089">
        <ele>879.79119872</ele>
        <time>2019-01-12T14:34:41.011Z</time>
      </trkpt>
      <trkpt lat="41.60715" lon="1.80901">
        <ele>876.50029866638</ele>
        <time>2019-01-12T14:34:47.011Z</time>
      </trkpt>
      <trkpt lat="41.60706" lon="1.80906">
        <ele>866.29999872</ele>
        <time>2019-01-12T14:35:13.000Z</time>
      </trkpt>
      <trkpt lat="41.60721" lon="1.80913">
        <ele>863.24725458805</ele>
        <time>2019-01-12T14:35:20.011Z</time>
      </trkpt>
      <trkpt lat="41.60716" lon="1.80925">
        <ele>856.61757098434</ele>
        <time>2019-01-12T14:35:38.001Z</time>
      </trkpt>
      <trkpt lat="41.60724" lon="1.80932">
        <ele>850.77631740891</ele>
        <time>2019-01-12T14:35:51.000Z</time>
      </trkpt>
      <trkpt lat="41.60731" lon="1.80939">
        <ele>845.60400128</ele>
        <time>2019-01-12T14:36:03.000Z</time>
      </trkpt>
      <trkpt lat="41.6074" lon="1.80928">
        <ele>839.94999808</ele>
        <time>2019-01-12T14:36:18.000Z</time>
      </trkpt>
      <trkpt lat="41.60749" lon="1.80921">
        <ele>838.74699904</ele>
        <time>2019-01-12T14:36:22.010Z</time>
      </trkpt>
      <trkpt lat="41.60755" lon="1.80931">
        <ele>831</ele>
        <time>2019-01-12T14:36:37.000Z</time>
      </trkpt>
      <trkpt lat="41.60755" lon="1.80945">
        <ele>831</ele>
        <time>2019-01-12T14:36:45.000Z</time>
      </trkpt>
      <trkpt lat="41.60758" lon="1.80957">
        <ele>831</ele>
        <time>2019-01-12T14:36:51.011Z</time>
      </trkpt>
      <trkpt lat="41.6076" lon="1.8097">
        <ele>830.30130127052</ele>
        <time>2019-01-12T14:36:58.000Z</time>
      </trkpt>
      <trkpt lat="41.60769" lon="1.80971">
        <ele>823.85089281852</ele>
        <time>2019-01-12T14:37:15.000Z</time>
      </trkpt>
      <trkpt lat="41.60772" lon="1.80982">
        <ele>819.05573412039</ele>
        <time>2019-01-12T14:37:31.002Z</time>
      </trkpt>
      <trkpt lat="41.60778" lon="1.8097">
        <ele>813.75945440144</ele>
        <time>2019-01-12T14:37:46.999Z</time>
      </trkpt>
      <trkpt lat="41.60778" lon="1.80958">
        <ele>810</ele>
        <time>2019-01-12T14:38:34.009Z</time>
      </trkpt>
      <trkpt lat="41.60784" lon="1.80968">
        <ele>808.32487908679</ele>
        <time>2019-01-12T14:39:48.000Z</time>
      </trkpt>
      <trkpt lat="41.6079" lon="1.80956">
        <ele>804.43728191534</ele>
        <time>2019-01-12T14:40:01.011Z</time>
      </trkpt>
      <trkpt lat="41.60794" lon="1.80945">
        <ele>801.19559936</ele>
        <time>2019-01-12T14:40:09.011Z</time>
      </trkpt>
      <trkpt lat="41.60799" lon="1.80957">
        <ele>798.54669952</ele>
        <time>2019-01-12T14:40:16.011Z</time>
      </trkpt>
      <trkpt lat="41.60799" lon="1.8097">
        <ele>795.85163019533</ele>
        <time>2019-01-12T14:40:25.000Z</time>
      </trkpt>
      <trkpt lat="41.60805" lon="1.80981">
        <ele>793.47715118428</ele>
        <time>2019-01-12T14:40:33.002Z</time>
      </trkpt>
      <trkpt lat="41.60811" lon="1.80989">
        <ele>788.47724601893</ele>
        <time>2019-01-12T14:40:41.000Z</time>
      </trkpt>
      <trkpt lat="41.60819" lon="1.80983">
        <ele>785.2502976</ele>
        <time>2019-01-12T14:40:46.999Z</time>
      </trkpt>
      <trkpt lat="41.60827" lon="1.80977">
        <ele>783.44999808</ele>
        <time>2019-01-12T14:40:53.000Z</time>
      </trkpt>
      <trkpt lat="41.60834" lon="1.80987">
        <ele>779.72618666667</ele>
        <time>2019-01-12T14:41:00.000Z</time>
      </trkpt>
      <trkpt lat="41.60835" lon="1.81001">
        <ele>776.27472405221</ele>
        <time>2019-01-12T14:41:07.000Z</time>
      </trkpt>
      <trkpt lat="41.60842" lon="1.80993">
        <ele>767.84669952</ele>
        <time>2019-01-12T14:41:25.011Z</time>
      </trkpt>
      <trkpt lat="41.60852" lon="1.80998">
        <ele>766.0454976</ele>
        <time>2019-01-12T14:41:31.015Z</time>
      </trkpt>
      <trkpt lat="41.60858" lon="1.81008">
        <ele>764.39639808</ele>
        <time>2019-01-12T14:41:36.009Z</time>
      </trkpt>
      <trkpt lat="41.60866" lon="1.81017">
        <ele>760.85089664</ele>
        <time>2019-01-12T14:41:44.997Z</time>
      </trkpt>
      <trkpt lat="41.6086" lon="1.81028">
        <ele>759.04939904</ele>
        <time>2019-01-12T14:41:51.002Z</time>
      </trkpt>
      <trkpt lat="41.60864" lon="1.81039">
        <ele>757.14909952</ele>
        <time>2019-01-12T14:42:03.009Z</time>
      </trkpt>
      <trkpt lat="41.60873" lon="1.81043">
        <ele>755.6502976</ele>
        <time>2019-01-12T14:42:08.999Z</time>
      </trkpt>
      <trkpt lat="41.60882" lon="1.81041">
        <ele>752.59599872</ele>
        <time>2019-01-12T14:42:18.010Z</time>
      </trkpt>
      <trkpt lat="41.60892" lon="1.81041">
        <ele>750.19559936</ele>
        <time>2019-01-12T14:42:24.011Z</time>
      </trkpt>
      <trkpt lat="41.60901" lon="1.81043">
        <ele>746.2454976</ele>
        <time>2019-01-12T14:42:32.009Z</time>
      </trkpt>
      <trkpt lat="41.60912" lon="1.81044">
        <ele>738.79559936</ele>
        <time>2019-01-12T14:42:50.011Z</time>
      </trkpt>
      <trkpt lat="41.60921" lon="1.81047">
        <ele>731.93269277001</ele>
        <time>2019-01-12T14:43:05.011Z</time>
      </trkpt>
      <trkpt lat="41.60929" lon="1.81042">
        <ele>730.71837521815</ele>
        <time>2019-01-12T14:43:08.998Z</time>
      </trkpt>
      <trkpt lat="41.60931" lon="1.81029">
        <ele>728.44503006574</ele>
        <time>2019-01-12T14:43:16.008Z</time>
      </trkpt>
      <trkpt lat="41.60939" lon="1.81036">
        <ele>718.80119552</ele>
        <time>2019-01-12T14:43:34.997Z</time>
      </trkpt>
      <trkpt lat="41.60937" lon="1.8105">
        <ele>715.99559936</ele>
        <time>2019-01-12T14:43:42.011Z</time>
      </trkpt>
      <trkpt lat="41.60943" lon="1.8106">
        <ele>713.89999872</ele>
        <time>2019-01-12T14:43:50.000Z</time>
      </trkpt>
      <trkpt lat="41.6095" lon="1.8107">
        <ele>712.75296649317</ele>
        <time>2019-01-12T14:43:54.999Z</time>
      </trkpt>
      <trkpt lat="41.60958" lon="1.81077">
        <ele>710.27772053689</ele>
        <time>2019-01-12T14:43:59.999Z</time>
      </trkpt>
      <trkpt lat="41.6097" lon="1.81085">
        <ele>707.02585989551</ele>
        <time>2019-01-12T14:44:07.011Z</time>
      </trkpt>
      <trkpt lat="41.6098" lon="1.81083">
        <ele>705.41010062875</ele>
        <time>2019-01-12T14:44:11.010Z</time>
      </trkpt>
      <trkpt lat="41.6099" lon="1.81085">
        <ele>703.90039808</ele>
        <time>2019-01-12T14:44:14.998Z</time>
      </trkpt>
      <trkpt lat="41.61001" lon="1.81087">
        <ele>703.09779968</ele>
        <time>2019-01-12T14:44:19.011Z</time>
      </trkpt>
      <trkpt lat="41.61009" lon="1.81094">
        <ele>702.29999872</ele>
        <time>2019-01-12T14:44:23.000Z</time>
      </trkpt>
      <trkpt lat="41.61019" lon="1.811">
        <ele>700.96304194398</ele>
        <time>2019-01-12T14:44:27.998Z</time>
      </trkpt>
      <trkpt lat="41.61031" lon="1.81102">
        <ele>699.48023844397</ele>
        <time>2019-01-12T14:44:33.000Z</time>
      </trkpt>
      <trkpt lat="41.61039" lon="1.81108">
        <ele>698.27459663106</ele>
        <time>2019-01-12T14:44:37.009Z</time>
      </trkpt>
      <trkpt lat="41.61046" lon="1.81115">
        <ele>697.06275246996</ele>
        <time>2019-01-12T14:44:41.000Z</time>
      </trkpt>
      <trkpt lat="41.61055" lon="1.81122">
        <ele>696.24817445385</ele>
        <time>2019-01-12T14:44:47.014Z</time>
      </trkpt>
      <trkpt lat="41.61062" lon="1.81131">
        <ele>696.64165846398</ele>
        <time>2019-01-12T14:44:51.000Z</time>
      </trkpt>
      <trkpt lat="41.61065" lon="1.81142">
        <ele>697.48328282062</ele>
        <time>2019-01-12T14:44:57.015Z</time>
      </trkpt>
      <trkpt lat="41.61072" lon="1.81152">
        <ele>698.89848176549</ele>
        <time>2019-01-12T14:45:03.999Z</time>
      </trkpt>
      <trkpt lat="41.61079" lon="1.81159">
        <ele>699.69101739055</ele>
        <time>2019-01-12T14:45:08.000Z</time>
      </trkpt>
      <trkpt lat="41.61085" lon="1.81167">
        <ele>700.4833176861</ele>
        <time>2019-01-12T14:45:12.013Z</time>
      </trkpt>
      <trkpt lat="41.6109" lon="1.81178">
        <ele>701.13880426875</ele>
        <time>2019-01-12T14:45:16.000Z</time>
      </trkpt>
      <trkpt lat="41.61093" lon="1.8119">
        <ele>701.6450869091</ele>
        <time>2019-01-12T14:45:20.997Z</time>
      </trkpt>
      <trkpt lat="41.61099" lon="1.81202">
        <ele>702</ele>
        <time>2019-01-12T14:45:27.009Z</time>
      </trkpt>
      <trkpt lat="41.611" lon="1.81216">
        <ele>702.09266179794</ele>
        <time>2019-01-12T14:45:35.011Z</time>
      </trkpt>
      <trkpt lat="41.611" lon="1.81228">
        <ele>704.09940224</ele>
        <time>2019-01-12T14:45:44.997Z</time>
      </trkpt>
      <trkpt lat="41.61093" lon="1.81237">
        <ele>705.90260224</ele>
        <time>2019-01-12T14:45:54.013Z</time>
      </trkpt>
      <trkpt lat="41.61097" lon="1.81249">
        <ele>709.22134113821</ele>
        <time>2019-01-12T14:46:16.968Z</time>
      </trkpt>
      <trkpt lat="41.61102" lon="1.81259">
        <ele>712</ele>
        <time>2019-01-12T14:46:51.999Z</time>
      </trkpt>
      <trkpt lat="41.61095" lon="1.81267">
        <ele>712.8498503462</ele>
        <time>2019-01-12T14:48:53.000Z</time>
      </trkpt>
      <trkpt lat="41.61091" lon="1.81279">
        <ele>713</ele>
        <time>2019-01-12T14:49:04.013Z</time>
      </trkpt>
      <trkpt lat="41.61094" lon="1.81291">
        <ele>713</ele>
        <time>2019-01-12T14:49:12.000Z</time>
      </trkpt>
      <trkpt lat="41.6109" lon="1.81304">
        <ele>712.32019366512</ele>
        <time>2019-01-12T14:49:18.001Z</time>
      </trkpt>
      <trkpt lat="41.61084" lon="1.81314">
        <ele>711.34990207385</ele>
        <time>2019-01-12T14:49:22.998Z</time>
      </trkpt>
      <trkpt lat="41.6108" lon="1.81328">
        <ele>711</ele>
        <time>2019-01-12T14:49:28.000Z</time>
      </trkpt>
      <trkpt lat="41.61076" lon="1.81341">
        <ele>711</ele>
        <time>2019-01-12T14:49:34.010Z</time>
      </trkpt>
      <trkpt lat="41.61067" lon="1.81349">
        <ele>709.71920682703</ele>
        <time>2019-01-12T14:49:39.010Z</time>
      </trkpt>
      <trkpt lat="41.61059" lon="1.81356">
        <ele>708.15344377683</ele>
        <time>2019-01-12T14:49:44.010Z</time>
      </trkpt>
      <trkpt lat="41.61054" lon="1.81367">
        <ele>706.90039808</ele>
        <time>2019-01-12T14:49:49.998Z</time>
      </trkpt>
      <trkpt lat="41.61054" lon="1.8138">
        <ele>703.01352015044</ele>
        <time>2019-01-12T14:50:02.011Z</time>
      </trkpt>
      <trkpt lat="41.61045" lon="1.81386">
        <ele>701.71026138286</ele>
        <time>2019-01-12T14:50:06.000Z</time>
      </trkpt>
      <trkpt lat="41.61039" lon="1.81395">
        <ele>700.29959745648</ele>
        <time>2019-01-12T14:50:13.011Z</time>
      </trkpt>
      <trkpt lat="41.61033" lon="1.81408">
        <ele>702.4506490783</ele>
        <time>2019-01-12T14:50:29.011Z</time>
      </trkpt>
      <trkpt lat="41.6103" lon="1.8142">
        <ele>706.04051346654</ele>
        <time>2019-01-12T14:50:48.010Z</time>
      </trkpt>
      <trkpt lat="41.61022" lon="1.8143">
        <ele>709.68832881341</ele>
        <time>2019-01-12T14:51:03.011Z</time>
      </trkpt>
      <trkpt lat="41.61016" lon="1.81439">
        <ele>713.95134725945</ele>
        <time>2019-01-12T14:51:21.011Z</time>
      </trkpt>
      <trkpt lat="41.6101" lon="1.81448">
        <ele>718.10029879508</ele>
        <time>2019-01-12T14:51:35.011Z</time>
      </trkpt>
      <trkpt lat="41.61" lon="1.81444">
        <ele>722.70220032</ele>
        <time>2019-01-12T14:51:58.011Z</time>
      </trkpt>
      <trkpt lat="41.60995" lon="1.81454">
        <ele>727.05134995926</ele>
        <time>2019-01-12T14:52:18.011Z</time>
      </trkpt>
      <trkpt lat="41.6099" lon="1.81464">
        <ele>730.89640705466</ele>
        <time>2019-01-12T14:52:31.011Z</time>
      </trkpt>
      <trkpt lat="41.60998" lon="1.8147">
        <ele>732.84649490903</ele>
        <time>2019-01-12T14:52:43.011Z</time>
      </trkpt>
      <trkpt lat="41.61008" lon="1.8147">
        <ele>733.75000064</ele>
        <time>2019-01-12T14:52:52.000Z</time>
      </trkpt>
      <trkpt lat="41.61014" lon="1.81483">
        <ele>736</ele>
        <time>2019-01-12T14:53:11.011Z</time>
      </trkpt>
      <trkpt lat="41.61016" lon="1.81496">
        <ele>735.26585982384</ele>
        <time>2019-01-12T14:53:17.000Z</time>
      </trkpt>
      <trkpt lat="41.61013" lon="1.81507">
        <ele>732.41359135466</ele>
        <time>2019-01-12T14:53:26.010Z</time>
      </trkpt>
      <trkpt lat="41.61017" lon="1.8152">
        <ele>729.31145487444</ele>
        <time>2019-01-12T14:53:33.998Z</time>
      </trkpt>
      <trkpt lat="41.61022" lon="1.81531">
        <ele>724.54638881411</ele>
        <time>2019-01-12T14:53:42.000Z</time>
      </trkpt>
      <trkpt lat="41.61028" lon="1.8154">
        <ele>722.30830000531</ele>
        <time>2019-01-12T14:53:48.000Z</time>
      </trkpt>
      <trkpt lat="41.61035" lon="1.81549">
        <ele>721.32055358665</ele>
        <time>2019-01-12T14:53:52.998Z</time>
      </trkpt>
      <trkpt lat="41.61039" lon="1.81562">
        <ele>719.80622497186</ele>
        <time>2019-01-12T14:53:56.998Z</time>
      </trkpt>
      <trkpt lat="41.61045" lon="1.81572">
        <ele>717.29517917453</ele>
        <time>2019-01-12T14:54:02.000Z</time>
      </trkpt>
      <trkpt lat="41.61049" lon="1.81582">
        <ele>715.51209548387</ele>
        <time>2019-01-12T14:54:07.000Z</time>
      </trkpt>
      <trkpt lat="41.61051" lon="1.81595">
        <ele>714.30241806452</ele>
        <time>2019-01-12T14:54:13.000Z</time>
      </trkpt>
      <trkpt lat="41.61048" lon="1.81606">
        <ele>712.01419864981</ele>
        <time>2019-01-12T14:54:26.999Z</time>
      </trkpt>
      <trkpt lat="41.61046" lon="1.81618">
        <ele>708.85436031115</ele>
        <time>2019-01-12T14:54:34.999Z</time>
      </trkpt>
      <trkpt lat="41.61052" lon="1.81627">
        <ele>702.80656862258</ele>
        <time>2019-01-12T14:54:50.011Z</time>
      </trkpt>
      <trkpt lat="41.61062" lon="1.81627">
        <ele>697.75979586875</ele>
        <time>2019-01-12T14:55:00.998Z</time>
      </trkpt>
      <trkpt lat="41.61075" lon="1.81627">
        <ele>692.99559936</ele>
        <time>2019-01-12T14:55:12.011Z</time>
      </trkpt>
      <trkpt lat="41.61083" lon="1.81632">
        <ele>690.9502976</ele>
        <time>2019-01-12T14:55:17.999Z</time>
      </trkpt>
      <trkpt lat="41.61088" lon="1.81642">
        <ele>689.44999808</ele>
        <time>2019-01-12T14:55:23.000Z</time>
      </trkpt>
      <trkpt lat="41.61086" lon="1.81654">
        <ele>689.64691871369</ele>
        <time>2019-01-12T14:55:31.008Z</time>
      </trkpt>
      <trkpt lat="41.6109" lon="1.81666">
        <ele>689.35425494158</ele>
        <time>2019-01-12T14:55:41.011Z</time>
      </trkpt>
      <trkpt lat="41.61097" lon="1.81676">
        <ele>688.26190883561</ele>
        <time>2019-01-12T14:55:46.998Z</time>
      </trkpt>
      <trkpt lat="41.61105" lon="1.81684">
        <ele>686.75436969266</ele>
        <time>2019-01-12T14:55:51.998Z</time>
      </trkpt>
      <trkpt lat="41.61114" lon="1.81679">
        <ele>684.35059712</ele>
        <time>2019-01-12T14:55:59.998Z</time>
      </trkpt>
      <trkpt lat="41.61123" lon="1.81683">
        <ele>683</ele>
        <time>2019-01-12T14:56:11.010Z</time>
      </trkpt>
      <trkpt lat="41.61125" lon="1.81695">
        <ele>683</ele>
        <time>2019-01-12T14:56:17.998Z</time>
      </trkpt>
      <trkpt lat="41.6113" lon="1.81708">
        <ele>683.13860177877</ele>
        <time>2019-01-12T14:56:26.008Z</time>
      </trkpt>
      <trkpt lat="41.61133" lon="1.8172">
        <ele>684</ele>
        <time>2019-01-12T14:56:34.999Z</time>
      </trkpt>
      <trkpt lat="41.61137" lon="1.81732">
        <ele>684.34980096</ele>
        <time>2019-01-12T14:56:47.998Z</time>
      </trkpt>
      <trkpt lat="41.61146" lon="1.81737">
        <ele>683</ele>
        <time>2019-01-12T14:57:13.011Z</time>
      </trkpt>
      <trkpt lat="41.61154" lon="1.81743">
        <ele>682.65905406258</ele>
        <time>2019-01-12T14:58:47.999Z</time>
      </trkpt>
      <trkpt lat="41.61164" lon="1.81743">
        <ele>680.06306464446</ele>
        <time>2019-01-12T14:59:01.000Z</time>
      </trkpt>
      <trkpt lat="41.61173" lon="1.81746">
        <ele>679</ele>
        <time>2019-01-12T14:59:07.999Z</time>
      </trkpt>
      <trkpt lat="41.61182" lon="1.81743">
        <ele>679</ele>
        <time>2019-01-12T14:59:16.011Z</time>
      </trkpt>
      <trkpt lat="41.61191" lon="1.81743">
        <ele>679</ele>
        <time>2019-01-12T14:59:23.011Z</time>
      </trkpt>
      <trkpt lat="41.61201" lon="1.81746">
        <ele>678.0775945443</ele>
        <time>2019-01-12T14:59:34.010Z</time>
      </trkpt>
      <trkpt lat="41.6121" lon="1.81746">
        <ele>676.73060380122</ele>
        <time>2019-01-12T14:59:41.011Z</time>
      </trkpt>
      <trkpt lat="41.6122" lon="1.81743">
        <ele>675.02499612903</ele>
        <time>2019-01-12T14:59:46.998Z</time>
      </trkpt>
      <trkpt lat="41.6123" lon="1.81745">
        <ele>672.60443354839</ele>
        <time>2019-01-12T14:59:53.001Z</time>
      </trkpt>
      <trkpt lat="41.61239" lon="1.81746">
        <ele>670.30039808</ele>
        <time>2019-01-12T15:00:02.998Z</time>
      </trkpt>
      <trkpt lat="41.61248" lon="1.81752">
        <ele>669.25614984127</ele>
        <time>2019-01-12T15:00:11.998Z</time>
      </trkpt>
      <trkpt lat="41.61257" lon="1.81757">
        <ele>668.51229677419</ele>
        <time>2019-01-12T15:00:16.999Z</time>
      </trkpt>
      <trkpt lat="41.61267" lon="1.81759">
        <ele>667.09899096774</ele>
        <time>2019-01-12T15:00:24.009Z</time>
      </trkpt>
      <trkpt lat="41.61274" lon="1.81752">
        <ele>667.5499008</ele>
        <time>2019-01-12T15:00:29.999Z</time>
      </trkpt>
      <trkpt lat="41.61274" lon="1.81738">
        <ele>667.89979904</ele>
        <time>2019-01-12T15:00:35.001Z</time>
      </trkpt>
      <trkpt lat="41.61273" lon="1.81723">
        <ele>666.69979904</ele>
        <time>2019-01-12T15:00:41.001Z</time>
      </trkpt>
      <trkpt lat="41.61268" lon="1.81712">
        <ele>665.8502976</ele>
        <time>2019-01-12T15:00:44.999Z</time>
      </trkpt>
      <trkpt lat="41.61261" lon="1.81703">
        <ele>664.64669952</ele>
        <time>2019-01-12T15:00:49.011Z</time>
      </trkpt>
      <trkpt lat="41.61253" lon="1.81695">
        <ele>663.44969856</ele>
        <time>2019-01-12T15:00:53.001Z</time>
      </trkpt>
      <trkpt lat="41.61244" lon="1.81686">
        <ele>662.49779968</ele>
        <time>2019-01-12T15:00:57.011Z</time>
      </trkpt>
      <trkpt lat="41.61237" lon="1.81676">
        <ele>661.69979904</ele>
        <time>2019-01-12T15:01:01.001Z</time>
      </trkpt>
      <trkpt lat="41.61228" lon="1.81668">
        <ele>660.94989952</ele>
        <time>2019-01-12T15:01:05.001Z</time>
      </trkpt>
      <trkpt lat="41.6122" lon="1.81661">
        <ele>660.44909952</ele>
        <time>2019-01-12T15:01:10.009Z</time>
      </trkpt>
      <trkpt lat="41.61211" lon="1.81653">
        <ele>660.0500992</ele>
        <time>2019-01-12T15:01:13.999Z</time>
      </trkpt>
      <trkpt lat="41.61201" lon="1.81647">
        <ele>660</ele>
        <time>2019-01-12T15:01:18.999Z</time>
      </trkpt>
      <trkpt lat="41.61189" lon="1.81646">
        <ele>660</ele>
        <time>2019-01-12T15:01:23.001Z</time>
      </trkpt>
      <trkpt lat="41.6118" lon="1.81644">
        <ele>659.75213058271</ele>
        <time>2019-01-12T15:01:27.001Z</time>
      </trkpt>
      <trkpt lat="41.6117" lon="1.81641">
        <ele>659.35589674761</ele>
        <time>2019-01-12T15:01:30.999Z</time>
      </trkpt>
      <trkpt lat="41.6116" lon="1.81639">
        <ele>658.95771991868</ele>
        <time>2019-01-12T15:01:35.009Z</time>
      </trkpt>
      <trkpt lat="41.6115" lon="1.81634">
        <ele>658.55388533979</ele>
        <time>2019-01-12T15:01:39.011Z</time>
      </trkpt>
      <trkpt lat="41.61143" lon="1.81626">
        <ele>658.15025225453</ele>
        <time>2019-01-12T15:01:43.011Z</time>
      </trkpt>
      <trkpt lat="41.61138" lon="1.81614">
        <ele>656.95712889845</ele>
        <time>2019-01-12T15:01:48.011Z</time>
      </trkpt>
      <trkpt lat="41.61138" lon="1.816">
        <ele>654.92196015686</ele>
        <time>2019-01-12T15:01:54.998Z</time>
      </trkpt>
      <trkpt lat="41.61144" lon="1.8159">
        <ele>654.13725490196</ele>
        <time>2019-01-12T15:01:59.000Z</time>
      </trkpt>
      <trkpt lat="41.6115" lon="1.81578">
        <ele>653.54941113725</ele>
        <time>2019-01-12T15:02:01.998Z</time>
      </trkpt>
      <trkpt lat="41.61155" lon="1.81563">
        <ele>652.75237130053</ele>
        <time>2019-01-12T15:02:06.001Z</time>
      </trkpt>
      <trkpt lat="41.61163" lon="1.81553">
        <ele>652.13381419138</ele>
        <time>2019-01-12T15:02:09.001Z</time>
      </trkpt>
      <trkpt lat="41.61169" lon="1.8154">
        <ele>651.30701018194</ele>
        <time>2019-01-12T15:02:13.011Z</time>
      </trkpt>
      <trkpt lat="41.61167" lon="1.81526">
        <ele>650.70039808</ele>
        <time>2019-01-12T15:02:15.998Z</time>
      </trkpt>
      <trkpt lat="41.61166" lon="1.8151">
        <ele>649.89779968</ele>
        <time>2019-01-12T15:02:20.011Z</time>
      </trkpt>
      <trkpt lat="41.61161" lon="1.81498">
        <ele>649.29779968</ele>
        <time>2019-01-12T15:02:23.011Z</time>
      </trkpt>
      <trkpt lat="41.61161" lon="1.81483">
        <ele>648.29920172506</ele>
        <time>2019-01-12T15:02:28.011Z</time>
      </trkpt>
      <trkpt lat="41.61156" lon="1.81472">
        <ele>647.50079904141</ele>
        <time>2019-01-12T15:02:32.011Z</time>
      </trkpt>
      <trkpt lat="41.61151" lon="1.81462">
        <ele>646.7504011225</ele>
        <time>2019-01-12T15:02:37.011Z</time>
      </trkpt>
      <trkpt lat="41.61144" lon="1.81452">
        <ele>646.44979972733</ele>
        <time>2019-01-12T15:02:40.011Z</time>
      </trkpt>
      <trkpt lat="41.61141" lon="1.81438">
        <ele>646.04899786709</ele>
        <time>2019-01-12T15:02:44.011Z</time>
      </trkpt>
      <trkpt lat="41.61144" lon="1.8142">
        <ele>644.89779968</ele>
        <time>2019-01-12T15:02:50.011Z</time>
      </trkpt>
      <trkpt lat="41.6115" lon="1.81408">
        <ele>644.09779968</ele>
        <time>2019-01-12T15:02:54.011Z</time>
      </trkpt>
      <trkpt lat="41.61158" lon="1.81399">
        <ele>642.59559936</ele>
        <time>2019-01-12T15:02:58.011Z</time>
      </trkpt>
      <trkpt lat="41.61163" lon="1.81387">
        <ele>640.99559936</ele>
        <time>2019-01-12T15:03:02.011Z</time>
      </trkpt>
      <trkpt lat="41.61167" lon="1.81376">
        <ele>639.7499005579</ele>
        <time>2019-01-12T15:03:07.011Z</time>
      </trkpt>
      <trkpt lat="41.61175" lon="1.81367">
        <ele>639.25189322468</ele>
        <time>2019-01-12T15:03:12.011Z</time>
      </trkpt>
      <trkpt lat="41.61186" lon="1.81358">
        <ele>638.65565587302</ele>
        <time>2019-01-12T15:03:18.011Z</time>
      </trkpt>
      <trkpt lat="41.61195" lon="1.81349">
        <ele>638.25883047619</ele>
        <time>2019-01-12T15:03:22.011Z</time>
      </trkpt>
      <trkpt lat="41.61204" lon="1.81344">
        <ele>637.71842295504</ele>
        <time>2019-01-12T15:03:26.011Z</time>
      </trkpt>
      <trkpt lat="41.61215" lon="1.81343">
        <ele>637.11396678733</ele>
        <time>2019-01-12T15:03:28.997Z</time>
      </trkpt>
      <trkpt lat="41.61228" lon="1.8134">
        <ele>635.54669952</ele>
        <time>2019-01-12T15:03:36.011Z</time>
      </trkpt>
      <trkpt lat="41.61241" lon="1.81336">
        <ele>633.6566976</ele>
        <time>2019-01-12T15:03:42.311Z</time>
      </trkpt>
      <trkpt lat="41.61251" lon="1.81333">
        <ele>632.94889984</ele>
        <time>2019-01-12T15:03:45.011Z</time>
      </trkpt>
      <trkpt lat="41.61261" lon="1.81335">
        <ele>632.65029888</ele>
        <time>2019-01-12T15:03:47.997Z</time>
      </trkpt>
      <trkpt lat="41.61271" lon="1.81331">
        <ele>632.34899968</ele>
        <time>2019-01-12T15:03:51.010Z</time>
      </trkpt>
      <trkpt lat="41.61282" lon="1.81327">
        <ele>631.85059712</ele>
        <time>2019-01-12T15:03:54.998Z</time>
      </trkpt>
      <trkpt lat="41.61294" lon="1.81322">
        <ele>630.34669952</ele>
        <time>2019-01-12T15:04:00.011Z</time>
      </trkpt>
      <trkpt lat="41.61306" lon="1.81319">
        <ele>629.14609664</ele>
        <time>2019-01-12T15:04:04.013Z</time>
      </trkpt>
      <trkpt lat="41.61316" lon="1.81317">
        <ele>629</ele>
        <time>2019-01-12T15:04:09.013Z</time>
      </trkpt>
      <trkpt lat="41.61326" lon="1.81314">
        <ele>629</ele>
        <time>2019-01-12T15:04:13.000Z</time>
      </trkpt>
      <trkpt lat="41.61337" lon="1.81315">
        <ele>628.27333189387</ele>
        <time>2019-01-12T15:04:16.998Z</time>
      </trkpt>
      <trkpt lat="41.61346" lon="1.81313">
        <ele>627.36424039709</ele>
        <time>2019-01-12T15:04:19.998Z</time>
      </trkpt>
      <trkpt lat="41.61354" lon="1.81306">
        <ele>626.14757245904</ele>
        <time>2019-01-12T15:04:24.013Z</time>
      </trkpt>
      <trkpt lat="41.61363" lon="1.81301">
        <ele>625.35159610277</ele>
        <time>2019-01-12T15:04:30.997Z</time>
      </trkpt>
      <trkpt lat="41.61355" lon="1.81291">
        <ele>622.40760064</ele>
        <time>2019-01-12T15:04:41.001Z</time>
      </trkpt>
      <trkpt lat="41.61358" lon="1.81279">
        <ele>618.80480628765</ele>
        <time>2019-01-12T15:04:49.997Z</time>
      </trkpt>
      <trkpt lat="41.61367" lon="1.81279">
        <ele>617.19558617753</ele>
        <time>2019-01-12T15:04:54.012Z</time>
      </trkpt>
      <trkpt lat="41.61378" lon="1.81278">
        <ele>615.26019509474</ele>
        <time>2019-01-12T15:04:57.997Z</time>
      </trkpt>
      <trkpt lat="41.61387" lon="1.81276">
        <ele>613.76716249107</ele>
        <time>2019-01-12T15:05:00.998Z</time>
      </trkpt>
      <trkpt lat="41.61396" lon="1.81281">
        <ele>611.5656</ele>
        <time>2019-01-12T15:05:05.998Z</time>
      </trkpt>
      <trkpt lat="41.61403" lon="1.81289">
        <ele>610.06500096</ele>
        <time>2019-01-12T15:05:11.000Z</time>
      </trkpt>
      <trkpt lat="41.61412" lon="1.81297">
        <ele>607.27778728309</ele>
        <time>2019-01-12T15:05:16.998Z</time>
      </trkpt>
      <trkpt lat="41.6142" lon="1.81301">
        <ele>601.09999616</ele>
        <time>2019-01-12T15:05:26.000Z</time>
      </trkpt>
      <trkpt lat="41.61428" lon="1.81309">
        <ele>596.90119424</ele>
        <time>2019-01-12T15:05:32.998Z</time>
      </trkpt>
      <trkpt lat="41.61436" lon="1.81317">
        <ele>594.61052294402</ele>
        <time>2019-01-12T15:05:37.998Z</time>
      </trkpt>
      <trkpt lat="41.61444" lon="1.81325">
        <ele>593.02085242634</ele>
        <time>2019-01-12T15:05:42.000Z</time>
      </trkpt>
      <trkpt lat="41.61448" lon="1.81336">
        <ele>588.87079343268</ele>
        <time>2019-01-12T15:05:49.009Z</time>
      </trkpt>
      <trkpt lat="41.61455" lon="1.81344">
        <ele>585.34682339475</ele>
        <time>2019-01-12T15:05:54.008Z</time>
      </trkpt>
      <trkpt lat="41.61463" lon="1.81351">
        <ele>584.0969984</ele>
        <time>2019-01-12T15:05:59.015Z</time>
      </trkpt>
      <trkpt lat="41.61471" lon="1.81356">
        <ele>583.30039808</ele>
        <time>2019-01-12T15:06:02.998Z</time>
      </trkpt>
      <trkpt lat="41.6148" lon="1.81354">
        <ele>582.85029888</ele>
        <time>2019-01-12T15:06:05.997Z</time>
      </trkpt>
      <trkpt lat="41.61491" lon="1.81355">
        <ele>582.54869888</ele>
        <time>2019-01-12T15:06:09.013Z</time>
      </trkpt>
      <trkpt lat="41.61503" lon="1.81357">
        <ele>582.04879872</ele>
        <time>2019-01-12T15:06:14.012Z</time>
      </trkpt>
      <trkpt lat="41.61513" lon="1.81357">
        <ele>581.27271563637</ele>
        <time>2019-01-12T15:06:16.997Z</time>
      </trkpt>
      <trkpt lat="41.61524" lon="1.81354">
        <ele>580.10737702066</ele>
        <time>2019-01-12T15:06:20.998Z</time>
      </trkpt>
      <trkpt lat="41.61536" lon="1.81355">
        <ele>579.22922176048</ele>
        <time>2019-01-12T15:06:24.013Z</time>
      </trkpt>
      <trkpt lat="41.61546" lon="1.81357">
        <ele>577.86985349794</ele>
        <time>2019-01-12T15:06:26.997Z</time>
      </trkpt>
      <trkpt lat="41.61557" lon="1.81357">
        <ele>575.81121316872</ele>
        <time>2019-01-12T15:06:30.999Z</time>
      </trkpt>
      <trkpt lat="41.61569" lon="1.81356">
        <ele>573.90380755354</ele>
        <time>2019-01-12T15:06:35.000Z</time>
      </trkpt>
      <trkpt lat="41.61579" lon="1.81354">
        <ele>573.30320500406</ele>
        <time>2019-01-12T15:06:37.997Z</time>
      </trkpt>
      <trkpt lat="41.6159" lon="1.81353">
        <ele>572.70200221371</ele>
        <time>2019-01-12T15:06:40.997Z</time>
      </trkpt>
      <trkpt lat="41.61599" lon="1.81352">
        <ele>572.09779308877</ele>
        <time>2019-01-12T15:06:44.012Z</time>
      </trkpt>
      <trkpt lat="41.61608" lon="1.81349">
        <ele>569.75268992</ele>
        <time>2019-01-12T15:06:46.997Z</time>
      </trkpt>
      <trkpt lat="41.61612" lon="1.81338">
        <ele>564.34999424</ele>
        <time>2019-01-12T15:06:53.000Z</time>
      </trkpt>
      <trkpt lat="41.6162" lon="1.81331">
        <ele>560.31873111399</ele>
        <time>2019-01-12T15:06:59.009Z</time>
      </trkpt>
      <trkpt lat="41.6163" lon="1.81336">
        <ele>556.7953860928</ele>
        <time>2019-01-12T15:07:04.998Z</time>
      </trkpt>
      <trkpt lat="41.61639" lon="1.81342">
        <ele>554.78184402226</ele>
        <time>2019-01-12T15:07:09.013Z</time>
      </trkpt>
      <trkpt lat="41.61649" lon="1.81349">
        <ele>552.78334869676</ele>
        <time>2019-01-12T15:07:12.998Z</time>
      </trkpt>
      <trkpt lat="41.61659" lon="1.81353">
        <ele>551.01891156147</ele>
        <time>2019-01-12T15:07:16.998Z</time>
      </trkpt>
      <trkpt lat="41.61663" lon="1.81365">
        <ele>548</ele>
        <time>2019-01-12T15:07:30.998Z</time>
      </trkpt>
      <trkpt lat="41.61672" lon="1.8137">
        <ele>547.45745524132</ele>
        <time>2019-01-12T15:07:39.998Z</time>
      </trkpt>
      <trkpt lat="41.61663" lon="1.81375">
        <ele>545.70837579548</ele>
        <time>2019-01-12T15:07:51.000Z</time>
      </trkpt>
      <trkpt lat="41.61652" lon="1.81376">
        <ele>544.55255308353</ele>
        <time>2019-01-12T15:07:56.000Z</time>
      </trkpt>
      <trkpt lat="41.61642" lon="1.81376">
        <ele>543.05105013915</ele>
        <time>2019-01-12T15:08:01.000Z</time>
      </trkpt>
      <trkpt lat="41.61633" lon="1.81379">
        <ele>541.55445382688</ele>
        <time>2019-01-12T15:08:06.000Z</time>
      </trkpt>
      <trkpt lat="41.61623" lon="1.8138">
        <ele>540.36633576787</ele>
        <time>2019-01-12T15:08:10.000Z</time>
      </trkpt>
      <trkpt lat="41.61612" lon="1.81382">
        <ele>538.88235294118</ele>
        <time>2019-01-12T15:08:15.000Z</time>
      </trkpt>
      <trkpt lat="41.61602" lon="1.81386">
        <ele>537.70323576471</ele>
        <time>2019-01-12T15:08:19.009Z</time>
      </trkpt>
      <trkpt lat="41.61592" lon="1.81387">
        <ele>536.52970541177</ele>
        <time>2019-01-12T15:08:22.999Z</time>
      </trkpt>
      <trkpt lat="41.61581" lon="1.8139">
        <ele>535.77329865455</ele>
        <time>2019-01-12T15:08:26.999Z</time>
      </trkpt>
      <trkpt lat="41.61573" lon="1.81394">
        <ele>535.36092724845</ele>
        <time>2019-01-12T15:08:30.999Z</time>
      </trkpt>
      <trkpt lat="41.61565" lon="1.814">
        <ele>535.05010213615</ele>
        <time>2019-01-12T15:08:34.014Z</time>
      </trkpt>
      <trkpt lat="41.61558" lon="1.81409">
        <ele>533.7489984</ele>
        <time>2019-01-12T15:08:37.002Z</time>
      </trkpt>
      <trkpt lat="41.61549" lon="1.81418">
        <ele>531.750496</ele>
        <time>2019-01-12T15:08:40.999Z</time>
      </trkpt>
      <trkpt lat="41.6154" lon="1.81427">
        <ele>529.6007936</ele>
        <time>2019-01-12T15:08:44.999Z</time>
      </trkpt>
      <trkpt lat="41.61532" lon="1.81438">
        <ele>526.39279616</ele>
        <time>2019-01-12T15:08:49.009Z</time>
      </trkpt>
      <trkpt lat="41.61523" lon="1.81441">
        <ele>523.99839744</ele>
        <time>2019-01-12T15:08:52.002Z</time>
      </trkpt>
      <trkpt lat="41.61511" lon="1.81446">
        <ele>521.2800160338</ele>
        <time>2019-01-12T15:08:55.999Z</time>
      </trkpt>
      <trkpt lat="41.61501" lon="1.81454">
        <ele>519.3587882186</ele>
        <time>2019-01-12T15:08:59.999Z</time>
      </trkpt>
      <trkpt lat="41.61491" lon="1.81459">
        <ele>517.43227933238</ele>
        <time>2019-01-12T15:09:04.010Z</time>
      </trkpt>
      <trkpt lat="41.6148" lon="1.81465">
        <ele>515.71157393442</ele>
        <time>2019-01-12T15:09:07.999Z</time>
      </trkpt>
      <trkpt lat="41.61472" lon="1.81471">
        <ele>514.46026924073</ele>
        <time>2019-01-12T15:09:10.999Z</time>
      </trkpt>
      <trkpt lat="41.61463" lon="1.81476">
        <ele>512.90099047619</ele>
        <time>2019-01-12T15:09:14.999Z</time>
      </trkpt>
      <trkpt lat="41.61454" lon="1.8148">
        <ele>512.30515809524</ele>
        <time>2019-01-12T15:09:18.002Z</time>
      </trkpt>
      <trkpt lat="41.61444" lon="1.81483">
        <ele>511.51150730159</ele>
        <time>2019-01-12T15:09:22.002Z</time>
      </trkpt>
      <trkpt lat="41.61435" lon="1.81489">
        <ele>510.51169290323</ele>
        <time>2019-01-12T15:09:27.002Z</time>
      </trkpt>
      <trkpt lat="41.61425" lon="1.81497">
        <ele>509.70584516129</ele>
        <time>2019-01-12T15:09:30.999Z</time>
      </trkpt>
      <trkpt lat="41.61415" lon="1.815">
        <ele>508.95059329863</ele>
        <time>2019-01-12T15:09:34.999Z</time>
      </trkpt>
      <trkpt lat="41.61406" lon="1.81507">
        <ele>508.55356416408</ele>
        <time>2019-01-12T15:09:39.009Z</time>
      </trkpt>
      <trkpt lat="41.61401" lon="1.81518">
        <ele>506.98305117191</ele>
        <time>2019-01-12T15:09:48.000Z</time>
      </trkpt>
      <trkpt lat="41.61408" lon="1.81525">
        <ele>503.50587206478</ele>
        <time>2019-01-12T15:10:02.011Z</time>
      </trkpt>
      <trkpt lat="41.61419" lon="1.81527">
        <ele>500.94669952</ele>
        <time>2019-01-12T15:10:18.011Z</time>
      </trkpt>
      <trkpt lat="41.61427" lon="1.81531">
        <ele>498.89779968</ele>
        <time>2019-01-12T15:10:25.011Z</time>
      </trkpt>
      <trkpt lat="41.61437" lon="1.81533">
        <ele>498.10059776</ele>
        <time>2019-01-12T15:10:28.997Z</time>
      </trkpt>
      <trkpt lat="41.61447" lon="1.81534">
        <ele>497.29779968</ele>
        <time>2019-01-12T15:10:33.011Z</time>
      </trkpt>
      <trkpt lat="41.61462" lon="1.81532">
        <ele>496.94955566478</ele>
        <time>2019-01-12T15:10:35.011Z</time>
      </trkpt>
      <trkpt lat="41.61464" lon="1.81546">
        <ele>496.06110635867</ele>
        <time>2019-01-12T15:10:44.011Z</time>
      </trkpt>
      <trkpt lat="41.6146" lon="1.81557">
        <ele>494.67264259953</ele>
        <time>2019-01-12T15:10:48.997Z</time>
      </trkpt>
      <trkpt lat="41.61466" lon="1.81567">
        <ele>492.89779968</ele>
        <time>2019-01-12T15:10:55.011Z</time>
      </trkpt>
      <trkpt lat="41.61476" lon="1.81575">
        <ele>491.5001984</ele>
        <time>2019-01-12T15:11:01.999Z</time>
      </trkpt>
      <trkpt lat="41.61486" lon="1.81579">
        <ele>485.8928</ele>
        <time>2019-01-12T15:11:13.012Z</time>
      </trkpt>
      <trkpt lat="41.61497" lon="1.8158">
        <ele>483.95505904762</ele>
        <time>2019-01-12T15:11:18.011Z</time>
      </trkpt>
      <trkpt lat="41.61505" lon="1.81586">
        <ele>482.76815238095</ele>
        <time>2019-01-12T15:11:21.999Z</time>
      </trkpt>
      <trkpt lat="41.61514" lon="1.81591">
        <ele>481.83091987105</ele>
        <time>2019-01-12T15:11:25.012Z</time>
      </trkpt>
      <trkpt lat="41.61524" lon="1.81596">
        <ele>479.87396892433</ele>
        <time>2019-01-12T15:11:30.012Z</time>
      </trkpt>
      <trkpt lat="41.61517" lon="1.81604">
        <ele>476.94985060246</ele>
        <time>2019-01-12T15:11:55.011Z</time>
      </trkpt>
      <trkpt lat="41.61523" lon="1.81613">
        <ele>476.6513405676</ele>
        <time>2019-01-12T15:12:38.011Z</time>
      </trkpt>
      <trkpt lat="41.61534" lon="1.81617">
        <ele>476.15481639569</ele>
        <time>2019-01-12T15:12:43.011Z</time>
      </trkpt>
      <trkpt lat="41.61542" lon="1.81623">
        <ele>475.41953721475</ele>
        <time>2019-01-12T15:12:46.011Z</time>
      </trkpt>
      <trkpt lat="41.61553" lon="1.81632">
        <ele>474.2167132219</ele>
        <time>2019-01-12T15:12:48.997Z</time>
      </trkpt>
      <trkpt lat="41.61561" lon="1.81639">
        <ele>473.00825361797</ele>
        <time>2019-01-12T15:12:51.997Z</time>
      </trkpt>
      <trkpt lat="41.61568" lon="1.81648">
        <ele>471.60239104</ele>
        <time>2019-01-12T15:12:54.997Z</time>
      </trkpt>
      <trkpt lat="41.61575" lon="1.81659">
        <ele>469.19038976</ele>
        <time>2019-01-12T15:12:58.012Z</time>
      </trkpt>
      <trkpt lat="41.6158" lon="1.81669">
        <ele>466.80239104</ele>
        <time>2019-01-12T15:13:00.997Z</time>
      </trkpt>
      <trkpt lat="41.61585" lon="1.81682">
        <ele>464.40239104</ele>
        <time>2019-01-12T15:13:03.997Z</time>
      </trkpt>
      <trkpt lat="41.61589" lon="1.81697">
        <ele>463.25089664</ele>
        <time>2019-01-12T15:13:06.997Z</time>
      </trkpt>
      <trkpt lat="41.61597" lon="1.81706">
        <ele>462.35089664</ele>
        <time>2019-01-12T15:13:09.997Z</time>
      </trkpt>
      <trkpt lat="41.61603" lon="1.81719">
        <ele>461.15089664</ele>
        <time>2019-01-12T15:13:13.997Z</time>
      </trkpt>
      <trkpt lat="41.61604" lon="1.81732">
        <ele>460.00537090034</ele>
        <time>2019-01-12T15:13:16.999Z</time>
      </trkpt>
      <trkpt lat="41.61603" lon="1.81746">
        <ele>458.41253787459</ele>
        <time>2019-01-12T15:13:21.001Z</time>
      </trkpt>
      <trkpt lat="41.616" lon="1.81758">
        <ele>456.90954829464</ele>
        <time>2019-01-12T15:13:25.000Z</time>
      </trkpt>
      <trkpt lat="41.61598" lon="1.81771">
        <ele>455.90472288295</ele>
        <time>2019-01-12T15:13:29.999Z</time>
      </trkpt>
      <trkpt lat="41.61594" lon="1.81783">
        <ele>455.10070200671</ele>
        <time>2019-01-12T15:13:33.999Z</time>
      </trkpt>
      <trkpt lat="41.61588" lon="1.81793">
        <ele>455.25010048</ele>
        <time>2019-01-12T15:13:37.001Z</time>
      </trkpt>
      <trkpt lat="41.6159" lon="1.81806">
        <ele>455.7499008</ele>
        <time>2019-01-12T15:13:41.999Z</time>
      </trkpt>
      <trkpt lat="41.61595" lon="1.81817">
        <ele>455.66222560794</ele>
        <time>2019-01-12T15:13:44.997Z</time>
      </trkpt>
      <trkpt lat="41.616" lon="1.81828">
        <ele>453.61319666753</ele>
        <time>2019-01-12T15:13:48.012Z</time>
      </trkpt>
      <trkpt lat="41.61608" lon="1.81838">
        <ele>451.58455823872</ele>
        <time>2019-01-12T15:13:50.997Z</time>
      </trkpt>
      <trkpt lat="41.61613" lon="1.81849">
        <ele>449.54572455411</ele>
        <time>2019-01-12T15:13:53.997Z</time>
      </trkpt>
      <trkpt lat="41.61616" lon="1.81861">
        <ele>448.09401804141</ele>
        <time>2019-01-12T15:13:56.997Z</time>
      </trkpt>
      <trkpt lat="41.61618" lon="1.81874">
        <ele>446.85690382311</ele>
        <time>2019-01-12T15:13:59.997Z</time>
      </trkpt>
      <trkpt lat="41.61619" lon="1.81888">
        <ele>445.61360865228</ele>
        <time>2019-01-12T15:14:03.012Z</time>
      </trkpt>
      <trkpt lat="41.61617" lon="1.81904">
        <ele>445</ele>
        <time>2019-01-12T15:14:06.999Z</time>
      </trkpt>
      <trkpt lat="41.61616" lon="1.81918">
        <ele>445</ele>
        <time>2019-01-12T15:14:10.999Z</time>
      </trkpt>
      <trkpt lat="41.61616" lon="1.81931">
        <ele>445.09822343308</ele>
        <time>2019-01-12T15:14:14.997Z</time>
      </trkpt>
      <trkpt lat="41.61619" lon="1.81943">
        <ele>446.08675909975</ele>
        <time>2019-01-12T15:14:19.999Z</time>
      </trkpt>
      <trkpt lat="41.61619" lon="1.81957">
        <ele>447.03797549529</ele>
        <time>2019-01-12T15:14:24.999Z</time>
      </trkpt>
      <trkpt lat="41.61615" lon="1.8197">
        <ele>447.53897782059</ele>
        <time>2019-01-12T15:14:29.999Z</time>
      </trkpt>
      <trkpt lat="41.6161" lon="1.81981">
        <ele>448.03921568627</ele>
        <time>2019-01-12T15:14:35.000Z</time>
      </trkpt>
      <trkpt lat="41.61605" lon="1.81993">
        <ele>448.52931388235</ele>
        <time>2019-01-12T15:14:39.999Z</time>
      </trkpt>
      <trkpt lat="41.61599" lon="1.82003">
        <ele>448.9214707451</ele>
        <time>2019-01-12T15:14:43.999Z</time>
      </trkpt>
      <trkpt lat="41.61594" lon="1.82013">
        <ele>449.3308247956</ele>
        <time>2019-01-12T15:14:48.009Z</time>
      </trkpt>
      <trkpt lat="41.61587" lon="1.82022">
        <ele>449.74216560308</ele>
        <time>2019-01-12T15:14:51.999Z</time>
      </trkpt>
      <trkpt lat="41.61579" lon="1.82031">
        <ele>450.25020032</ele>
        <time>2019-01-12T15:14:57.002Z</time>
      </trkpt>
      <trkpt lat="41.6157" lon="1.82039">
        <ele>450.7499008</ele>
        <time>2019-01-12T15:15:01.999Z</time>
      </trkpt>
      <trkpt lat="41.61561" lon="1.82048">
        <ele>451.25000064</ele>
        <time>2019-01-12T15:15:07.000Z</time>
      </trkpt>
      <trkpt lat="41.61555" lon="1.82059">
        <ele>451.7499008</ele>
        <time>2019-01-12T15:15:11.999Z</time>
      </trkpt>
      <trkpt lat="41.61552" lon="1.82071">
        <ele>452.24841017994</ele>
        <time>2019-01-12T15:15:16.999Z</time>
      </trkpt>
      <trkpt lat="41.6155" lon="1.82084">
        <ele>452.84582498874</ele>
        <time>2019-01-12T15:15:23.009Z</time>
      </trkpt>
      <trkpt lat="41.61542" lon="1.82094">
        <ele>453.54718361187</ele>
        <time>2019-01-12T15:15:29.999Z</time>
      </trkpt>
      <trkpt lat="41.61534" lon="1.82104">
        <ele>454.2998016</ele>
        <time>2019-01-12T15:15:35.999Z</time>
      </trkpt>
      <trkpt lat="41.61526" lon="1.82113">
        <ele>455.2998016</ele>
        <time>2019-01-12T15:15:40.999Z</time>
      </trkpt>
      <trkpt lat="41.61518" lon="1.82121">
        <ele>456</ele>
        <time>2019-01-12T15:15:45.999Z</time>
      </trkpt>
      <trkpt lat="41.61509" lon="1.82127">
        <ele>456</ele>
        <time>2019-01-12T15:15:49.997Z</time>
      </trkpt>
      <trkpt lat="41.615" lon="1.82131">
        <ele>456</ele>
        <time>2019-01-12T15:15:53.997Z</time>
      </trkpt>
      <trkpt lat="41.61491" lon="1.82135">
        <ele>456.4499008</ele>
        <time>2019-01-12T15:15:58.999Z</time>
      </trkpt>
      <trkpt lat="41.61481" lon="1.82137">
        <ele>456.94970112</ele>
        <time>2019-01-12T15:16:03.997Z</time>
      </trkpt>
      <trkpt lat="41.61472" lon="1.82139">
        <ele>457</ele>
        <time>2019-01-12T15:16:08.999Z</time>
      </trkpt>
      <trkpt lat="41.61463" lon="1.82138">
        <ele>457</ele>
        <time>2019-01-12T15:16:13.009Z</time>
      </trkpt>
      <trkpt lat="41.61454" lon="1.82136">
        <ele>456.7510458222</ele>
        <time>2019-01-12T15:16:16.997Z</time>
      </trkpt>
      <trkpt lat="41.61445" lon="1.82134">
        <ele>456.3522423602</ele>
        <time>2019-01-12T15:16:20.997Z</time>
      </trkpt>
      <trkpt lat="41.61435" lon="1.82131">
        <ele>455.90631732199</ele>
        <time>2019-01-12T15:16:24.997Z</time>
      </trkpt>
      <trkpt lat="41.61426" lon="1.82128">
        <ele>455.30250633581</ele>
        <time>2019-01-12T15:16:28.007Z</time>
      </trkpt>
      <trkpt lat="41.61417" lon="1.82135">
        <ele>454.29909642499</ele>
        <time>2019-01-12T15:16:33.009Z</time>
      </trkpt>
      <trkpt lat="41.61409" lon="1.82142">
        <ele>453.7500992</ele>
        <time>2019-01-12T15:16:36.999Z</time>
      </trkpt>
      <trkpt lat="41.61399" lon="1.82143">
        <ele>453.14889984</ele>
        <time>2019-01-12T15:16:43.011Z</time>
      </trkpt>
      <trkpt lat="41.6139" lon="1.82143">
        <ele>453.44726159876</ele>
        <time>2019-01-12T15:16:48.999Z</time>
      </trkpt>
      <trkpt lat="41.6138" lon="1.82139">
        <ele>454.28779522027</ele>
        <time>2019-01-12T15:16:56.001Z</time>
      </trkpt>
      <trkpt lat="41.6137" lon="1.82137">
        <ele>455.48488293375</ele>
        <time>2019-01-12T15:17:01.999Z</time>
      </trkpt>
      <trkpt lat="41.61361" lon="1.82137">
        <ele>456</ele>
        <time>2019-01-12T15:17:07.999Z</time>
      </trkpt>
      <trkpt lat="41.61351" lon="1.82139">
        <ele>456</ele>
        <time>2019-01-12T15:17:12.999Z</time>
      </trkpt>
      <trkpt lat="41.61342" lon="1.82143">
        <ele>456.3499008</ele>
        <time>2019-01-12T15:17:17.999Z</time>
      </trkpt>
      <trkpt lat="41.61339" lon="1.82155">
        <ele>456.8499008</ele>
        <time>2019-01-12T15:17:22.999Z</time>
      </trkpt>
      <trkpt lat="41.6134" lon="1.82167">
        <ele>457</ele>
        <time>2019-01-12T15:17:26.999Z</time>
      </trkpt>
      <trkpt lat="41.61342" lon="1.8218">
        <ele>457</ele>
        <time>2019-01-12T15:17:31.999Z</time>
      </trkpt>
      <trkpt lat="41.61343" lon="1.82194">
        <ele>457.34465806452</ele>
        <time>2019-01-12T15:17:37.999Z</time>
      </trkpt>
      <trkpt lat="41.61344" lon="1.82207">
        <ele>457.84869032258</ele>
        <time>2019-01-12T15:17:42.999Z</time>
      </trkpt>
      <trkpt lat="41.61344" lon="1.82222">
        <ele>458.84213591954</ele>
        <time>2019-01-12T15:17:48.997Z</time>
      </trkpt>
      <trkpt lat="41.61344" lon="1.82236">
        <ele>459.7788383175</ele>
        <time>2019-01-12T15:17:53.999Z</time>
      </trkpt>
      <trkpt lat="41.6134" lon="1.82248">
        <ele>461.55536694299</ele>
        <time>2019-01-12T15:18:00.012Z</time>
      </trkpt>
      <trkpt lat="41.61336" lon="1.8226">
        <ele>463.0512</ele>
        <time>2019-01-12T15:18:05.012Z</time>
      </trkpt>
      <trkpt lat="41.61331" lon="1.8227">
        <ele>463.55140096</ele>
        <time>2019-01-12T15:18:10.014Z</time>
      </trkpt>
      <trkpt lat="41.61324" lon="1.82281">
        <ele>464.14930826965</ele>
        <time>2019-01-12T15:18:16.011Z</time>
      </trkpt>
      <trkpt lat="41.61319" lon="1.82292">
        <ele>464.54486191954</ele>
        <time>2019-01-12T15:18:20.014Z</time>
      </trkpt>
      <trkpt lat="41.61314" lon="1.82303">
        <ele>465.07871239031</ele>
        <time>2019-01-12T15:18:25.012Z</time>
      </trkpt>
      <trkpt lat="41.61312" lon="1.82316">
        <ele>466.481727848</ele>
        <time>2019-01-12T15:18:31.999Z</time>
      </trkpt>
      <trkpt lat="41.61316" lon="1.82328">
        <ele>467</ele>
        <time>2019-01-12T15:18:39.001Z</time>
      </trkpt>
      <trkpt lat="41.61323" lon="1.82336">
        <ele>467</ele>
        <time>2019-01-12T15:18:51.002Z</time>
      </trkpt>
      <trkpt lat="41.61332" lon="1.82342">
        <ele>466.09959936</ele>
        <time>2019-01-12T15:18:59.002Z</time>
      </trkpt>
      <trkpt lat="41.61337" lon="1.82353">
        <ele>465</ele>
        <time>2019-01-12T15:19:10.999Z</time>
      </trkpt>
      <trkpt lat="41.61341" lon="1.82365">
        <ele>465</ele>
        <time>2019-01-12T15:19:17.999Z</time>
      </trkpt>
      <trkpt lat="41.61338" lon="1.82377">
        <ele>464.94859904</ele>
        <time>2019-01-12T15:19:25.014Z</time>
      </trkpt>
      <trkpt lat="41.6133" lon="1.82384">
        <ele>464</ele>
        <time>2019-01-12T15:19:36.999Z</time>
      </trkpt>
      <trkpt lat="41.61339" lon="1.8238">
        <ele>464</ele>
        <time>2019-01-12T15:20:15.012Z</time>
      </trkpt>
      <trkpt lat="41.61347" lon="1.82385">
        <ele>463.64979968</ele>
        <time>2019-01-12T15:20:28.002Z</time>
      </trkpt>
      <trkpt lat="41.61357" lon="1.82384">
        <ele>462.84994987417</ele>
        <time>2019-01-12T15:20:36.002Z</time>
      </trkpt>
      <trkpt lat="41.61365" lon="1.82393">
        <ele>461</ele>
        <time>2019-01-12T15:21:17.000Z</time>
      </trkpt>
      <trkpt lat="41.61374" lon="1.82394">
        <ele>461</ele>
        <time>2019-01-12T15:21:23.999Z</time>
      </trkpt>
      <trkpt lat="41.61383" lon="1.82394">
        <ele>460.55150592965</ele>
        <time>2019-01-12T15:21:39.007Z</time>
      </trkpt>
      <trkpt lat="41.61393" lon="1.82396">
        <ele>460</ele>
        <time>2019-01-12T15:21:44.999Z</time>
      </trkpt>
      <trkpt lat="41.61403" lon="1.82399">
        <ele>460</ele>
        <time>2019-01-12T15:21:49.010Z</time>
      </trkpt>
      <trkpt lat="41.61411" lon="1.82403">
        <ele>460</ele>
        <time>2019-01-12T15:21:53.002Z</time>
      </trkpt>
      <trkpt lat="41.61421" lon="1.82403">
        <ele>458.60099842462</ele>
        <time>2019-01-12T15:21:58.001Z</time>
      </trkpt>
      <trkpt lat="41.6143" lon="1.82407">
        <ele>456.60379626409</ele>
        <time>2019-01-12T15:22:02.999Z</time>
      </trkpt>
      <trkpt lat="41.61438" lon="1.82417">
        <ele>455.65567610051</ele>
        <time>2019-01-12T15:22:07.998Z</time>
      </trkpt>
      <trkpt lat="41.61447" lon="1.82422">
        <ele>455.16179685269</ele>
        <time>2019-01-12T15:22:13.001Z</time>
      </trkpt>
      <trkpt lat="41.61457" lon="1.82425">
        <ele>453.97707941717</ele>
        <time>2019-01-12T15:22:18.002Z</time>
      </trkpt>
      <trkpt lat="41.61466" lon="1.82426">
        <ele>452.76004008765</ele>
        <time>2019-01-12T15:22:22.002Z</time>
      </trkpt>
      <trkpt lat="41.61473" lon="1.82433">
        <ele>451.42063575332</ele>
        <time>2019-01-12T15:22:26.002Z</time>
      </trkpt>
      <trkpt lat="41.61481" lon="1.8244">
        <ele>448.3313431841</ele>
        <time>2019-01-12T15:22:34.011Z</time>
      </trkpt>
      <trkpt lat="41.61489" lon="1.82449">
        <ele>442.92174106616</ele>
        <time>2019-01-12T15:22:41.002Z</time>
      </trkpt>
      <trkpt lat="41.61497" lon="1.82455">
        <ele>439.90551619836</ele>
        <time>2019-01-12T15:22:45.001Z</time>
      </trkpt>
      <trkpt lat="41.61506" lon="1.82459">
        <ele>438.90290741116</ele>
        <time>2019-01-12T15:22:49.999Z</time>
      </trkpt>
      <trkpt lat="41.61518" lon="1.82463">
        <ele>437.25024807169</ele>
        <time>2019-01-12T15:22:56.001Z</time>
      </trkpt>
      <trkpt lat="41.61528" lon="1.8247">
        <ele>434.75274796939</ele>
        <time>2019-01-12T15:23:01.001Z</time>
      </trkpt>
      <trkpt lat="41.61539" lon="1.82468">
        <ele>432.69950081233</ele>
        <time>2019-01-12T15:23:06.011Z</time>
      </trkpt>
      <trkpt lat="41.61549" lon="1.82463">
        <ele>431.69849884941</ele>
        <time>2019-01-12T15:23:11.011Z</time>
      </trkpt>
      <trkpt lat="41.61559" lon="1.82465">
        <ele>430.85069173035</ele>
        <time>2019-01-12T15:23:16.011Z</time>
      </trkpt>
      <trkpt lat="41.61569" lon="1.82464">
        <ele>430.45543531328</ele>
        <time>2019-01-12T15:23:20.011Z</time>
      </trkpt>
      <trkpt lat="41.61579" lon="1.82466">
        <ele>430.06017889622</ele>
        <time>2019-01-12T15:23:24.011Z</time>
      </trkpt>
      <trkpt lat="41.61588" lon="1.82468">
        <ele>428.50384648272</ele>
        <time>2019-01-12T15:23:32.011Z</time>
      </trkpt>
      <trkpt lat="41.61598" lon="1.82467">
        <ele>426.3532884739</ele>
        <time>2019-01-12T15:23:40.011Z</time>
      </trkpt>
      <trkpt lat="41.61607" lon="1.82468">
        <ele>424.85954599414</ele>
        <time>2019-01-12T15:23:45.011Z</time>
      </trkpt>
      <trkpt lat="41.61617" lon="1.82468">
        <ele>423.36849136763</ele>
        <time>2019-01-12T15:23:50.011Z</time>
      </trkpt>
      <trkpt lat="41.61626" lon="1.82474">
        <ele>421.79263619209</ele>
        <time>2019-01-12T15:23:55.011Z</time>
      </trkpt>
      <trkpt lat="41.61637" lon="1.8248">
        <ele>419.26993266763</ele>
        <time>2019-01-12T15:24:00.011Z</time>
      </trkpt>
      <trkpt lat="41.61647" lon="1.82482">
        <ele>416.853938147</ele>
        <time>2019-01-12T15:24:05.011Z</time>
      </trkpt>
      <trkpt lat="41.61656" lon="1.82482">
        <ele>415.39621174615</ele>
        <time>2019-01-12T15:24:10.011Z</time>
      </trkpt>
      <trkpt lat="41.61665" lon="1.82483">
        <ele>413.87567101075</ele>
        <time>2019-01-12T15:24:15.001Z</time>
      </trkpt>
      <trkpt lat="41.61677" lon="1.82485">
        <ele>410.78350303241</ele>
        <time>2019-01-12T15:24:20.000Z</time>
      </trkpt>
      <trkpt lat="41.61687" lon="1.82485">
        <ele>407.85019904</ele>
        <time>2019-01-12T15:24:25.998Z</time>
      </trkpt>
      <trkpt lat="41.61696" lon="1.82486">
        <ele>407.35029888</ele>
        <time>2019-01-12T15:24:30.997Z</time>
      </trkpt>
      <trkpt lat="41.61707" lon="1.8249">
        <ele>406.84939904</ele>
        <time>2019-01-12T15:24:35.002Z</time>
      </trkpt>
      <trkpt lat="41.61717" lon="1.82492">
        <ele>405.64939904</ele>
        <time>2019-01-12T15:24:39.002Z</time>
      </trkpt>
      <trkpt lat="41.61726" lon="1.82497">
        <ele>404.44969856</ele>
        <time>2019-01-12T15:24:43.001Z</time>
      </trkpt>
      <trkpt lat="41.61733" lon="1.82505">
        <ele>403.75197628209</ele>
        <time>2019-01-12T15:24:47.010Z</time>
      </trkpt>
      <trkpt lat="41.61742" lon="1.82513">
        <ele>403.25770718393</ele>
        <time>2019-01-12T15:24:52.012Z</time>
      </trkpt>
      <trkpt lat="41.6175" lon="1.8252">
        <ele>402.30727484404</ele>
        <time>2019-01-12T15:24:55.997Z</time>
      </trkpt>
      <trkpt lat="41.6176" lon="1.82524">
        <ele>399.28182293518</ele>
        <time>2019-01-12T15:25:02.011Z</time>
      </trkpt>
      <trkpt lat="41.61769" lon="1.82524">
        <ele>397.56483312732</ele>
        <time>2019-01-12T15:25:06.001Z</time>
      </trkpt>
      <trkpt lat="41.61774" lon="1.82535">
        <ele>395.75233699011</ele>
        <time>2019-01-12T15:25:12.007Z</time>
      </trkpt>
      <trkpt lat="41.61777" lon="1.82548">
        <ele>394.4976</ele>
        <time>2019-01-12T15:25:17.012Z</time>
      </trkpt>
      <trkpt lat="41.61781" lon="1.82559">
        <ele>393.69959936</ele>
        <time>2019-01-12T15:25:21.002Z</time>
      </trkpt>
      <trkpt lat="41.61787" lon="1.82571">
        <ele>392.84979968</ele>
        <time>2019-01-12T15:25:26.002Z</time>
      </trkpt>
      <trkpt lat="41.61792" lon="1.82582">
        <ele>392.2492992</ele>
        <time>2019-01-12T15:25:32.007Z</time>
      </trkpt>
      <trkpt lat="41.618" lon="1.82592">
        <ele>391.24669952</ele>
        <time>2019-01-12T15:25:37.011Z</time>
      </trkpt>
      <trkpt lat="41.61809" lon="1.82598">
        <ele>390.05059712</ele>
        <time>2019-01-12T15:25:40.998Z</time>
      </trkpt>
      <trkpt lat="41.61818" lon="1.82604">
        <ele>388.9001984</ele>
        <time>2019-01-12T15:25:44.999Z</time>
      </trkpt>
      <trkpt lat="41.61825" lon="1.82613">
        <ele>387.29959936</ele>
        <time>2019-01-12T15:25:53.002Z</time>
      </trkpt>
      <trkpt lat="41.61834" lon="1.82617">
        <ele>384.40956378064</ele>
        <time>2019-01-12T15:26:01.002Z</time>
      </trkpt>
      <trkpt lat="41.6184" lon="1.82625">
        <ele>381.97515292922</ele>
        <time>2019-01-12T15:26:06.001Z</time>
      </trkpt>
      <trkpt lat="41.61845" lon="1.82638">
        <ele>378.47058717896</ele>
        <time>2019-01-12T15:26:10.997Z</time>
      </trkpt>
      <trkpt lat="41.61851" lon="1.82648">
        <ele>375.51502920183</ele>
        <time>2019-01-12T15:26:17.012Z</time>
      </trkpt>
      <trkpt lat="41.61859" lon="1.82655">
        <ele>374.15582113115</ele>
        <time>2019-01-12T15:26:23.999Z</time>
      </trkpt>
      <trkpt lat="41.61868" lon="1.82662">
        <ele>370.21303513611</ele>
        <time>2019-01-12T15:26:30.998Z</time>
      </trkpt>
      <trkpt lat="41.61876" lon="1.82672">
        <ele>367.86022330069</ele>
        <time>2019-01-12T15:26:36.001Z</time>
      </trkpt>
      <trkpt lat="41.61885" lon="1.82679">
        <ele>367.35414977056</ele>
        <time>2019-01-12T15:26:41.001Z</time>
      </trkpt>
      <trkpt lat="41.61894" lon="1.82683">
        <ele>366.51223331279</ele>
        <time>2019-01-12T15:26:47.012Z</time>
      </trkpt>
      <trkpt lat="41.61903" lon="1.82689">
        <ele>365.15495198139</ele>
        <time>2019-01-12T15:26:54.002Z</time>
      </trkpt>
      <trkpt lat="41.61912" lon="1.82695">
        <ele>362.8362536482</ele>
        <time>2019-01-12T15:26:59.002Z</time>
      </trkpt>
      <trkpt lat="41.61922" lon="1.827">
        <ele>359.90150268813</ele>
        <time>2019-01-12T15:27:05.002Z</time>
      </trkpt>
      <trkpt lat="41.61929" lon="1.82708">
        <ele>358.90070060528</ele>
        <time>2019-01-12T15:27:10.001Z</time>
      </trkpt>
      <trkpt lat="41.61938" lon="1.82714">
        <ele>357.85378556658</ele>
        <time>2019-01-12T15:27:15.002Z</time>
      </trkpt>
      <trkpt lat="41.61947" lon="1.82719">
        <ele>356.68931933867</ele>
        <time>2019-01-12T15:27:19.000Z</time>
      </trkpt>
      <trkpt lat="41.61956" lon="1.82725">
        <ele>355.23242797208</ele>
        <time>2019-01-12T15:27:24.002Z</time>
      </trkpt>
      <trkpt lat="41.61964" lon="1.82732">
        <ele>354.33999989443</ele>
        <time>2019-01-12T15:27:28.001Z</time>
      </trkpt>
      <trkpt lat="41.61973" lon="1.82742">
        <ele>353.30886552338</ele>
        <time>2019-01-12T15:27:33.002Z</time>
      </trkpt>
      <trkpt lat="41.61979" lon="1.82752">
        <ele>351.89959936</ele>
        <time>2019-01-12T15:27:40.002Z</time>
      </trkpt>
      <trkpt lat="41.61987" lon="1.8276">
        <ele>350.09939712</ele>
        <time>2019-01-12T15:27:46.001Z</time>
      </trkpt>
      <trkpt lat="41.61997" lon="1.82764">
        <ele>347.10179328</ele>
        <time>2019-01-12T15:27:50.997Z</time>
      </trkpt>
      <trkpt lat="41.62005" lon="1.8277">
        <ele>344.74935041021</ele>
        <time>2019-01-12T15:27:57.009Z</time>
      </trkpt>
      <trkpt lat="41.62009" lon="1.82782">
        <ele>344.15074958569</ele>
        <time>2019-01-12T15:28:03.001Z</time>
      </trkpt>
      <trkpt lat="41.62015" lon="1.82793">
        <ele>342.95894709118</ele>
        <time>2019-01-12T15:28:08.001Z</time>
      </trkpt>
      <trkpt lat="41.62021" lon="1.82803">
        <ele>341.7628206841</ele>
        <time>2019-01-12T15:28:12.012Z</time>
      </trkpt>
      <trkpt lat="41.62027" lon="1.82813">
        <ele>340.30896219423</ele>
        <time>2019-01-12T15:28:18.001Z</time>
      </trkpt>
      <trkpt lat="41.62034" lon="1.82822">
        <ele>339</ele>
        <time>2019-01-12T15:28:29.998Z</time>
      </trkpt>
      <trkpt lat="41.62038" lon="1.82834">
        <ele>339</ele>
        <time>2019-01-12T15:28:43.001Z</time>
      </trkpt>
      <trkpt lat="41.62041" lon="1.82846">
        <ele>337.04969856</ele>
        <time>2019-01-12T15:28:51.001Z</time>
      </trkpt>
      <trkpt lat="41.62049" lon="1.82856">
        <ele>335.55014884301</ele>
        <time>2019-01-12T15:28:56.001Z</time>
      </trkpt>
      <trkpt lat="41.6206" lon="1.82859">
        <ele>334.05164878164</ele>
        <time>2019-01-12T15:29:01.001Z</time>
      </trkpt>
      <trkpt lat="41.62069" lon="1.82866">
        <ele>333</ele>
        <time>2019-01-12T15:29:06.001Z</time>
      </trkpt>
      <trkpt lat="41.62077" lon="1.82872">
        <ele>333</ele>
        <time>2019-01-12T15:29:10.001Z</time>
      </trkpt>
      <trkpt lat="41.62084" lon="1.8288">
        <ele>333</ele>
        <time>2019-01-12T15:29:14.001Z</time>
      </trkpt>
      <trkpt lat="41.62092" lon="1.82889">
        <ele>332.10090099786</ele>
        <time>2019-01-12T15:29:19.001Z</time>
      </trkpt>
      <trkpt lat="41.62101" lon="1.82891">
        <ele>329.51120030649</ele>
        <time>2019-01-12T15:29:32.011Z</time>
      </trkpt>
      <trkpt lat="41.62105" lon="1.82904">
        <ele>326.44071884437</ele>
        <time>2019-01-12T15:29:41.001Z</time>
      </trkpt>
      <trkpt lat="41.62105" lon="1.82918">
        <ele>324.43821830155</ele>
        <time>2019-01-12T15:29:45.999Z</time>
      </trkpt>
      <trkpt lat="41.6211" lon="1.82929">
        <ele>322.00748068998</ele>
        <time>2019-01-12T15:29:52.009Z</time>
      </trkpt>
      <trkpt lat="41.62117" lon="1.82937">
        <ele>319.99740164085</ele>
        <time>2019-01-12T15:29:57.009Z</time>
      </trkpt>
      <trkpt lat="41.62125" lon="1.82945">
        <ele>317.9986036377</ele>
        <time>2019-01-12T15:30:02.011Z</time>
      </trkpt>
      <trkpt lat="41.62129" lon="1.82957">
        <ele>316.55270144</ele>
        <time>2019-01-12T15:30:06.001Z</time>
      </trkpt>
      <trkpt lat="41.62131" lon="1.82969">
        <ele>314.15330048</ele>
        <time>2019-01-12T15:30:13.999Z</time>
      </trkpt>
      <trkpt lat="41.62136" lon="1.82981">
        <ele>311.40619489509</ele>
        <time>2019-01-12T15:30:21.001Z</time>
      </trkpt>
      <trkpt lat="41.62145" lon="1.82985">
        <ele>309.55702953315</ele>
        <time>2019-01-12T15:30:26.001Z</time>
      </trkpt>
      <trkpt lat="41.62154" lon="1.82991">
        <ele>307.46331135767</ele>
        <time>2019-01-12T15:30:33.001Z</time>
      </trkpt>
      <trkpt lat="41.62158" lon="1.83003">
        <ele>306.30633195385</ele>
        <time>2019-01-12T15:30:38.001Z</time>
      </trkpt>
      <trkpt lat="41.62164" lon="1.83014">
        <ele>305.50030166863</ele>
        <time>2019-01-12T15:30:42.011Z</time>
      </trkpt>
      <trkpt lat="41.62168" lon="1.83025">
        <ele>303.3001984</ele>
        <time>2019-01-12T15:30:52.999Z</time>
      </trkpt>
      <trkpt lat="41.62173" lon="1.83035">
        <ele>301.30149917139</ele>
        <time>2019-01-12T15:31:03.001Z</time>
      </trkpt>
      <trkpt lat="41.62175" lon="1.83048">
        <ele>301.45480678234</ele>
        <time>2019-01-12T15:31:40.001Z</time>
      </trkpt>
      <trkpt lat="41.62173" lon="1.83061">
        <ele>300.65600386455</ele>
        <time>2019-01-12T15:31:47.999Z</time>
      </trkpt>
      <trkpt lat="41.62168" lon="1.83074">
        <ele>300.15156325479</ele>
        <time>2019-01-12T15:31:52.998Z</time>
      </trkpt>
      <trkpt lat="41.62169" lon="1.83086">
        <ele>298.99439616</ele>
        <time>2019-01-12T15:31:57.014Z</time>
      </trkpt>
      <trkpt lat="41.62168" lon="1.83101">
        <ele>297.40079616</ele>
        <time>2019-01-12T15:32:00.998Z</time>
      </trkpt>
      <trkpt lat="41.62165" lon="1.83113">
        <ele>295.85089542458</ele>
        <time>2019-01-12T15:32:04.998Z</time>
      </trkpt>
      <trkpt lat="41.62155" lon="1.83114">
        <ele>294.05448938635</ele>
        <time>2019-01-12T15:32:10.998Z</time>
      </trkpt>
      <trkpt lat="41.62146" lon="1.83113">
        <ele>291.95330690392</ele>
        <time>2019-01-12T15:32:18.002Z</time>
      </trkpt>
      <trkpt lat="41.62136" lon="1.83113">
        <ele>290.1508990146</ele>
        <time>2019-01-12T15:32:23.998Z</time>
      </trkpt>
      <trkpt lat="41.62131" lon="1.83124">
        <ele>288.64155051399</ele>
        <time>2019-01-12T15:32:27.998Z</time>
      </trkpt>
      <trkpt lat="41.62123" lon="1.8313">
        <ele>286.31145487444</ele>
        <time>2019-01-12T15:32:33.998Z</time>
      </trkpt>
      <trkpt lat="41.62113" lon="1.8313">
        <ele>284.39236908362</ele>
        <time>2019-01-12T15:32:39.998Z</time>
      </trkpt>
      <trkpt lat="41.62102" lon="1.83131">
        <ele>282.85059712</ele>
        <time>2019-01-12T15:32:44.998Z</time>
      </trkpt>
      <trkpt lat="41.62097" lon="1.83142">
        <ele>280.74579712</ele>
        <time>2019-01-12T15:32:52.014Z</time>
      </trkpt>
      <trkpt lat="41.62093" lon="1.83155">
        <ele>279.75039761406</ele>
        <time>2019-01-12T15:32:57.011Z</time>
      </trkpt>
      <trkpt lat="41.62086" lon="1.83146">
        <ele>276.40402440501</ele>
        <time>2019-01-12T15:33:11.011Z</time>
      </trkpt>
      <trkpt lat="41.62083" lon="1.83159">
        <ele>273.36630593985</ele>
        <time>2019-01-12T15:33:20.011Z</time>
      </trkpt>
      <trkpt lat="41.62081" lon="1.83171">
        <ele>271.51599354299</ele>
        <time>2019-01-12T15:33:27.011Z</time>
      </trkpt>
      <trkpt lat="41.62078" lon="1.83185">
        <ele>270.50384648272</ele>
        <time>2019-01-12T15:33:32.011Z</time>
      </trkpt>
      <trkpt lat="41.62072" lon="1.83195">
        <ele>269.5525353528</ele>
        <time>2019-01-12T15:33:35.999Z</time>
      </trkpt>
      <trkpt lat="41.62064" lon="1.83189">
        <ele>268.06029749464</ele>
        <time>2019-01-12T15:33:40.998Z</time>
      </trkpt>
      <trkpt lat="41.62064" lon="1.83176">
        <ele>265.76984805935</ele>
        <time>2019-01-12T15:33:46.998Z</time>
      </trkpt>
      <trkpt lat="41.62064" lon="1.83163">
        <ele>263.2572828211</ele>
        <time>2019-01-12T15:33:51.998Z</time>
      </trkpt>
      <trkpt lat="41.62055" lon="1.8317">
        <ele>259.00079616</ele>
        <time>2019-01-12T15:34:01.998Z</time>
      </trkpt>
      <trkpt lat="41.6205" lon="1.83182">
        <ele>257.50039808</ele>
        <time>2019-01-12T15:34:06.998Z</time>
      </trkpt>
      <trkpt lat="41.62048" lon="1.83194">
        <ele>256.29719808</ele>
        <time>2019-01-12T15:34:13.014Z</time>
      </trkpt>
      <trkpt lat="41.62053" lon="1.83207">
        <ele>255.30544006158</ele>
        <time>2019-01-12T15:34:18.011Z</time>
      </trkpt>
      <trkpt lat="41.62055" lon="1.83222">
        <ele>254.31592314432</ele>
        <time>2019-01-12T15:34:23.013Z</time>
      </trkpt>
      <trkpt lat="41.62053" lon="1.83235">
        <ele>252.66804761757</ele>
        <time>2019-01-12T15:34:29.001Z</time>
      </trkpt>
      <trkpt lat="41.62053" lon="1.83249">
        <ele>250.29819904</ele>
        <time>2019-01-12T15:34:38.009Z</time>
      </trkpt>
      <trkpt lat="41.62048" lon="1.8326">
        <ele>248.8003968</ele>
        <time>2019-01-12T15:34:44.999Z</time>
      </trkpt>
      <trkpt lat="41.62045" lon="1.83272">
        <ele>244.89979904</ele>
        <time>2019-01-12T15:34:55.001Z</time>
      </trkpt>
      <trkpt lat="41.62041" lon="1.83284">
        <ele>243.5001984</ele>
        <time>2019-01-12T15:35:01.999Z</time>
      </trkpt>
      <trkpt lat="41.62032" lon="1.83281">
        <ele>242.35214281886</ele>
        <time>2019-01-12T15:35:10.998Z</time>
      </trkpt>
      <trkpt lat="41.62025" lon="1.83288">
        <ele>239.81020898972</ele>
        <time>2019-01-12T15:35:19.999Z</time>
      </trkpt>
      <trkpt lat="41.62022" lon="1.833">
        <ele>237.90380755354</ele>
        <time>2019-01-12T15:35:25.000Z</time>
      </trkpt>
      <trkpt lat="41.62023" lon="1.83313">
        <ele>236.50120112301</ele>
        <time>2019-01-12T15:35:31.999Z</time>
      </trkpt>
      <trkpt lat="41.62026" lon="1.83326">
        <ele>235.55435624278</ele>
        <time>2019-01-12T15:35:39.001Z</time>
      </trkpt>
      <trkpt lat="41.62029" lon="1.83338">
        <ele>234.57545475585</ele>
        <time>2019-01-12T15:35:46.001Z</time>
      </trkpt>
      <trkpt lat="41.62032" lon="1.83352">
        <ele>233.05727292591</ele>
        <time>2019-01-12T15:35:51.011Z</time>
      </trkpt>
      <trkpt lat="41.62033" lon="1.83364">
        <ele>231.79762884568</ele>
        <time>2019-01-12T15:35:55.013Z</time>
      </trkpt>
      <trkpt lat="41.62035" lon="1.83376">
        <ele>228.25285916979</ele>
        <time>2019-01-12T15:36:03.999Z</time>
      </trkpt>
      <trkpt lat="41.62034" lon="1.8339">
        <ele>226.90993779144</ele>
        <time>2019-01-12T15:36:10.014Z</time>
      </trkpt>
      <trkpt lat="41.62035" lon="1.83403">
        <ele>226</ele>
        <time>2019-01-12T15:36:17.999Z</time>
      </trkpt>
      <trkpt lat="41.62036" lon="1.83415">
        <ele>226.24252505319</ele>
        <time>2019-01-12T15:36:26.998Z</time>
      </trkpt>
      <trkpt lat="41.62034" lon="1.8343">
        <ele>226.92242707733</ele>
        <time>2019-01-12T15:36:34.001Z</time>
      </trkpt>
      <trkpt lat="41.62035" lon="1.83443">
        <ele>227.43066668942</ele>
        <time>2019-01-12T15:36:38.999Z</time>
      </trkpt>
      <trkpt lat="41.62038" lon="1.83454">
        <ele>228</ele>
        <time>2019-01-12T15:36:45.999Z</time>
      </trkpt>
      <trkpt lat="41.62038" lon="1.83467">
        <ele>228.0649404878</ele>
        <time>2019-01-12T15:36:55.013Z</time>
      </trkpt>
      <trkpt lat="41.62039" lon="1.83481">
        <ele>231</ele>
        <time>2019-01-12T15:37:05.014Z</time>
      </trkpt>
      <trkpt lat="41.6204" lon="1.83494">
        <ele>231</ele>
        <time>2019-01-12T15:37:08.998Z</time>
      </trkpt>
      <trkpt lat="41.62043" lon="1.83508">
        <ele>230.7001984</ele>
        <time>2019-01-12T15:37:15.999Z</time>
      </trkpt>
      <trkpt lat="41.62047" lon="1.8352">
        <ele>229.69979904</ele>
        <time>2019-01-12T15:37:21.001Z</time>
      </trkpt>
      <trkpt lat="41.62047" lon="1.83534">
        <ele>228.84579712</ele>
        <time>2019-01-12T15:37:25.014Z</time>
      </trkpt>
      <trkpt lat="41.62047" lon="1.83547">
        <ele>227.6502976</ele>
        <time>2019-01-12T15:37:28.999Z</time>
      </trkpt>
      <trkpt lat="41.62043" lon="1.83559">
        <ele>226.4502976</ele>
        <time>2019-01-12T15:37:32.999Z</time>
      </trkpt>
      <trkpt lat="41.62037" lon="1.83569">
        <ele>224.50418682367</ele>
        <time>2019-01-12T15:37:36.998Z</time>
      </trkpt>
      <trkpt lat="41.62029" lon="1.83577">
        <ele>222.10897877271</ele>
        <time>2019-01-12T15:37:40.998Z</time>
      </trkpt>
      <trkpt lat="41.62022" lon="1.83588">
        <ele>220</ele>
        <time>2019-01-12T15:37:45.012Z</time>
      </trkpt>
      <trkpt lat="41.62017" lon="1.836">
        <ele>220</ele>
        <time>2019-01-12T15:37:48.998Z</time>
      </trkpt>
      <trkpt lat="41.62012" lon="1.83612">
        <ele>220</ele>
        <time>2019-01-12T15:37:53.001Z</time>
      </trkpt>
      <trkpt lat="41.62008" lon="1.83626">
        <ele>218.60319131133</ele>
        <time>2019-01-12T15:37:57.999Z</time>
      </trkpt>
      <trkpt lat="41.62004" lon="1.83637">
        <ele>217.00638594402</ele>
        <time>2019-01-12T15:38:01.999Z</time>
      </trkpt>
      <trkpt lat="41.62002" lon="1.8365">
        <ele>215.70320654314</ele>
        <time>2019-01-12T15:38:06.001Z</time>
      </trkpt>
      <trkpt lat="41.61996" lon="1.83661">
        <ele>214.90019969552</ele>
        <time>2019-01-12T15:38:10.008Z</time>
      </trkpt>
      <trkpt lat="41.61992" lon="1.83675">
        <ele>213.94869888</ele>
        <time>2019-01-12T15:38:15.013Z</time>
      </trkpt>
      <trkpt lat="41.61988" lon="1.83686">
        <ele>213.5500992</ele>
        <time>2019-01-12T15:38:18.999Z</time>
      </trkpt>
      <trkpt lat="41.61983" lon="1.83697">
        <ele>213.15029888</ele>
        <time>2019-01-12T15:38:22.997Z</time>
      </trkpt>
      <trkpt lat="41.61979" lon="1.83709">
        <ele>212.70039808</ele>
        <time>2019-01-12T15:38:25.998Z</time>
      </trkpt>
      <trkpt lat="41.61974" lon="1.8372">
        <ele>212.10039808</ele>
        <time>2019-01-12T15:38:28.998Z</time>
      </trkpt>
      <trkpt lat="41.61971" lon="1.83734">
        <ele>211.3001984</ele>
        <time>2019-01-12T15:38:32.999Z</time>
      </trkpt>
      <trkpt lat="41.61967" lon="1.83745">
        <ele>210.55149441821</ele>
        <time>2019-01-12T15:38:35.998Z</time>
      </trkpt>
      <trkpt lat="41.61965" lon="1.8376">
        <ele>209.05448938635</ele>
        <time>2019-01-12T15:38:40.998Z</time>
      </trkpt>
      <trkpt lat="41.61966" lon="1.83775">
        <ele>207.95283426024</ele>
        <time>2019-01-12T15:38:45.011Z</time>
      </trkpt>
      <trkpt lat="41.61966" lon="1.83788">
        <ele>207.56983625586</ele>
        <time>2019-01-12T15:38:48.998Z</time>
      </trkpt>
      <trkpt lat="41.61971" lon="1.83801">
        <ele>207.08924098805</ele>
        <time>2019-01-12T15:38:54.001Z</time>
      </trkpt>
      <trkpt lat="41.61973" lon="1.83814">
        <ele>205.93792867308</ele>
        <time>2019-01-12T15:39:00.012Z</time>
      </trkpt>
      <trkpt lat="41.61973" lon="1.83826">
        <ele>205.10490920958</ele>
        <time>2019-01-12T15:39:03.998Z</time>
      </trkpt>
      <trkpt lat="41.61971" lon="1.83839">
        <ele>205</ele>
        <time>2019-01-12T15:39:07.998Z</time>
      </trkpt>
      <trkpt lat="41.61967" lon="1.8385">
        <ele>205</ele>
        <time>2019-01-12T15:39:10.999Z</time>
      </trkpt>
      <trkpt lat="41.61963" lon="1.83862">
        <ele>204.95548872684</ele>
        <time>2019-01-12T15:39:15.012Z</time>
      </trkpt>
      <trkpt lat="41.61958" lon="1.83873">
        <ele>204.5539772178</ele>
        <time>2019-01-12T15:39:18.999Z</time>
      </trkpt>
      <trkpt lat="41.61951" lon="1.83881">
        <ele>204.05055292666</ele>
        <time>2019-01-12T15:39:23.998Z</time>
      </trkpt>
      <trkpt lat="41.61942" lon="1.8389">
        <ele>203.55019904</ele>
        <time>2019-01-12T15:39:28.998Z</time>
      </trkpt>
      <trkpt lat="41.61932" lon="1.83898">
        <ele>203.1500992</ele>
        <time>2019-01-12T15:39:32.999Z</time>
      </trkpt>
      <trkpt lat="41.61926" lon="1.83907">
        <ele>202.25328541414</ele>
        <time>2019-01-12T15:39:36.999Z</time>
      </trkpt>
      <trkpt lat="41.61918" lon="1.83913">
        <ele>201.05836614073</ele>
        <time>2019-01-12T15:39:40.998Z</time>
      </trkpt>
      <trkpt lat="41.61907" lon="1.8391">
        <ele>199.8581357213</ele>
        <time>2019-01-12T15:39:45.011Z</time>
      </trkpt>
      <trkpt lat="41.61896" lon="1.83905">
        <ele>198.65331489583</ele>
        <time>2019-01-12T15:39:49.011Z</time>
      </trkpt>
      <trkpt lat="41.61885" lon="1.83898">
        <ele>197.45150515856</ele>
        <time>2019-01-12T15:39:53.001Z</time>
      </trkpt>
      <trkpt lat="41.61879" lon="1.83887">
        <ele>196.75728108285</ele>
        <time>2019-01-12T15:39:57.000Z</time>
      </trkpt>
      <trkpt lat="41.61871" lon="1.83881">
        <ele>196.27184449128</ele>
        <time>2019-01-12T15:40:02.000Z</time>
      </trkpt>
      <trkpt lat="41.61861" lon="1.83886">
        <ele>195.55259391981</ele>
        <time>2019-01-12T15:40:06.999Z</time>
      </trkpt>
      <trkpt lat="41.61856" lon="1.83898">
        <ele>194.73916525276</ele>
        <time>2019-01-12T15:40:10.997Z</time>
      </trkpt>
      <trkpt lat="41.61854" lon="1.83911">
        <ele>194</ele>
        <time>2019-01-12T15:40:15.999Z</time>
      </trkpt>
      <trkpt lat="41.6185" lon="1.83923">
        <ele>194</ele>
        <time>2019-01-12T15:40:20.997Z</time>
      </trkpt>
      <trkpt lat="41.61841" lon="1.83928">
        <ele>194</ele>
        <time>2019-01-12T15:40:25.012Z</time>
      </trkpt>
      <trkpt lat="41.61832" lon="1.83937">
        <ele>194</ele>
        <time>2019-01-12T15:40:30.014Z</time>
      </trkpt>
      <trkpt lat="41.61823" lon="1.83947">
        <ele>194</ele>
        <time>2019-01-12T15:40:35.014Z</time>
      </trkpt>
      <trkpt lat="41.61818" lon="1.83957">
        <ele>194</ele>
        <time>2019-01-12T15:40:38.999Z</time>
      </trkpt>
      <trkpt lat="41.61813" lon="1.83968">
        <ele>194</ele>
        <time>2019-01-12T15:40:41.998Z</time>
      </trkpt>
      <trkpt lat="41.61806" lon="1.83977">
        <ele>193.95538689398</ele>
        <time>2019-01-12T15:40:45.013Z</time>
      </trkpt>
      <trkpt lat="41.61798" lon="1.83988">
        <ele>193.45226552339</ele>
        <time>2019-01-12T15:40:50.009Z</time>
      </trkpt>
      <trkpt lat="41.61792" lon="1.83996">
        <ele>193.05055292666</ele>
        <time>2019-01-12T15:40:53.998Z</time>
      </trkpt>
      <trkpt lat="41.61785" lon="1.84004">
        <ele>193.44855499149</ele>
        <time>2019-01-12T15:40:58.999Z</time>
      </trkpt>
      <trkpt lat="41.61777" lon="1.84015">
        <ele>193.94705931898</ele>
        <time>2019-01-12T15:41:03.999Z</time>
      </trkpt>
      <trkpt lat="41.61772" lon="1.84025">
        <ele>194.34794442462</ele>
        <time>2019-01-12T15:41:07.999Z</time>
      </trkpt>
      <trkpt lat="41.6177" lon="1.84038">
        <ele>194.84944909912</ele>
        <time>2019-01-12T15:41:12.999Z</time>
      </trkpt>
      <trkpt lat="41.61765" lon="1.84052">
        <ele>195.69355890405</ele>
        <time>2019-01-12T15:41:17.999Z</time>
      </trkpt>
      <trkpt lat="41.61759" lon="1.84063">
        <ele>197</ele>
        <time>2019-01-12T15:41:25.012Z</time>
      </trkpt>
      <trkpt lat="41.61753" lon="1.84072">
        <ele>197</ele>
        <time>2019-01-12T15:41:30.997Z</time>
      </trkpt>
      <trkpt lat="41.61749" lon="1.84085">
        <ele>197.90040064</ele>
        <time>2019-01-12T15:41:39.002Z</time>
      </trkpt>
      <trkpt lat="41.61744" lon="1.84095">
        <ele>199</ele>
        <time>2019-01-12T15:41:45.014Z</time>
      </trkpt>
      <trkpt lat="41.61737" lon="1.84105">
        <ele>199</ele>
        <time>2019-01-12T15:41:50.999Z</time>
      </trkpt>
      <trkpt lat="41.61729" lon="1.84113">
        <ele>198.8500992</ele>
        <time>2019-01-12T15:41:55.999Z</time>
      </trkpt>
      <trkpt lat="41.61722" lon="1.84121">
        <ele>198</ele>
        <time>2019-01-12T15:42:06.999Z</time>
      </trkpt>
      <trkpt lat="41.61717" lon="1.84134">
        <ele>198</ele>
        <time>2019-01-12T15:42:11.002Z</time>
      </trkpt>
      <trkpt lat="41.61713" lon="1.84148">
        <ele>197.74999936</ele>
        <time>2019-01-12T15:42:17.000Z</time>
      </trkpt>
      <trkpt lat="41.61711" lon="1.84161">
        <ele>197.2500992</ele>
        <time>2019-01-12T15:42:21.999Z</time>
      </trkpt>
      <trkpt lat="41.61708" lon="1.84175">
        <ele>197</ele>
        <time>2019-01-12T15:42:27.001Z</time>
      </trkpt>
      <trkpt lat="41.61703" lon="1.84186">
        <ele>197</ele>
        <time>2019-01-12T15:42:31.002Z</time>
      </trkpt>
      <trkpt lat="41.61696" lon="1.84196">
        <ele>197</ele>
        <time>2019-01-12T15:42:35.014Z</time>
      </trkpt>
      <trkpt lat="41.61689" lon="1.84208">
        <ele>197</ele>
        <time>2019-01-12T15:42:39.001Z</time>
      </trkpt>
      <trkpt lat="41.61686" lon="1.84221">
        <ele>197</ele>
        <time>2019-01-12T15:42:43.997Z</time>
      </trkpt>
      <trkpt lat="41.61686" lon="1.84235">
        <ele>197</ele>
        <time>2019-01-12T15:42:47.999Z</time>
      </trkpt>
      <trkpt lat="41.61685" lon="1.84248">
        <ele>197</ele>
        <time>2019-01-12T15:42:51.999Z</time>
      </trkpt>
      <trkpt lat="41.61685" lon="1.84262">
        <ele>196.51995933046</ele>
        <time>2019-01-12T15:42:56.999Z</time>
      </trkpt>
      <trkpt lat="41.61685" lon="1.84275">
        <ele>195.30435498701</ele>
        <time>2019-01-12T15:43:02.998Z</time>
      </trkpt>
      <trkpt lat="41.61682" lon="1.84287">
        <ele>195</ele>
        <time>2019-01-12T15:43:07.999Z</time>
      </trkpt>
      <trkpt lat="41.61681" lon="1.84299">
        <ele>195</ele>
        <time>2019-01-12T15:43:13.999Z</time>
      </trkpt>
      <trkpt lat="41.61678" lon="1.84311">
        <ele>193.75938030491</ele>
        <time>2019-01-12T15:43:18.999Z</time>
      </trkpt>
      <trkpt lat="41.61674" lon="1.84322">
        <ele>192.48038105271</ele>
        <time>2019-01-12T15:43:22.998Z</time>
      </trkpt>
      <trkpt lat="41.61669" lon="1.84332">
        <ele>191.2502976</ele>
        <time>2019-01-12T15:43:26.999Z</time>
      </trkpt>
      <trkpt lat="41.61662" lon="1.84341">
        <ele>189.7502976</ele>
        <time>2019-01-12T15:43:31.999Z</time>
      </trkpt>
      <trkpt lat="41.61652" lon="1.84346">
        <ele>188.7500992</ele>
        <time>2019-01-12T15:43:36.999Z</time>
      </trkpt>
      <trkpt lat="41.61641" lon="1.84351">
        <ele>188.2500992</ele>
        <time>2019-01-12T15:43:41.999Z</time>
      </trkpt>
      <trkpt lat="41.61634" lon="1.8436">
        <ele>187.5502976</ele>
        <time>2019-01-12T15:43:45.999Z</time>
      </trkpt>
      <trkpt lat="41.61633" lon="1.84373">
        <ele>186.04969856</ele>
        <time>2019-01-12T15:43:51.001Z</time>
      </trkpt>
      <trkpt lat="41.61638" lon="1.84386">
        <ele>184.25986003322</ele>
        <time>2019-01-12T15:43:56.001Z</time>
      </trkpt>
      <trkpt lat="41.61642" lon="1.84398">
        <ele>182.28352991967</ele>
        <time>2019-01-12T15:44:00.009Z</time>
      </trkpt>
      <trkpt lat="41.61645" lon="1.84411">
        <ele>180.31558165486</ele>
        <time>2019-01-12T15:44:04.000Z</time>
      </trkpt>
      <trkpt lat="41.61646" lon="1.84424">
        <ele>179.31825546012</ele>
        <time>2019-01-12T15:44:08.001Z</time>
      </trkpt>
      <trkpt lat="41.61645" lon="1.84437">
        <ele>178.50689590711</ele>
        <time>2019-01-12T15:44:12.001Z</time>
      </trkpt>
      <trkpt lat="41.61637" lon="1.84447">
        <ele>177.0003968</ele>
        <time>2019-01-12T15:44:16.999Z</time>
      </trkpt>
      <trkpt lat="41.61627" lon="1.84443">
        <ele>174.59999744</ele>
        <time>2019-01-12T15:44:23.000Z</time>
      </trkpt>
      <trkpt lat="41.61621" lon="1.84432">
        <ele>173.30624319723</ele>
        <time>2019-01-12T15:44:28.000Z</time>
      </trkpt>
      <trkpt lat="41.61614" lon="1.8442">
        <ele>172</ele>
        <time>2019-01-12T15:44:35.010Z</time>
      </trkpt>
      <trkpt lat="41.61608" lon="1.84407">
        <ele>172</ele>
        <time>2019-01-12T15:44:39.000Z</time>
      </trkpt>
      <trkpt lat="41.61602" lon="1.84394">
        <ele>172</ele>
        <time>2019-01-12T15:44:44.000Z</time>
      </trkpt>
      <trkpt lat="41.61595" lon="1.84385">
        <ele>171.3001984</ele>
        <time>2019-01-12T15:44:47.999Z</time>
      </trkpt>
      <trkpt lat="41.61588" lon="1.84377">
        <ele>170.3001984</ele>
        <time>2019-01-12T15:44:52.999Z</time>
      </trkpt>
      <trkpt lat="41.61583" lon="1.84365">
        <ele>170</ele>
        <time>2019-01-12T15:44:58.000Z</time>
      </trkpt>
      <trkpt lat="41.61576" lon="1.84356">
        <ele>170</ele>
        <time>2019-01-12T15:45:03.000Z</time>
      </trkpt>
      <trkpt lat="41.6157" lon="1.84346">
        <ele>170.34565381679</ele>
        <time>2019-01-12T15:45:08.000Z</time>
      </trkpt>
      <trkpt lat="41.61567" lon="1.84335">
        <ele>170.74525434414</ele>
        <time>2019-01-12T15:45:12.000Z</time>
      </trkpt>
      <trkpt lat="41.61563" lon="1.84323">
        <ele>171</ele>
        <time>2019-01-12T15:45:16.000Z</time>
      </trkpt>
      <trkpt lat="41.6156" lon="1.84311">
        <ele>171</ele>
        <time>2019-01-12T15:45:20.010Z</time>
      </trkpt>
      <trkpt lat="41.6156" lon="1.84299">
        <ele>171</ele>
        <time>2019-01-12T15:45:24.002Z</time>
      </trkpt>
      <trkpt lat="41.61558" lon="1.84285">
        <ele>171</ele>
        <time>2019-01-12T15:45:29.000Z</time>
      </trkpt>
      <trkpt lat="41.61555" lon="1.84273">
        <ele>171</ele>
        <time>2019-01-12T15:45:33.000Z</time>
      </trkpt>
      <trkpt lat="41.61549" lon="1.84263">
        <ele>171</ele>
        <time>2019-01-12T15:45:37.000Z</time>
      </trkpt>
      <trkpt lat="41.61543" lon="1.84252">
        <ele>171</ele>
        <time>2019-01-12T15:45:42.000Z</time>
      </trkpt>
      <trkpt lat="41.61537" lon="1.8424">
        <ele>171.14563159883</ele>
        <time>2019-01-12T15:45:46.000Z</time>
      </trkpt>
      <trkpt lat="41.6153" lon="1.84232">
        <ele>171.53485450261</ele>
        <time>2019-01-12T15:45:50.009Z</time>
      </trkpt>
      <trkpt lat="41.61524" lon="1.84222">
        <ele>171.92233014535</ele>
        <time>2019-01-12T15:45:54.000Z</time>
      </trkpt>
      <trkpt lat="41.61518" lon="1.8421">
        <ele>171.34020575024</ele>
        <time>2019-01-12T15:45:58.000Z</time>
      </trkpt>
      <trkpt lat="41.61512" lon="1.84198">
        <ele>170.30927723499</ele>
        <time>2019-01-12T15:46:03.000Z</time>
      </trkpt>
      <trkpt lat="41.61505" lon="1.84186">
        <ele>170</ele>
        <time>2019-01-12T15:46:07.999Z</time>
      </trkpt>
      <trkpt lat="41.61498" lon="1.84179">
        <ele>170</ele>
        <time>2019-01-12T15:46:11.999Z</time>
      </trkpt>
      <trkpt lat="41.61488" lon="1.84182">
        <ele>169.75728108285</ele>
        <time>2019-01-12T15:46:17.000Z</time>
      </trkpt>
      <trkpt lat="41.61478" lon="1.84193">
        <ele>169.2707769968</ele>
        <time>2019-01-12T15:46:22.011Z</time>
      </trkpt>
      <trkpt lat="41.61472" lon="1.84202">
        <ele>169.07660236017</ele>
        <time>2019-01-12T15:46:24.011Z</time>
      </trkpt>
      <trkpt lat="41.61462" lon="1.84213">
        <ele>169</ele>
        <time>2019-01-12T15:46:27.011Z</time>
      </trkpt>
      <trkpt lat="41.61459" lon="1.84224">
        <ele>169</ele>
        <time>2019-01-12T15:46:30.010Z</time>
      </trkpt>
      <trkpt lat="41.61459" lon="1.84238">
        <ele>168.9492992</ele>
        <time>2019-01-12T15:46:35.007Z</time>
      </trkpt>
      <trkpt lat="41.6146" lon="1.84251">
        <ele>168.54999936</ele>
        <time>2019-01-12T15:46:39.000Z</time>
      </trkpt>
      <trkpt lat="41.6146" lon="1.84265">
        <ele>168.25029888</ele>
        <time>2019-01-12T15:46:41.997Z</time>
      </trkpt>
      <trkpt lat="41.6146" lon="1.84277">
        <ele>167.84999936</ele>
        <time>2019-01-12T15:46:46.000Z</time>
      </trkpt>
      <trkpt lat="41.61461" lon="1.84291">
        <ele>167.44909952</ele>
        <time>2019-01-12T15:46:50.009Z</time>
      </trkpt>
      <trkpt lat="41.61465" lon="1.84303">
        <ele>167.04979968</ele>
        <time>2019-01-12T15:46:54.002Z</time>
      </trkpt>
      <trkpt lat="41.6147" lon="1.84316">
        <ele>167</ele>
        <time>2019-01-12T15:46:58.000Z</time>
      </trkpt>
      <trkpt lat="41.61475" lon="1.84327">
        <ele>167</ele>
        <time>2019-01-12T15:47:01.999Z</time>
      </trkpt>
      <trkpt lat="41.61478" lon="1.84339">
        <ele>167.14519936</ele>
        <time>2019-01-12T15:47:06.002Z</time>
      </trkpt>
      <trkpt lat="41.6147" lon="1.84346">
        <ele>167.74489984</ele>
        <time>2019-01-12T15:47:11.999Z</time>
      </trkpt>
      <trkpt lat="41.61462" lon="1.84356">
        <ele>167.56527109957</ele>
        <time>2019-01-12T15:47:16.002Z</time>
      </trkpt>
      <trkpt lat="41.61454" lon="1.84368">
        <ele>166.36556925545</ele>
        <time>2019-01-12T15:47:20.009Z</time>
      </trkpt>
      <trkpt lat="41.61449" lon="1.8438">
        <ele>165.47005922239</ele>
        <time>2019-01-12T15:47:23.000Z</time>
      </trkpt>
      <trkpt lat="41.61442" lon="1.84392">
        <ele>164.02742581704</ele>
        <time>2019-01-12T15:47:26.999Z</time>
      </trkpt>
      <trkpt lat="41.61432" lon="1.84397">
        <ele>162.02462493706</ele>
        <time>2019-01-12T15:47:32.001Z</time>
      </trkpt>
      <trkpt lat="41.61423" lon="1.84394">
        <ele>161</ele>
        <time>2019-01-12T15:47:35.999Z</time>
      </trkpt>
      <trkpt lat="41.61412" lon="1.8439">
        <ele>161</ele>
        <time>2019-01-12T15:47:41.000Z</time>
      </trkpt>
      <trkpt lat="41.61402" lon="1.84385">
        <ele>160.94899968</ele>
        <time>2019-01-12T15:47:45.010Z</time>
      </trkpt>
      <trkpt lat="41.61391" lon="1.84382">
        <ele>160.54999936</ele>
        <time>2019-01-12T15:47:49.000Z</time>
      </trkpt>
      <trkpt lat="41.6138" lon="1.84375">
        <ele>160.14889984</ele>
        <time>2019-01-12T15:47:53.011Z</time>
      </trkpt>
      <trkpt lat="41.6137" lon="1.84369">
        <ele>160.24935459802</ele>
        <time>2019-01-12T15:47:57.011Z</time>
      </trkpt>
      <trkpt lat="41.61361" lon="1.84364">
        <ele>160.54726910117</ele>
        <time>2019-01-12T15:48:00.011Z</time>
      </trkpt>
      <trkpt lat="41.61352" lon="1.84356">
        <ele>160.94339656218</ele>
        <time>2019-01-12T15:48:04.000Z</time>
      </trkpt>
      <trkpt lat="41.61342" lon="1.84351">
        <ele>161</ele>
        <time>2019-01-12T15:48:08.011Z</time>
      </trkpt>
      <trkpt lat="41.61331" lon="1.84345">
        <ele>161</ele>
        <time>2019-01-12T15:48:12.011Z</time>
      </trkpt>
      <trkpt lat="41.6132" lon="1.84343">
        <ele>161</ele>
        <time>2019-01-12T15:48:17.011Z</time>
      </trkpt>
      <trkpt lat="41.6131" lon="1.84338">
        <ele>161</ele>
        <time>2019-01-12T15:48:21.011Z</time>
      </trkpt>
      <trkpt lat="41.61299" lon="1.84336">
        <ele>161</ele>
        <time>2019-01-12T15:48:27.011Z</time>
      </trkpt>
      <trkpt lat="41.61288" lon="1.8433">
        <ele>161</ele>
        <time>2019-01-12T15:48:31.011Z</time>
      </trkpt>
      <trkpt lat="41.61279" lon="1.84323">
        <ele>161</ele>
        <time>2019-01-12T15:48:34.011Z</time>
      </trkpt>
      <trkpt lat="41.61275" lon="1.8431">
        <ele>160.64889984</ele>
        <time>2019-01-12T15:48:38.011Z</time>
      </trkpt>
      <trkpt lat="41.61271" lon="1.84299">
        <ele>160.25019904</ele>
        <time>2019-01-12T15:48:41.998Z</time>
      </trkpt>
      <trkpt lat="41.6126" lon="1.84297">
        <ele>159.74999936</ele>
        <time>2019-01-12T15:48:47.000Z</time>
      </trkpt>
      <trkpt lat="41.61253" lon="1.84307">
        <ele>159.4500992</ele>
        <time>2019-01-12T15:48:49.999Z</time>
      </trkpt>
      <trkpt lat="41.61246" lon="1.84315">
        <ele>159.14899968</ele>
        <time>2019-01-12T15:48:53.010Z</time>
      </trkpt>
      <trkpt lat="41.6124" lon="1.84324">
        <ele>158.7500992</ele>
        <time>2019-01-12T15:48:56.999Z</time>
      </trkpt>
      <trkpt lat="41.61232" lon="1.84334">
        <ele>158.44979968</ele>
        <time>2019-01-12T15:49:00.002Z</time>
      </trkpt>
      <trkpt lat="41.61224" lon="1.8434">
        <ele>158.05019904</ele>
        <time>2019-01-12T15:49:03.998Z</time>
      </trkpt>
      <trkpt lat="41.61215" lon="1.84339">
        <ele>158</ele>
        <time>2019-01-12T15:49:08.010Z</time>
      </trkpt>
      <trkpt lat="41.61205" lon="1.84342">
        <ele>158</ele>
        <time>2019-01-12T15:49:12.011Z</time>
      </trkpt>
      <trkpt lat="41.61194" lon="1.84344">
        <ele>158.93244996712</ele>
        <time>2019-01-12T15:49:24.011Z</time>
      </trkpt>
      <trkpt lat="41.61186" lon="1.84348">
        <ele>159</ele>
        <time>2019-01-12T15:49:29.011Z</time>
      </trkpt>
      <trkpt lat="41.61179" lon="1.84357">
        <ele>158.98026842975</ele>
        <time>2019-01-12T15:49:35.011Z</time>
      </trkpt>
      <trkpt lat="41.6117" lon="1.84358">
        <ele>158.25712793388</ele>
        <time>2019-01-12T15:49:42.011Z</time>
      </trkpt>
      <trkpt lat="41.6116" lon="1.84363">
        <ele>157.45327365079</ele>
        <time>2019-01-12T15:49:50.011Z</time>
      </trkpt>
      <trkpt lat="41.61154" lon="1.84374">
        <ele>156.8563253252</ele>
        <time>2019-01-12T15:49:56.011Z</time>
      </trkpt>
      <trkpt lat="41.61146" lon="1.84383">
        <ele>156.25391646083</ele>
        <time>2019-01-12T15:50:02.011Z</time>
      </trkpt>
      <trkpt lat="41.61134" lon="1.84386">
        <ele>156</ele>
        <time>2019-01-12T15:50:06.011Z</time>
      </trkpt>
      <trkpt lat="41.61127" lon="1.84396">
        <ele>156</ele>
        <time>2019-01-12T15:50:11.011Z</time>
      </trkpt>
      <trkpt lat="41.61117" lon="1.844">
        <ele>155.94889984</ele>
        <time>2019-01-12T15:50:15.011Z</time>
      </trkpt>
      <trkpt lat="41.61108" lon="1.84405">
        <ele>155.54889984</ele>
        <time>2019-01-12T15:50:19.011Z</time>
      </trkpt>
      <trkpt lat="41.611" lon="1.84413">
        <ele>155.04889984</ele>
        <time>2019-01-12T15:50:24.011Z</time>
      </trkpt>
      <trkpt lat="41.6109" lon="1.8442">
        <ele>155</ele>
        <time>2019-01-12T15:50:30.011Z</time>
      </trkpt>
      <trkpt lat="41.61081" lon="1.84426">
        <ele>155</ele>
        <time>2019-01-12T15:50:34.011Z</time>
      </trkpt>
      <trkpt lat="41.61073" lon="1.84433">
        <ele>154.74940119799</ele>
        <time>2019-01-12T15:50:37.011Z</time>
      </trkpt>
      <trkpt lat="41.61064" lon="1.8443">
        <ele>154.2503995207</ele>
        <time>2019-01-12T15:50:42.011Z</time>
      </trkpt>
      <trkpt lat="41.61058" lon="1.84421">
        <ele>154.499197755</ele>
        <time>2019-01-12T15:50:47.011Z</time>
      </trkpt>
      <trkpt lat="41.61053" lon="1.8441">
        <ele>155.7016033357</ele>
        <time>2019-01-12T15:50:53.011Z</time>
      </trkpt>
      <trkpt lat="41.61051" lon="1.84395">
        <ele>156.50220032</ele>
        <time>2019-01-12T15:50:57.011Z</time>
      </trkpt>
      <trkpt lat="41.61041" lon="1.84391">
        <ele>157.50220032</ele>
        <time>2019-01-12T15:51:02.011Z</time>
      </trkpt>
      <trkpt lat="41.61032" lon="1.84381">
        <ele>158.35004989829</ele>
        <time>2019-01-12T15:51:08.011Z</time>
      </trkpt>
      <trkpt lat="41.61023" lon="1.84376">
        <ele>158.64915249479</ele>
        <time>2019-01-12T15:51:11.011Z</time>
      </trkpt>
      <trkpt lat="41.61015" lon="1.84365">
        <ele>158.95175541079</ele>
        <time>2019-01-12T15:51:15.011Z</time>
      </trkpt>
      <trkpt lat="41.6101" lon="1.84351">
        <ele>158.55055167119</ele>
        <time>2019-01-12T15:51:19.011Z</time>
      </trkpt>
      <trkpt lat="41.61003" lon="1.84342">
        <ele>158.14934793159</ele>
        <time>2019-01-12T15:51:23.011Z</time>
      </trkpt>
      <trkpt lat="41.60999" lon="1.8433">
        <ele>157.29920172506</ele>
        <time>2019-01-12T15:51:28.011Z</time>
      </trkpt>
      <trkpt lat="41.60998" lon="1.84316">
        <ele>156.70039971232</ele>
        <time>2019-01-12T15:51:31.011Z</time>
      </trkpt>
      <trkpt lat="41.60997" lon="1.84303">
        <ele>155.90219219124</ele>
        <time>2019-01-12T15:51:35.011Z</time>
      </trkpt>
      <trkpt lat="41.60989" lon="1.84288">
        <ele>154.70697306773</ele>
        <time>2019-01-12T15:51:41.011Z</time>
      </trkpt>
      <trkpt lat="41.6098" lon="1.84283">
        <ele>154.30856669323</ele>
        <time>2019-01-12T15:51:43.011Z</time>
      </trkpt>
      <trkpt lat="41.60977" lon="1.84271">
        <ele>154</ele>
        <time>2019-01-12T15:51:48.999Z</time>
      </trkpt>
      <trkpt lat="41.60978" lon="1.84259">
        <ele>153.89979904</ele>
        <time>2019-01-12T15:51:55.001Z</time>
      </trkpt>
      <trkpt lat="41.60977" lon="1.84246">
        <ele>152.69799936</ele>
        <time>2019-01-12T15:52:01.010Z</time>
      </trkpt>
      <trkpt lat="41.60971" lon="1.84234">
        <ele>152.2499008</ele>
        <time>2019-01-12T15:52:06.999Z</time>
      </trkpt>
      <trkpt lat="41.60964" lon="1.84226">
        <ele>152.8499008</ele>
        <time>2019-01-12T15:52:12.999Z</time>
      </trkpt>
      <trkpt lat="41.60961" lon="1.84213">
        <ele>153.7499008</ele>
        <time>2019-01-12T15:52:21.999Z</time>
      </trkpt>
      <trkpt lat="41.60961" lon="1.842">
        <ele>154.54825585699</ele>
        <time>2019-01-12T15:52:29.999Z</time>
      </trkpt>
      <trkpt lat="41.6096" lon="1.84188">
        <ele>155.48101313153</ele>
        <time>2019-01-12T15:52:37.000Z</time>
      </trkpt>
      <trkpt lat="41.6096" lon="1.84174">
        <ele>156.84401204471</ele>
        <time>2019-01-12T15:52:43.999Z</time>
      </trkpt>
      <trkpt lat="41.60959" lon="1.84161">
        <ele>158.28061841195</ele>
        <time>2019-01-12T15:52:51.011Z</time>
      </trkpt>
      <trkpt lat="41.60961" lon="1.84149">
        <ele>159</ele>
        <time>2019-01-12T15:52:56.014Z</time>
      </trkpt>
      <trkpt lat="41.60963" lon="1.84137">
        <ele>159</ele>
        <time>2019-01-12T15:53:02.001Z</time>
      </trkpt>
      <trkpt lat="41.60967" lon="1.84126">
        <ele>159.69250480946</ele>
        <time>2019-01-12T15:53:08.011Z</time>
      </trkpt>
      <trkpt lat="41.60972" lon="1.84115">
        <ele>161</ele>
        <time>2019-01-12T15:53:15.001Z</time>
      </trkpt>
      <trkpt lat="41.60978" lon="1.84105">
        <ele>161</ele>
        <time>2019-01-12T15:53:22.000Z</time>
      </trkpt>
      <trkpt lat="41.60984" lon="1.84095">
        <ele>161.89617828325</ele>
        <time>2019-01-12T15:53:29.014Z</time>
      </trkpt>
      <trkpt lat="41.60993" lon="1.8409">
        <ele>163.70000128</ele>
        <time>2019-01-12T15:53:38.000Z</time>
      </trkpt>
      <trkpt lat="41.60997" lon="1.84079">
        <ele>165.2499008</ele>
        <time>2019-01-12T15:53:46.999Z</time>
      </trkpt>
      <trkpt lat="41.61002" lon="1.84068">
        <ele>166.19821562718</ele>
        <time>2019-01-12T15:53:54.999Z</time>
      </trkpt>
      <trkpt lat="41.61003" lon="1.84055">
        <ele>169.37676349497</ele>
        <time>2019-01-12T15:54:03.001Z</time>
      </trkpt>
      <trkpt lat="41.61001" lon="1.84042">
        <ele>170</ele>
        <time>2019-01-12T15:54:14.009Z</time>
      </trkpt>
      <trkpt lat="41.60996" lon="1.84042">
        <ele>171</ele>
        <time>2019-01-12T15:55:22.000Z</time>
      </trkpt>
    </trkseg>
  </trk>
</gpx>